<?xml version="1.0" encoding="UTF-8"?>
<gpx version="1.1" creator="https://www.youtrack.es" xsi:schemaLocation="http://www.topografix.com/GPX/1/1 http://www.topografix.com/GPX/1/1/gpx.xsd http://www.garmin.com/xmlschemas/GpxExtensions/v3 http://www.garmin.com/xmlschemas/GpxExtensionsv3.xsd http://www.garmin.com/xmlschemas/TrackPointExtension/v1 http://www.garmin.com/xmlschemas/TrackPointExtensionv1.xsd" xmlns:gpxtpx="http://www.garmin.com/xmlschemas/TrackPointExtension/v1" xmlns:gpxx="http://www.garmin.com/xmlschemas/GpxExtensions/v3" xmlns:xsi="http://www.w3.org/2001/XMLSchema-instance">
  <metadata>
    <author>
      <name>Armando Abrego</name>
      <email id="abrego373737" domain="gmail.com"/>
    </author>
    <link href="https://www.youtrack.es">
      <text>YouTrack.es</text>
    </link>
    <time>2026-05-08T10:23:26Z</time>
  </metadata>
  <trk>
    <src>https://www.youtrack.es</src>
    <link href="https://www.youtrack.es/ruta/19085-crater-popocatepetl">
      <text>YouTrack.es</text>
    </link>
    <trkseg>
      <trkpt lat="19.09075" lon="-98.602901">
        <ele>3336.413</ele>
        <time>2021-01-23T05:47:46Z</time>
      </trkpt>
      <trkpt lat="19.090782" lon="-98.60294">
        <ele>3331.443</ele>
        <time>2021-01-23T05:49:09Z</time>
      </trkpt>
      <trkpt lat="19.090795" lon="-98.602987">
        <ele>3331.007</ele>
        <time>2021-01-23T05:49:34Z</time>
      </trkpt>
      <trkpt lat="19.090772" lon="-98.603029">
        <ele>3332.008</ele>
        <time>2021-01-23T05:50:28Z</time>
      </trkpt>
      <trkpt lat="19.090736" lon="-98.603062">
        <ele>3333.867</ele>
        <time>2021-01-23T05:50:36Z</time>
      </trkpt>
      <trkpt lat="19.090718" lon="-98.603121">
        <ele>3334.545</ele>
        <time>2021-01-23T05:50:51Z</time>
      </trkpt>
      <trkpt lat="19.090707" lon="-98.603183">
        <ele>3334.526</ele>
        <time>2021-01-23T05:50:54Z</time>
      </trkpt>
      <trkpt lat="19.090703" lon="-98.603238">
        <ele>3334.558</ele>
        <time>2021-01-23T05:50:58Z</time>
      </trkpt>
      <trkpt lat="19.090713" lon="-98.603285">
        <ele>3332.520</ele>
        <time>2021-01-23T05:51:03Z</time>
      </trkpt>
      <trkpt lat="19.090704" lon="-98.603335">
        <ele>3329.763</ele>
        <time>2021-01-23T05:51:16Z</time>
      </trkpt>
      <trkpt lat="19.090673" lon="-98.603375">
        <ele>3328.059</ele>
        <time>2021-01-23T05:51:23Z</time>
      </trkpt>
      <trkpt lat="19.090632" lon="-98.603408">
        <ele>3327.416</ele>
        <time>2021-01-23T05:51:28Z</time>
      </trkpt>
      <trkpt lat="19.090585" lon="-98.603447">
        <ele>3327.469</ele>
        <time>2021-01-23T05:51:32Z</time>
      </trkpt>
      <trkpt lat="19.090542" lon="-98.603488">
        <ele>3328.204</ele>
        <time>2021-01-23T05:51:36Z</time>
      </trkpt>
      <trkpt lat="19.09051" lon="-98.603523">
        <ele>3329.524</ele>
        <time>2021-01-23T05:51:39Z</time>
      </trkpt>
      <trkpt lat="19.090471" lon="-98.603558">
        <ele>3331.908</ele>
        <time>2021-01-23T05:51:44Z</time>
      </trkpt>
      <trkpt lat="19.090428" lon="-98.603575">
        <ele>3334.152</ele>
        <time>2021-01-23T05:51:49Z</time>
      </trkpt>
      <trkpt lat="19.090379" lon="-98.603573">
        <ele>3333.820</ele>
        <time>2021-01-23T05:51:56Z</time>
      </trkpt>
      <trkpt lat="19.090333" lon="-98.603551">
        <ele>3333.681</ele>
        <time>2021-01-23T05:52:02Z</time>
      </trkpt>
      <trkpt lat="19.090305" lon="-98.603593">
        <ele>3334.373</ele>
        <time>2021-01-23T05:52:21Z</time>
      </trkpt>
      <trkpt lat="19.090264" lon="-98.60364">
        <ele>3335.535</ele>
        <time>2021-01-23T05:52:25Z</time>
      </trkpt>
      <trkpt lat="19.090226" lon="-98.603685">
        <ele>3335.868</ele>
        <time>2021-01-23T05:52:29Z</time>
      </trkpt>
      <trkpt lat="19.090208" lon="-98.603738">
        <ele>3335.294</ele>
        <time>2021-01-23T05:52:33Z</time>
      </trkpt>
      <trkpt lat="19.090168" lon="-98.603775">
        <ele>3334.451</ele>
        <time>2021-01-23T05:52:37Z</time>
      </trkpt>
      <trkpt lat="19.090127" lon="-98.603796">
        <ele>3333.943</ele>
        <time>2021-01-23T05:52:41Z</time>
      </trkpt>
      <trkpt lat="19.090074" lon="-98.60382">
        <ele>3333.264</ele>
        <time>2021-01-23T05:52:46Z</time>
      </trkpt>
      <trkpt lat="19.090021" lon="-98.603841">
        <ele>3332.410</ele>
        <time>2021-01-23T05:52:50Z</time>
      </trkpt>
      <trkpt lat="19.089979" lon="-98.603866">
        <ele>3331.508</ele>
        <time>2021-01-23T05:52:55Z</time>
      </trkpt>
      <trkpt lat="19.08996" lon="-98.603914">
        <ele>3330.250</ele>
        <time>2021-01-23T05:53:12Z</time>
      </trkpt>
      <trkpt lat="19.089969" lon="-98.603964">
        <ele>3329.428</ele>
        <time>2021-01-23T05:53:22Z</time>
      </trkpt>
      <trkpt lat="19.089922" lon="-98.603989">
        <ele>3328.959</ele>
        <time>2021-01-23T05:53:29Z</time>
      </trkpt>
      <trkpt lat="19.089877" lon="-98.604023">
        <ele>3330.271</ele>
        <time>2021-01-23T05:53:33Z</time>
      </trkpt>
      <trkpt lat="19.089844" lon="-98.604064">
        <ele>3331.493</ele>
        <time>2021-01-23T05:53:36Z</time>
      </trkpt>
      <trkpt lat="19.089811" lon="-98.604109">
        <ele>3332.546</ele>
        <time>2021-01-23T05:53:39Z</time>
      </trkpt>
      <trkpt lat="19.089771" lon="-98.604144">
        <ele>3333.232</ele>
        <time>2021-01-23T05:53:42Z</time>
      </trkpt>
      <trkpt lat="19.089723" lon="-98.604164">
        <ele>3334.069</ele>
        <time>2021-01-23T05:53:45Z</time>
      </trkpt>
      <trkpt lat="19.089673" lon="-98.604187">
        <ele>3337.347</ele>
        <time>2021-01-23T05:53:49Z</time>
      </trkpt>
      <trkpt lat="19.089673" lon="-98.604187">
        <ele>3337.329</ele>
        <time>2021-01-23T05:53:49Z</time>
      </trkpt>
      <trkpt lat="19.089635" lon="-98.604223">
        <ele>3337.221</ele>
        <time>2021-01-23T05:53:53Z</time>
      </trkpt>
      <trkpt lat="19.089593" lon="-98.604253">
        <ele>3338.008</ele>
        <time>2021-01-23T05:53:57Z</time>
      </trkpt>
      <trkpt lat="19.089543" lon="-98.604284">
        <ele>3338.580</ele>
        <time>2021-01-23T05:54:01Z</time>
      </trkpt>
      <trkpt lat="19.089499" lon="-98.604313">
        <ele>3338.858</ele>
        <time>2021-01-23T05:54:05Z</time>
      </trkpt>
      <trkpt lat="19.089472" lon="-98.604358">
        <ele>3339.729</ele>
        <time>2021-01-23T05:54:09Z</time>
      </trkpt>
      <trkpt lat="19.089472" lon="-98.604358">
        <ele>3339.781</ele>
        <time>2021-01-23T05:54:09Z</time>
      </trkpt>
      <trkpt lat="19.089446" lon="-98.604414">
        <ele>3340.793</ele>
        <time>2021-01-23T05:54:13Z</time>
      </trkpt>
      <trkpt lat="19.089446" lon="-98.604414">
        <ele>3340.786</ele>
        <time>2021-01-23T05:54:13Z</time>
      </trkpt>
      <trkpt lat="19.089421" lon="-98.604462">
        <ele>3340.172</ele>
        <time>2021-01-23T05:54:17Z</time>
      </trkpt>
      <trkpt lat="19.089389" lon="-98.604509">
        <ele>3340.259</ele>
        <time>2021-01-23T05:54:22Z</time>
      </trkpt>
      <trkpt lat="19.089365" lon="-98.604552">
        <ele>3342.214</ele>
        <time>2021-01-23T05:54:29Z</time>
      </trkpt>
      <trkpt lat="19.089358" lon="-98.604604">
        <ele>3343.854</ele>
        <time>2021-01-23T05:54:34Z</time>
      </trkpt>
      <trkpt lat="19.089327" lon="-98.604646">
        <ele>3343.609</ele>
        <time>2021-01-23T05:54:38Z</time>
      </trkpt>
      <trkpt lat="19.089292" lon="-98.604691">
        <ele>3342.308</ele>
        <time>2021-01-23T05:54:43Z</time>
      </trkpt>
      <trkpt lat="19.089258" lon="-98.604733">
        <ele>3341.517</ele>
        <time>2021-01-23T05:54:49Z</time>
      </trkpt>
      <trkpt lat="19.08924" lon="-98.604781">
        <ele>3341.085</ele>
        <time>2021-01-23T05:54:54Z</time>
      </trkpt>
      <trkpt lat="19.089234" lon="-98.604831">
        <ele>3340.786</ele>
        <time>2021-01-23T05:54:58Z</time>
      </trkpt>
      <trkpt lat="19.089217" lon="-98.604882">
        <ele>3340.178</ele>
        <time>2021-01-23T05:55:03Z</time>
      </trkpt>
      <trkpt lat="19.089193" lon="-98.604928">
        <ele>3340.610</ele>
        <time>2021-01-23T05:55:07Z</time>
      </trkpt>
      <trkpt lat="19.08914" lon="-98.604946">
        <ele>3340.583</ele>
        <time>2021-01-23T05:55:12Z</time>
      </trkpt>
      <trkpt lat="19.089099" lon="-98.604924">
        <ele>3338.489</ele>
        <time>2021-01-23T05:55:16Z</time>
      </trkpt>
      <trkpt lat="19.089071" lon="-98.604885">
        <ele>3338.016</ele>
        <time>2021-01-23T05:55:20Z</time>
      </trkpt>
      <trkpt lat="19.089035" lon="-98.604852">
        <ele>3338.959</ele>
        <time>2021-01-23T05:55:30Z</time>
      </trkpt>
      <trkpt lat="19.088991" lon="-98.604827">
        <ele>3336.703</ele>
        <time>2021-01-23T05:55:36Z</time>
      </trkpt>
      <trkpt lat="19.088952" lon="-98.604796">
        <ele>3335.423</ele>
        <time>2021-01-23T05:55:39Z</time>
      </trkpt>
      <trkpt lat="19.088915" lon="-98.604759">
        <ele>3333.808</ele>
        <time>2021-01-23T05:55:42Z</time>
      </trkpt>
      <trkpt lat="19.088892" lon="-98.604702">
        <ele>3333.221</ele>
        <time>2021-01-23T05:55:46Z</time>
      </trkpt>
      <trkpt lat="19.088888" lon="-98.60464">
        <ele>3333.339</ele>
        <time>2021-01-23T05:55:50Z</time>
      </trkpt>
      <trkpt lat="19.088883" lon="-98.604581">
        <ele>3333.760</ele>
        <time>2021-01-23T05:55:54Z</time>
      </trkpt>
      <trkpt lat="19.088884" lon="-98.604527">
        <ele>3332.472</ele>
        <time>2021-01-23T05:56:00Z</time>
      </trkpt>
      <trkpt lat="19.088884" lon="-98.604477">
        <ele>3332.484</ele>
        <time>2021-01-23T05:56:06Z</time>
      </trkpt>
      <trkpt lat="19.088886" lon="-98.604425">
        <ele>3333.297</ele>
        <time>2021-01-23T05:56:10Z</time>
      </trkpt>
      <trkpt lat="19.088886" lon="-98.604366">
        <ele>3334.533</ele>
        <time>2021-01-23T05:56:14Z</time>
      </trkpt>
      <trkpt lat="19.088892" lon="-98.604306">
        <ele>3336.190</ele>
        <time>2021-01-23T05:56:18Z</time>
      </trkpt>
      <trkpt lat="19.088897" lon="-98.604247">
        <ele>3336.273</ele>
        <time>2021-01-23T05:56:22Z</time>
      </trkpt>
      <trkpt lat="19.088904" lon="-98.604189">
        <ele>3335.585</ele>
        <time>2021-01-23T05:56:26Z</time>
      </trkpt>
      <trkpt lat="19.088929" lon="-98.604139">
        <ele>3335.513</ele>
        <time>2021-01-23T05:56:31Z</time>
      </trkpt>
      <trkpt lat="19.088957" lon="-98.604094">
        <ele>3335.108</ele>
        <time>2021-01-23T05:56:36Z</time>
      </trkpt>
      <trkpt lat="19.088959" lon="-98.604044">
        <ele>3334.853</ele>
        <time>2021-01-23T05:56:40Z</time>
      </trkpt>
      <trkpt lat="19.088965" lon="-98.603996">
        <ele>3334.221</ele>
        <time>2021-01-23T05:56:44Z</time>
      </trkpt>
      <trkpt lat="19.088995" lon="-98.603957">
        <ele>3333.942</ele>
        <time>2021-01-23T05:56:49Z</time>
      </trkpt>
      <trkpt lat="19.089009" lon="-98.603912">
        <ele>3333.714</ele>
        <time>2021-01-23T05:56:54Z</time>
      </trkpt>
      <trkpt lat="19.089023" lon="-98.603864">
        <ele>3333.616</ele>
        <time>2021-01-23T05:56:58Z</time>
      </trkpt>
      <trkpt lat="19.089037" lon="-98.603803">
        <ele>3334.399</ele>
        <time>2021-01-23T05:57:02Z</time>
      </trkpt>
      <trkpt lat="19.089039" lon="-98.603745">
        <ele>3334.315</ele>
        <time>2021-01-23T05:57:06Z</time>
      </trkpt>
      <trkpt lat="19.089033" lon="-98.603696">
        <ele>3334.312</ele>
        <time>2021-01-23T05:57:11Z</time>
      </trkpt>
      <trkpt lat="19.089021" lon="-98.603643">
        <ele>3335.114</ele>
        <time>2021-01-23T05:57:17Z</time>
      </trkpt>
      <trkpt lat="19.089004" lon="-98.603597">
        <ele>3336.454</ele>
        <time>2021-01-23T05:57:22Z</time>
      </trkpt>
      <trkpt lat="19.089001" lon="-98.603547">
        <ele>3336.409</ele>
        <time>2021-01-23T05:57:25Z</time>
      </trkpt>
      <trkpt lat="19.089006" lon="-98.603495">
        <ele>3336.008</ele>
        <time>2021-01-23T05:57:28Z</time>
      </trkpt>
      <trkpt lat="19.088999" lon="-98.603444">
        <ele>3337.457</ele>
        <time>2021-01-23T05:57:38Z</time>
      </trkpt>
      <trkpt lat="19.088956" lon="-98.603407">
        <ele>3339.435</ele>
        <time>2021-01-23T05:57:43Z</time>
      </trkpt>
      <trkpt lat="19.088917" lon="-98.603371">
        <ele>3339.846</ele>
        <time>2021-01-23T05:57:47Z</time>
      </trkpt>
      <trkpt lat="19.088899" lon="-98.603315">
        <ele>3339.288</ele>
        <time>2021-01-23T05:57:50Z</time>
      </trkpt>
      <trkpt lat="19.088888" lon="-98.603248">
        <ele>3338.560</ele>
        <time>2021-01-23T05:57:53Z</time>
      </trkpt>
      <trkpt lat="19.088881" lon="-98.603183">
        <ele>3337.323</ele>
        <time>2021-01-23T05:57:56Z</time>
      </trkpt>
      <trkpt lat="19.088878" lon="-98.603122">
        <ele>3337.449</ele>
        <time>2021-01-23T05:57:59Z</time>
      </trkpt>
      <trkpt lat="19.088876" lon="-98.603072">
        <ele>3336.216</ele>
        <time>2021-01-23T05:58:02Z</time>
      </trkpt>
      <trkpt lat="19.088876" lon="-98.603022">
        <ele>3335.543</ele>
        <time>2021-01-23T05:58:06Z</time>
      </trkpt>
      <trkpt lat="19.088884" lon="-98.602967">
        <ele>3335.564</ele>
        <time>2021-01-23T05:58:10Z</time>
      </trkpt>
      <trkpt lat="19.088891" lon="-98.602912">
        <ele>3335.910</ele>
        <time>2021-01-23T05:58:13Z</time>
      </trkpt>
      <trkpt lat="19.088904" lon="-98.602857">
        <ele>3335.708</ele>
        <time>2021-01-23T05:58:17Z</time>
      </trkpt>
      <trkpt lat="19.088926" lon="-98.602815">
        <ele>3335.210</ele>
        <time>2021-01-23T05:58:21Z</time>
      </trkpt>
      <trkpt lat="19.088948" lon="-98.602765">
        <ele>3335.348</ele>
        <time>2021-01-23T05:58:26Z</time>
      </trkpt>
      <trkpt lat="19.088954" lon="-98.602709">
        <ele>3334.239</ele>
        <time>2021-01-23T05:58:31Z</time>
      </trkpt>
      <trkpt lat="19.088958" lon="-98.602651">
        <ele>3333.951</ele>
        <time>2021-01-23T05:58:36Z</time>
      </trkpt>
      <trkpt lat="19.088959" lon="-98.602601">
        <ele>3333.353</ele>
        <time>2021-01-23T05:58:41Z</time>
      </trkpt>
      <trkpt lat="19.088966" lon="-98.602545">
        <ele>3331.856</ele>
        <time>2021-01-23T05:58:46Z</time>
      </trkpt>
      <trkpt lat="19.088983" lon="-98.602498">
        <ele>3330.512</ele>
        <time>2021-01-23T05:58:50Z</time>
      </trkpt>
      <trkpt lat="19.088997" lon="-98.602448">
        <ele>3329.319</ele>
        <time>2021-01-23T05:58:54Z</time>
      </trkpt>
      <trkpt lat="19.089009" lon="-98.6024">
        <ele>3328.225</ele>
        <time>2021-01-23T05:58:58Z</time>
      </trkpt>
      <trkpt lat="19.089012" lon="-98.602342">
        <ele>3328.326</ele>
        <time>2021-01-23T05:59:02Z</time>
      </trkpt>
      <trkpt lat="19.089005" lon="-98.602281">
        <ele>3328.008</ele>
        <time>2021-01-23T05:59:06Z</time>
      </trkpt>
      <trkpt lat="19.089001" lon="-98.602232">
        <ele>3328.208</ele>
        <time>2021-01-23T05:59:10Z</time>
      </trkpt>
      <trkpt lat="19.089002" lon="-98.602176">
        <ele>3328.378</ele>
        <time>2021-01-23T05:59:15Z</time>
      </trkpt>
      <trkpt lat="19.088988" lon="-98.602128">
        <ele>3328.456</ele>
        <time>2021-01-23T05:59:21Z</time>
      </trkpt>
      <trkpt lat="19.089001" lon="-98.602078">
        <ele>3328.897</ele>
        <time>2021-01-23T05:59:27Z</time>
      </trkpt>
      <trkpt lat="19.089018" lon="-98.602031">
        <ele>3330.329</ele>
        <time>2021-01-23T05:59:31Z</time>
      </trkpt>
      <trkpt lat="19.089017" lon="-98.60198">
        <ele>3330.421</ele>
        <time>2021-01-23T05:59:35Z</time>
      </trkpt>
      <trkpt lat="19.089008" lon="-98.60192">
        <ele>3330.484</ele>
        <time>2021-01-23T05:59:39Z</time>
      </trkpt>
      <trkpt lat="19.089005" lon="-98.601864">
        <ele>3330.420</ele>
        <time>2021-01-23T05:59:43Z</time>
      </trkpt>
      <trkpt lat="19.088995" lon="-98.601805">
        <ele>3330.847</ele>
        <time>2021-01-23T05:59:47Z</time>
      </trkpt>
      <trkpt lat="19.088985" lon="-98.601752">
        <ele>3331.532</ele>
        <time>2021-01-23T05:59:51Z</time>
      </trkpt>
      <trkpt lat="19.088985" lon="-98.601698">
        <ele>3331.992</ele>
        <time>2021-01-23T05:59:55Z</time>
      </trkpt>
      <trkpt lat="19.088997" lon="-98.601648">
        <ele>3331.311</ele>
        <time>2021-01-23T05:59:59Z</time>
      </trkpt>
      <trkpt lat="19.089023" lon="-98.601601">
        <ele>3330.208</ele>
        <time>2021-01-23T06:00:04Z</time>
      </trkpt>
      <trkpt lat="19.089039" lon="-98.601553">
        <ele>3329.139</ele>
        <time>2021-01-23T06:00:08Z</time>
      </trkpt>
      <trkpt lat="19.089069" lon="-98.601513">
        <ele>3329.677</ele>
        <time>2021-01-23T06:00:12Z</time>
      </trkpt>
      <trkpt lat="19.089093" lon="-98.60147">
        <ele>3329.158</ele>
        <time>2021-01-23T06:00:16Z</time>
      </trkpt>
      <trkpt lat="19.089102" lon="-98.601422">
        <ele>3328.860</ele>
        <time>2021-01-23T06:00:19Z</time>
      </trkpt>
      <trkpt lat="19.08911" lon="-98.601364">
        <ele>3328.612</ele>
        <time>2021-01-23T06:00:23Z</time>
      </trkpt>
      <trkpt lat="19.089117" lon="-98.601316">
        <ele>3328.595</ele>
        <time>2021-01-23T06:00:27Z</time>
      </trkpt>
      <trkpt lat="19.08911" lon="-98.601266">
        <ele>3328.081</ele>
        <time>2021-01-23T06:00:30Z</time>
      </trkpt>
      <trkpt lat="19.089095" lon="-98.601211">
        <ele>3328.158</ele>
        <time>2021-01-23T06:00:34Z</time>
      </trkpt>
      <trkpt lat="19.089086" lon="-98.601163">
        <ele>3328.278</ele>
        <time>2021-01-23T06:00:38Z</time>
      </trkpt>
      <trkpt lat="19.08907" lon="-98.601117">
        <ele>3327.833</ele>
        <time>2021-01-23T06:00:42Z</time>
      </trkpt>
      <trkpt lat="19.08905" lon="-98.601068">
        <ele>3326.826</ele>
        <time>2021-01-23T06:00:49Z</time>
      </trkpt>
      <trkpt lat="19.089037" lon="-98.60102">
        <ele>3327.008</ele>
        <time>2021-01-23T06:00:55Z</time>
      </trkpt>
      <trkpt lat="19.089044" lon="-98.600965">
        <ele>3327.513</ele>
        <time>2021-01-23T06:00:59Z</time>
      </trkpt>
      <trkpt lat="19.089029" lon="-98.600916">
        <ele>3328.231</ele>
        <time>2021-01-23T06:01:04Z</time>
      </trkpt>
      <trkpt lat="19.089025" lon="-98.60086">
        <ele>3327.862</ele>
        <time>2021-01-23T06:01:08Z</time>
      </trkpt>
      <trkpt lat="19.089026" lon="-98.600811">
        <ele>3329.274</ele>
        <time>2021-01-23T06:01:12Z</time>
      </trkpt>
      <trkpt lat="19.089033" lon="-98.60076">
        <ele>3329.276</ele>
        <time>2021-01-23T06:01:17Z</time>
      </trkpt>
      <trkpt lat="19.089029" lon="-98.600708">
        <ele>3329.639</ele>
        <time>2021-01-23T06:01:22Z</time>
      </trkpt>
      <trkpt lat="19.089037" lon="-98.600655">
        <ele>3329.495</ele>
        <time>2021-01-23T06:01:26Z</time>
      </trkpt>
      <trkpt lat="19.089042" lon="-98.600607">
        <ele>3329.712</ele>
        <time>2021-01-23T06:01:29Z</time>
      </trkpt>
      <trkpt lat="19.089048" lon="-98.600556">
        <ele>3329.934</ele>
        <time>2021-01-23T06:01:32Z</time>
      </trkpt>
      <trkpt lat="19.089048" lon="-98.600502">
        <ele>3332.055</ele>
        <time>2021-01-23T06:01:36Z</time>
      </trkpt>
      <trkpt lat="19.089045" lon="-98.600453">
        <ele>3333.710</ele>
        <time>2021-01-23T06:01:40Z</time>
      </trkpt>
      <trkpt lat="19.089044" lon="-98.6004">
        <ele>3336.308</ele>
        <time>2021-01-23T06:01:45Z</time>
      </trkpt>
      <trkpt lat="19.089034" lon="-98.600344">
        <ele>3336.769</ele>
        <time>2021-01-23T06:01:50Z</time>
      </trkpt>
      <trkpt lat="19.089015" lon="-98.600296">
        <ele>3336.187</ele>
        <time>2021-01-23T06:01:54Z</time>
      </trkpt>
      <trkpt lat="19.089004" lon="-98.600247">
        <ele>3336.168</ele>
        <time>2021-01-23T06:01:59Z</time>
      </trkpt>
      <trkpt lat="19.088992" lon="-98.600195">
        <ele>3336.140</ele>
        <time>2021-01-23T06:02:05Z</time>
      </trkpt>
      <trkpt lat="19.089" lon="-98.60014">
        <ele>3336.942</ele>
        <time>2021-01-23T06:02:09Z</time>
      </trkpt>
      <trkpt lat="19.089011" lon="-98.600084">
        <ele>3338.235</ele>
        <time>2021-01-23T06:02:12Z</time>
      </trkpt>
      <trkpt lat="19.08902" lon="-98.600035">
        <ele>3339.011</ele>
        <time>2021-01-23T06:02:15Z</time>
      </trkpt>
      <trkpt lat="19.089027" lon="-98.599979">
        <ele>3339.128</ele>
        <time>2021-01-23T06:02:19Z</time>
      </trkpt>
      <trkpt lat="19.08902" lon="-98.599929">
        <ele>3339.526</ele>
        <time>2021-01-23T06:02:24Z</time>
      </trkpt>
      <trkpt lat="19.089025" lon="-98.599877">
        <ele>3340.247</ele>
        <time>2021-01-23T06:02:29Z</time>
      </trkpt>
      <trkpt lat="19.089013" lon="-98.599825">
        <ele>3340.211</ele>
        <time>2021-01-23T06:02:33Z</time>
      </trkpt>
      <trkpt lat="19.089009" lon="-98.599777">
        <ele>3339.008</ele>
        <time>2021-01-23T06:02:38Z</time>
      </trkpt>
      <trkpt lat="19.08901" lon="-98.599718">
        <ele>3336.728</ele>
        <time>2021-01-23T06:02:42Z</time>
      </trkpt>
      <trkpt lat="19.089003" lon="-98.599665">
        <ele>3334.166</ele>
        <time>2021-01-23T06:02:45Z</time>
      </trkpt>
      <trkpt lat="19.088998" lon="-98.5996">
        <ele>3332.517</ele>
        <time>2021-01-23T06:02:48Z</time>
      </trkpt>
      <trkpt lat="19.088988" lon="-98.599545">
        <ele>3332.489</ele>
        <time>2021-01-23T06:02:51Z</time>
      </trkpt>
      <trkpt lat="19.088965" lon="-98.599495">
        <ele>3331.951</ele>
        <time>2021-01-23T06:02:55Z</time>
      </trkpt>
      <trkpt lat="19.088937" lon="-98.599453">
        <ele>3331.254</ele>
        <time>2021-01-23T06:03:00Z</time>
      </trkpt>
      <trkpt lat="19.088895" lon="-98.599436">
        <ele>3329.680</ele>
        <time>2021-01-23T06:03:06Z</time>
      </trkpt>
      <trkpt lat="19.088844" lon="-98.599419">
        <ele>3331.047</ele>
        <time>2021-01-23T06:03:44Z</time>
      </trkpt>
      <trkpt lat="19.088807" lon="-98.599363">
        <ele>3328.338</ele>
        <time>2021-01-23T06:03:48Z</time>
      </trkpt>
      <trkpt lat="19.088771" lon="-98.599319">
        <ele>3326.770</ele>
        <time>2021-01-23T06:03:51Z</time>
      </trkpt>
      <trkpt lat="19.088743" lon="-98.599274">
        <ele>3326.117</ele>
        <time>2021-01-23T06:03:54Z</time>
      </trkpt>
      <trkpt lat="19.088708" lon="-98.59923">
        <ele>3326.108</ele>
        <time>2021-01-23T06:03:58Z</time>
      </trkpt>
      <trkpt lat="19.088666" lon="-98.599191">
        <ele>3326.179</ele>
        <time>2021-01-23T06:04:01Z</time>
      </trkpt>
      <trkpt lat="19.088647" lon="-98.599145">
        <ele>3328.947</ele>
        <time>2021-01-23T06:04:07Z</time>
      </trkpt>
      <trkpt lat="19.088625" lon="-98.599102">
        <ele>3329.868</ele>
        <time>2021-01-23T06:04:11Z</time>
      </trkpt>
      <trkpt lat="19.088621" lon="-98.599047">
        <ele>3329.990</ele>
        <time>2021-01-23T06:04:15Z</time>
      </trkpt>
      <trkpt lat="19.088605" lon="-98.598997">
        <ele>3331.262</ele>
        <time>2021-01-23T06:04:19Z</time>
      </trkpt>
      <trkpt lat="19.088568" lon="-98.598961">
        <ele>3330.485</ele>
        <time>2021-01-23T06:04:23Z</time>
      </trkpt>
      <trkpt lat="19.08853" lon="-98.598921">
        <ele>3329.551</ele>
        <time>2021-01-23T06:04:28Z</time>
      </trkpt>
      <trkpt lat="19.088491" lon="-98.59888">
        <ele>3329.068</ele>
        <time>2021-01-23T06:04:33Z</time>
      </trkpt>
      <trkpt lat="19.088467" lon="-98.598839">
        <ele>3330.346</ele>
        <time>2021-01-23T06:04:38Z</time>
      </trkpt>
      <trkpt lat="19.088426" lon="-98.598812">
        <ele>3331.988</ele>
        <time>2021-01-23T06:04:42Z</time>
      </trkpt>
      <trkpt lat="19.088408" lon="-98.598767">
        <ele>3333.616</ele>
        <time>2021-01-23T06:04:48Z</time>
      </trkpt>
      <trkpt lat="19.088377" lon="-98.598729">
        <ele>3334.208</ele>
        <time>2021-01-23T06:04:53Z</time>
      </trkpt>
      <trkpt lat="19.088354" lon="-98.598678">
        <ele>3334.270</ele>
        <time>2021-01-23T06:04:58Z</time>
      </trkpt>
      <trkpt lat="19.08834" lon="-98.598627">
        <ele>3335.478</ele>
        <time>2021-01-23T06:05:02Z</time>
      </trkpt>
      <trkpt lat="19.088306" lon="-98.598583">
        <ele>3334.559</ele>
        <time>2021-01-23T06:05:07Z</time>
      </trkpt>
      <trkpt lat="19.088272" lon="-98.598551">
        <ele>3334.041</ele>
        <time>2021-01-23T06:05:11Z</time>
      </trkpt>
      <trkpt lat="19.088232" lon="-98.59852">
        <ele>3336.133</ele>
        <time>2021-01-23T06:05:16Z</time>
      </trkpt>
      <trkpt lat="19.088193" lon="-98.598486">
        <ele>3337.736</ele>
        <time>2021-01-23T06:05:21Z</time>
      </trkpt>
      <trkpt lat="19.08815" lon="-98.598458">
        <ele>3338.742</ele>
        <time>2021-01-23T06:05:26Z</time>
      </trkpt>
      <trkpt lat="19.088101" lon="-98.598434">
        <ele>3339.339</ele>
        <time>2021-01-23T06:05:30Z</time>
      </trkpt>
      <trkpt lat="19.088073" lon="-98.598396">
        <ele>3338.915</ele>
        <time>2021-01-23T06:05:34Z</time>
      </trkpt>
      <trkpt lat="19.088077" lon="-98.598348">
        <ele>3339.065</ele>
        <time>2021-01-23T06:05:39Z</time>
      </trkpt>
      <trkpt lat="19.088049" lon="-98.598304">
        <ele>3337.911</ele>
        <time>2021-01-23T06:05:51Z</time>
      </trkpt>
      <trkpt lat="19.088" lon="-98.598285">
        <ele>3337.208</ele>
        <time>2021-01-23T06:05:56Z</time>
      </trkpt>
      <trkpt lat="19.087963" lon="-98.59825">
        <ele>3338.077</ele>
        <time>2021-01-23T06:06:01Z</time>
      </trkpt>
      <trkpt lat="19.087915" lon="-98.598229">
        <ele>3339.765</ele>
        <time>2021-01-23T06:06:06Z</time>
      </trkpt>
      <trkpt lat="19.08786" lon="-98.598238">
        <ele>3339.156</ele>
        <time>2021-01-23T06:06:10Z</time>
      </trkpt>
      <trkpt lat="19.087806" lon="-98.598237">
        <ele>3338.328</ele>
        <time>2021-01-23T06:06:13Z</time>
      </trkpt>
      <trkpt lat="19.087751" lon="-98.598235">
        <ele>3338.220</ele>
        <time>2021-01-23T06:06:16Z</time>
      </trkpt>
      <trkpt lat="19.087697" lon="-98.59825">
        <ele>3339.493</ele>
        <time>2021-01-23T06:06:20Z</time>
      </trkpt>
      <trkpt lat="19.087646" lon="-98.598261">
        <ele>3340.169</ele>
        <time>2021-01-23T06:06:25Z</time>
      </trkpt>
      <trkpt lat="19.087602" lon="-98.598279">
        <ele>3339.796</ele>
        <time>2021-01-23T06:06:31Z</time>
      </trkpt>
      <trkpt lat="19.087552" lon="-98.598283">
        <ele>3336.781</ele>
        <time>2021-01-23T06:06:37Z</time>
      </trkpt>
      <trkpt lat="19.087503" lon="-98.598281">
        <ele>3335.761</ele>
        <time>2021-01-23T06:06:40Z</time>
      </trkpt>
      <trkpt lat="19.087451" lon="-98.598281">
        <ele>3335.117</ele>
        <time>2021-01-23T06:06:43Z</time>
      </trkpt>
      <trkpt lat="19.087398" lon="-98.598295">
        <ele>3335.108</ele>
        <time>2021-01-23T06:06:46Z</time>
      </trkpt>
      <trkpt lat="19.087343" lon="-98.598317">
        <ele>3337.574</ele>
        <time>2021-01-23T06:06:50Z</time>
      </trkpt>
      <trkpt lat="19.087309" lon="-98.59836">
        <ele>3339.882</ele>
        <time>2021-01-23T06:06:55Z</time>
      </trkpt>
      <trkpt lat="19.087301" lon="-98.598409">
        <ele>3341.683</ele>
        <time>2021-01-23T06:07:06Z</time>
      </trkpt>
      <trkpt lat="19.087253" lon="-98.598429">
        <ele>3344.345</ele>
        <time>2021-01-23T06:07:13Z</time>
      </trkpt>
      <trkpt lat="19.087207" lon="-98.598447">
        <ele>3346.387</ele>
        <time>2021-01-23T06:07:17Z</time>
      </trkpt>
      <trkpt lat="19.08717" lon="-98.598476">
        <ele>3345.910</ele>
        <time>2021-01-23T06:07:22Z</time>
      </trkpt>
      <trkpt lat="19.087127" lon="-98.598498">
        <ele>3345.386</ele>
        <time>2021-01-23T06:07:26Z</time>
      </trkpt>
      <trkpt lat="19.087076" lon="-98.598509">
        <ele>3344.523</ele>
        <time>2021-01-23T06:07:29Z</time>
      </trkpt>
      <trkpt lat="19.087022" lon="-98.598524">
        <ele>3344.482</ele>
        <time>2021-01-23T06:07:33Z</time>
      </trkpt>
      <trkpt lat="19.086971" lon="-98.598524">
        <ele>3342.043</ele>
        <time>2021-01-23T06:07:38Z</time>
      </trkpt>
      <trkpt lat="19.086918" lon="-98.598532">
        <ele>3340.117</ele>
        <time>2021-01-23T06:07:42Z</time>
      </trkpt>
      <trkpt lat="19.086874" lon="-98.598553">
        <ele>3340.208</ele>
        <time>2021-01-23T06:07:45Z</time>
      </trkpt>
      <trkpt lat="19.086848" lon="-98.598594">
        <ele>3342.644</ele>
        <time>2021-01-23T06:07:49Z</time>
      </trkpt>
      <trkpt lat="19.086824" lon="-98.598635">
        <ele>3345.732</ele>
        <time>2021-01-23T06:07:53Z</time>
      </trkpt>
      <trkpt lat="19.0868" lon="-98.598685">
        <ele>3347.513</ele>
        <time>2021-01-23T06:07:58Z</time>
      </trkpt>
      <trkpt lat="19.086756" lon="-98.59871">
        <ele>3347.465</ele>
        <time>2021-01-23T06:08:03Z</time>
      </trkpt>
      <trkpt lat="19.086715" lon="-98.598731">
        <ele>3344.587</ele>
        <time>2021-01-23T06:08:07Z</time>
      </trkpt>
      <trkpt lat="19.086681" lon="-98.598778">
        <ele>3342.440</ele>
        <time>2021-01-23T06:08:12Z</time>
      </trkpt>
      <trkpt lat="19.086639" lon="-98.598827">
        <ele>3341.936</ele>
        <time>2021-01-23T06:08:16Z</time>
      </trkpt>
      <trkpt lat="19.086632" lon="-98.598875">
        <ele>3342.073</ele>
        <time>2021-01-23T06:08:19Z</time>
      </trkpt>
      <trkpt lat="19.086629" lon="-98.598924">
        <ele>3343.359</ele>
        <time>2021-01-23T06:08:24Z</time>
      </trkpt>
      <trkpt lat="19.08664" lon="-98.598975">
        <ele>3346.103</ele>
        <time>2021-01-23T06:08:29Z</time>
      </trkpt>
      <trkpt lat="19.08666" lon="-98.599028">
        <ele>3347.823</ele>
        <time>2021-01-23T06:08:34Z</time>
      </trkpt>
      <trkpt lat="19.08665" lon="-98.599075">
        <ele>3348.008</ele>
        <time>2021-01-23T06:08:42Z</time>
      </trkpt>
      <trkpt lat="19.086638" lon="-98.599123">
        <ele>3346.941</ele>
        <time>2021-01-23T06:08:48Z</time>
      </trkpt>
      <trkpt lat="19.086607" lon="-98.59916">
        <ele>3345.129</ele>
        <time>2021-01-23T06:08:55Z</time>
      </trkpt>
      <trkpt lat="19.086613" lon="-98.59921">
        <ele>3348.090</ele>
        <time>2021-01-23T06:09:06Z</time>
      </trkpt>
      <trkpt lat="19.086626" lon="-98.599266">
        <ele>3351.352</ele>
        <time>2021-01-23T06:09:12Z</time>
      </trkpt>
      <trkpt lat="19.08665" lon="-98.599311">
        <ele>3353.364</ele>
        <time>2021-01-23T06:09:15Z</time>
      </trkpt>
      <trkpt lat="19.086675" lon="-98.599358">
        <ele>3356.137</ele>
        <time>2021-01-23T06:09:18Z</time>
      </trkpt>
      <trkpt lat="19.086691" lon="-98.599409">
        <ele>3359.843</ele>
        <time>2021-01-23T06:09:22Z</time>
      </trkpt>
      <trkpt lat="19.086693" lon="-98.599465">
        <ele>3361.210</ele>
        <time>2021-01-23T06:09:26Z</time>
      </trkpt>
      <trkpt lat="19.086687" lon="-98.599517">
        <ele>3362.021</ele>
        <time>2021-01-23T06:09:30Z</time>
      </trkpt>
      <trkpt lat="19.086666" lon="-98.599566">
        <ele>3361.341</ele>
        <time>2021-01-23T06:09:35Z</time>
      </trkpt>
      <trkpt lat="19.086659" lon="-98.599619">
        <ele>3360.105</ele>
        <time>2021-01-23T06:09:40Z</time>
      </trkpt>
      <trkpt lat="19.086644" lon="-98.59967">
        <ele>3358.608</ele>
        <time>2021-01-23T06:09:46Z</time>
      </trkpt>
      <trkpt lat="19.086623" lon="-98.599721">
        <ele>3357.738</ele>
        <time>2021-01-23T06:09:52Z</time>
      </trkpt>
      <trkpt lat="19.086587" lon="-98.599753">
        <ele>3357.936</ele>
        <time>2021-01-23T06:09:58Z</time>
      </trkpt>
      <trkpt lat="19.086547" lon="-98.599775">
        <ele>3358.437</ele>
        <time>2021-01-23T06:10:02Z</time>
      </trkpt>
      <trkpt lat="19.086515" lon="-98.599822">
        <ele>3359.529</ele>
        <time>2021-01-23T06:10:07Z</time>
      </trkpt>
      <trkpt lat="19.086471" lon="-98.599856">
        <ele>3359.061</ele>
        <time>2021-01-23T06:10:13Z</time>
      </trkpt>
      <trkpt lat="19.086433" lon="-98.599899">
        <ele>3359.514</ele>
        <time>2021-01-23T06:10:18Z</time>
      </trkpt>
      <trkpt lat="19.086403" lon="-98.599936">
        <ele>3360.240</ele>
        <time>2021-01-23T06:10:22Z</time>
      </trkpt>
      <trkpt lat="19.086367" lon="-98.599971">
        <ele>3361.097</ele>
        <time>2021-01-23T06:10:27Z</time>
      </trkpt>
      <trkpt lat="19.086346" lon="-98.600019">
        <ele>3362.361</ele>
        <time>2021-01-23T06:10:32Z</time>
      </trkpt>
      <trkpt lat="19.086338" lon="-98.600075">
        <ele>3363.521</ele>
        <time>2021-01-23T06:10:37Z</time>
      </trkpt>
      <trkpt lat="19.086318" lon="-98.600119">
        <ele>3365.013</ele>
        <time>2021-01-23T06:10:42Z</time>
      </trkpt>
      <trkpt lat="19.086283" lon="-98.600154">
        <ele>3365.908</ele>
        <time>2021-01-23T06:10:48Z</time>
      </trkpt>
      <trkpt lat="19.08625" lon="-98.60019">
        <ele>3368.852</ele>
        <time>2021-01-23T06:10:52Z</time>
      </trkpt>
      <trkpt lat="19.086215" lon="-98.600225">
        <ele>3369.420</ele>
        <time>2021-01-23T06:10:57Z</time>
      </trkpt>
      <trkpt lat="19.086188" lon="-98.60027">
        <ele>3368.911</ele>
        <time>2021-01-23T06:11:03Z</time>
      </trkpt>
      <trkpt lat="19.086153" lon="-98.600303">
        <ele>3366.663</ele>
        <time>2021-01-23T06:11:08Z</time>
      </trkpt>
      <trkpt lat="19.086137" lon="-98.600348">
        <ele>3365.285</ele>
        <time>2021-01-23T06:11:13Z</time>
      </trkpt>
      <trkpt lat="19.086134" lon="-98.600402">
        <ele>3364.818</ele>
        <time>2021-01-23T06:11:18Z</time>
      </trkpt>
      <trkpt lat="19.086092" lon="-98.600424">
        <ele>3364.144</ele>
        <time>2021-01-23T06:11:22Z</time>
      </trkpt>
      <trkpt lat="19.086045" lon="-98.600448">
        <ele>3364.541</ele>
        <time>2021-01-23T06:11:26Z</time>
      </trkpt>
      <trkpt lat="19.086004" lon="-98.600478">
        <ele>3365.196</ele>
        <time>2021-01-23T06:11:30Z</time>
      </trkpt>
      <trkpt lat="19.085986" lon="-98.600525">
        <ele>3364.731</ele>
        <time>2021-01-23T06:11:38Z</time>
      </trkpt>
      <trkpt lat="19.085947" lon="-98.600562">
        <ele>3363.324</ele>
        <time>2021-01-23T06:11:43Z</time>
      </trkpt>
      <trkpt lat="19.085913" lon="-98.600597">
        <ele>3363.608</ele>
        <time>2021-01-23T06:11:48Z</time>
      </trkpt>
      <trkpt lat="19.085892" lon="-98.600639">
        <ele>3363.025</ele>
        <time>2021-01-23T06:11:56Z</time>
      </trkpt>
      <trkpt lat="19.085856" lon="-98.600678">
        <ele>3362.233</ele>
        <time>2021-01-23T06:12:01Z</time>
      </trkpt>
      <trkpt lat="19.085804" lon="-98.600686">
        <ele>3362.164</ele>
        <time>2021-01-23T06:12:05Z</time>
      </trkpt>
      <trkpt lat="19.085766" lon="-98.60072">
        <ele>3362.146</ele>
        <time>2021-01-23T06:12:09Z</time>
      </trkpt>
      <trkpt lat="19.085762" lon="-98.600777">
        <ele>3363.368</ele>
        <time>2021-01-23T06:12:16Z</time>
      </trkpt>
      <trkpt lat="19.085738" lon="-98.600827">
        <ele>3365.221</ele>
        <time>2021-01-23T06:12:22Z</time>
      </trkpt>
      <trkpt lat="19.08572" lon="-98.600878">
        <ele>3367.147</ele>
        <time>2021-01-23T06:12:26Z</time>
      </trkpt>
      <trkpt lat="19.085713" lon="-98.600934">
        <ele>3368.744</ele>
        <time>2021-01-23T06:12:30Z</time>
      </trkpt>
      <trkpt lat="19.085718" lon="-98.600982">
        <ele>3370.045</ele>
        <time>2021-01-23T06:12:34Z</time>
      </trkpt>
      <trkpt lat="19.085707" lon="-98.601039">
        <ele>3370.847</ele>
        <time>2021-01-23T06:12:39Z</time>
      </trkpt>
      <trkpt lat="19.085674" lon="-98.601078">
        <ele>3373.311</ele>
        <time>2021-01-23T06:12:44Z</time>
      </trkpt>
      <trkpt lat="19.085642" lon="-98.601119">
        <ele>3375.608</ele>
        <time>2021-01-23T06:12:49Z</time>
      </trkpt>
      <trkpt lat="19.085623" lon="-98.601163">
        <ele>3377.050</ele>
        <time>2021-01-23T06:12:53Z</time>
      </trkpt>
      <trkpt lat="19.0856" lon="-98.601209">
        <ele>3376.288</ele>
        <time>2021-01-23T06:12:57Z</time>
      </trkpt>
      <trkpt lat="19.085581" lon="-98.601262">
        <ele>3376.169</ele>
        <time>2021-01-23T06:13:03Z</time>
      </trkpt>
      <trkpt lat="19.085565" lon="-98.601312">
        <ele>3376.581</ele>
        <time>2021-01-23T06:13:08Z</time>
      </trkpt>
      <trkpt lat="19.085534" lon="-98.601352">
        <ele>3372.733</ele>
        <time>2021-01-23T06:13:13Z</time>
      </trkpt>
      <trkpt lat="19.085504" lon="-98.601392">
        <ele>3368.816</ele>
        <time>2021-01-23T06:13:17Z</time>
      </trkpt>
      <trkpt lat="19.085492" lon="-98.601442">
        <ele>3366.922</ele>
        <time>2021-01-23T06:13:21Z</time>
      </trkpt>
      <trkpt lat="19.085465" lon="-98.601496">
        <ele>3364.969</ele>
        <time>2021-01-23T06:13:25Z</time>
      </trkpt>
      <trkpt lat="19.08545" lon="-98.601547">
        <ele>3364.541</ele>
        <time>2021-01-23T06:13:29Z</time>
      </trkpt>
      <trkpt lat="19.085413" lon="-98.601584">
        <ele>3365.581</ele>
        <time>2021-01-23T06:13:34Z</time>
      </trkpt>
      <trkpt lat="19.085375" lon="-98.601623">
        <ele>3368.509</ele>
        <time>2021-01-23T06:13:41Z</time>
      </trkpt>
      <trkpt lat="19.085375" lon="-98.601673">
        <ele>3369.908</ele>
        <time>2021-01-23T06:13:47Z</time>
      </trkpt>
      <trkpt lat="19.08535" lon="-98.601725">
        <ele>3371.990</ele>
        <time>2021-01-23T06:13:53Z</time>
      </trkpt>
      <trkpt lat="19.085329" lon="-98.601771">
        <ele>3373.538</ele>
        <time>2021-01-23T06:13:57Z</time>
      </trkpt>
      <trkpt lat="19.085311" lon="-98.601827">
        <ele>3373.779</ele>
        <time>2021-01-23T06:14:02Z</time>
      </trkpt>
      <trkpt lat="19.085287" lon="-98.60187">
        <ele>3373.821</ele>
        <time>2021-01-23T06:14:07Z</time>
      </trkpt>
      <trkpt lat="19.085263" lon="-98.601911">
        <ele>3374.313</ele>
        <time>2021-01-23T06:14:13Z</time>
      </trkpt>
      <trkpt lat="19.085227" lon="-98.601948">
        <ele>3373.866</ele>
        <time>2021-01-23T06:14:21Z</time>
      </trkpt>
      <trkpt lat="19.085218" lon="-98.601995">
        <ele>3375.552</ele>
        <time>2021-01-23T06:14:27Z</time>
      </trkpt>
      <trkpt lat="19.085228" lon="-98.602043">
        <ele>3377.779</ele>
        <time>2021-01-23T06:14:32Z</time>
      </trkpt>
      <trkpt lat="19.085217" lon="-98.602091">
        <ele>3379.827</ele>
        <time>2021-01-23T06:14:36Z</time>
      </trkpt>
      <trkpt lat="19.085184" lon="-98.602141">
        <ele>3381.568</ele>
        <time>2021-01-23T06:14:40Z</time>
      </trkpt>
      <trkpt lat="19.085154" lon="-98.602196">
        <ele>3383.714</ele>
        <time>2021-01-23T06:14:43Z</time>
      </trkpt>
      <trkpt lat="19.085145" lon="-98.602252">
        <ele>3385.408</ele>
        <time>2021-01-23T06:14:46Z</time>
      </trkpt>
      <trkpt lat="19.085144" lon="-98.602304">
        <ele>3386.848</ele>
        <time>2021-01-23T06:14:50Z</time>
      </trkpt>
      <trkpt lat="19.085129" lon="-98.602356">
        <ele>3387.386</ele>
        <time>2021-01-23T06:14:55Z</time>
      </trkpt>
      <trkpt lat="19.085083" lon="-98.602385">
        <ele>3383.357</ele>
        <time>2021-01-23T06:15:00Z</time>
      </trkpt>
      <trkpt lat="19.085045" lon="-98.60242">
        <ele>3383.289</ele>
        <time>2021-01-23T06:15:06Z</time>
      </trkpt>
      <trkpt lat="19.084994" lon="-98.602451">
        <ele>3383.991</ele>
        <time>2021-01-23T06:15:10Z</time>
      </trkpt>
      <trkpt lat="19.084949" lon="-98.602474">
        <ele>3384.774</ele>
        <time>2021-01-23T06:15:13Z</time>
      </trkpt>
      <trkpt lat="19.08496" lon="-98.602532">
        <ele>3384.870</ele>
        <time>2021-01-23T06:15:18Z</time>
      </trkpt>
      <trkpt lat="19.084985" lon="-98.602572">
        <ele>3385.757</ele>
        <time>2021-01-23T06:15:25Z</time>
      </trkpt>
      <trkpt lat="19.084964" lon="-98.602623">
        <ele>3386.224</ele>
        <time>2021-01-23T06:15:32Z</time>
      </trkpt>
      <trkpt lat="19.084953" lon="-98.602671">
        <ele>3387.304</ele>
        <time>2021-01-23T06:15:37Z</time>
      </trkpt>
      <trkpt lat="19.084952" lon="-98.602726">
        <ele>3391.314</ele>
        <time>2021-01-23T06:15:41Z</time>
      </trkpt>
      <trkpt lat="19.084954" lon="-98.602774">
        <ele>3394.008</ele>
        <time>2021-01-23T06:15:45Z</time>
      </trkpt>
      <trkpt lat="19.084936" lon="-98.602819">
        <ele>3396.498</ele>
        <time>2021-01-23T06:15:50Z</time>
      </trkpt>
      <trkpt lat="19.0849" lon="-98.60285">
        <ele>3396.226</ele>
        <time>2021-01-23T06:15:54Z</time>
      </trkpt>
      <trkpt lat="19.084868" lon="-98.602884">
        <ele>3395.727</ele>
        <time>2021-01-23T06:16:04Z</time>
      </trkpt>
      <trkpt lat="19.084847" lon="-98.602927">
        <ele>3394.279</ele>
        <time>2021-01-23T06:16:09Z</time>
      </trkpt>
      <trkpt lat="19.08481" lon="-98.602968">
        <ele>3392.521</ele>
        <time>2021-01-23T06:16:13Z</time>
      </trkpt>
      <trkpt lat="19.0848" lon="-98.603015">
        <ele>3390.764</ele>
        <time>2021-01-23T06:16:18Z</time>
      </trkpt>
      <trkpt lat="19.084782" lon="-98.603069">
        <ele>3389.280</ele>
        <time>2021-01-23T06:16:23Z</time>
      </trkpt>
      <trkpt lat="19.084754" lon="-98.603115">
        <ele>3388.727</ele>
        <time>2021-01-23T06:16:28Z</time>
      </trkpt>
      <trkpt lat="19.084717" lon="-98.603144">
        <ele>3387.685</ele>
        <time>2021-01-23T06:16:32Z</time>
      </trkpt>
      <trkpt lat="19.084666" lon="-98.603156">
        <ele>3388.189</ele>
        <time>2021-01-23T06:16:36Z</time>
      </trkpt>
      <trkpt lat="19.084634" lon="-98.603197">
        <ele>3389.617</ele>
        <time>2021-01-23T06:16:41Z</time>
      </trkpt>
      <trkpt lat="19.08459" lon="-98.603228">
        <ele>3391.308</ele>
        <time>2021-01-23T06:16:45Z</time>
      </trkpt>
      <trkpt lat="19.084569" lon="-98.603283">
        <ele>3393.194</ele>
        <time>2021-01-23T06:16:49Z</time>
      </trkpt>
      <trkpt lat="19.084564" lon="-98.603339">
        <ele>3394.232</ele>
        <time>2021-01-23T06:16:53Z</time>
      </trkpt>
      <trkpt lat="19.084567" lon="-98.603388">
        <ele>3394.933</ele>
        <time>2021-01-23T06:16:57Z</time>
      </trkpt>
      <trkpt lat="19.084553" lon="-98.603444">
        <ele>3396.195</ele>
        <time>2021-01-23T06:17:02Z</time>
      </trkpt>
      <trkpt lat="19.084528" lon="-98.603497">
        <ele>3394.837</ele>
        <time>2021-01-23T06:17:07Z</time>
      </trkpt>
      <trkpt lat="19.084509" lon="-98.603542">
        <ele>3394.030</ele>
        <time>2021-01-23T06:17:11Z</time>
      </trkpt>
      <trkpt lat="19.084465" lon="-98.603568">
        <ele>3393.966</ele>
        <time>2021-01-23T06:17:18Z</time>
      </trkpt>
      <trkpt lat="19.084419" lon="-98.60359">
        <ele>3393.963</ele>
        <time>2021-01-23T06:17:24Z</time>
      </trkpt>
      <trkpt lat="19.084398" lon="-98.60364">
        <ele>3393.942</ele>
        <time>2021-01-23T06:17:30Z</time>
      </trkpt>
      <trkpt lat="19.084414" lon="-98.603703">
        <ele>3393.922</ele>
        <time>2021-01-23T06:17:33Z</time>
      </trkpt>
      <trkpt lat="19.08439" lon="-98.603757">
        <ele>3393.914</ele>
        <time>2021-01-23T06:17:37Z</time>
      </trkpt>
      <trkpt lat="19.084356" lon="-98.603791">
        <ele>3394.308</ele>
        <time>2021-01-23T06:17:41Z</time>
      </trkpt>
      <trkpt lat="19.084325" lon="-98.603837">
        <ele>3395.750</ele>
        <time>2021-01-23T06:17:47Z</time>
      </trkpt>
      <trkpt lat="19.084317" lon="-98.603888">
        <ele>3396.678</ele>
        <time>2021-01-23T06:17:51Z</time>
      </trkpt>
      <trkpt lat="19.084325" lon="-98.60395">
        <ele>3395.119</ele>
        <time>2021-01-23T06:17:58Z</time>
      </trkpt>
      <trkpt lat="19.084319" lon="-98.603998">
        <ele>3396.241</ele>
        <time>2021-01-23T06:18:02Z</time>
      </trkpt>
      <trkpt lat="19.084334" lon="-98.604048">
        <ele>3398.933</ele>
        <time>2021-01-23T06:18:11Z</time>
      </trkpt>
      <trkpt lat="19.084379" lon="-98.604081">
        <ele>3400.586</ele>
        <time>2021-01-23T06:18:16Z</time>
      </trkpt>
      <trkpt lat="19.084424" lon="-98.604091">
        <ele>3401.542</ele>
        <time>2021-01-23T06:18:20Z</time>
      </trkpt>
      <trkpt lat="19.084473" lon="-98.604101">
        <ele>3401.729</ele>
        <time>2021-01-23T06:18:25Z</time>
      </trkpt>
      <trkpt lat="19.084522" lon="-98.604096">
        <ele>3401.884</ele>
        <time>2021-01-23T06:18:29Z</time>
      </trkpt>
      <trkpt lat="19.084569" lon="-98.604082">
        <ele>3401.907</ele>
        <time>2021-01-23T06:18:33Z</time>
      </trkpt>
      <trkpt lat="19.084615" lon="-98.604095">
        <ele>3401.117</ele>
        <time>2021-01-23T06:18:45Z</time>
      </trkpt>
      <trkpt lat="19.084657" lon="-98.604118">
        <ele>3397.108</ele>
        <time>2021-01-23T06:18:51Z</time>
      </trkpt>
      <trkpt lat="19.08471" lon="-98.604129">
        <ele>3396.654</ele>
        <time>2021-01-23T06:18:55Z</time>
      </trkpt>
      <trkpt lat="19.084761" lon="-98.604137">
        <ele>3397.912</ele>
        <time>2021-01-23T06:19:00Z</time>
      </trkpt>
      <trkpt lat="19.084742" lon="-98.604085">
        <ele>3401.983</ele>
        <time>2021-01-23T06:20:03Z</time>
      </trkpt>
      <trkpt lat="19.084717" lon="-98.604044">
        <ele>3404.375</ele>
        <time>2021-01-23T06:20:07Z</time>
      </trkpt>
      <trkpt lat="19.084675" lon="-98.604069">
        <ele>3405.317</ele>
        <time>2021-01-23T06:20:18Z</time>
      </trkpt>
      <trkpt lat="19.084629" lon="-98.604059">
        <ele>3405.590</ele>
        <time>2021-01-23T06:20:27Z</time>
      </trkpt>
      <trkpt lat="19.084585" lon="-98.604068">
        <ele>3406.066</ele>
        <time>2021-01-23T06:20:35Z</time>
      </trkpt>
      <trkpt lat="19.084638" lon="-98.604085">
        <ele>3405.983</ele>
        <time>2021-01-23T06:21:31Z</time>
      </trkpt>
      <trkpt lat="19.084692" lon="-98.604098">
        <ele>3405.197</ele>
        <time>2021-01-23T06:21:35Z</time>
      </trkpt>
      <trkpt lat="19.084745" lon="-98.60412">
        <ele>3403.823</ele>
        <time>2021-01-23T06:21:38Z</time>
      </trkpt>
      <trkpt lat="19.084782" lon="-98.604151">
        <ele>3401.825</ele>
        <time>2021-01-23T06:21:45Z</time>
      </trkpt>
      <trkpt lat="19.084821" lon="-98.604178">
        <ele>3405.808</ele>
        <time>2021-01-23T06:22:53Z</time>
      </trkpt>
      <trkpt lat="19.084865" lon="-98.604206">
        <ele>3408.655</ele>
        <time>2021-01-23T06:22:58Z</time>
      </trkpt>
      <trkpt lat="19.084896" lon="-98.604246">
        <ele>3409.153</ele>
        <time>2021-01-23T06:23:03Z</time>
      </trkpt>
      <trkpt lat="19.084937" lon="-98.604284">
        <ele>3408.614</ele>
        <time>2021-01-23T06:23:08Z</time>
      </trkpt>
      <trkpt lat="19.084982" lon="-98.604304">
        <ele>3408.316</ele>
        <time>2021-01-23T06:23:11Z</time>
      </trkpt>
      <trkpt lat="19.085019" lon="-98.604333">
        <ele>3407.728</ele>
        <time>2021-01-23T06:23:15Z</time>
      </trkpt>
      <trkpt lat="19.085058" lon="-98.604377">
        <ele>3407.411</ele>
        <time>2021-01-23T06:23:19Z</time>
      </trkpt>
      <trkpt lat="19.085099" lon="-98.604406">
        <ele>3407.247</ele>
        <time>2021-01-23T06:23:23Z</time>
      </trkpt>
      <trkpt lat="19.085145" lon="-98.604429">
        <ele>3403.294</ele>
        <time>2021-01-23T06:23:28Z</time>
      </trkpt>
      <trkpt lat="19.085182" lon="-98.604458">
        <ele>3401.987</ele>
        <time>2021-01-23T06:23:32Z</time>
      </trkpt>
      <trkpt lat="19.085231" lon="-98.604479">
        <ele>3399.542</ele>
        <time>2021-01-23T06:23:36Z</time>
      </trkpt>
      <trkpt lat="19.085282" lon="-98.604493">
        <ele>3400.126</ele>
        <time>2021-01-23T06:23:40Z</time>
      </trkpt>
      <trkpt lat="19.085327" lon="-98.604512">
        <ele>3401.608</ele>
        <time>2021-01-23T06:23:44Z</time>
      </trkpt>
      <trkpt lat="19.085368" lon="-98.604544">
        <ele>3404.954</ele>
        <time>2021-01-23T06:23:49Z</time>
      </trkpt>
      <trkpt lat="19.08542" lon="-98.604552">
        <ele>3406.982</ele>
        <time>2021-01-23T06:23:54Z</time>
      </trkpt>
      <trkpt lat="19.085462" lon="-98.604573">
        <ele>3408.973</ele>
        <time>2021-01-23T06:24:02Z</time>
      </trkpt>
      <trkpt lat="19.085467" lon="-98.604622">
        <ele>3411.325</ele>
        <time>2021-01-23T06:24:09Z</time>
      </trkpt>
      <trkpt lat="19.085494" lon="-98.604662">
        <ele>3415.147</ele>
        <time>2021-01-23T06:24:16Z</time>
      </trkpt>
      <trkpt lat="19.085479" lon="-98.604719">
        <ele>3418.630</ele>
        <time>2021-01-23T06:24:21Z</time>
      </trkpt>
      <trkpt lat="19.085459" lon="-98.604764">
        <ele>3421.536</ele>
        <time>2021-01-23T06:24:25Z</time>
      </trkpt>
      <trkpt lat="19.085443" lon="-98.604817">
        <ele>3423.263</ele>
        <time>2021-01-23T06:24:30Z</time>
      </trkpt>
      <trkpt lat="19.085458" lon="-98.604865">
        <ele>3424.668</ele>
        <time>2021-01-23T06:24:36Z</time>
      </trkpt>
      <trkpt lat="19.085464" lon="-98.604913">
        <ele>3425.942</ele>
        <time>2021-01-23T06:24:49Z</time>
      </trkpt>
      <trkpt lat="19.085466" lon="-98.604961">
        <ele>3426.326</ele>
        <time>2021-01-23T06:24:56Z</time>
      </trkpt>
      <trkpt lat="19.085475" lon="-98.60501">
        <ele>3426.908</ele>
        <time>2021-01-23T06:25:03Z</time>
      </trkpt>
      <trkpt lat="19.085474" lon="-98.60506">
        <ele>3426.182</ele>
        <time>2021-01-23T06:25:15Z</time>
      </trkpt>
      <trkpt lat="19.085466" lon="-98.60511">
        <ele>3424.850</ele>
        <time>2021-01-23T06:25:19Z</time>
      </trkpt>
      <trkpt lat="19.085458" lon="-98.605161">
        <ele>3426.011</ele>
        <time>2021-01-23T06:25:24Z</time>
      </trkpt>
      <trkpt lat="19.085449" lon="-98.605211">
        <ele>3428.313</ele>
        <time>2021-01-23T06:25:34Z</time>
      </trkpt>
      <trkpt lat="19.085411" lon="-98.605249">
        <ele>3429.325</ele>
        <time>2021-01-23T06:25:42Z</time>
      </trkpt>
      <trkpt lat="19.085384" lon="-98.605294">
        <ele>3429.588</ele>
        <time>2021-01-23T06:25:47Z</time>
      </trkpt>
      <trkpt lat="19.08536" lon="-98.605336">
        <ele>3430.024</ele>
        <time>2021-01-23T06:25:51Z</time>
      </trkpt>
      <trkpt lat="19.085344" lon="-98.605388">
        <ele>3430.391</ele>
        <time>2021-01-23T06:25:56Z</time>
      </trkpt>
      <trkpt lat="19.085339" lon="-98.605441">
        <ele>3430.951</ele>
        <time>2021-01-23T06:26:01Z</time>
      </trkpt>
      <trkpt lat="19.085315" lon="-98.605487">
        <ele>3431.301</ele>
        <time>2021-01-23T06:26:07Z</time>
      </trkpt>
      <trkpt lat="19.085282" lon="-98.60553">
        <ele>3433.111</ele>
        <time>2021-01-23T06:26:14Z</time>
      </trkpt>
      <trkpt lat="19.08527" lon="-98.605577">
        <ele>3435.008</ele>
        <time>2021-01-23T06:26:18Z</time>
      </trkpt>
      <trkpt lat="19.085259" lon="-98.605629">
        <ele>3433.341</ele>
        <time>2021-01-23T06:26:25Z</time>
      </trkpt>
      <trkpt lat="19.085259" lon="-98.605681">
        <ele>3435.159</ele>
        <time>2021-01-23T06:26:34Z</time>
      </trkpt>
      <trkpt lat="19.085251" lon="-98.60573">
        <ele>3435.480</ele>
        <time>2021-01-23T06:26:47Z</time>
      </trkpt>
      <trkpt lat="19.085235" lon="-98.605788">
        <ele>3436.022</ele>
        <time>2021-01-23T06:26:53Z</time>
      </trkpt>
      <trkpt lat="19.08522" lon="-98.605835">
        <ele>3436.794</ele>
        <time>2021-01-23T06:26:57Z</time>
      </trkpt>
      <trkpt lat="19.085189" lon="-98.605875">
        <ele>3437.577</ele>
        <time>2021-01-23T06:27:03Z</time>
      </trkpt>
      <trkpt lat="19.085137" lon="-98.605896">
        <ele>3436.023</ele>
        <time>2021-01-23T06:27:12Z</time>
      </trkpt>
      <trkpt lat="19.085091" lon="-98.605924">
        <ele>3437.960</ele>
        <time>2021-01-23T06:27:16Z</time>
      </trkpt>
      <trkpt lat="19.08505" lon="-98.605947">
        <ele>3439.079</ele>
        <time>2021-01-23T06:27:20Z</time>
      </trkpt>
      <trkpt lat="19.085001" lon="-98.605968">
        <ele>3440.905</ele>
        <time>2021-01-23T06:27:25Z</time>
      </trkpt>
      <trkpt lat="19.084952" lon="-98.60598">
        <ele>3442.025</ele>
        <time>2021-01-23T06:27:30Z</time>
      </trkpt>
      <trkpt lat="19.084907" lon="-98.606004">
        <ele>3438.308</ele>
        <time>2021-01-23T06:27:35Z</time>
      </trkpt>
      <trkpt lat="19.084863" lon="-98.60603">
        <ele>3439.323</ele>
        <time>2021-01-23T06:27:39Z</time>
      </trkpt>
      <trkpt lat="19.084812" lon="-98.606051">
        <ele>3441.131</ele>
        <time>2021-01-23T06:27:43Z</time>
      </trkpt>
      <trkpt lat="19.084764" lon="-98.606066">
        <ele>3443.822</ele>
        <time>2021-01-23T06:27:46Z</time>
      </trkpt>
      <trkpt lat="19.084716" lon="-98.606082">
        <ele>3445.454</ele>
        <time>2021-01-23T06:27:50Z</time>
      </trkpt>
      <trkpt lat="19.084662" lon="-98.606093">
        <ele>3446.476</ele>
        <time>2021-01-23T06:27:55Z</time>
      </trkpt>
      <trkpt lat="19.084614" lon="-98.606105">
        <ele>3446.689</ele>
        <time>2021-01-23T06:28:01Z</time>
      </trkpt>
      <trkpt lat="19.08457" lon="-98.606133">
        <ele>3448.775</ele>
        <time>2021-01-23T06:28:06Z</time>
      </trkpt>
      <trkpt lat="19.084533" lon="-98.606163">
        <ele>3450.162</ele>
        <time>2021-01-23T06:28:11Z</time>
      </trkpt>
      <trkpt lat="19.084533" lon="-98.606163">
        <ele>3450.114</ele>
        <time>2021-01-23T06:28:11Z</time>
      </trkpt>
      <trkpt lat="19.084489" lon="-98.606175">
        <ele>3446.154</ele>
        <time>2021-01-23T06:28:16Z</time>
      </trkpt>
      <trkpt lat="19.084444" lon="-98.60619">
        <ele>3442.109</ele>
        <time>2021-01-23T06:28:21Z</time>
      </trkpt>
      <trkpt lat="19.084398" lon="-98.606215">
        <ele>3441.608</ele>
        <time>2021-01-23T06:28:25Z</time>
      </trkpt>
      <trkpt lat="19.084353" lon="-98.606256">
        <ele>3441.717</ele>
        <time>2021-01-23T06:28:29Z</time>
      </trkpt>
      <trkpt lat="19.084316" lon="-98.606294">
        <ele>3443.415</ele>
        <time>2021-01-23T06:28:33Z</time>
      </trkpt>
      <trkpt lat="19.08429" lon="-98.606334">
        <ele>3444.426</ele>
        <time>2021-01-23T06:28:36Z</time>
      </trkpt>
      <trkpt lat="19.084256" lon="-98.60638">
        <ele>3445.078</ele>
        <time>2021-01-23T06:28:40Z</time>
      </trkpt>
      <trkpt lat="19.084221" lon="-98.606413">
        <ele>3446.680</ele>
        <time>2021-01-23T06:28:45Z</time>
      </trkpt>
      <trkpt lat="19.084181" lon="-98.606444">
        <ele>3449.133</ele>
        <time>2021-01-23T06:28:51Z</time>
      </trkpt>
      <trkpt lat="19.084137" lon="-98.606469">
        <ele>3451.819</ele>
        <time>2021-01-23T06:28:57Z</time>
      </trkpt>
      <trkpt lat="19.084102" lon="-98.606506">
        <ele>3453.476</ele>
        <time>2021-01-23T06:29:01Z</time>
      </trkpt>
      <trkpt lat="19.08406" lon="-98.606541">
        <ele>3454.078</ele>
        <time>2021-01-23T06:29:05Z</time>
      </trkpt>
      <trkpt lat="19.084027" lon="-98.606583">
        <ele>3454.333</ele>
        <time>2021-01-23T06:29:08Z</time>
      </trkpt>
      <trkpt lat="19.083985" lon="-98.606621">
        <ele>3454.126</ele>
        <time>2021-01-23T06:29:13Z</time>
      </trkpt>
      <trkpt lat="19.08394" lon="-98.606636">
        <ele>3452.808</ele>
        <time>2021-01-23T06:29:18Z</time>
      </trkpt>
      <trkpt lat="19.083902" lon="-98.606662">
        <ele>3451.663</ele>
        <time>2021-01-23T06:29:23Z</time>
      </trkpt>
      <trkpt lat="19.083866" lon="-98.606697">
        <ele>3452.181</ele>
        <time>2021-01-23T06:29:28Z</time>
      </trkpt>
      <trkpt lat="19.083838" lon="-98.606736">
        <ele>3449.282</ele>
        <time>2021-01-23T06:29:33Z</time>
      </trkpt>
      <trkpt lat="19.083803" lon="-98.606771">
        <ele>3450.354</ele>
        <time>2021-01-23T06:29:39Z</time>
      </trkpt>
      <trkpt lat="19.083764" lon="-98.606801">
        <ele>3450.586</ele>
        <time>2021-01-23T06:29:44Z</time>
      </trkpt>
      <trkpt lat="19.083729" lon="-98.60684">
        <ele>3451.859</ele>
        <time>2021-01-23T06:29:49Z</time>
      </trkpt>
      <trkpt lat="19.083697" lon="-98.606875">
        <ele>3452.635</ele>
        <time>2021-01-23T06:29:53Z</time>
      </trkpt>
      <trkpt lat="19.083657" lon="-98.606915">
        <ele>3451.912</ele>
        <time>2021-01-23T06:29:58Z</time>
      </trkpt>
      <trkpt lat="19.083621" lon="-98.606948">
        <ele>3451.995</ele>
        <time>2021-01-23T06:30:02Z</time>
      </trkpt>
      <trkpt lat="19.083582" lon="-98.606987">
        <ele>3452.749</ele>
        <time>2021-01-23T06:30:06Z</time>
      </trkpt>
      <trkpt lat="19.083546" lon="-98.607021">
        <ele>3454.023</ele>
        <time>2021-01-23T06:30:11Z</time>
      </trkpt>
      <trkpt lat="19.083514" lon="-98.607057">
        <ele>3454.808</ele>
        <time>2021-01-23T06:30:15Z</time>
      </trkpt>
      <trkpt lat="19.083484" lon="-98.607096">
        <ele>3455.335</ele>
        <time>2021-01-23T06:30:19Z</time>
      </trkpt>
      <trkpt lat="19.083454" lon="-98.607136">
        <ele>3456.013</ele>
        <time>2021-01-23T06:30:25Z</time>
      </trkpt>
      <trkpt lat="19.083417" lon="-98.60718">
        <ele>3455.684</ele>
        <time>2021-01-23T06:30:32Z</time>
      </trkpt>
      <trkpt lat="19.083388" lon="-98.607225">
        <ele>3455.836</ele>
        <time>2021-01-23T06:30:36Z</time>
      </trkpt>
      <trkpt lat="19.083363" lon="-98.607272">
        <ele>3457.598</ele>
        <time>2021-01-23T06:30:39Z</time>
      </trkpt>
      <trkpt lat="19.083326" lon="-98.6073">
        <ele>3459.341</ele>
        <time>2021-01-23T06:30:43Z</time>
      </trkpt>
      <trkpt lat="19.083287" lon="-98.607327">
        <ele>3460.097</ele>
        <time>2021-01-23T06:30:47Z</time>
      </trkpt>
      <trkpt lat="19.083263" lon="-98.607371">
        <ele>3456.074</ele>
        <time>2021-01-23T06:30:53Z</time>
      </trkpt>
      <trkpt lat="19.083226" lon="-98.607408">
        <ele>3456.014</ele>
        <time>2021-01-23T06:30:57Z</time>
      </trkpt>
      <trkpt lat="19.083184" lon="-98.607449">
        <ele>3456.854</ele>
        <time>2021-01-23T06:31:01Z</time>
      </trkpt>
      <trkpt lat="19.083135" lon="-98.607481">
        <ele>3458.109</ele>
        <time>2021-01-23T06:31:05Z</time>
      </trkpt>
      <trkpt lat="19.083091" lon="-98.607498">
        <ele>3459.308</ele>
        <time>2021-01-23T06:31:08Z</time>
      </trkpt>
      <trkpt lat="19.083052" lon="-98.607522">
        <ele>3460.087</ele>
        <time>2021-01-23T06:31:12Z</time>
      </trkpt>
      <trkpt lat="19.083017" lon="-98.607566">
        <ele>3461.265</ele>
        <time>2021-01-23T06:31:17Z</time>
      </trkpt>
      <trkpt lat="19.082973" lon="-98.6076">
        <ele>3461.526</ele>
        <time>2021-01-23T06:31:23Z</time>
      </trkpt>
      <trkpt lat="19.082929" lon="-98.607628">
        <ele>3462.168</ele>
        <time>2021-01-23T06:31:28Z</time>
      </trkpt>
      <trkpt lat="19.082883" lon="-98.607653">
        <ele>3462.970</ele>
        <time>2021-01-23T06:31:33Z</time>
      </trkpt>
      <trkpt lat="19.082844" lon="-98.607682">
        <ele>3458.993</ele>
        <time>2021-01-23T06:31:38Z</time>
      </trkpt>
      <trkpt lat="19.082816" lon="-98.607724">
        <ele>3457.869</ele>
        <time>2021-01-23T06:31:44Z</time>
      </trkpt>
      <trkpt lat="19.082773" lon="-98.607749">
        <ele>3455.526</ele>
        <time>2021-01-23T06:31:48Z</time>
      </trkpt>
      <trkpt lat="19.082723" lon="-98.607772">
        <ele>3456.973</ele>
        <time>2021-01-23T06:31:52Z</time>
      </trkpt>
      <trkpt lat="19.082676" lon="-98.607798">
        <ele>3459.485</ele>
        <time>2021-01-23T06:31:56Z</time>
      </trkpt>
      <trkpt lat="19.082633" lon="-98.607835">
        <ele>3461.313</ele>
        <time>2021-01-23T06:32:01Z</time>
      </trkpt>
      <trkpt lat="19.082592" lon="-98.607862">
        <ele>3462.008</ele>
        <time>2021-01-23T06:32:05Z</time>
      </trkpt>
      <trkpt lat="19.082545" lon="-98.607888">
        <ele>3462.493</ele>
        <time>2021-01-23T06:32:10Z</time>
      </trkpt>
      <trkpt lat="19.082497" lon="-98.607904">
        <ele>3462.331</ele>
        <time>2021-01-23T06:32:15Z</time>
      </trkpt>
      <trkpt lat="19.08245" lon="-98.60791">
        <ele>3463.072</ele>
        <time>2021-01-23T06:32:19Z</time>
      </trkpt>
      <trkpt lat="19.082402" lon="-98.607931">
        <ele>3465.094</ele>
        <time>2021-01-23T06:32:22Z</time>
      </trkpt>
      <trkpt lat="19.082357" lon="-98.607961">
        <ele>3465.476</ele>
        <time>2021-01-23T06:32:25Z</time>
      </trkpt>
      <trkpt lat="19.082306" lon="-98.607987">
        <ele>3465.789</ele>
        <time>2021-01-23T06:32:29Z</time>
      </trkpt>
      <trkpt lat="19.082264" lon="-98.608011">
        <ele>3465.925</ele>
        <time>2021-01-23T06:32:32Z</time>
      </trkpt>
      <trkpt lat="19.082224" lon="-98.608036">
        <ele>3465.662</ele>
        <time>2021-01-23T06:32:35Z</time>
      </trkpt>
      <trkpt lat="19.082178" lon="-98.608048">
        <ele>3465.055</ele>
        <time>2021-01-23T06:32:40Z</time>
      </trkpt>
      <trkpt lat="19.08213" lon="-98.608042">
        <ele>3464.207</ele>
        <time>2021-01-23T06:32:45Z</time>
      </trkpt>
      <trkpt lat="19.082079" lon="-98.608043">
        <ele>3462.917</ele>
        <time>2021-01-23T06:32:51Z</time>
      </trkpt>
      <trkpt lat="19.082029" lon="-98.608054">
        <ele>3462.508</ele>
        <time>2021-01-23T06:32:56Z</time>
      </trkpt>
      <trkpt lat="19.081976" lon="-98.608062">
        <ele>3461.531</ele>
        <time>2021-01-23T06:33:02Z</time>
      </trkpt>
      <trkpt lat="19.081921" lon="-98.608069">
        <ele>3462.559</ele>
        <time>2021-01-23T06:33:08Z</time>
      </trkpt>
      <trkpt lat="19.081872" lon="-98.608093">
        <ele>3465.180</ele>
        <time>2021-01-23T06:33:11Z</time>
      </trkpt>
      <trkpt lat="19.08182" lon="-98.608113">
        <ele>3466.322</ele>
        <time>2021-01-23T06:33:14Z</time>
      </trkpt>
      <trkpt lat="19.081777" lon="-98.608148">
        <ele>3466.694</ele>
        <time>2021-01-23T06:33:18Z</time>
      </trkpt>
      <trkpt lat="19.081725" lon="-98.608158">
        <ele>3466.087</ele>
        <time>2021-01-23T06:33:23Z</time>
      </trkpt>
      <trkpt lat="19.08168" lon="-98.608138">
        <ele>3462.053</ele>
        <time>2021-01-23T06:33:28Z</time>
      </trkpt>
      <trkpt lat="19.081631" lon="-98.608145">
        <ele>3458.070</ele>
        <time>2021-01-23T06:33:33Z</time>
      </trkpt>
      <trkpt lat="19.081583" lon="-98.608162">
        <ele>3457.226</ele>
        <time>2021-01-23T06:33:38Z</time>
      </trkpt>
      <trkpt lat="19.081551" lon="-98.608199">
        <ele>3457.547</ele>
        <time>2021-01-23T06:33:43Z</time>
      </trkpt>
      <trkpt lat="19.081528" lon="-98.608244">
        <ele>3458.911</ele>
        <time>2021-01-23T06:33:47Z</time>
      </trkpt>
      <trkpt lat="19.08149" lon="-98.608284">
        <ele>3460.108</ele>
        <time>2021-01-23T06:33:52Z</time>
      </trkpt>
      <trkpt lat="19.081452" lon="-98.608311">
        <ele>3462.088</ele>
        <time>2021-01-23T06:33:56Z</time>
      </trkpt>
      <trkpt lat="19.081404" lon="-98.608314">
        <ele>3464.426</ele>
        <time>2021-01-23T06:34:00Z</time>
      </trkpt>
      <trkpt lat="19.081356" lon="-98.608328">
        <ele>3465.467</ele>
        <time>2021-01-23T06:34:05Z</time>
      </trkpt>
      <trkpt lat="19.081315" lon="-98.608353">
        <ele>3466.479</ele>
        <time>2021-01-23T06:34:10Z</time>
      </trkpt>
      <trkpt lat="19.081274" lon="-98.608381">
        <ele>3462.481</ele>
        <time>2021-01-23T06:34:14Z</time>
      </trkpt>
      <trkpt lat="19.081229" lon="-98.608403">
        <ele>3461.014</ele>
        <time>2021-01-23T06:34:18Z</time>
      </trkpt>
      <trkpt lat="19.081195" lon="-98.608438">
        <ele>3462.670</ele>
        <time>2021-01-23T06:34:23Z</time>
      </trkpt>
      <trkpt lat="19.081183" lon="-98.608484">
        <ele>3465.117</ele>
        <time>2021-01-23T06:34:32Z</time>
      </trkpt>
      <trkpt lat="19.081133" lon="-98.608512">
        <ele>3468.292</ele>
        <time>2021-01-23T06:34:42Z</time>
      </trkpt>
      <trkpt lat="19.081078" lon="-98.608531">
        <ele>3471.373</ele>
        <time>2021-01-23T06:34:45Z</time>
      </trkpt>
      <trkpt lat="19.081031" lon="-98.608544">
        <ele>3473.120</ele>
        <time>2021-01-23T06:34:48Z</time>
      </trkpt>
      <trkpt lat="19.080989" lon="-98.608561">
        <ele>3474.208</ele>
        <time>2021-01-23T06:34:51Z</time>
      </trkpt>
      <trkpt lat="19.080951" lon="-98.608588">
        <ele>3474.965</ele>
        <time>2021-01-23T06:34:54Z</time>
      </trkpt>
      <trkpt lat="19.080909" lon="-98.60862">
        <ele>3474.193</ele>
        <time>2021-01-23T06:34:58Z</time>
      </trkpt>
      <trkpt lat="19.080872" lon="-98.608659">
        <ele>3474.064</ele>
        <time>2021-01-23T06:35:01Z</time>
      </trkpt>
      <trkpt lat="19.080838" lon="-98.608706">
        <ele>3474.056</ele>
        <time>2021-01-23T06:35:04Z</time>
      </trkpt>
      <trkpt lat="19.080807" lon="-98.608745">
        <ele>3473.618</ele>
        <time>2021-01-23T06:35:07Z</time>
      </trkpt>
      <trkpt lat="19.080763" lon="-98.608769">
        <ele>3469.681</ele>
        <time>2021-01-23T06:35:13Z</time>
      </trkpt>
      <trkpt lat="19.080719" lon="-98.608794">
        <ele>3468.937</ele>
        <time>2021-01-23T06:35:20Z</time>
      </trkpt>
      <trkpt lat="19.080687" lon="-98.608828">
        <ele>3470.184</ele>
        <time>2021-01-23T06:35:28Z</time>
      </trkpt>
      <trkpt lat="19.080651" lon="-98.608862">
        <ele>3471.226</ele>
        <time>2021-01-23T06:35:33Z</time>
      </trkpt>
      <trkpt lat="19.080619" lon="-98.608905">
        <ele>3472.347</ele>
        <time>2021-01-23T06:35:39Z</time>
      </trkpt>
      <trkpt lat="19.080618" lon="-98.608956">
        <ele>3473.711</ele>
        <time>2021-01-23T06:35:45Z</time>
      </trkpt>
      <trkpt lat="19.080579" lon="-98.608987">
        <ele>3475.408</ele>
        <time>2021-01-23T06:35:50Z</time>
      </trkpt>
      <trkpt lat="19.080554" lon="-98.609031">
        <ele>3476.468</ele>
        <time>2021-01-23T06:35:56Z</time>
      </trkpt>
      <trkpt lat="19.080544" lon="-98.609081">
        <ele>3476.626</ele>
        <time>2021-01-23T06:36:01Z</time>
      </trkpt>
      <trkpt lat="19.080557" lon="-98.609128">
        <ele>3472.687</ele>
        <time>2021-01-23T06:36:06Z</time>
      </trkpt>
      <trkpt lat="19.080517" lon="-98.609167">
        <ele>3469.999</ele>
        <time>2021-01-23T06:36:12Z</time>
      </trkpt>
      <trkpt lat="19.080483" lon="-98.60921">
        <ele>3469.511</ele>
        <time>2021-01-23T06:36:17Z</time>
      </trkpt>
      <trkpt lat="19.080473" lon="-98.609258">
        <ele>3470.564</ele>
        <time>2021-01-23T06:36:22Z</time>
      </trkpt>
      <trkpt lat="19.080461" lon="-98.609308">
        <ele>3471.990</ele>
        <time>2021-01-23T06:36:28Z</time>
      </trkpt>
      <trkpt lat="19.080434" lon="-98.609352">
        <ele>3472.717</ele>
        <time>2021-01-23T06:36:33Z</time>
      </trkpt>
      <trkpt lat="19.080394" lon="-98.60939">
        <ele>3474.087</ele>
        <time>2021-01-23T06:36:38Z</time>
      </trkpt>
      <trkpt lat="19.080354" lon="-98.609414">
        <ele>3476.042</ele>
        <time>2021-01-23T06:36:43Z</time>
      </trkpt>
      <trkpt lat="19.080313" lon="-98.609437">
        <ele>3478.426</ele>
        <time>2021-01-23T06:36:47Z</time>
      </trkpt>
      <trkpt lat="19.080273" lon="-98.60947">
        <ele>3479.808</ele>
        <time>2021-01-23T06:36:52Z</time>
      </trkpt>
      <trkpt lat="19.080237" lon="-98.609501">
        <ele>3480.764</ele>
        <time>2021-01-23T06:36:56Z</time>
      </trkpt>
      <trkpt lat="19.080196" lon="-98.609538">
        <ele>3480.882</ele>
        <time>2021-01-23T06:37:00Z</time>
      </trkpt>
      <trkpt lat="19.080161" lon="-98.609569">
        <ele>3479.733</ele>
        <time>2021-01-23T06:37:05Z</time>
      </trkpt>
      <trkpt lat="19.080127" lon="-98.609604">
        <ele>3479.015</ele>
        <time>2021-01-23T06:37:10Z</time>
      </trkpt>
      <trkpt lat="19.080078" lon="-98.609619">
        <ele>3478.297</ele>
        <time>2021-01-23T06:37:16Z</time>
      </trkpt>
      <trkpt lat="19.080032" lon="-98.609645">
        <ele>3479.360</ele>
        <time>2021-01-23T06:37:23Z</time>
      </trkpt>
      <trkpt lat="19.079991" lon="-98.609676">
        <ele>3480.876</ele>
        <time>2021-01-23T06:37:27Z</time>
      </trkpt>
      <trkpt lat="19.079956" lon="-98.609709">
        <ele>3481.793</ele>
        <time>2021-01-23T06:37:31Z</time>
      </trkpt>
      <trkpt lat="19.079936" lon="-98.609754">
        <ele>3483.085</ele>
        <time>2021-01-23T06:37:40Z</time>
      </trkpt>
      <trkpt lat="19.079909" lon="-98.609801">
        <ele>3484.289</ele>
        <time>2021-01-23T06:37:44Z</time>
      </trkpt>
      <trkpt lat="19.079871" lon="-98.60984">
        <ele>3485.317</ele>
        <time>2021-01-23T06:37:48Z</time>
      </trkpt>
      <trkpt lat="19.079821" lon="-98.609856">
        <ele>3484.408</ele>
        <time>2021-01-23T06:37:52Z</time>
      </trkpt>
      <trkpt lat="19.079777" lon="-98.609871">
        <ele>3484.254</ele>
        <time>2021-01-23T06:38:00Z</time>
      </trkpt>
      <trkpt lat="19.079728" lon="-98.609876">
        <ele>3486.532</ele>
        <time>2021-01-23T06:38:06Z</time>
      </trkpt>
      <trkpt lat="19.07968" lon="-98.609897">
        <ele>3487.113</ele>
        <time>2021-01-23T06:38:12Z</time>
      </trkpt>
      <trkpt lat="19.079639" lon="-98.609923">
        <ele>3489.935</ele>
        <time>2021-01-23T06:38:17Z</time>
      </trkpt>
      <trkpt lat="19.079598" lon="-98.609959">
        <ele>3491.657</ele>
        <time>2021-01-23T06:38:22Z</time>
      </trkpt>
      <trkpt lat="19.079555" lon="-98.609983">
        <ele>3492.250</ele>
        <time>2021-01-23T06:38:27Z</time>
      </trkpt>
      <trkpt lat="19.079512" lon="-98.610006">
        <ele>3492.666</ele>
        <time>2021-01-23T06:38:32Z</time>
      </trkpt>
      <trkpt lat="19.079469" lon="-98.610026">
        <ele>3492.823</ele>
        <time>2021-01-23T06:38:36Z</time>
      </trkpt>
      <trkpt lat="19.079424" lon="-98.610047">
        <ele>3492.514</ele>
        <time>2021-01-23T06:38:40Z</time>
      </trkpt>
      <trkpt lat="19.079383" lon="-98.610077">
        <ele>3493.954</ele>
        <time>2021-01-23T06:38:44Z</time>
      </trkpt>
      <trkpt lat="19.079345" lon="-98.610117">
        <ele>3494.809</ele>
        <time>2021-01-23T06:38:49Z</time>
      </trkpt>
      <trkpt lat="19.079304" lon="-98.610144">
        <ele>3496.508</ele>
        <time>2021-01-23T06:38:56Z</time>
      </trkpt>
      <trkpt lat="19.079251" lon="-98.610156">
        <ele>3498.767</ele>
        <time>2021-01-23T06:39:05Z</time>
      </trkpt>
      <trkpt lat="19.079197" lon="-98.610167">
        <ele>3500.075</ele>
        <time>2021-01-23T06:39:09Z</time>
      </trkpt>
      <trkpt lat="19.079142" lon="-98.610174">
        <ele>3501.276</ele>
        <time>2021-01-23T06:39:13Z</time>
      </trkpt>
      <trkpt lat="19.079092" lon="-98.61019">
        <ele>3502.728</ele>
        <time>2021-01-23T06:39:18Z</time>
      </trkpt>
      <trkpt lat="19.079044" lon="-98.610199">
        <ele>3502.840</ele>
        <time>2021-01-23T06:39:23Z</time>
      </trkpt>
      <trkpt lat="19.078993" lon="-98.610197">
        <ele>3503.713</ele>
        <time>2021-01-23T06:39:28Z</time>
      </trkpt>
      <trkpt lat="19.078943" lon="-98.610193">
        <ele>3504.219</ele>
        <time>2021-01-23T06:39:32Z</time>
      </trkpt>
      <trkpt lat="19.078895" lon="-98.610179">
        <ele>3504.546</ele>
        <time>2021-01-23T06:39:36Z</time>
      </trkpt>
      <trkpt lat="19.078845" lon="-98.610151">
        <ele>3504.722</ele>
        <time>2021-01-23T06:39:40Z</time>
      </trkpt>
      <trkpt lat="19.078787" lon="-98.610135">
        <ele>3506.062</ele>
        <time>2021-01-23T06:39:44Z</time>
      </trkpt>
      <trkpt lat="19.078732" lon="-98.610134">
        <ele>3507.208</ele>
        <time>2021-01-23T06:39:48Z</time>
      </trkpt>
      <trkpt lat="19.078683" lon="-98.610137">
        <ele>3507.908</ele>
        <time>2021-01-23T06:39:53Z</time>
      </trkpt>
      <trkpt lat="19.078628" lon="-98.610145">
        <ele>3507.138</ele>
        <time>2021-01-23T06:39:59Z</time>
      </trkpt>
      <trkpt lat="19.078587" lon="-98.610166">
        <ele>3508.236</ele>
        <time>2021-01-23T06:40:03Z</time>
      </trkpt>
      <trkpt lat="19.078571" lon="-98.610212">
        <ele>3508.917</ele>
        <time>2021-01-23T06:40:11Z</time>
      </trkpt>
      <trkpt lat="19.078555" lon="-98.610267">
        <ele>3509.349</ele>
        <time>2021-01-23T06:40:18Z</time>
      </trkpt>
      <trkpt lat="19.078531" lon="-98.610313">
        <ele>3508.711</ele>
        <time>2021-01-23T06:40:23Z</time>
      </trkpt>
      <trkpt lat="19.078485" lon="-98.610305">
        <ele>3506.444</ele>
        <time>2021-01-23T06:40:33Z</time>
      </trkpt>
      <trkpt lat="19.078442" lon="-98.610336">
        <ele>3505.880</ele>
        <time>2021-01-23T06:40:37Z</time>
      </trkpt>
      <trkpt lat="19.0784" lon="-98.610361">
        <ele>3504.287</ele>
        <time>2021-01-23T06:40:41Z</time>
      </trkpt>
      <trkpt lat="19.078356" lon="-98.610381">
        <ele>3503.743</ele>
        <time>2021-01-23T06:40:45Z</time>
      </trkpt>
      <trkpt lat="19.078312" lon="-98.610412">
        <ele>3503.064</ele>
        <time>2021-01-23T06:40:50Z</time>
      </trkpt>
      <trkpt lat="19.078267" lon="-98.61043">
        <ele>3502.210</ele>
        <time>2021-01-23T06:40:55Z</time>
      </trkpt>
      <trkpt lat="19.078228" lon="-98.610455">
        <ele>3502.108</ele>
        <time>2021-01-23T06:40:59Z</time>
      </trkpt>
      <trkpt lat="19.078186" lon="-98.610484">
        <ele>3501.220</ele>
        <time>2021-01-23T06:41:04Z</time>
      </trkpt>
      <trkpt lat="19.078134" lon="-98.61049">
        <ele>3501.938</ele>
        <time>2021-01-23T06:41:09Z</time>
      </trkpt>
      <trkpt lat="19.078089" lon="-98.610496">
        <ele>3502.789</ele>
        <time>2021-01-23T06:41:15Z</time>
      </trkpt>
      <trkpt lat="19.078047" lon="-98.610515">
        <ele>3503.231</ele>
        <time>2021-01-23T06:41:21Z</time>
      </trkpt>
      <trkpt lat="19.077998" lon="-98.610522">
        <ele>3502.763</ele>
        <time>2021-01-23T06:41:26Z</time>
      </trkpt>
      <trkpt lat="19.077956" lon="-98.610545">
        <ele>3499.756</ele>
        <time>2021-01-23T06:41:31Z</time>
      </trkpt>
      <trkpt lat="19.077956" lon="-98.610545">
        <ele>3499.712</ele>
        <time>2021-01-23T06:41:31Z</time>
      </trkpt>
      <trkpt lat="19.077915" lon="-98.610566">
        <ele>3499.479</ele>
        <time>2021-01-23T06:41:35Z</time>
      </trkpt>
      <trkpt lat="19.077861" lon="-98.610572">
        <ele>3499.657</ele>
        <time>2021-01-23T06:41:41Z</time>
      </trkpt>
      <trkpt lat="19.077812" lon="-98.610558">
        <ele>3501.300</ele>
        <time>2021-01-23T06:41:46Z</time>
      </trkpt>
      <trkpt lat="19.077765" lon="-98.610564">
        <ele>3503.120</ele>
        <time>2021-01-23T06:41:50Z</time>
      </trkpt>
      <trkpt lat="19.077719" lon="-98.610594">
        <ele>3505.408</ele>
        <time>2021-01-23T06:41:55Z</time>
      </trkpt>
      <trkpt lat="19.077681" lon="-98.610622">
        <ele>3508.861</ele>
        <time>2021-01-23T06:41:59Z</time>
      </trkpt>
      <trkpt lat="19.077643" lon="-98.610651">
        <ele>3510.419</ele>
        <time>2021-01-23T06:42:04Z</time>
      </trkpt>
      <trkpt lat="19.077598" lon="-98.610682">
        <ele>3513.460</ele>
        <time>2021-01-23T06:42:16Z</time>
      </trkpt>
      <trkpt lat="19.077564" lon="-98.610715">
        <ele>3514.012</ele>
        <time>2021-01-23T06:42:23Z</time>
      </trkpt>
      <trkpt lat="19.077536" lon="-98.610753">
        <ele>3514.484</ele>
        <time>2021-01-23T06:42:29Z</time>
      </trkpt>
      <trkpt lat="19.077495" lon="-98.610783">
        <ele>3515.047</ele>
        <time>2021-01-23T06:42:36Z</time>
      </trkpt>
      <trkpt lat="19.077451" lon="-98.610812">
        <ele>3515.813</ele>
        <time>2021-01-23T06:42:42Z</time>
      </trkpt>
      <trkpt lat="19.077399" lon="-98.610828">
        <ele>3514.790</ele>
        <time>2021-01-23T06:42:46Z</time>
      </trkpt>
      <trkpt lat="19.077359" lon="-98.610856">
        <ele>3513.233</ele>
        <time>2021-01-23T06:42:50Z</time>
      </trkpt>
      <trkpt lat="19.077318" lon="-98.610901">
        <ele>3513.923</ele>
        <time>2021-01-23T06:42:55Z</time>
      </trkpt>
      <trkpt lat="19.077276" lon="-98.61093">
        <ele>3514.315</ele>
        <time>2021-01-23T06:43:00Z</time>
      </trkpt>
      <trkpt lat="19.077231" lon="-98.610955">
        <ele>3514.608</ele>
        <time>2021-01-23T06:43:04Z</time>
      </trkpt>
      <trkpt lat="19.077179" lon="-98.61098">
        <ele>3514.839</ele>
        <time>2021-01-23T06:43:08Z</time>
      </trkpt>
      <trkpt lat="19.077124" lon="-98.611002">
        <ele>3515.797</ele>
        <time>2021-01-23T06:43:12Z</time>
      </trkpt>
      <trkpt lat="19.077084" lon="-98.611035">
        <ele>3515.468</ele>
        <time>2021-01-23T06:43:17Z</time>
      </trkpt>
      <trkpt lat="19.077033" lon="-98.611049">
        <ele>3515.860</ele>
        <time>2021-01-23T06:43:22Z</time>
      </trkpt>
      <trkpt lat="19.077033" lon="-98.611049">
        <ele>3515.872</ele>
        <time>2021-01-23T06:43:22Z</time>
      </trkpt>
      <trkpt lat="19.07699" lon="-98.611073">
        <ele>3517.115</ele>
        <time>2021-01-23T06:43:26Z</time>
      </trkpt>
      <trkpt lat="19.07694" lon="-98.611095">
        <ele>3518.751</ele>
        <time>2021-01-23T06:43:30Z</time>
      </trkpt>
      <trkpt lat="19.076904" lon="-98.611131">
        <ele>3520.838</ele>
        <time>2021-01-23T06:43:34Z</time>
      </trkpt>
      <trkpt lat="19.076896" lon="-98.611183">
        <ele>3521.362</ele>
        <time>2021-01-23T06:43:39Z</time>
      </trkpt>
      <trkpt lat="19.076856" lon="-98.611226">
        <ele>3521.683</ele>
        <time>2021-01-23T06:43:50Z</time>
      </trkpt>
      <trkpt lat="19.076814" lon="-98.611257">
        <ele>3522.211</ele>
        <time>2021-01-23T06:43:55Z</time>
      </trkpt>
      <trkpt lat="19.076774" lon="-98.61128">
        <ele>3520.908</ele>
        <time>2021-01-23T06:44:03Z</time>
      </trkpt>
      <trkpt lat="19.076738" lon="-98.611311">
        <ele>3519.772</ele>
        <time>2021-01-23T06:44:08Z</time>
      </trkpt>
      <trkpt lat="19.076694" lon="-98.61133">
        <ele>3518.290</ele>
        <time>2021-01-23T06:44:12Z</time>
      </trkpt>
      <trkpt lat="19.076647" lon="-98.611356">
        <ele>3517.391</ele>
        <time>2021-01-23T06:44:17Z</time>
      </trkpt>
      <trkpt lat="19.076603" lon="-98.61137">
        <ele>3516.863</ele>
        <time>2021-01-23T06:44:23Z</time>
      </trkpt>
      <trkpt lat="19.076563" lon="-98.611398">
        <ele>3516.945</ele>
        <time>2021-01-23T06:44:30Z</time>
      </trkpt>
      <trkpt lat="19.076508" lon="-98.611415">
        <ele>3517.718</ele>
        <time>2021-01-23T06:44:34Z</time>
      </trkpt>
      <trkpt lat="19.076465" lon="-98.611446">
        <ele>3517.844</ele>
        <time>2021-01-23T06:44:37Z</time>
      </trkpt>
      <trkpt lat="19.076443" lon="-98.611501">
        <ele>3519.191</ele>
        <time>2021-01-23T06:44:41Z</time>
      </trkpt>
      <trkpt lat="19.076419" lon="-98.611552">
        <ele>3518.728</ele>
        <time>2021-01-23T06:44:45Z</time>
      </trkpt>
      <trkpt lat="19.076389" lon="-98.61159">
        <ele>3518.089</ele>
        <time>2021-01-23T06:44:49Z</time>
      </trkpt>
      <trkpt lat="19.076348" lon="-98.611617">
        <ele>3516.017</ele>
        <time>2021-01-23T06:44:54Z</time>
      </trkpt>
      <trkpt lat="19.076311" lon="-98.611651">
        <ele>3514.808</ele>
        <time>2021-01-23T06:45:05Z</time>
      </trkpt>
      <trkpt lat="19.076278" lon="-98.611688">
        <ele>3513.388</ele>
        <time>2021-01-23T06:45:10Z</time>
      </trkpt>
      <trkpt lat="19.076228" lon="-98.611725">
        <ele>3513.636</ele>
        <time>2021-01-23T06:45:15Z</time>
      </trkpt>
      <trkpt lat="19.076186" lon="-98.611756">
        <ele>3513.417</ele>
        <time>2021-01-23T06:45:18Z</time>
      </trkpt>
      <trkpt lat="19.076151" lon="-98.611801">
        <ele>3514.999</ele>
        <time>2021-01-23T06:45:22Z</time>
      </trkpt>
      <trkpt lat="19.076124" lon="-98.611842">
        <ele>3515.091</ele>
        <time>2021-01-23T06:45:27Z</time>
      </trkpt>
      <trkpt lat="19.076094" lon="-98.611879">
        <ele>3514.694</ele>
        <time>2021-01-23T06:45:33Z</time>
      </trkpt>
      <trkpt lat="19.076051" lon="-98.611905">
        <ele>3515.230</ele>
        <time>2021-01-23T06:45:38Z</time>
      </trkpt>
      <trkpt lat="19.076" lon="-98.611911">
        <ele>3517.247</ele>
        <time>2021-01-23T06:45:43Z</time>
      </trkpt>
      <trkpt lat="19.075955" lon="-98.611917">
        <ele>3517.248</ele>
        <time>2021-01-23T06:45:47Z</time>
      </trkpt>
      <trkpt lat="19.075907" lon="-98.611937">
        <ele>3516.861</ele>
        <time>2021-01-23T06:45:52Z</time>
      </trkpt>
      <trkpt lat="19.075864" lon="-98.611958">
        <ele>3517.317</ele>
        <time>2021-01-23T06:45:56Z</time>
      </trkpt>
      <trkpt lat="19.07582" lon="-98.611991">
        <ele>3517.208</ele>
        <time>2021-01-23T06:46:00Z</time>
      </trkpt>
      <trkpt lat="19.075774" lon="-98.612013">
        <ele>3517.850</ele>
        <time>2021-01-23T06:46:04Z</time>
      </trkpt>
      <trkpt lat="19.075774" lon="-98.612013">
        <ele>3517.858</ele>
        <time>2021-01-23T06:46:04Z</time>
      </trkpt>
      <trkpt lat="19.07573" lon="-98.612031">
        <ele>3517.549</ele>
        <time>2021-01-23T06:46:10Z</time>
      </trkpt>
      <trkpt lat="19.075691" lon="-98.612057">
        <ele>3519.341</ele>
        <time>2021-01-23T06:46:18Z</time>
      </trkpt>
      <trkpt lat="19.075644" lon="-98.612084">
        <ele>3517.623</ele>
        <time>2021-01-23T06:46:23Z</time>
      </trkpt>
      <trkpt lat="19.075597" lon="-98.612098">
        <ele>3517.076</ele>
        <time>2021-01-23T06:46:27Z</time>
      </trkpt>
      <trkpt lat="19.075555" lon="-98.612121">
        <ele>3517.072</ele>
        <time>2021-01-23T06:46:32Z</time>
      </trkpt>
      <trkpt lat="19.075523" lon="-98.612166">
        <ele>3516.699</ele>
        <time>2021-01-23T06:46:37Z</time>
      </trkpt>
      <trkpt lat="19.07549" lon="-98.612198">
        <ele>3517.215</ele>
        <time>2021-01-23T06:46:42Z</time>
      </trkpt>
      <trkpt lat="19.075447" lon="-98.612228">
        <ele>3518.765</ele>
        <time>2021-01-23T06:46:47Z</time>
      </trkpt>
      <trkpt lat="19.075395" lon="-98.612252">
        <ele>3522.011</ele>
        <time>2021-01-23T06:46:52Z</time>
      </trkpt>
      <trkpt lat="19.075343" lon="-98.612257">
        <ele>3524.008</ele>
        <time>2021-01-23T06:46:56Z</time>
      </trkpt>
      <trkpt lat="19.075295" lon="-98.612249">
        <ele>3526.667</ele>
        <time>2021-01-23T06:47:00Z</time>
      </trkpt>
      <trkpt lat="19.075295" lon="-98.612249">
        <ele>3526.665</ele>
        <time>2021-01-23T06:47:00Z</time>
      </trkpt>
      <trkpt lat="19.075251" lon="-98.612228">
        <ele>3527.276</ele>
        <time>2021-01-23T06:47:03Z</time>
      </trkpt>
      <trkpt lat="19.075202" lon="-98.612215">
        <ele>3527.198</ele>
        <time>2021-01-23T06:47:06Z</time>
      </trkpt>
      <trkpt lat="19.075146" lon="-98.612217">
        <ele>3526.340</ele>
        <time>2021-01-23T06:47:10Z</time>
      </trkpt>
      <trkpt lat="19.075093" lon="-98.612217">
        <ele>3525.823</ele>
        <time>2021-01-23T06:47:15Z</time>
      </trkpt>
      <trkpt lat="19.075046" lon="-98.612224">
        <ele>3526.779</ele>
        <time>2021-01-23T06:47:21Z</time>
      </trkpt>
      <trkpt lat="19.074994" lon="-98.612233">
        <ele>3527.636</ele>
        <time>2021-01-23T06:47:27Z</time>
      </trkpt>
      <trkpt lat="19.074944" lon="-98.612212">
        <ele>3528.647</ele>
        <time>2021-01-23T06:47:33Z</time>
      </trkpt>
      <trkpt lat="19.074897" lon="-98.612211">
        <ele>3530.429</ele>
        <time>2021-01-23T06:47:37Z</time>
      </trkpt>
      <trkpt lat="19.07484" lon="-98.612212">
        <ele>3531.921</ele>
        <time>2021-01-23T06:47:41Z</time>
      </trkpt>
      <trkpt lat="19.074788" lon="-98.612222">
        <ele>3534.008</ele>
        <time>2021-01-23T06:47:45Z</time>
      </trkpt>
      <trkpt lat="19.074741" lon="-98.612221">
        <ele>3537.260</ele>
        <time>2021-01-23T06:47:51Z</time>
      </trkpt>
      <trkpt lat="19.074698" lon="-98.612194">
        <ele>3538.768</ele>
        <time>2021-01-23T06:48:06Z</time>
      </trkpt>
      <trkpt lat="19.074664" lon="-98.612152">
        <ele>3539.679</ele>
        <time>2021-01-23T06:48:12Z</time>
      </trkpt>
      <trkpt lat="19.07462" lon="-98.612134">
        <ele>3541.071</ele>
        <time>2021-01-23T06:48:18Z</time>
      </trkpt>
      <trkpt lat="19.074576" lon="-98.61212">
        <ele>3540.613</ele>
        <time>2021-01-23T06:48:23Z</time>
      </trkpt>
      <trkpt lat="19.074534" lon="-98.612104">
        <ele>3538.496</ele>
        <time>2021-01-23T06:48:32Z</time>
      </trkpt>
      <trkpt lat="19.074505" lon="-98.612141">
        <ele>3537.172</ele>
        <time>2021-01-23T06:48:37Z</time>
      </trkpt>
      <trkpt lat="19.074467" lon="-98.612174">
        <ele>3536.729</ele>
        <time>2021-01-23T06:48:45Z</time>
      </trkpt>
      <trkpt lat="19.074423" lon="-98.612188">
        <ele>3537.631</ele>
        <time>2021-01-23T06:48:51Z</time>
      </trkpt>
      <trkpt lat="19.074423" lon="-98.612188">
        <ele>3537.661</ele>
        <time>2021-01-23T06:48:51Z</time>
      </trkpt>
      <trkpt lat="19.074374" lon="-98.612173">
        <ele>3537.807</ele>
        <time>2021-01-23T06:48:57Z</time>
      </trkpt>
      <trkpt lat="19.074325" lon="-98.612173">
        <ele>3539.308</ele>
        <time>2021-01-23T06:49:02Z</time>
      </trkpt>
      <trkpt lat="19.074325" lon="-98.612173">
        <ele>3539.399</ele>
        <time>2021-01-23T06:49:02Z</time>
      </trkpt>
      <trkpt lat="19.074277" lon="-98.612171">
        <ele>3536.827</ele>
        <time>2021-01-23T06:49:12Z</time>
      </trkpt>
      <trkpt lat="19.074248" lon="-98.612215">
        <ele>3535.738</ele>
        <time>2021-01-23T06:49:21Z</time>
      </trkpt>
      <trkpt lat="19.074199" lon="-98.612234">
        <ele>3534.740</ele>
        <time>2021-01-23T06:49:28Z</time>
      </trkpt>
      <trkpt lat="19.074152" lon="-98.612248">
        <ele>3535.712</ele>
        <time>2021-01-23T06:49:34Z</time>
      </trkpt>
      <trkpt lat="19.074108" lon="-98.612273">
        <ele>3536.035</ele>
        <time>2021-01-23T06:49:39Z</time>
      </trkpt>
      <trkpt lat="19.074108" lon="-98.612273">
        <ele>3536.071</ele>
        <time>2021-01-23T06:49:39Z</time>
      </trkpt>
      <trkpt lat="19.074053" lon="-98.612298">
        <ele>3532.038</ele>
        <time>2021-01-23T06:49:43Z</time>
      </trkpt>
      <trkpt lat="19.074006" lon="-98.61231">
        <ele>3528.082</ele>
        <time>2021-01-23T06:49:47Z</time>
      </trkpt>
      <trkpt lat="19.073964" lon="-98.612327">
        <ele>3528.543</ele>
        <time>2021-01-23T06:49:54Z</time>
      </trkpt>
      <trkpt lat="19.073921" lon="-98.612351">
        <ele>3532.517</ele>
        <time>2021-01-23T06:50:14Z</time>
      </trkpt>
      <trkpt lat="19.073881" lon="-98.612384">
        <ele>3536.508</ele>
        <time>2021-01-23T06:50:20Z</time>
      </trkpt>
      <trkpt lat="19.073842" lon="-98.612417">
        <ele>3540.594</ele>
        <time>2021-01-23T06:50:25Z</time>
      </trkpt>
      <trkpt lat="19.07381" lon="-98.612461">
        <ele>3544.522</ele>
        <time>2021-01-23T06:50:30Z</time>
      </trkpt>
      <trkpt lat="19.073777" lon="-98.612495">
        <ele>3548.483</ele>
        <time>2021-01-23T06:50:37Z</time>
      </trkpt>
      <trkpt lat="19.07374" lon="-98.612527">
        <ele>3551.125</ele>
        <time>2021-01-23T06:50:43Z</time>
      </trkpt>
      <trkpt lat="19.073705" lon="-98.61256">
        <ele>3552.327</ele>
        <time>2021-01-23T06:50:50Z</time>
      </trkpt>
      <trkpt lat="19.073668" lon="-98.612588">
        <ele>3553.050</ele>
        <time>2021-01-23T06:50:58Z</time>
      </trkpt>
      <trkpt lat="19.073623" lon="-98.612591">
        <ele>3549.416</ele>
        <time>2021-01-23T06:51:04Z</time>
      </trkpt>
      <trkpt lat="19.07358" lon="-98.612612">
        <ele>3545.433</ele>
        <time>2021-01-23T06:51:11Z</time>
      </trkpt>
      <trkpt lat="19.073541" lon="-98.612637">
        <ele>3548.969</ele>
        <time>2021-01-23T06:51:18Z</time>
      </trkpt>
      <trkpt lat="19.073499" lon="-98.612674">
        <ele>3552.904</ele>
        <time>2021-01-23T06:51:24Z</time>
      </trkpt>
      <trkpt lat="19.07346" lon="-98.612702">
        <ele>3556.924</ele>
        <time>2021-01-23T06:51:29Z</time>
      </trkpt>
      <trkpt lat="19.073424" lon="-98.612733">
        <ele>3552.908</ele>
        <time>2021-01-23T06:51:35Z</time>
      </trkpt>
      <trkpt lat="19.073387" lon="-98.61276">
        <ele>3548.952</ele>
        <time>2021-01-23T06:51:39Z</time>
      </trkpt>
      <trkpt lat="19.073352" lon="-98.612729">
        <ele>3551.830</ele>
        <time>2021-01-23T06:51:48Z</time>
      </trkpt>
      <trkpt lat="19.073305" lon="-98.61273">
        <ele>3555.851</ele>
        <time>2021-01-23T06:51:59Z</time>
      </trkpt>
      <trkpt lat="19.073264" lon="-98.612761">
        <ele>3559.823</ele>
        <time>2021-01-23T06:52:16Z</time>
      </trkpt>
      <trkpt lat="19.073225" lon="-98.612785">
        <ele>3562.795</ele>
        <time>2021-01-23T06:52:22Z</time>
      </trkpt>
      <trkpt lat="19.073187" lon="-98.612822">
        <ele>3567.478</ele>
        <time>2021-01-23T06:52:27Z</time>
      </trkpt>
      <trkpt lat="19.073187" lon="-98.612822">
        <ele>3567.484</ele>
        <time>2021-01-23T06:52:27Z</time>
      </trkpt>
      <trkpt lat="19.073136" lon="-98.612828">
        <ele>3570.591</ele>
        <time>2021-01-23T06:52:33Z</time>
      </trkpt>
      <trkpt lat="19.07309" lon="-98.612807">
        <ele>3573.586</ele>
        <time>2021-01-23T06:52:40Z</time>
      </trkpt>
      <trkpt lat="19.07305" lon="-98.612845">
        <ele>3572.960</ele>
        <time>2021-01-23T06:52:47Z</time>
      </trkpt>
      <trkpt lat="19.073007" lon="-98.612866">
        <ele>3574.226</ele>
        <time>2021-01-23T06:52:51Z</time>
      </trkpt>
      <trkpt lat="19.072949" lon="-98.61286">
        <ele>3576.608</ele>
        <time>2021-01-23T06:52:56Z</time>
      </trkpt>
      <trkpt lat="19.072898" lon="-98.612848">
        <ele>3578.494</ele>
        <time>2021-01-23T06:53:00Z</time>
      </trkpt>
      <trkpt lat="19.072853" lon="-98.612842">
        <ele>3579.592</ele>
        <time>2021-01-23T06:53:04Z</time>
      </trkpt>
      <trkpt lat="19.072806" lon="-98.612843">
        <ele>3582.293</ele>
        <time>2021-01-23T06:53:10Z</time>
      </trkpt>
      <trkpt lat="19.072788" lon="-98.612896">
        <ele>3584.695</ele>
        <time>2021-01-23T06:53:18Z</time>
      </trkpt>
      <trkpt lat="19.072773" lon="-98.612956">
        <ele>3584.457</ele>
        <time>2021-01-23T06:53:22Z</time>
      </trkpt>
      <trkpt lat="19.072749" lon="-98.613003">
        <ele>3587.450</ele>
        <time>2021-01-23T06:53:27Z</time>
      </trkpt>
      <trkpt lat="19.072749" lon="-98.613003">
        <ele>3587.436</ele>
        <time>2021-01-23T06:53:27Z</time>
      </trkpt>
      <trkpt lat="19.072716" lon="-98.613042">
        <ele>3587.773</ele>
        <time>2021-01-23T06:53:39Z</time>
      </trkpt>
      <trkpt lat="19.07268" lon="-98.613079">
        <ele>3583.725</ele>
        <time>2021-01-23T06:53:50Z</time>
      </trkpt>
      <trkpt lat="19.072652" lon="-98.613118">
        <ele>3579.726</ele>
        <time>2021-01-23T06:53:57Z</time>
      </trkpt>
      <trkpt lat="19.072614" lon="-98.613144">
        <ele>3579.108</ele>
        <time>2021-01-23T06:54:02Z</time>
      </trkpt>
      <trkpt lat="19.072567" lon="-98.613142">
        <ele>3579.908</ele>
        <time>2021-01-23T06:54:08Z</time>
      </trkpt>
      <trkpt lat="19.072524" lon="-98.613126">
        <ele>3583.658</ele>
        <time>2021-01-23T06:54:16Z</time>
      </trkpt>
      <trkpt lat="19.072513" lon="-98.613174">
        <ele>3581.426</ele>
        <time>2021-01-23T06:54:42Z</time>
      </trkpt>
      <trkpt lat="19.072509" lon="-98.613225">
        <ele>3584.517</ele>
        <time>2021-01-23T06:54:53Z</time>
      </trkpt>
      <trkpt lat="19.072486" lon="-98.61318">
        <ele>3588.519</ele>
        <time>2021-01-23T06:56:37Z</time>
      </trkpt>
      <trkpt lat="19.072454" lon="-98.613143">
        <ele>3591.271</ele>
        <time>2021-01-23T06:57:04Z</time>
      </trkpt>
      <trkpt lat="19.072443" lon="-98.613092">
        <ele>3591.264</ele>
        <time>2021-01-23T06:57:20Z</time>
      </trkpt>
      <trkpt lat="19.072437" lon="-98.613139">
        <ele>3593.230</ele>
        <time>2021-01-23T06:59:20Z</time>
      </trkpt>
      <trkpt lat="19.072478" lon="-98.613174">
        <ele>3592.497</ele>
        <time>2021-01-23T06:59:46Z</time>
      </trkpt>
      <trkpt lat="19.072473" lon="-98.613225">
        <ele>3591.183</ele>
        <time>2021-01-23T07:02:06Z</time>
      </trkpt>
      <trkpt lat="19.072429" lon="-98.613273">
        <ele>3592.725</ele>
        <time>2021-01-23T07:03:11Z</time>
      </trkpt>
      <trkpt lat="19.072406" lon="-98.613325">
        <ele>3593.717</ele>
        <time>2021-01-23T07:03:13Z</time>
      </trkpt>
      <trkpt lat="19.072369" lon="-98.613378">
        <ele>3594.608</ele>
        <time>2021-01-23T07:03:16Z</time>
      </trkpt>
      <trkpt lat="19.072369" lon="-98.613378">
        <ele>3594.674</ele>
        <time>2021-01-23T07:03:16Z</time>
      </trkpt>
      <trkpt lat="19.072314" lon="-98.613381">
        <ele>3595.612</ele>
        <time>2021-01-23T07:03:20Z</time>
      </trkpt>
      <trkpt lat="19.072267" lon="-98.613361">
        <ele>3597.853</ele>
        <time>2021-01-23T07:03:24Z</time>
      </trkpt>
      <trkpt lat="19.072227" lon="-98.613336">
        <ele>3593.815</ele>
        <time>2021-01-23T07:03:28Z</time>
      </trkpt>
      <trkpt lat="19.072176" lon="-98.613326">
        <ele>3591.917</ele>
        <time>2021-01-23T07:03:33Z</time>
      </trkpt>
      <trkpt lat="19.072124" lon="-98.613347">
        <ele>3592.850</ele>
        <time>2021-01-23T07:03:37Z</time>
      </trkpt>
      <trkpt lat="19.072076" lon="-98.613344">
        <ele>3594.576</ele>
        <time>2021-01-23T07:03:43Z</time>
      </trkpt>
      <trkpt lat="19.07203" lon="-98.613363">
        <ele>3597.143</ele>
        <time>2021-01-23T07:03:51Z</time>
      </trkpt>
      <trkpt lat="19.071986" lon="-98.613351">
        <ele>3600.786</ele>
        <time>2021-01-23T07:03:55Z</time>
      </trkpt>
      <trkpt lat="19.071937" lon="-98.613333">
        <ele>3596.760</ele>
        <time>2021-01-23T07:04:00Z</time>
      </trkpt>
      <trkpt lat="19.07189" lon="-98.613333">
        <ele>3596.426</ele>
        <time>2021-01-23T07:04:07Z</time>
      </trkpt>
      <trkpt lat="19.071879" lon="-98.613381">
        <ele>3600.408</ele>
        <time>2021-01-23T07:04:40Z</time>
      </trkpt>
      <trkpt lat="19.07183" lon="-98.613402">
        <ele>3604.474</ele>
        <time>2021-01-23T07:04:46Z</time>
      </trkpt>
      <trkpt lat="19.071782" lon="-98.613413">
        <ele>3605.872</ele>
        <time>2021-01-23T07:04:51Z</time>
      </trkpt>
      <trkpt lat="19.071742" lon="-98.613384">
        <ele>3605.193</ele>
        <time>2021-01-23T07:05:01Z</time>
      </trkpt>
      <trkpt lat="19.071697" lon="-98.613374">
        <ele>3605.175</ele>
        <time>2021-01-23T07:05:11Z</time>
      </trkpt>
      <trkpt lat="19.071651" lon="-98.613387">
        <ele>3606.777</ele>
        <time>2021-01-23T07:05:18Z</time>
      </trkpt>
      <trkpt lat="19.071625" lon="-98.613429">
        <ele>3609.280</ele>
        <time>2021-01-23T07:05:24Z</time>
      </trkpt>
      <trkpt lat="19.071611" lon="-98.613483">
        <ele>3610.756</ele>
        <time>2021-01-23T07:05:30Z</time>
      </trkpt>
      <trkpt lat="19.071602" lon="-98.613531">
        <ele>3611.233</ele>
        <time>2021-01-23T07:05:37Z</time>
      </trkpt>
      <trkpt lat="19.071576" lon="-98.613584">
        <ele>3607.273</ele>
        <time>2021-01-23T07:05:50Z</time>
      </trkpt>
      <trkpt lat="19.071535" lon="-98.61361">
        <ele>3605.585</ele>
        <time>2021-01-23T07:05:58Z</time>
      </trkpt>
      <trkpt lat="19.071489" lon="-98.613616">
        <ele>3604.113</ele>
        <time>2021-01-23T07:06:03Z</time>
      </trkpt>
      <trkpt lat="19.071454" lon="-98.613646">
        <ele>3604.908</ele>
        <time>2021-01-23T07:06:13Z</time>
      </trkpt>
      <trkpt lat="19.071442" lon="-98.613599">
        <ele>3604.213</ele>
        <time>2021-01-23T07:06:44Z</time>
      </trkpt>
      <trkpt lat="19.071481" lon="-98.613624">
        <ele>3603.861</ele>
        <time>2021-01-23T07:07:10Z</time>
      </trkpt>
      <trkpt lat="19.071499" lon="-98.61368">
        <ele>3603.532</ele>
        <time>2021-01-23T07:08:25Z</time>
      </trkpt>
      <trkpt lat="19.071504" lon="-98.613728">
        <ele>3603.784</ele>
        <time>2021-01-23T07:08:29Z</time>
      </trkpt>
      <trkpt lat="19.071516" lon="-98.613774">
        <ele>3604.286</ele>
        <time>2021-01-23T07:08:33Z</time>
      </trkpt>
      <trkpt lat="19.071508" lon="-98.61383">
        <ele>3604.199</ele>
        <time>2021-01-23T07:08:38Z</time>
      </trkpt>
      <trkpt lat="19.071501" lon="-98.613878">
        <ele>3605.745</ele>
        <time>2021-01-23T07:08:43Z</time>
      </trkpt>
      <trkpt lat="19.071491" lon="-98.613925">
        <ele>3601.772</ele>
        <time>2021-01-23T07:08:51Z</time>
      </trkpt>
      <trkpt lat="19.071475" lon="-98.61397">
        <ele>3597.732</ele>
        <time>2021-01-23T07:08:57Z</time>
      </trkpt>
      <trkpt lat="19.071459" lon="-98.614019">
        <ele>3601.792</ele>
        <time>2021-01-23T07:09:08Z</time>
      </trkpt>
      <trkpt lat="19.071434" lon="-98.61406">
        <ele>3605.711</ele>
        <time>2021-01-23T07:09:14Z</time>
      </trkpt>
      <trkpt lat="19.071443" lon="-98.61411">
        <ele>3609.408</ele>
        <time>2021-01-23T07:09:19Z</time>
      </trkpt>
      <trkpt lat="19.071463" lon="-98.614166">
        <ele>3612.429</ele>
        <time>2021-01-23T07:09:24Z</time>
      </trkpt>
      <trkpt lat="19.071477" lon="-98.614215">
        <ele>3615.097</ele>
        <time>2021-01-23T07:09:29Z</time>
      </trkpt>
      <trkpt lat="19.071474" lon="-98.614264">
        <ele>3617.438</ele>
        <time>2021-01-23T07:09:34Z</time>
      </trkpt>
      <trkpt lat="19.071434" lon="-98.614298">
        <ele>3619.660</ele>
        <time>2021-01-23T07:09:47Z</time>
      </trkpt>
      <trkpt lat="19.071407" lon="-98.61434">
        <ele>3615.682</ele>
        <time>2021-01-23T07:09:53Z</time>
      </trkpt>
      <trkpt lat="19.071376" lon="-98.614375">
        <ele>3618.925</ele>
        <time>2021-01-23T07:10:32Z</time>
      </trkpt>
      <trkpt lat="19.071351" lon="-98.614418">
        <ele>3621.781</ele>
        <time>2021-01-23T07:10:41Z</time>
      </trkpt>
      <trkpt lat="19.071318" lon="-98.61446">
        <ele>3622.658</ele>
        <time>2021-01-23T07:10:51Z</time>
      </trkpt>
      <trkpt lat="19.071272" lon="-98.614458">
        <ele>3618.638</ele>
        <time>2021-01-23T07:10:56Z</time>
      </trkpt>
      <trkpt lat="19.071245" lon="-98.614501">
        <ele>3620.770</ele>
        <time>2021-01-23T07:11:07Z</time>
      </trkpt>
      <trkpt lat="19.071224" lon="-98.614548">
        <ele>3622.817</ele>
        <time>2021-01-23T07:11:12Z</time>
      </trkpt>
      <trkpt lat="19.07119" lon="-98.614595">
        <ele>3623.608</ele>
        <time>2021-01-23T07:11:18Z</time>
      </trkpt>
      <trkpt lat="19.071181" lon="-98.614648">
        <ele>3619.679</ele>
        <time>2021-01-23T07:11:23Z</time>
      </trkpt>
      <trkpt lat="19.071154" lon="-98.614697">
        <ele>3617.787</ele>
        <time>2021-01-23T07:11:29Z</time>
      </trkpt>
      <trkpt lat="19.071139" lon="-98.614752">
        <ele>3617.848</ele>
        <time>2021-01-23T07:11:35Z</time>
      </trkpt>
      <trkpt lat="19.071118" lon="-98.614795">
        <ele>3620.290</ele>
        <time>2021-01-23T07:11:39Z</time>
      </trkpt>
      <trkpt lat="19.071087" lon="-98.614832">
        <ele>3624.212</ele>
        <time>2021-01-23T07:11:48Z</time>
      </trkpt>
      <trkpt lat="19.071058" lon="-98.614871">
        <ele>3626.155</ele>
        <time>2021-01-23T07:12:04Z</time>
      </trkpt>
      <trkpt lat="19.071041" lon="-98.614917">
        <ele>3627.261</ele>
        <time>2021-01-23T07:12:10Z</time>
      </trkpt>
      <trkpt lat="19.071024" lon="-98.614963">
        <ele>3628.318</ele>
        <time>2021-01-23T07:12:20Z</time>
      </trkpt>
      <trkpt lat="19.070997" lon="-98.615014">
        <ele>3630.115</ele>
        <time>2021-01-23T07:12:24Z</time>
      </trkpt>
      <trkpt lat="19.070975" lon="-98.615064">
        <ele>3632.865</ele>
        <time>2021-01-23T07:12:32Z</time>
      </trkpt>
      <trkpt lat="19.070932" lon="-98.615081">
        <ele>3634.011</ele>
        <time>2021-01-23T07:12:38Z</time>
      </trkpt>
      <trkpt lat="19.070893" lon="-98.615114">
        <ele>3635.508</ele>
        <time>2021-01-23T07:12:47Z</time>
      </trkpt>
      <trkpt lat="19.070851" lon="-98.615137">
        <ele>3635.237</ele>
        <time>2021-01-23T07:12:53Z</time>
      </trkpt>
      <trkpt lat="19.070812" lon="-98.615163">
        <ele>3631.245</ele>
        <time>2021-01-23T07:12:59Z</time>
      </trkpt>
      <trkpt lat="19.070789" lon="-98.615207">
        <ele>3627.146</ele>
        <time>2021-01-23T07:13:05Z</time>
      </trkpt>
      <trkpt lat="19.070789" lon="-98.615207">
        <ele>3627.188</ele>
        <time>2021-01-23T07:13:05Z</time>
      </trkpt>
      <trkpt lat="19.070782" lon="-98.615255">
        <ele>3627.840</ele>
        <time>2021-01-23T07:13:10Z</time>
      </trkpt>
      <trkpt lat="19.070755" lon="-98.615297">
        <ele>3628.693</ele>
        <time>2021-01-23T07:13:14Z</time>
      </trkpt>
      <trkpt lat="19.070747" lon="-98.615351">
        <ele>3630.349</ele>
        <time>2021-01-23T07:13:19Z</time>
      </trkpt>
      <trkpt lat="19.070737" lon="-98.615403">
        <ele>3626.396</ele>
        <time>2021-01-23T07:13:24Z</time>
      </trkpt>
      <trkpt lat="19.070711" lon="-98.615443">
        <ele>3624.929</ele>
        <time>2021-01-23T07:13:31Z</time>
      </trkpt>
      <trkpt lat="19.070705" lon="-98.615497">
        <ele>3627.700</ele>
        <time>2021-01-23T07:13:36Z</time>
      </trkpt>
      <trkpt lat="19.070697" lon="-98.615548">
        <ele>3630.220</ele>
        <time>2021-01-23T07:13:39Z</time>
      </trkpt>
      <trkpt lat="19.070683" lon="-98.615598">
        <ele>3632.908</ele>
        <time>2021-01-23T07:13:45Z</time>
      </trkpt>
      <trkpt lat="19.070651" lon="-98.615631">
        <ele>3636.518</ele>
        <time>2021-01-23T07:13:51Z</time>
      </trkpt>
      <trkpt lat="19.070629" lon="-98.615682">
        <ele>3639.156</ele>
        <time>2021-01-23T07:13:57Z</time>
      </trkpt>
      <trkpt lat="19.070587" lon="-98.615722">
        <ele>3635.127</ele>
        <time>2021-01-23T07:14:03Z</time>
      </trkpt>
      <trkpt lat="19.070561" lon="-98.615768">
        <ele>3631.189</ele>
        <time>2021-01-23T07:14:09Z</time>
      </trkpt>
      <trkpt lat="19.070534" lon="-98.615806">
        <ele>3632.231</ele>
        <time>2021-01-23T07:14:18Z</time>
      </trkpt>
      <trkpt lat="19.070483" lon="-98.61582">
        <ele>3632.974</ele>
        <time>2021-01-23T07:14:22Z</time>
      </trkpt>
      <trkpt lat="19.070441" lon="-98.615846">
        <ele>3634.930</ele>
        <time>2021-01-23T07:14:30Z</time>
      </trkpt>
      <trkpt lat="19.070389" lon="-98.615878">
        <ele>3636.597</ele>
        <time>2021-01-23T07:14:36Z</time>
      </trkpt>
      <trkpt lat="19.070357" lon="-98.615921">
        <ele>3638.774</ele>
        <time>2021-01-23T07:14:39Z</time>
      </trkpt>
      <trkpt lat="19.070333" lon="-98.615966">
        <ele>3640.456</ele>
        <time>2021-01-23T07:14:42Z</time>
      </trkpt>
      <trkpt lat="19.070312" lon="-98.616011">
        <ele>3636.421</ele>
        <time>2021-01-23T07:14:46Z</time>
      </trkpt>
      <trkpt lat="19.070268" lon="-98.616027">
        <ele>3632.408</ele>
        <time>2021-01-23T07:14:59Z</time>
      </trkpt>
      <trkpt lat="19.070236" lon="-98.616068">
        <ele>3631.813</ele>
        <time>2021-01-23T07:15:07Z</time>
      </trkpt>
      <trkpt lat="19.070193" lon="-98.616102">
        <ele>3631.531</ele>
        <time>2021-01-23T07:15:13Z</time>
      </trkpt>
      <trkpt lat="19.070146" lon="-98.616121">
        <ele>3634.122</ele>
        <time>2021-01-23T07:15:20Z</time>
      </trkpt>
      <trkpt lat="19.070102" lon="-98.616148">
        <ele>3634.524</ele>
        <time>2021-01-23T07:15:28Z</time>
      </trkpt>
      <trkpt lat="19.070072" lon="-98.616187">
        <ele>3633.916</ele>
        <time>2021-01-23T07:15:31Z</time>
      </trkpt>
      <trkpt lat="19.070031" lon="-98.61623">
        <ele>3634.799</ele>
        <time>2021-01-23T07:15:35Z</time>
      </trkpt>
      <trkpt lat="19.070006" lon="-98.616275">
        <ele>3636.085</ele>
        <time>2021-01-23T07:15:39Z</time>
      </trkpt>
      <trkpt lat="19.069964" lon="-98.616312">
        <ele>3638.452</ele>
        <time>2021-01-23T07:15:47Z</time>
      </trkpt>
      <trkpt lat="19.069933" lon="-98.61635">
        <ele>3640.693</ele>
        <time>2021-01-23T07:15:50Z</time>
      </trkpt>
      <trkpt lat="19.069903" lon="-98.616399">
        <ele>3643.565</ele>
        <time>2021-01-23T07:15:53Z</time>
      </trkpt>
      <trkpt lat="19.069865" lon="-98.616439">
        <ele>3646.521</ele>
        <time>2021-01-23T07:15:58Z</time>
      </trkpt>
      <trkpt lat="19.069817" lon="-98.616446">
        <ele>3646.708</ele>
        <time>2021-01-23T07:16:03Z</time>
      </trkpt>
      <trkpt lat="19.06977" lon="-98.616445">
        <ele>3646.075</ele>
        <time>2021-01-23T07:16:07Z</time>
      </trkpt>
      <trkpt lat="19.069723" lon="-98.616448">
        <ele>3645.293</ele>
        <time>2021-01-23T07:16:11Z</time>
      </trkpt>
      <trkpt lat="19.06967" lon="-98.616459">
        <ele>3643.964</ele>
        <time>2021-01-23T07:16:16Z</time>
      </trkpt>
      <trkpt lat="19.069625" lon="-98.616481">
        <ele>3643.556</ele>
        <time>2021-01-23T07:16:21Z</time>
      </trkpt>
      <trkpt lat="19.069583" lon="-98.6165">
        <ele>3642.568</ele>
        <time>2021-01-23T07:16:27Z</time>
      </trkpt>
      <trkpt lat="19.069535" lon="-98.61651">
        <ele>3640.311</ele>
        <time>2021-01-23T07:16:34Z</time>
      </trkpt>
      <trkpt lat="19.069489" lon="-98.616519">
        <ele>3637.837</ele>
        <time>2021-01-23T07:16:40Z</time>
      </trkpt>
      <trkpt lat="19.06944" lon="-98.616494">
        <ele>3639.984</ele>
        <time>2021-01-23T07:16:49Z</time>
      </trkpt>
      <trkpt lat="19.069391" lon="-98.616484">
        <ele>3641.578</ele>
        <time>2021-01-23T07:16:53Z</time>
      </trkpt>
      <trkpt lat="19.069338" lon="-98.616479">
        <ele>3643.333</ele>
        <time>2021-01-23T07:16:58Z</time>
      </trkpt>
      <trkpt lat="19.069292" lon="-98.61649">
        <ele>3643.226</ele>
        <time>2021-01-23T07:17:02Z</time>
      </trkpt>
      <trkpt lat="19.06924" lon="-98.616493">
        <ele>3644.308</ele>
        <time>2021-01-23T07:17:07Z</time>
      </trkpt>
      <trkpt lat="19.069199" lon="-98.616471">
        <ele>3644.243</ele>
        <time>2021-01-23T07:17:12Z</time>
      </trkpt>
      <trkpt lat="19.069154" lon="-98.61646">
        <ele>3642.181</ele>
        <time>2021-01-23T07:17:17Z</time>
      </trkpt>
      <trkpt lat="19.069111" lon="-98.616475">
        <ele>3640.932</ele>
        <time>2021-01-23T07:17:22Z</time>
      </trkpt>
      <trkpt lat="19.069066" lon="-98.616491">
        <ele>3641.434</ele>
        <time>2021-01-23T07:17:29Z</time>
      </trkpt>
      <trkpt lat="19.069017" lon="-98.616518">
        <ele>3642.526</ele>
        <time>2021-01-23T07:17:34Z</time>
      </trkpt>
      <trkpt lat="19.068974" lon="-98.616551">
        <ele>3644.349</ele>
        <time>2021-01-23T07:17:38Z</time>
      </trkpt>
      <trkpt lat="19.068936" lon="-98.616591">
        <ele>3644.695</ele>
        <time>2021-01-23T07:17:41Z</time>
      </trkpt>
      <trkpt lat="19.068886" lon="-98.616588">
        <ele>3645.272</ele>
        <time>2021-01-23T07:17:48Z</time>
      </trkpt>
      <trkpt lat="19.068843" lon="-98.616569">
        <ele>3646.026</ele>
        <time>2021-01-23T07:17:52Z</time>
      </trkpt>
      <trkpt lat="19.068797" lon="-98.616564">
        <ele>3646.147</ele>
        <time>2021-01-23T07:17:56Z</time>
      </trkpt>
      <trkpt lat="19.068752" lon="-98.616572">
        <ele>3649.711</ele>
        <time>2021-01-23T07:18:06Z</time>
      </trkpt>
      <trkpt lat="19.068698" lon="-98.616581">
        <ele>3651.508</ele>
        <time>2021-01-23T07:18:12Z</time>
      </trkpt>
      <trkpt lat="19.06866" lon="-98.616609">
        <ele>3647.568</ele>
        <time>2021-01-23T07:18:17Z</time>
      </trkpt>
      <trkpt lat="19.06861" lon="-98.616629">
        <ele>3643.556</ele>
        <time>2021-01-23T07:18:23Z</time>
      </trkpt>
      <trkpt lat="19.068554" lon="-98.616643">
        <ele>3639.537</ele>
        <time>2021-01-23T07:18:27Z</time>
      </trkpt>
      <trkpt lat="19.068503" lon="-98.616654">
        <ele>3635.549</ele>
        <time>2021-01-23T07:18:31Z</time>
      </trkpt>
      <trkpt lat="19.068455" lon="-98.616646">
        <ele>3634.231</ele>
        <time>2021-01-23T07:18:36Z</time>
      </trkpt>
      <trkpt lat="19.06841" lon="-98.616646">
        <ele>3636.244</ele>
        <time>2021-01-23T07:18:40Z</time>
      </trkpt>
      <trkpt lat="19.068361" lon="-98.616663">
        <ele>3639.450</ele>
        <time>2021-01-23T07:18:44Z</time>
      </trkpt>
      <trkpt lat="19.068315" lon="-98.616692">
        <ele>3635.417</ele>
        <time>2021-01-23T07:18:49Z</time>
      </trkpt>
      <trkpt lat="19.068266" lon="-98.61671">
        <ele>3631.452</ele>
        <time>2021-01-23T07:18:53Z</time>
      </trkpt>
      <trkpt lat="19.068225" lon="-98.616686">
        <ele>3632.553</ele>
        <time>2021-01-23T07:18:58Z</time>
      </trkpt>
      <trkpt lat="19.068178" lon="-98.61667">
        <ele>3634.408</ele>
        <time>2021-01-23T07:19:03Z</time>
      </trkpt>
      <trkpt lat="19.068143" lon="-98.616701">
        <ele>3637.108</ele>
        <time>2021-01-23T07:19:08Z</time>
      </trkpt>
      <trkpt lat="19.068114" lon="-98.616744">
        <ele>3639.971</ele>
        <time>2021-01-23T07:19:13Z</time>
      </trkpt>
      <trkpt lat="19.06808" lon="-98.616785">
        <ele>3642.899</ele>
        <time>2021-01-23T07:19:18Z</time>
      </trkpt>
      <trkpt lat="19.068042" lon="-98.616818">
        <ele>3645.750</ele>
        <time>2021-01-23T07:19:24Z</time>
      </trkpt>
      <trkpt lat="19.06801" lon="-98.616865">
        <ele>3649.752</ele>
        <time>2021-01-23T07:19:30Z</time>
      </trkpt>
      <trkpt lat="19.068001" lon="-98.616916">
        <ele>3652.384</ele>
        <time>2021-01-23T07:19:34Z</time>
      </trkpt>
      <trkpt lat="19.067979" lon="-98.616963">
        <ele>3653.887</ele>
        <time>2021-01-23T07:19:40Z</time>
      </trkpt>
      <trkpt lat="19.067944" lon="-98.617005">
        <ele>3655.563</ele>
        <time>2021-01-23T07:19:45Z</time>
      </trkpt>
      <trkpt lat="19.067908" lon="-98.617036">
        <ele>3655.770</ele>
        <time>2021-01-23T07:19:50Z</time>
      </trkpt>
      <trkpt lat="19.067867" lon="-98.617055">
        <ele>3655.845</ele>
        <time>2021-01-23T07:19:54Z</time>
      </trkpt>
      <trkpt lat="19.067823" lon="-98.617093">
        <ele>3657.547</ele>
        <time>2021-01-23T07:19:59Z</time>
      </trkpt>
      <trkpt lat="19.067784" lon="-98.61712">
        <ele>3658.911</ele>
        <time>2021-01-23T07:20:04Z</time>
      </trkpt>
      <trkpt lat="19.067774" lon="-98.617072">
        <ele>3659.308</ele>
        <time>2021-01-23T07:20:18Z</time>
      </trkpt>
      <trkpt lat="19.067796" lon="-98.61703">
        <ele>3662.470</ele>
        <time>2021-01-23T07:21:14Z</time>
      </trkpt>
      <trkpt lat="19.067772" lon="-98.616979">
        <ele>3664.698</ele>
        <time>2021-01-23T07:21:28Z</time>
      </trkpt>
      <trkpt lat="19.067758" lon="-98.616927">
        <ele>3666.789</ele>
        <time>2021-01-23T07:21:33Z</time>
      </trkpt>
      <trkpt lat="19.067744" lon="-98.616869">
        <ele>3668.831</ele>
        <time>2021-01-23T07:21:41Z</time>
      </trkpt>
      <trkpt lat="19.067726" lon="-98.616824">
        <ele>3671.323</ele>
        <time>2021-01-23T07:21:45Z</time>
      </trkpt>
      <trkpt lat="19.067703" lon="-98.616779">
        <ele>3672.826</ele>
        <time>2021-01-23T07:21:50Z</time>
      </trkpt>
      <trkpt lat="19.067679" lon="-98.616733">
        <ele>3672.962</ele>
        <time>2021-01-23T07:21:55Z</time>
      </trkpt>
      <trkpt lat="19.067673" lon="-98.616682">
        <ele>3668.939</ele>
        <time>2021-01-23T07:22:00Z</time>
      </trkpt>
      <trkpt lat="19.067681" lon="-98.616634">
        <ele>3664.939</ele>
        <time>2021-01-23T07:22:05Z</time>
      </trkpt>
      <trkpt lat="19.067655" lon="-98.61658">
        <ele>3660.901</ele>
        <time>2021-01-23T07:22:10Z</time>
      </trkpt>
      <trkpt lat="19.067624" lon="-98.616531">
        <ele>3656.921</ele>
        <time>2021-01-23T07:22:15Z</time>
      </trkpt>
      <trkpt lat="19.067592" lon="-98.616484">
        <ele>3652.908</ele>
        <time>2021-01-23T07:22:18Z</time>
      </trkpt>
      <trkpt lat="19.067578" lon="-98.616433">
        <ele>3648.959</ele>
        <time>2021-01-23T07:22:21Z</time>
      </trkpt>
      <trkpt lat="19.067569" lon="-98.61638">
        <ele>3644.947</ele>
        <time>2021-01-23T07:22:24Z</time>
      </trkpt>
      <trkpt lat="19.06756" lon="-98.616327">
        <ele>3640.978</ele>
        <time>2021-01-23T07:22:27Z</time>
      </trkpt>
      <trkpt lat="19.067548" lon="-98.616277">
        <ele>3636.930</ele>
        <time>2021-01-23T07:22:32Z</time>
      </trkpt>
      <trkpt lat="19.067527" lon="-98.616231">
        <ele>3632.952</ele>
        <time>2021-01-23T07:22:37Z</time>
      </trkpt>
      <trkpt lat="19.06752" lon="-98.61618">
        <ele>3631.715</ele>
        <time>2021-01-23T07:22:43Z</time>
      </trkpt>
      <trkpt lat="19.067505" lon="-98.616114">
        <ele>3633.011</ele>
        <time>2021-01-23T07:22:49Z</time>
      </trkpt>
      <trkpt lat="19.067456" lon="-98.616146">
        <ele>3629.068</ele>
        <time>2021-01-23T07:23:05Z</time>
      </trkpt>
      <trkpt lat="19.067421" lon="-98.616177">
        <ele>3625.038</ele>
        <time>2021-01-23T07:23:08Z</time>
      </trkpt>
      <trkpt lat="19.067377" lon="-98.616152">
        <ele>3629.070</ele>
        <time>2021-01-23T07:23:17Z</time>
      </trkpt>
      <trkpt lat="19.067378" lon="-98.616097">
        <ele>3633.017</ele>
        <time>2021-01-23T07:23:25Z</time>
      </trkpt>
      <trkpt lat="19.067368" lon="-98.616041">
        <ele>3637.008</ele>
        <time>2021-01-23T07:23:31Z</time>
      </trkpt>
      <trkpt lat="19.067346" lon="-98.615998">
        <ele>3641.019</ele>
        <time>2021-01-23T07:23:37Z</time>
      </trkpt>
      <trkpt lat="19.067339" lon="-98.615945">
        <ele>3645.067</ele>
        <time>2021-01-23T07:23:52Z</time>
      </trkpt>
      <trkpt lat="19.067303" lon="-98.615907">
        <ele>3649.018</ele>
        <time>2021-01-23T07:23:58Z</time>
      </trkpt>
      <trkpt lat="19.067277" lon="-98.615862">
        <ele>3652.670</ele>
        <time>2021-01-23T07:24:05Z</time>
      </trkpt>
      <trkpt lat="19.067262" lon="-98.615814">
        <ele>3654.072</ele>
        <time>2021-01-23T07:24:10Z</time>
      </trkpt>
      <trkpt lat="19.067303" lon="-98.615778">
        <ele>3654.465</ele>
        <time>2021-01-23T07:24:16Z</time>
      </trkpt>
      <trkpt lat="19.067323" lon="-98.615735">
        <ele>3655.821</ele>
        <time>2021-01-23T07:24:24Z</time>
      </trkpt>
      <trkpt lat="19.067323" lon="-98.615677">
        <ele>3657.148</ele>
        <time>2021-01-23T07:24:34Z</time>
      </trkpt>
      <trkpt lat="19.067314" lon="-98.615626">
        <ele>3657.991</ele>
        <time>2021-01-23T07:24:39Z</time>
      </trkpt>
      <trkpt lat="19.067302" lon="-98.615568">
        <ele>3658.881</ele>
        <time>2021-01-23T07:24:45Z</time>
      </trkpt>
      <trkpt lat="19.067289" lon="-98.61552">
        <ele>3659.719</ele>
        <time>2021-01-23T07:24:52Z</time>
      </trkpt>
      <trkpt lat="19.067287" lon="-98.61547">
        <ele>3661.808</ele>
        <time>2021-01-23T07:24:59Z</time>
      </trkpt>
      <trkpt lat="19.067284" lon="-98.615418">
        <ele>3662.335</ele>
        <time>2021-01-23T07:25:03Z</time>
      </trkpt>
      <trkpt lat="19.067287" lon="-98.61537">
        <ele>3661.843</ele>
        <time>2021-01-23T07:25:07Z</time>
      </trkpt>
      <trkpt lat="19.0673" lon="-98.615322">
        <ele>3661.544</ele>
        <time>2021-01-23T07:25:11Z</time>
      </trkpt>
      <trkpt lat="19.067306" lon="-98.615265">
        <ele>3659.746</ele>
        <time>2021-01-23T07:25:16Z</time>
      </trkpt>
      <trkpt lat="19.067265" lon="-98.615234">
        <ele>3658.628</ele>
        <time>2021-01-23T07:25:25Z</time>
      </trkpt>
      <trkpt lat="19.067217" lon="-98.615231">
        <ele>3658.971</ele>
        <time>2021-01-23T07:25:30Z</time>
      </trkpt>
      <trkpt lat="19.067217" lon="-98.615231">
        <ele>3658.947</ele>
        <time>2021-01-23T07:25:30Z</time>
      </trkpt>
      <trkpt lat="19.067178" lon="-98.615203">
        <ele>3657.414</ele>
        <time>2021-01-23T07:25:35Z</time>
      </trkpt>
      <trkpt lat="19.067146" lon="-98.615168">
        <ele>3657.787</ele>
        <time>2021-01-23T07:25:39Z</time>
      </trkpt>
      <trkpt lat="19.067111" lon="-98.615137">
        <ele>3658.742</ele>
        <time>2021-01-23T07:25:43Z</time>
      </trkpt>
      <trkpt lat="19.06706" lon="-98.61512">
        <ele>3659.726</ele>
        <time>2021-01-23T07:25:47Z</time>
      </trkpt>
      <trkpt lat="19.067009" lon="-98.615097">
        <ele>3659.508</ele>
        <time>2021-01-23T07:25:52Z</time>
      </trkpt>
      <trkpt lat="19.066961" lon="-98.61509">
        <ele>3658.294</ele>
        <time>2021-01-23T07:25:58Z</time>
      </trkpt>
      <trkpt lat="19.066921" lon="-98.615066">
        <ele>3657.052</ele>
        <time>2021-01-23T07:26:04Z</time>
      </trkpt>
      <trkpt lat="19.066881" lon="-98.61504">
        <ele>3654.323</ele>
        <time>2021-01-23T07:26:10Z</time>
      </trkpt>
      <trkpt lat="19.066846" lon="-98.615003">
        <ele>3653.925</ele>
        <time>2021-01-23T07:26:17Z</time>
      </trkpt>
      <trkpt lat="19.066818" lon="-98.614954">
        <ele>3653.627</ele>
        <time>2021-01-23T07:26:23Z</time>
      </trkpt>
      <trkpt lat="19.066784" lon="-98.614922">
        <ele>3652.660</ele>
        <time>2021-01-23T07:26:28Z</time>
      </trkpt>
      <trkpt lat="19.066739" lon="-98.614896">
        <ele>3651.616</ele>
        <time>2021-01-23T07:26:36Z</time>
      </trkpt>
      <trkpt lat="19.066694" lon="-98.614882">
        <ele>3651.453</ele>
        <time>2021-01-23T07:26:43Z</time>
      </trkpt>
      <trkpt lat="19.066657" lon="-98.614848">
        <ele>3650.612</ele>
        <time>2021-01-23T07:26:49Z</time>
      </trkpt>
      <trkpt lat="19.066657" lon="-98.614848">
        <ele>3650.632</ele>
        <time>2021-01-23T07:26:49Z</time>
      </trkpt>
      <trkpt lat="19.066625" lon="-98.614814">
        <ele>3651.605</ele>
        <time>2021-01-23T07:26:55Z</time>
      </trkpt>
      <trkpt lat="19.066579" lon="-98.614794">
        <ele>3647.608</ele>
        <time>2021-01-23T07:27:01Z</time>
      </trkpt>
      <trkpt lat="19.066536" lon="-98.614769">
        <ele>3645.897</ele>
        <time>2021-01-23T07:27:06Z</time>
      </trkpt>
      <trkpt lat="19.066492" lon="-98.614743">
        <ele>3651.155</ele>
        <time>2021-01-23T07:27:13Z</time>
      </trkpt>
      <trkpt lat="19.066492" lon="-98.614743">
        <ele>3651.136</ele>
        <time>2021-01-23T07:27:13Z</time>
      </trkpt>
      <trkpt lat="19.066437" lon="-98.614742">
        <ele>3653.148</ele>
        <time>2021-01-23T07:27:18Z</time>
      </trkpt>
      <trkpt lat="19.066385" lon="-98.614728">
        <ele>3654.340</ele>
        <time>2021-01-23T07:27:23Z</time>
      </trkpt>
      <trkpt lat="19.066342" lon="-98.614704">
        <ele>3655.853</ele>
        <time>2021-01-23T07:27:28Z</time>
      </trkpt>
      <trkpt lat="19.066299" lon="-98.614677">
        <ele>3656.779</ele>
        <time>2021-01-23T07:27:35Z</time>
      </trkpt>
      <trkpt lat="19.066256" lon="-98.614646">
        <ele>3656.826</ele>
        <time>2021-01-23T07:27:42Z</time>
      </trkpt>
      <trkpt lat="19.066215" lon="-98.614609">
        <ele>3657.378</ele>
        <time>2021-01-23T07:27:48Z</time>
      </trkpt>
      <trkpt lat="19.066178" lon="-98.614577">
        <ele>3656.833</ele>
        <time>2021-01-23T07:27:55Z</time>
      </trkpt>
      <trkpt lat="19.066147" lon="-98.614541">
        <ele>3652.826</ele>
        <time>2021-01-23T07:28:01Z</time>
      </trkpt>
      <trkpt lat="19.066096" lon="-98.614541">
        <ele>3654.908</ele>
        <time>2021-01-23T07:28:22Z</time>
      </trkpt>
      <trkpt lat="19.066042" lon="-98.614536">
        <ele>3655.893</ele>
        <time>2021-01-23T07:28:27Z</time>
      </trkpt>
      <trkpt lat="19.065998" lon="-98.614564">
        <ele>3657.921</ele>
        <time>2021-01-23T07:28:36Z</time>
      </trkpt>
      <trkpt lat="19.065938" lon="-98.614592">
        <ele>3660.092</ele>
        <time>2021-01-23T07:28:42Z</time>
      </trkpt>
      <trkpt lat="19.065985" lon="-98.614614">
        <ele>3662.844</ele>
        <time>2021-01-23T07:28:55Z</time>
      </trkpt>
      <trkpt lat="19.066041" lon="-98.614592">
        <ele>3664.116</ele>
        <time>2021-01-23T07:28:58Z</time>
      </trkpt>
      <trkpt lat="19.066035" lon="-98.614542">
        <ele>3663.729</ele>
        <time>2021-01-23T07:29:06Z</time>
      </trkpt>
      <trkpt lat="19.066049" lon="-98.614486">
        <ele>3662.685</ele>
        <time>2021-01-23T07:29:11Z</time>
      </trkpt>
      <trkpt lat="19.066044" lon="-98.614428">
        <ele>3662.482</ele>
        <time>2021-01-23T07:29:16Z</time>
      </trkpt>
      <trkpt lat="19.066018" lon="-98.614375">
        <ele>3662.377</ele>
        <time>2021-01-23T07:29:20Z</time>
      </trkpt>
      <trkpt lat="19.065992" lon="-98.614325">
        <ele>3661.461</ele>
        <time>2021-01-23T07:29:24Z</time>
      </trkpt>
      <trkpt lat="19.065952" lon="-98.614291">
        <ele>3660.927</ele>
        <time>2021-01-23T07:29:27Z</time>
      </trkpt>
      <trkpt lat="19.065912" lon="-98.614259">
        <ele>3660.208</ele>
        <time>2021-01-23T07:29:31Z</time>
      </trkpt>
      <trkpt lat="19.065869" lon="-98.61423">
        <ele>3659.043</ele>
        <time>2021-01-23T07:29:41Z</time>
      </trkpt>
      <trkpt lat="19.065833" lon="-98.614196">
        <ele>3658.321</ele>
        <time>2021-01-23T07:29:45Z</time>
      </trkpt>
      <trkpt lat="19.065786" lon="-98.614181">
        <ele>3659.172</ele>
        <time>2021-01-23T07:29:50Z</time>
      </trkpt>
      <trkpt lat="19.065753" lon="-98.614133">
        <ele>3661.214</ele>
        <time>2021-01-23T07:29:57Z</time>
      </trkpt>
      <trkpt lat="19.065715" lon="-98.614104">
        <ele>3662.466</ele>
        <time>2021-01-23T07:30:02Z</time>
      </trkpt>
      <trkpt lat="19.065661" lon="-98.614098">
        <ele>3662.799</ele>
        <time>2021-01-23T07:30:09Z</time>
      </trkpt>
      <trkpt lat="19.065616" lon="-98.614091">
        <ele>3662.535</ele>
        <time>2021-01-23T07:30:13Z</time>
      </trkpt>
      <trkpt lat="19.065572" lon="-98.614077">
        <ele>3661.662</ele>
        <time>2021-01-23T07:30:17Z</time>
      </trkpt>
      <trkpt lat="19.065528" lon="-98.614067">
        <ele>3661.861</ele>
        <time>2021-01-23T07:30:21Z</time>
      </trkpt>
      <trkpt lat="19.065485" lon="-98.614038">
        <ele>3660.721</ele>
        <time>2021-01-23T07:30:28Z</time>
      </trkpt>
      <trkpt lat="19.06545" lon="-98.613996">
        <ele>3657.813</ele>
        <time>2021-01-23T07:30:34Z</time>
      </trkpt>
      <trkpt lat="19.06545" lon="-98.613996">
        <ele>3657.808</ele>
        <time>2021-01-23T07:30:34Z</time>
      </trkpt>
      <trkpt lat="19.065415" lon="-98.613956">
        <ele>3657.192</ele>
        <time>2021-01-23T07:30:39Z</time>
      </trkpt>
      <trkpt lat="19.065381" lon="-98.613913">
        <ele>3657.120</ele>
        <time>2021-01-23T07:30:45Z</time>
      </trkpt>
      <trkpt lat="19.065338" lon="-98.613889">
        <ele>3659.151</ele>
        <time>2021-01-23T07:30:51Z</time>
      </trkpt>
      <trkpt lat="19.065292" lon="-98.613916">
        <ele>3659.543</ele>
        <time>2021-01-23T07:30:56Z</time>
      </trkpt>
      <trkpt lat="19.065244" lon="-98.613935">
        <ele>3656.725</ele>
        <time>2021-01-23T07:31:01Z</time>
      </trkpt>
      <trkpt lat="19.065244" lon="-98.613935">
        <ele>3656.788</ele>
        <time>2021-01-23T07:31:01Z</time>
      </trkpt>
      <trkpt lat="19.0652" lon="-98.613959">
        <ele>3657.684</ele>
        <time>2021-01-23T07:31:06Z</time>
      </trkpt>
      <trkpt lat="19.0652" lon="-98.613959">
        <ele>3657.641</ele>
        <time>2021-01-23T07:31:06Z</time>
      </trkpt>
      <trkpt lat="19.065149" lon="-98.613951">
        <ele>3658.227</ele>
        <time>2021-01-23T07:31:11Z</time>
      </trkpt>
      <trkpt lat="19.065104" lon="-98.613972">
        <ele>3662.068</ele>
        <time>2021-01-23T07:31:18Z</time>
      </trkpt>
      <trkpt lat="19.065104" lon="-98.613972">
        <ele>3662.014</ele>
        <time>2021-01-23T07:31:18Z</time>
      </trkpt>
      <trkpt lat="19.065059" lon="-98.614003">
        <ele>3663.708</ele>
        <time>2021-01-23T07:31:24Z</time>
      </trkpt>
      <trkpt lat="19.065015" lon="-98.614021">
        <ele>3663.998</ele>
        <time>2021-01-23T07:31:29Z</time>
      </trkpt>
      <trkpt lat="19.064973" lon="-98.614043">
        <ele>3663.616</ele>
        <time>2021-01-23T07:31:38Z</time>
      </trkpt>
      <trkpt lat="19.064929" lon="-98.614071">
        <ele>3662.647</ele>
        <time>2021-01-23T07:31:46Z</time>
      </trkpt>
      <trkpt lat="19.064886" lon="-98.614092">
        <ele>3661.279</ele>
        <time>2021-01-23T07:31:52Z</time>
      </trkpt>
      <trkpt lat="19.064834" lon="-98.614088">
        <ele>3660.421</ele>
        <time>2021-01-23T07:31:59Z</time>
      </trkpt>
      <trkpt lat="19.064795" lon="-98.614115">
        <ele>3659.934</ele>
        <time>2021-01-23T07:32:06Z</time>
      </trkpt>
      <trkpt lat="19.064755" lon="-98.614149">
        <ele>3660.010</ele>
        <time>2021-01-23T07:32:11Z</time>
      </trkpt>
      <trkpt lat="19.064704" lon="-98.614167">
        <ele>3659.727</ele>
        <time>2021-01-23T07:32:16Z</time>
      </trkpt>
      <trkpt lat="19.064658" lon="-98.614177">
        <ele>3655.755</ele>
        <time>2021-01-23T07:32:24Z</time>
      </trkpt>
      <trkpt lat="19.064608" lon="-98.614183">
        <ele>3659.107</ele>
        <time>2021-01-23T07:33:23Z</time>
      </trkpt>
      <trkpt lat="19.064607" lon="-98.614239">
        <ele>3661.117</ele>
        <time>2021-01-23T07:33:39Z</time>
      </trkpt>
      <trkpt lat="19.064604" lon="-98.614288">
        <ele>3661.508</ele>
        <time>2021-01-23T07:33:42Z</time>
      </trkpt>
      <trkpt lat="19.064596" lon="-98.61434">
        <ele>3661.811</ele>
        <time>2021-01-23T07:33:46Z</time>
      </trkpt>
      <trkpt lat="19.064571" lon="-98.61438">
        <ele>3662.049</ele>
        <time>2021-01-23T07:33:50Z</time>
      </trkpt>
      <trkpt lat="19.06454" lon="-98.61442">
        <ele>3661.750</ele>
        <time>2021-01-23T07:33:55Z</time>
      </trkpt>
      <trkpt lat="19.064517" lon="-98.614464">
        <ele>3662.392</ele>
        <time>2021-01-23T07:34:00Z</time>
      </trkpt>
      <trkpt lat="19.064501" lon="-98.614511">
        <ele>3663.534</ele>
        <time>2021-01-23T07:34:05Z</time>
      </trkpt>
      <trkpt lat="19.064466" lon="-98.614547">
        <ele>3664.657</ele>
        <time>2021-01-23T07:34:35Z</time>
      </trkpt>
      <trkpt lat="19.064432" lon="-98.614591">
        <ele>3667.733</ele>
        <time>2021-01-23T07:34:40Z</time>
      </trkpt>
      <trkpt lat="19.064398" lon="-98.614629">
        <ele>3671.750</ele>
        <time>2021-01-23T07:34:43Z</time>
      </trkpt>
      <trkpt lat="19.064354" lon="-98.614663">
        <ele>3675.188</ele>
        <time>2021-01-23T07:34:47Z</time>
      </trkpt>
      <trkpt lat="19.064309" lon="-98.614677">
        <ele>3678.024</ele>
        <time>2021-01-23T07:34:56Z</time>
      </trkpt>
      <trkpt lat="19.064279" lon="-98.614719">
        <ele>3674.026</ele>
        <time>2021-01-23T07:35:02Z</time>
      </trkpt>
      <trkpt lat="19.064247" lon="-98.614755">
        <ele>3670.008</ele>
        <time>2021-01-23T07:35:08Z</time>
      </trkpt>
      <trkpt lat="19.064199" lon="-98.61478">
        <ele>3666.084</ele>
        <time>2021-01-23T07:35:18Z</time>
      </trkpt>
      <trkpt lat="19.064174" lon="-98.614825">
        <ele>3662.592</ele>
        <time>2021-01-23T07:35:22Z</time>
      </trkpt>
      <trkpt lat="19.064128" lon="-98.614854">
        <ele>3662.083</ele>
        <time>2021-01-23T07:35:27Z</time>
      </trkpt>
      <trkpt lat="19.064074" lon="-98.614864">
        <ele>3661.325</ele>
        <time>2021-01-23T07:35:33Z</time>
      </trkpt>
      <trkpt lat="19.064029" lon="-98.614847">
        <ele>3662.597</ele>
        <time>2021-01-23T07:35:40Z</time>
      </trkpt>
      <trkpt lat="19.063996" lon="-98.614882">
        <ele>3660.420</ele>
        <time>2021-01-23T07:36:00Z</time>
      </trkpt>
      <trkpt lat="19.063968" lon="-98.614931">
        <ele>3661.576</ele>
        <time>2021-01-23T07:36:05Z</time>
      </trkpt>
      <trkpt lat="19.063938" lon="-98.614979">
        <ele>3665.533</ele>
        <time>2021-01-23T07:36:09Z</time>
      </trkpt>
      <trkpt lat="19.063902" lon="-98.615008">
        <ele>3661.538</ele>
        <time>2021-01-23T07:36:14Z</time>
      </trkpt>
      <trkpt lat="19.063868" lon="-98.615041">
        <ele>3657.870</ele>
        <time>2021-01-23T07:36:20Z</time>
      </trkpt>
      <trkpt lat="19.063826" lon="-98.615065">
        <ele>3661.617</ele>
        <time>2021-01-23T07:36:35Z</time>
      </trkpt>
      <trkpt lat="19.063794" lon="-98.615109">
        <ele>3663.508</ele>
        <time>2021-01-23T07:36:41Z</time>
      </trkpt>
      <trkpt lat="19.063752" lon="-98.615137">
        <ele>3665.469</ele>
        <time>2021-01-23T07:36:50Z</time>
      </trkpt>
      <trkpt lat="19.063712" lon="-98.615164">
        <ele>3668.637</ele>
        <time>2021-01-23T07:37:00Z</time>
      </trkpt>
      <trkpt lat="19.063663" lon="-98.615174">
        <ele>3669.788</ele>
        <time>2021-01-23T07:37:08Z</time>
      </trkpt>
      <trkpt lat="19.063621" lon="-98.615195">
        <ele>3671.650</ele>
        <time>2021-01-23T07:37:15Z</time>
      </trkpt>
      <trkpt lat="19.063572" lon="-98.615193">
        <ele>3667.692</ele>
        <time>2021-01-23T07:37:26Z</time>
      </trkpt>
      <trkpt lat="19.063521" lon="-98.615189">
        <ele>3663.685</ele>
        <time>2021-01-23T07:37:33Z</time>
      </trkpt>
      <trkpt lat="19.063465" lon="-98.615182">
        <ele>3659.611</ele>
        <time>2021-01-23T07:37:38Z</time>
      </trkpt>
      <trkpt lat="19.063418" lon="-98.615189">
        <ele>3655.638</ele>
        <time>2021-01-23T07:37:41Z</time>
      </trkpt>
      <trkpt lat="19.063373" lon="-98.615185">
        <ele>3651.621</ele>
        <time>2021-01-23T07:37:45Z</time>
      </trkpt>
      <trkpt lat="19.063328" lon="-98.615206">
        <ele>3651.941</ele>
        <time>2021-01-23T07:37:51Z</time>
      </trkpt>
      <trkpt lat="19.063286" lon="-98.615226">
        <ele>3653.705</ele>
        <time>2021-01-23T07:37:58Z</time>
      </trkpt>
      <trkpt lat="19.063245" lon="-98.615245">
        <ele>3649.708</ele>
        <time>2021-01-23T07:38:04Z</time>
      </trkpt>
      <trkpt lat="19.063215" lon="-98.615286">
        <ele>3645.758</ele>
        <time>2021-01-23T07:38:12Z</time>
      </trkpt>
      <trkpt lat="19.063169" lon="-98.615298">
        <ele>3649.796</ele>
        <time>2021-01-23T07:38:20Z</time>
      </trkpt>
      <trkpt lat="19.063123" lon="-98.615322">
        <ele>3653.797</ele>
        <time>2021-01-23T07:38:29Z</time>
      </trkpt>
      <trkpt lat="19.063095" lon="-98.615359">
        <ele>3657.779</ele>
        <time>2021-01-23T07:38:34Z</time>
      </trkpt>
      <trkpt lat="19.063052" lon="-98.615385">
        <ele>3661.291</ele>
        <time>2021-01-23T07:38:43Z</time>
      </trkpt>
      <trkpt lat="19.063023" lon="-98.615423">
        <ele>3663.774</ele>
        <time>2021-01-23T07:38:50Z</time>
      </trkpt>
      <trkpt lat="19.062992" lon="-98.615461">
        <ele>3667.720</ele>
        <time>2021-01-23T07:38:59Z</time>
      </trkpt>
      <trkpt lat="19.062958" lon="-98.615494">
        <ele>3671.697</ele>
        <time>2021-01-23T07:39:20Z</time>
      </trkpt>
      <trkpt lat="19.062905" lon="-98.615521">
        <ele>3675.168</ele>
        <time>2021-01-23T07:39:25Z</time>
      </trkpt>
      <trkpt lat="19.06285" lon="-98.615545">
        <ele>3678.842</ele>
        <time>2021-01-23T07:39:29Z</time>
      </trkpt>
      <trkpt lat="19.0628" lon="-98.615566">
        <ele>3681.426</ele>
        <time>2021-01-23T07:39:34Z</time>
      </trkpt>
      <trkpt lat="19.062758" lon="-98.615584">
        <ele>3684.608</ele>
        <time>2021-01-23T07:39:40Z</time>
      </trkpt>
      <trkpt lat="19.062712" lon="-98.615604">
        <ele>3686.972</ele>
        <time>2021-01-23T07:39:48Z</time>
      </trkpt>
      <trkpt lat="19.062666" lon="-98.61562">
        <ele>3689.540</ele>
        <time>2021-01-23T07:39:55Z</time>
      </trkpt>
      <trkpt lat="19.062614" lon="-98.615627">
        <ele>3692.311</ele>
        <time>2021-01-23T07:40:03Z</time>
      </trkpt>
      <trkpt lat="19.062567" lon="-98.615639">
        <ele>3691.773</ele>
        <time>2021-01-23T07:40:11Z</time>
      </trkpt>
      <trkpt lat="19.062567" lon="-98.615639">
        <ele>3691.715</ele>
        <time>2021-01-23T07:40:11Z</time>
      </trkpt>
      <trkpt lat="19.062533" lon="-98.615674">
        <ele>3691.688</ele>
        <time>2021-01-23T07:40:18Z</time>
      </trkpt>
      <trkpt lat="19.062484" lon="-98.615686">
        <ele>3692.714</ele>
        <time>2021-01-23T07:40:29Z</time>
      </trkpt>
      <trkpt lat="19.062444" lon="-98.615715">
        <ele>3693.831</ele>
        <time>2021-01-23T07:40:36Z</time>
      </trkpt>
      <trkpt lat="19.062444" lon="-98.615715">
        <ele>3693.865</ele>
        <time>2021-01-23T07:40:36Z</time>
      </trkpt>
      <trkpt lat="19.062398" lon="-98.615709">
        <ele>3693.668</ele>
        <time>2021-01-23T07:40:41Z</time>
      </trkpt>
      <trkpt lat="19.062355" lon="-98.615693">
        <ele>3696.714</ele>
        <time>2021-01-23T07:40:53Z</time>
      </trkpt>
      <trkpt lat="19.06232" lon="-98.615656">
        <ele>3697.008</ele>
        <time>2021-01-23T07:40:59Z</time>
      </trkpt>
      <trkpt lat="19.062274" lon="-98.615639">
        <ele>3696.452</ele>
        <time>2021-01-23T07:41:05Z</time>
      </trkpt>
      <trkpt lat="19.062221" lon="-98.61565">
        <ele>3696.410</ele>
        <time>2021-01-23T07:41:12Z</time>
      </trkpt>
      <trkpt lat="19.062186" lon="-98.615615">
        <ele>3698.891</ele>
        <time>2021-01-23T07:41:24Z</time>
      </trkpt>
      <trkpt lat="19.06214" lon="-98.615604">
        <ele>3701.013</ele>
        <time>2021-01-23T07:41:30Z</time>
      </trkpt>
      <trkpt lat="19.062094" lon="-98.615587">
        <ele>3702.395</ele>
        <time>2021-01-23T07:41:35Z</time>
      </trkpt>
      <trkpt lat="19.062045" lon="-98.615568">
        <ele>3703.178</ele>
        <time>2021-01-23T07:41:41Z</time>
      </trkpt>
      <trkpt lat="19.061995" lon="-98.615557">
        <ele>3703.634</ele>
        <time>2021-01-23T07:41:47Z</time>
      </trkpt>
      <trkpt lat="19.061945" lon="-98.615563">
        <ele>3703.941</ele>
        <time>2021-01-23T07:41:55Z</time>
      </trkpt>
      <trkpt lat="19.061898" lon="-98.615578">
        <ele>3701.697</ele>
        <time>2021-01-23T07:42:01Z</time>
      </trkpt>
      <trkpt lat="19.061898" lon="-98.615578">
        <ele>3701.623</ele>
        <time>2021-01-23T07:42:01Z</time>
      </trkpt>
      <trkpt lat="19.061854" lon="-98.615548">
        <ele>3701.125</ele>
        <time>2021-01-23T07:42:09Z</time>
      </trkpt>
      <trkpt lat="19.061814" lon="-98.615522">
        <ele>3701.208</ele>
        <time>2021-01-23T07:42:14Z</time>
      </trkpt>
      <trkpt lat="19.061812" lon="-98.615473">
        <ele>3700.975</ele>
        <time>2021-01-23T07:42:23Z</time>
      </trkpt>
      <trkpt lat="19.061779" lon="-98.615436">
        <ele>3702.523</ele>
        <time>2021-01-23T07:42:33Z</time>
      </trkpt>
      <trkpt lat="19.061779" lon="-98.615436">
        <ele>3702.524</ele>
        <time>2021-01-23T07:42:33Z</time>
      </trkpt>
      <trkpt lat="19.061731" lon="-98.615445">
        <ele>3702.956</ele>
        <time>2021-01-23T07:42:39Z</time>
      </trkpt>
      <trkpt lat="19.061689" lon="-98.615469">
        <ele>3705.538</ele>
        <time>2021-01-23T07:42:48Z</time>
      </trkpt>
      <trkpt lat="19.061641" lon="-98.615449">
        <ele>3707.961</ele>
        <time>2021-01-23T07:42:54Z</time>
      </trkpt>
      <trkpt lat="19.061595" lon="-98.615422">
        <ele>3708.597</ele>
        <time>2021-01-23T07:42:58Z</time>
      </trkpt>
      <trkpt lat="19.061554" lon="-98.61539">
        <ele>3711.354</ele>
        <time>2021-01-23T07:43:05Z</time>
      </trkpt>
      <trkpt lat="19.061512" lon="-98.615364">
        <ele>3713.421</ele>
        <time>2021-01-23T07:43:12Z</time>
      </trkpt>
      <trkpt lat="19.061459" lon="-98.615355">
        <ele>3714.241</ele>
        <time>2021-01-23T07:43:17Z</time>
      </trkpt>
      <trkpt lat="19.061406" lon="-98.615342">
        <ele>3712.305</ele>
        <time>2021-01-23T07:43:22Z</time>
      </trkpt>
      <trkpt lat="19.061377" lon="-98.615389">
        <ele>3712.408</ele>
        <time>2021-01-23T07:43:27Z</time>
      </trkpt>
      <trkpt lat="19.061336" lon="-98.615366">
        <ele>3708.478</ele>
        <time>2021-01-23T07:43:42Z</time>
      </trkpt>
      <trkpt lat="19.0613" lon="-98.615327">
        <ele>3704.486</ele>
        <time>2021-01-23T07:43:52Z</time>
      </trkpt>
      <trkpt lat="19.061271" lon="-98.615279">
        <ele>3700.637</ele>
        <time>2021-01-23T07:43:57Z</time>
      </trkpt>
      <trkpt lat="19.061271" lon="-98.615279">
        <ele>3700.629</ele>
        <time>2021-01-23T07:43:57Z</time>
      </trkpt>
      <trkpt lat="19.06125" lon="-98.615235">
        <ele>3704.611</ele>
        <time>2021-01-23T07:44:03Z</time>
      </trkpt>
      <trkpt lat="19.061204" lon="-98.615225">
        <ele>3708.674</ele>
        <time>2021-01-23T07:44:29Z</time>
      </trkpt>
      <trkpt lat="19.061151" lon="-98.61521">
        <ele>3712.670</ele>
        <time>2021-01-23T07:44:37Z</time>
      </trkpt>
      <trkpt lat="19.061096" lon="-98.615197">
        <ele>3720.697</ele>
        <time>2021-01-23T07:44:41Z</time>
      </trkpt>
      <trkpt lat="19.061096" lon="-98.615197">
        <ele>3720.612</ele>
        <time>2021-01-23T07:44:41Z</time>
      </trkpt>
      <trkpt lat="19.061046" lon="-98.6152">
        <ele>3724.532</ele>
        <time>2021-01-23T07:44:45Z</time>
      </trkpt>
      <trkpt lat="19.061004" lon="-98.61522">
        <ele>3716.505</ele>
        <time>2021-01-23T07:44:53Z</time>
      </trkpt>
      <trkpt lat="19.061004" lon="-98.61522">
        <ele>3716.508</ele>
        <time>2021-01-23T07:44:53Z</time>
      </trkpt>
      <trkpt lat="19.060953" lon="-98.615233">
        <ele>3719.347</ele>
        <time>2021-01-23T07:45:08Z</time>
      </trkpt>
      <trkpt lat="19.060911" lon="-98.615211">
        <ele>3722.615</ele>
        <time>2021-01-23T07:45:13Z</time>
      </trkpt>
      <trkpt lat="19.060863" lon="-98.615195">
        <ele>3726.646</ele>
        <time>2021-01-23T07:45:18Z</time>
      </trkpt>
      <trkpt lat="19.060816" lon="-98.615192">
        <ele>3730.618</ele>
        <time>2021-01-23T07:45:22Z</time>
      </trkpt>
      <trkpt lat="19.060771" lon="-98.615189">
        <ele>3734.610</ele>
        <time>2021-01-23T07:45:26Z</time>
      </trkpt>
      <trkpt lat="19.06073" lon="-98.615164">
        <ele>3738.663</ele>
        <time>2021-01-23T07:45:32Z</time>
      </trkpt>
      <trkpt lat="19.060698" lon="-98.615129">
        <ele>3741.489</ele>
        <time>2021-01-23T07:45:38Z</time>
      </trkpt>
      <trkpt lat="19.060671" lon="-98.615086">
        <ele>3743.596</ele>
        <time>2021-01-23T07:45:46Z</time>
      </trkpt>
      <trkpt lat="19.060663" lon="-98.61503">
        <ele>3745.538</ele>
        <time>2021-01-23T07:45:53Z</time>
      </trkpt>
      <trkpt lat="19.060672" lon="-98.614975">
        <ele>3748.770</ele>
        <time>2021-01-23T07:45:58Z</time>
      </trkpt>
      <trkpt lat="19.060674" lon="-98.614923">
        <ele>3751.817</ele>
        <time>2021-01-23T07:46:03Z</time>
      </trkpt>
      <trkpt lat="19.060668" lon="-98.614874">
        <ele>3754.508</ele>
        <time>2021-01-23T07:46:31Z</time>
      </trkpt>
      <trkpt lat="19.060636" lon="-98.614832">
        <ele>3754.949</ele>
        <time>2021-01-23T07:46:40Z</time>
      </trkpt>
      <trkpt lat="19.060636" lon="-98.61478">
        <ele>3750.917</ele>
        <time>2021-01-23T07:46:48Z</time>
      </trkpt>
      <trkpt lat="19.060591" lon="-98.614785">
        <ele>3754.378</ele>
        <time>2021-01-23T07:47:22Z</time>
      </trkpt>
      <trkpt lat="19.060542" lon="-98.614773">
        <ele>3756.010</ele>
        <time>2021-01-23T07:47:33Z</time>
      </trkpt>
      <trkpt lat="19.060548" lon="-98.614726">
        <ele>3755.012</ele>
        <time>2021-01-23T07:49:38Z</time>
      </trkpt>
      <trkpt lat="19.0606" lon="-98.61472">
        <ele>3751.075</ele>
        <time>2021-01-23T07:50:16Z</time>
      </trkpt>
      <trkpt lat="19.060553" lon="-98.614738">
        <ele>3755.081</ele>
        <time>2021-01-23T07:52:17Z</time>
      </trkpt>
      <trkpt lat="19.060504" lon="-98.61473">
        <ele>3758.458</ele>
        <time>2021-01-23T07:52:21Z</time>
      </trkpt>
      <trkpt lat="19.060476" lon="-98.614768">
        <ele>3758.864</ele>
        <time>2021-01-23T07:52:53Z</time>
      </trkpt>
      <trkpt lat="19.060476" lon="-98.614719">
        <ele>3761.106</ele>
        <time>2021-01-23T07:53:31Z</time>
      </trkpt>
      <trkpt lat="19.060521" lon="-98.614709">
        <ele>3753.116</ele>
        <time>2021-01-23T07:54:03Z</time>
      </trkpt>
      <trkpt lat="19.060521" lon="-98.614709">
        <ele>3753.108</ele>
        <time>2021-01-23T07:54:03Z</time>
      </trkpt>
      <trkpt lat="19.060526" lon="-98.614661">
        <ele>3754.572</ele>
        <time>2021-01-23T07:59:38Z</time>
      </trkpt>
      <trkpt lat="19.060741" lon="-98.61449">
        <ele>3750.570</ele>
        <time>2021-01-23T08:01:42Z</time>
      </trkpt>
      <trkpt lat="19.060773" lon="-98.614556">
        <ele>3746.521</ele>
        <time>2021-01-23T08:01:45Z</time>
      </trkpt>
      <trkpt lat="19.060736" lon="-98.614501">
        <ele>3750.523</ele>
        <time>2021-01-23T08:01:47Z</time>
      </trkpt>
      <trkpt lat="19.060676" lon="-98.614519">
        <ele>3752.135</ele>
        <time>2021-01-23T08:01:51Z</time>
      </trkpt>
      <trkpt lat="19.06059" lon="-98.614585">
        <ele>3753.548</ele>
        <time>2021-01-23T08:02:11Z</time>
      </trkpt>
      <trkpt lat="19.060556" lon="-98.614629">
        <ele>3755.594</ele>
        <time>2021-01-23T08:02:13Z</time>
      </trkpt>
      <trkpt lat="19.060533" lon="-98.614685">
        <ele>3755.171</ele>
        <time>2021-01-23T08:02:16Z</time>
      </trkpt>
      <trkpt lat="19.060486" lon="-98.614678">
        <ele>3751.129</ele>
        <time>2021-01-23T08:02:38Z</time>
      </trkpt>
      <trkpt lat="19.06044" lon="-98.614666">
        <ele>3755.100</ele>
        <time>2021-01-23T08:03:14Z</time>
      </trkpt>
      <trkpt lat="19.060388" lon="-98.614674">
        <ele>3758.920</ele>
        <time>2021-01-23T08:03:28Z</time>
      </trkpt>
      <trkpt lat="19.060342" lon="-98.614663">
        <ele>3762.908</ele>
        <time>2021-01-23T08:03:33Z</time>
      </trkpt>
      <trkpt lat="19.06029" lon="-98.614638">
        <ele>3766.048</ele>
        <time>2021-01-23T08:03:39Z</time>
      </trkpt>
      <trkpt lat="19.060245" lon="-98.614601">
        <ele>3766.686</ele>
        <time>2021-01-23T08:03:44Z</time>
      </trkpt>
      <trkpt lat="19.060214" lon="-98.614564">
        <ele>3769.047</ele>
        <time>2021-01-23T08:03:48Z</time>
      </trkpt>
      <trkpt lat="19.060174" lon="-98.614536">
        <ele>3771.379</ele>
        <time>2021-01-23T08:03:51Z</time>
      </trkpt>
      <trkpt lat="19.060174" lon="-98.614536">
        <ele>3771.361</ele>
        <time>2021-01-23T08:03:51Z</time>
      </trkpt>
      <trkpt lat="19.060128" lon="-98.614514">
        <ele>3771.814</ele>
        <time>2021-01-23T08:03:54Z</time>
      </trkpt>
      <trkpt lat="19.060083" lon="-98.614504">
        <ele>3771.350</ele>
        <time>2021-01-23T08:03:58Z</time>
      </trkpt>
      <trkpt lat="19.060051" lon="-98.614463">
        <ele>3770.627</ele>
        <time>2021-01-23T08:04:04Z</time>
      </trkpt>
      <trkpt lat="19.06002" lon="-98.614423">
        <ele>3766.626</ele>
        <time>2021-01-23T08:04:11Z</time>
      </trkpt>
      <trkpt lat="19.059962" lon="-98.614408">
        <ele>3762.647</ele>
        <time>2021-01-23T08:04:17Z</time>
      </trkpt>
      <trkpt lat="19.059918" lon="-98.614424">
        <ele>3758.611</ele>
        <time>2021-01-23T08:04:23Z</time>
      </trkpt>
      <trkpt lat="19.059881" lon="-98.614396">
        <ele>3755.008</ele>
        <time>2021-01-23T08:04:31Z</time>
      </trkpt>
      <trkpt lat="19.059831" lon="-98.614397">
        <ele>3754.088</ele>
        <time>2021-01-23T08:04:36Z</time>
      </trkpt>
      <trkpt lat="19.059784" lon="-98.614406">
        <ele>3755.046</ele>
        <time>2021-01-23T08:04:41Z</time>
      </trkpt>
      <trkpt lat="19.059736" lon="-98.614411">
        <ele>3755.657</ele>
        <time>2021-01-23T08:04:47Z</time>
      </trkpt>
      <trkpt lat="19.05969" lon="-98.61439">
        <ele>3751.619</ele>
        <time>2021-01-23T08:04:55Z</time>
      </trkpt>
      <trkpt lat="19.059644" lon="-98.614378">
        <ele>3751.281</ele>
        <time>2021-01-23T08:05:02Z</time>
      </trkpt>
      <trkpt lat="19.059598" lon="-98.614362">
        <ele>3747.214</ele>
        <time>2021-01-23T08:05:08Z</time>
      </trkpt>
      <trkpt lat="19.059553" lon="-98.614355">
        <ele>3750.590</ele>
        <time>2021-01-23T08:05:14Z</time>
      </trkpt>
      <trkpt lat="19.05952" lon="-98.614398">
        <ele>3746.587</ele>
        <time>2021-01-23T08:05:22Z</time>
      </trkpt>
      <trkpt lat="19.059472" lon="-98.614428">
        <ele>3749.792</ele>
        <time>2021-01-23T08:05:27Z</time>
      </trkpt>
      <trkpt lat="19.059426" lon="-98.614438">
        <ele>3753.773</ele>
        <time>2021-01-23T08:05:36Z</time>
      </trkpt>
      <trkpt lat="19.059375" lon="-98.614437">
        <ele>3757.720</ele>
        <time>2021-01-23T08:05:49Z</time>
      </trkpt>
      <trkpt lat="19.05932" lon="-98.614446">
        <ele>3761.708</ele>
        <time>2021-01-23T08:05:54Z</time>
      </trkpt>
      <trkpt lat="19.059267" lon="-98.614438">
        <ele>3765.735</ele>
        <time>2021-01-23T08:05:59Z</time>
      </trkpt>
      <trkpt lat="19.059219" lon="-98.614432">
        <ele>3769.783</ele>
        <time>2021-01-23T08:06:06Z</time>
      </trkpt>
      <trkpt lat="19.059172" lon="-98.614428">
        <ele>3773.734</ele>
        <time>2021-01-23T08:06:12Z</time>
      </trkpt>
      <trkpt lat="19.059118" lon="-98.614424">
        <ele>3777.786</ele>
        <time>2021-01-23T08:06:20Z</time>
      </trkpt>
      <trkpt lat="19.059062" lon="-98.614432">
        <ele>3779.668</ele>
        <time>2021-01-23T08:06:26Z</time>
      </trkpt>
      <trkpt lat="19.059016" lon="-98.614444">
        <ele>3775.651</ele>
        <time>2021-01-23T08:06:30Z</time>
      </trkpt>
      <trkpt lat="19.058973" lon="-98.614463">
        <ele>3771.657</ele>
        <time>2021-01-23T08:06:34Z</time>
      </trkpt>
      <trkpt lat="19.058929" lon="-98.614484">
        <ele>3772.814</ele>
        <time>2021-01-23T08:06:43Z</time>
      </trkpt>
      <trkpt lat="19.058886" lon="-98.614507">
        <ele>3775.574</ele>
        <time>2021-01-23T08:06:50Z</time>
      </trkpt>
      <trkpt lat="19.058843" lon="-98.614525">
        <ele>3771.556</ele>
        <time>2021-01-23T08:06:57Z</time>
      </trkpt>
      <trkpt lat="19.058792" lon="-98.614546">
        <ele>3767.521</ele>
        <time>2021-01-23T08:07:02Z</time>
      </trkpt>
      <trkpt lat="19.058742" lon="-98.614569">
        <ele>3763.508</ele>
        <time>2021-01-23T08:07:06Z</time>
      </trkpt>
      <trkpt lat="19.058701" lon="-98.614606">
        <ele>3763.163</ele>
        <time>2021-01-23T08:07:12Z</time>
      </trkpt>
      <trkpt lat="19.058656" lon="-98.614625">
        <ele>3767.131</ele>
        <time>2021-01-23T08:07:17Z</time>
      </trkpt>
      <trkpt lat="19.058614" lon="-98.614654">
        <ele>3771.122</ele>
        <time>2021-01-23T08:07:34Z</time>
      </trkpt>
      <trkpt lat="19.05857" lon="-98.614685">
        <ele>3775.134</ele>
        <time>2021-01-23T08:07:39Z</time>
      </trkpt>
      <trkpt lat="19.058531" lon="-98.614712">
        <ele>3778.966</ele>
        <time>2021-01-23T08:07:44Z</time>
      </trkpt>
      <trkpt lat="19.058499" lon="-98.614751">
        <ele>3774.999</ele>
        <time>2021-01-23T08:07:52Z</time>
      </trkpt>
      <trkpt lat="19.058461" lon="-98.614791">
        <ele>3773.615</ele>
        <time>2021-01-23T08:07:59Z</time>
      </trkpt>
      <trkpt lat="19.05842" lon="-98.614821">
        <ele>3773.612</ele>
        <time>2021-01-23T08:08:04Z</time>
      </trkpt>
      <trkpt lat="19.05838" lon="-98.614853">
        <ele>3776.435</ele>
        <time>2021-01-23T08:08:10Z</time>
      </trkpt>
      <trkpt lat="19.058338" lon="-98.614881">
        <ele>3779.386</ele>
        <time>2021-01-23T08:08:17Z</time>
      </trkpt>
      <trkpt lat="19.058324" lon="-98.614927">
        <ele>3782.714</ele>
        <time>2021-01-23T08:08:26Z</time>
      </trkpt>
      <trkpt lat="19.058324" lon="-98.614927">
        <ele>3782.708</ele>
        <time>2021-01-23T08:08:26Z</time>
      </trkpt>
      <trkpt lat="19.058295" lon="-98.61497">
        <ele>3785.989</ele>
        <time>2021-01-23T08:08:34Z</time>
      </trkpt>
      <trkpt lat="19.058267" lon="-98.615009">
        <ele>3789.097</ele>
        <time>2021-01-23T08:08:41Z</time>
      </trkpt>
      <trkpt lat="19.058222" lon="-98.615016">
        <ele>3792.518</ele>
        <time>2021-01-23T08:08:50Z</time>
      </trkpt>
      <trkpt lat="19.058171" lon="-98.615013">
        <ele>3793.040</ele>
        <time>2021-01-23T08:09:08Z</time>
      </trkpt>
      <trkpt lat="19.058121" lon="-98.615026">
        <ele>3794.572</ele>
        <time>2021-01-23T08:09:12Z</time>
      </trkpt>
      <trkpt lat="19.058068" lon="-98.615049">
        <ele>3795.495</ele>
        <time>2021-01-23T08:09:16Z</time>
      </trkpt>
      <trkpt lat="19.058023" lon="-98.615073">
        <ele>3791.481</ele>
        <time>2021-01-23T08:09:20Z</time>
      </trkpt>
      <trkpt lat="19.057977" lon="-98.615091">
        <ele>3787.448</ele>
        <time>2021-01-23T08:09:25Z</time>
      </trkpt>
      <trkpt lat="19.057929" lon="-98.615111">
        <ele>3790.774</ele>
        <time>2021-01-23T08:09:36Z</time>
      </trkpt>
      <trkpt lat="19.057885" lon="-98.615124">
        <ele>3792.756</ele>
        <time>2021-01-23T08:09:43Z</time>
      </trkpt>
      <trkpt lat="19.057834" lon="-98.615124">
        <ele>3794.321</ele>
        <time>2021-01-23T08:09:48Z</time>
      </trkpt>
      <trkpt lat="19.057783" lon="-98.615132">
        <ele>3790.308</ele>
        <time>2021-01-23T08:09:56Z</time>
      </trkpt>
      <trkpt lat="19.057736" lon="-98.615128">
        <ele>3792.183</ele>
        <time>2021-01-23T08:10:07Z</time>
      </trkpt>
      <trkpt lat="19.057698" lon="-98.615153">
        <ele>3788.141</ele>
        <time>2021-01-23T08:10:14Z</time>
      </trkpt>
      <trkpt lat="19.05765" lon="-98.615159">
        <ele>3780.182</ele>
        <time>2021-01-23T08:10:19Z</time>
      </trkpt>
      <trkpt lat="19.05765" lon="-98.615159">
        <ele>3780.144</ele>
        <time>2021-01-23T08:10:19Z</time>
      </trkpt>
      <trkpt lat="19.057606" lon="-98.615147">
        <ele>3781.226</ele>
        <time>2021-01-23T08:10:24Z</time>
      </trkpt>
      <trkpt lat="19.057557" lon="-98.615149">
        <ele>3789.229</ele>
        <time>2021-01-23T08:10:30Z</time>
      </trkpt>
      <trkpt lat="19.057557" lon="-98.615149">
        <ele>3789.295</ele>
        <time>2021-01-23T08:10:30Z</time>
      </trkpt>
      <trkpt lat="19.057501" lon="-98.61516">
        <ele>3793.252</ele>
        <time>2021-01-23T08:10:36Z</time>
      </trkpt>
      <trkpt lat="19.057455" lon="-98.615182">
        <ele>3796.677</ele>
        <time>2021-01-23T08:10:41Z</time>
      </trkpt>
      <trkpt lat="19.057413" lon="-98.615209">
        <ele>3797.161</ele>
        <time>2021-01-23T08:10:47Z</time>
      </trkpt>
      <trkpt lat="19.057364" lon="-98.61522">
        <ele>3798.227</ele>
        <time>2021-01-23T08:10:55Z</time>
      </trkpt>
      <trkpt lat="19.057364" lon="-98.61522">
        <ele>3798.208</ele>
        <time>2021-01-23T08:10:55Z</time>
      </trkpt>
      <trkpt lat="19.057321" lon="-98.615203">
        <ele>3800.083</ele>
        <time>2021-01-23T08:11:07Z</time>
      </trkpt>
      <trkpt lat="19.057272" lon="-98.615201">
        <ele>3801.551</ele>
        <time>2021-01-23T08:11:13Z</time>
      </trkpt>
      <trkpt lat="19.05722" lon="-98.615196">
        <ele>3800.412</ele>
        <time>2021-01-23T08:11:32Z</time>
      </trkpt>
      <trkpt lat="19.05722" lon="-98.615196">
        <ele>3800.474</ele>
        <time>2021-01-23T08:11:32Z</time>
      </trkpt>
      <trkpt lat="19.057169" lon="-98.615204">
        <ele>3801.726</ele>
        <time>2021-01-23T08:11:37Z</time>
      </trkpt>
      <trkpt lat="19.057113" lon="-98.615203">
        <ele>3803.769</ele>
        <time>2021-01-23T08:11:42Z</time>
      </trkpt>
      <trkpt lat="19.057068" lon="-98.6152">
        <ele>3806.155</ele>
        <time>2021-01-23T08:11:45Z</time>
      </trkpt>
      <trkpt lat="19.057018" lon="-98.615183">
        <ele>3809.542</ele>
        <time>2021-01-23T08:11:50Z</time>
      </trkpt>
      <trkpt lat="19.056972" lon="-98.615207">
        <ele>3812.869</ele>
        <time>2021-01-23T08:12:14Z</time>
      </trkpt>
      <trkpt lat="19.056923" lon="-98.61521">
        <ele>3815.204</ele>
        <time>2021-01-23T08:12:19Z</time>
      </trkpt>
      <trkpt lat="19.056889" lon="-98.615179">
        <ele>3817.824</ele>
        <time>2021-01-23T08:12:28Z</time>
      </trkpt>
      <trkpt lat="19.056841" lon="-98.615179">
        <ele>3813.808</ele>
        <time>2021-01-23T08:12:34Z</time>
      </trkpt>
      <trkpt lat="19.056811" lon="-98.615218">
        <ele>3809.852</ele>
        <time>2021-01-23T08:12:43Z</time>
      </trkpt>
      <trkpt lat="19.056769" lon="-98.615245">
        <ele>3805.870</ele>
        <time>2021-01-23T08:13:09Z</time>
      </trkpt>
      <trkpt lat="19.056724" lon="-98.615236">
        <ele>3804.241</ele>
        <time>2021-01-23T08:13:22Z</time>
      </trkpt>
      <trkpt lat="19.056668" lon="-98.615247">
        <ele>3806.023</ele>
        <time>2021-01-23T08:13:49Z</time>
      </trkpt>
      <trkpt lat="19.056616" lon="-98.615232">
        <ele>3809.545</ele>
        <time>2021-01-23T08:13:52Z</time>
      </trkpt>
      <trkpt lat="19.056569" lon="-98.615204">
        <ele>3813.268</ele>
        <time>2021-01-23T08:14:13Z</time>
      </trkpt>
      <trkpt lat="19.056518" lon="-98.615186">
        <ele>3809.254</ele>
        <time>2021-01-23T08:14:18Z</time>
      </trkpt>
      <trkpt lat="19.056468" lon="-98.615183">
        <ele>3807.841</ele>
        <time>2021-01-23T08:14:23Z</time>
      </trkpt>
      <trkpt lat="19.056417" lon="-98.615176">
        <ele>3811.478</ele>
        <time>2021-01-23T08:14:29Z</time>
      </trkpt>
      <trkpt lat="19.05637" lon="-98.615157">
        <ele>3815.433</ele>
        <time>2021-01-23T08:14:35Z</time>
      </trkpt>
      <trkpt lat="19.056326" lon="-98.615133">
        <ele>3819.426</ele>
        <time>2021-01-23T08:14:45Z</time>
      </trkpt>
      <trkpt lat="19.056298" lon="-98.615085">
        <ele>3823.408</ele>
        <time>2021-01-23T08:14:49Z</time>
      </trkpt>
      <trkpt lat="19.056271" lon="-98.615036">
        <ele>3815.443</ele>
        <time>2021-01-23T08:14:59Z</time>
      </trkpt>
      <trkpt lat="19.056271" lon="-98.615036">
        <ele>3815.461</ele>
        <time>2021-01-23T08:14:59Z</time>
      </trkpt>
      <trkpt lat="19.056222" lon="-98.61503">
        <ele>3819.432</ele>
        <time>2021-01-23T08:15:13Z</time>
      </trkpt>
      <trkpt lat="19.05617" lon="-98.615027">
        <ele>3823.494</ele>
        <time>2021-01-23T08:15:31Z</time>
      </trkpt>
      <trkpt lat="19.056136" lon="-98.614994">
        <ele>3827.456</ele>
        <time>2021-01-23T08:15:39Z</time>
      </trkpt>
      <trkpt lat="19.056098" lon="-98.614964">
        <ele>3831.439</ele>
        <time>2021-01-23T08:15:50Z</time>
      </trkpt>
      <trkpt lat="19.056049" lon="-98.614956">
        <ele>3835.495</ele>
        <time>2021-01-23T08:16:28Z</time>
      </trkpt>
      <trkpt lat="19.056009" lon="-98.61493">
        <ele>3839.432</ele>
        <time>2021-01-23T08:16:35Z</time>
      </trkpt>
      <trkpt lat="19.055959" lon="-98.61491">
        <ele>3843.141</ele>
        <time>2021-01-23T08:16:41Z</time>
      </trkpt>
      <trkpt lat="19.055905" lon="-98.614914">
        <ele>3845.781</ele>
        <time>2021-01-23T08:16:46Z</time>
      </trkpt>
      <trkpt lat="19.055872" lon="-98.614872">
        <ele>3843.709</ele>
        <time>2021-01-23T08:17:27Z</time>
      </trkpt>
      <trkpt lat="19.055821" lon="-98.614866">
        <ele>3842.508</ele>
        <time>2021-01-23T08:17:32Z</time>
      </trkpt>
      <trkpt lat="19.055775" lon="-98.61487">
        <ele>3843.020</ele>
        <time>2021-01-23T08:17:48Z</time>
      </trkpt>
      <trkpt lat="19.055726" lon="-98.614885">
        <ele>3844.178</ele>
        <time>2021-01-23T08:17:54Z</time>
      </trkpt>
      <trkpt lat="19.055758" lon="-98.614851">
        <ele>3846.039</ele>
        <time>2021-01-23T08:18:03Z</time>
      </trkpt>
      <trkpt lat="19.055805" lon="-98.614853">
        <ele>3846.391</ele>
        <time>2021-01-23T08:18:44Z</time>
      </trkpt>
      <trkpt lat="19.055853" lon="-98.61483">
        <ele>3848.533</ele>
        <time>2021-01-23T08:19:19Z</time>
      </trkpt>
      <trkpt lat="19.055878" lon="-98.614789">
        <ele>3849.046</ele>
        <time>2021-01-23T08:19:24Z</time>
      </trkpt>
      <trkpt lat="19.055828" lon="-98.614797">
        <ele>3848.152</ele>
        <time>2021-01-23T08:20:11Z</time>
      </trkpt>
      <trkpt lat="19.055776" lon="-98.614802">
        <ele>3849.629</ele>
        <time>2021-01-23T08:20:17Z</time>
      </trkpt>
      <trkpt lat="19.055732" lon="-98.614818">
        <ele>3851.743</ele>
        <time>2021-01-23T08:20:22Z</time>
      </trkpt>
      <trkpt lat="19.055688" lon="-98.61484">
        <ele>3847.764</ele>
        <time>2021-01-23T08:20:32Z</time>
      </trkpt>
      <trkpt lat="19.055644" lon="-98.614852">
        <ele>3843.710</ele>
        <time>2021-01-23T08:20:37Z</time>
      </trkpt>
      <trkpt lat="19.055602" lon="-98.614835">
        <ele>3839.708</ele>
        <time>2021-01-23T08:20:52Z</time>
      </trkpt>
      <trkpt lat="19.055554" lon="-98.61484">
        <ele>3835.740</ele>
        <time>2021-01-23T08:21:07Z</time>
      </trkpt>
      <trkpt lat="19.055511" lon="-98.614815">
        <ele>3837.798</ele>
        <time>2021-01-23T08:21:16Z</time>
      </trkpt>
      <trkpt lat="19.055492" lon="-98.614769">
        <ele>3841.759</ele>
        <time>2021-01-23T08:21:23Z</time>
      </trkpt>
      <trkpt lat="19.055451" lon="-98.6148">
        <ele>3845.781</ele>
        <time>2021-01-23T08:21:40Z</time>
      </trkpt>
      <trkpt lat="19.055405" lon="-98.614787">
        <ele>3849.763</ele>
        <time>2021-01-23T08:22:01Z</time>
      </trkpt>
      <trkpt lat="19.05536" lon="-98.614798">
        <ele>3853.756</ele>
        <time>2021-01-23T08:22:24Z</time>
      </trkpt>
      <trkpt lat="19.055315" lon="-98.614821">
        <ele>3853.332</ele>
        <time>2021-01-23T08:23:20Z</time>
      </trkpt>
      <trkpt lat="19.05527" lon="-98.61483">
        <ele>3857.339</ele>
        <time>2021-01-23T08:23:46Z</time>
      </trkpt>
      <trkpt lat="19.055224" lon="-98.614815">
        <ele>3861.383</ele>
        <time>2021-01-23T08:23:53Z</time>
      </trkpt>
      <trkpt lat="19.055182" lon="-98.614797">
        <ele>3865.325</ele>
        <time>2021-01-23T08:24:00Z</time>
      </trkpt>
      <trkpt lat="19.055133" lon="-98.614782">
        <ele>3869.317</ele>
        <time>2021-01-23T08:24:14Z</time>
      </trkpt>
      <trkpt lat="19.055088" lon="-98.614813">
        <ele>3873.308</ele>
        <time>2021-01-23T08:24:32Z</time>
      </trkpt>
      <trkpt lat="19.055048" lon="-98.614836">
        <ele>3877.364</ele>
        <time>2021-01-23T08:25:07Z</time>
      </trkpt>
      <trkpt lat="19.055" lon="-98.614846">
        <ele>3881.352</ele>
        <time>2021-01-23T08:25:15Z</time>
      </trkpt>
      <trkpt lat="19.054952" lon="-98.614856">
        <ele>3877.313</ele>
        <time>2021-01-23T08:25:24Z</time>
      </trkpt>
      <trkpt lat="19.054907" lon="-98.614851">
        <ele>3881.145</ele>
        <time>2021-01-23T08:26:05Z</time>
      </trkpt>
      <trkpt lat="19.054858" lon="-98.614838">
        <ele>3883.857</ele>
        <time>2021-01-23T08:26:10Z</time>
      </trkpt>
      <trkpt lat="19.054809" lon="-98.614851">
        <ele>3887.890</ele>
        <time>2021-01-23T08:26:14Z</time>
      </trkpt>
      <trkpt lat="19.054761" lon="-98.614851">
        <ele>3891.826</ele>
        <time>2021-01-23T08:26:19Z</time>
      </trkpt>
      <trkpt lat="19.054714" lon="-98.614842">
        <ele>3895.883</ele>
        <time>2021-01-23T08:26:26Z</time>
      </trkpt>
      <trkpt lat="19.054661" lon="-98.614834">
        <ele>3899.074</ele>
        <time>2021-01-23T08:26:45Z</time>
      </trkpt>
      <trkpt lat="19.054613" lon="-98.614818">
        <ele>3901.356</ele>
        <time>2021-01-23T08:26:50Z</time>
      </trkpt>
      <trkpt lat="19.054565" lon="-98.614796">
        <ele>3904.221</ele>
        <time>2021-01-23T08:26:55Z</time>
      </trkpt>
      <trkpt lat="19.054565" lon="-98.614796">
        <ele>3904.208</ele>
        <time>2021-01-23T08:26:55Z</time>
      </trkpt>
      <trkpt lat="19.054519" lon="-98.614771">
        <ele>3905.673</ele>
        <time>2021-01-23T08:27:03Z</time>
      </trkpt>
      <trkpt lat="19.054477" lon="-98.614748">
        <ele>3905.771</ele>
        <time>2021-01-23T08:27:10Z</time>
      </trkpt>
      <trkpt lat="19.054477" lon="-98.614748">
        <ele>3905.752</ele>
        <time>2021-01-23T08:27:10Z</time>
      </trkpt>
      <trkpt lat="19.054437" lon="-98.614715">
        <ele>3901.734</ele>
        <time>2021-01-23T08:27:32Z</time>
      </trkpt>
      <trkpt lat="19.054411" lon="-98.614674">
        <ele>3897.766</ele>
        <time>2021-01-23T08:27:36Z</time>
      </trkpt>
      <trkpt lat="19.054377" lon="-98.614641">
        <ele>3894.939</ele>
        <time>2021-01-23T08:27:41Z</time>
      </trkpt>
      <trkpt lat="19.054329" lon="-98.614632">
        <ele>3898.915</ele>
        <time>2021-01-23T08:27:49Z</time>
      </trkpt>
      <trkpt lat="19.054301" lon="-98.614591">
        <ele>3900.092</ele>
        <time>2021-01-23T08:28:56Z</time>
      </trkpt>
      <trkpt lat="19.054301" lon="-98.614639">
        <ele>3896.068</ele>
        <time>2021-01-23T08:29:12Z</time>
      </trkpt>
      <trkpt lat="19.054278" lon="-98.614596">
        <ele>3892.042</ele>
        <time>2021-01-23T08:29:18Z</time>
      </trkpt>
      <trkpt lat="19.054236" lon="-98.614573">
        <ele>3888.026</ele>
        <time>2021-01-23T08:29:23Z</time>
      </trkpt>
      <trkpt lat="19.054191" lon="-98.614584">
        <ele>3884.008</ele>
        <time>2021-01-23T08:29:29Z</time>
      </trkpt>
      <trkpt lat="19.054144" lon="-98.614586">
        <ele>3888.072</ele>
        <time>2021-01-23T08:29:36Z</time>
      </trkpt>
      <trkpt lat="19.05409" lon="-98.6146">
        <ele>3892.070</ele>
        <time>2021-01-23T08:29:41Z</time>
      </trkpt>
      <trkpt lat="19.054045" lon="-98.614623">
        <ele>3888.041</ele>
        <time>2021-01-23T08:29:49Z</time>
      </trkpt>
      <trkpt lat="19.054" lon="-98.614606">
        <ele>3892.063</ele>
        <time>2021-01-23T08:30:02Z</time>
      </trkpt>
      <trkpt lat="19.05396" lon="-98.614631">
        <ele>3896.045</ele>
        <time>2021-01-23T08:30:09Z</time>
      </trkpt>
      <trkpt lat="19.053914" lon="-98.614632">
        <ele>3900.068</ele>
        <time>2021-01-23T08:30:15Z</time>
      </trkpt>
      <trkpt lat="19.053868" lon="-98.614614">
        <ele>3896.044</ele>
        <time>2021-01-23T08:30:31Z</time>
      </trkpt>
      <trkpt lat="19.05386" lon="-98.614555">
        <ele>3892.011</ele>
        <time>2021-01-23T08:30:37Z</time>
      </trkpt>
      <trkpt lat="19.05383" lon="-98.614514">
        <ele>3895.933</ele>
        <time>2021-01-23T08:30:41Z</time>
      </trkpt>
      <trkpt lat="19.0538" lon="-98.614476">
        <ele>3899.923</ele>
        <time>2021-01-23T08:30:48Z</time>
      </trkpt>
      <trkpt lat="19.053797" lon="-98.614423">
        <ele>3903.915</ele>
        <time>2021-01-23T08:30:54Z</time>
      </trkpt>
      <trkpt lat="19.053834" lon="-98.614393">
        <ele>3906.208</ele>
        <time>2021-01-23T08:31:07Z</time>
      </trkpt>
      <trkpt lat="19.053794" lon="-98.614364">
        <ele>3902.259</ele>
        <time>2021-01-23T08:31:18Z</time>
      </trkpt>
      <trkpt lat="19.05375" lon="-98.614344">
        <ele>3898.257</ele>
        <time>2021-01-23T08:31:25Z</time>
      </trkpt>
      <trkpt lat="19.05371" lon="-98.61432">
        <ele>3901.728</ele>
        <time>2021-01-23T08:31:31Z</time>
      </trkpt>
      <trkpt lat="19.05371" lon="-98.61432">
        <ele>3901.770</ele>
        <time>2021-01-23T08:31:31Z</time>
      </trkpt>
      <trkpt lat="19.053674" lon="-98.614284">
        <ele>3897.722</ele>
        <time>2021-01-23T08:31:39Z</time>
      </trkpt>
      <trkpt lat="19.053654" lon="-98.61424">
        <ele>3899.315</ele>
        <time>2021-01-23T08:31:48Z</time>
      </trkpt>
      <trkpt lat="19.053636" lon="-98.614193">
        <ele>3903.341</ele>
        <time>2021-01-23T08:32:02Z</time>
      </trkpt>
      <trkpt lat="19.053592" lon="-98.614175">
        <ele>3907.348</ele>
        <time>2021-01-23T08:32:12Z</time>
      </trkpt>
      <trkpt lat="19.053557" lon="-98.614143">
        <ele>3911.317</ele>
        <time>2021-01-23T08:32:26Z</time>
      </trkpt>
      <trkpt lat="19.053563" lon="-98.614093">
        <ele>3907.987</ele>
        <time>2021-01-23T08:32:32Z</time>
      </trkpt>
      <trkpt lat="19.053523" lon="-98.614063">
        <ele>3911.915</ele>
        <time>2021-01-23T08:32:44Z</time>
      </trkpt>
      <trkpt lat="19.053478" lon="-98.614055">
        <ele>3907.908</ele>
        <time>2021-01-23T08:32:50Z</time>
      </trkpt>
      <trkpt lat="19.053426" lon="-98.614052">
        <ele>3903.927</ele>
        <time>2021-01-23T08:32:55Z</time>
      </trkpt>
      <trkpt lat="19.053379" lon="-98.614041">
        <ele>3905.885</ele>
        <time>2021-01-23T08:33:00Z</time>
      </trkpt>
      <trkpt lat="19.053333" lon="-98.614024">
        <ele>3909.816</ele>
        <time>2021-01-23T08:33:07Z</time>
      </trkpt>
      <trkpt lat="19.053293" lon="-98.613996">
        <ele>3913.878</ele>
        <time>2021-01-23T08:33:17Z</time>
      </trkpt>
      <trkpt lat="19.053257" lon="-98.613961">
        <ele>3917.850</ele>
        <time>2021-01-23T08:33:26Z</time>
      </trkpt>
      <trkpt lat="19.053225" lon="-98.613924">
        <ele>3913.893</ele>
        <time>2021-01-23T08:33:33Z</time>
      </trkpt>
      <trkpt lat="19.053177" lon="-98.613914">
        <ele>3917.019</ele>
        <time>2021-01-23T08:33:41Z</time>
      </trkpt>
      <trkpt lat="19.053128" lon="-98.613921">
        <ele>3921.066</ele>
        <time>2021-01-23T08:33:46Z</time>
      </trkpt>
      <trkpt lat="19.053076" lon="-98.613926">
        <ele>3925.081</ele>
        <time>2021-01-23T08:33:52Z</time>
      </trkpt>
      <trkpt lat="19.053034" lon="-98.613902">
        <ele>3929.061</ele>
        <time>2021-01-23T08:34:01Z</time>
      </trkpt>
      <trkpt lat="19.052987" lon="-98.613897">
        <ele>3933.017</ele>
        <time>2021-01-23T08:34:07Z</time>
      </trkpt>
      <trkpt lat="19.052943" lon="-98.613875">
        <ele>3937.008</ele>
        <time>2021-01-23T08:34:14Z</time>
      </trkpt>
      <trkpt lat="19.0529" lon="-98.613858">
        <ele>3939.794</ele>
        <time>2021-01-23T08:34:21Z</time>
      </trkpt>
      <trkpt lat="19.052854" lon="-98.613857">
        <ele>3935.762</ele>
        <time>2021-01-23T08:34:58Z</time>
      </trkpt>
      <trkpt lat="19.052808" lon="-98.613854">
        <ele>3934.963</ele>
        <time>2021-01-23T08:35:03Z</time>
      </trkpt>
      <trkpt lat="19.052763" lon="-98.613848">
        <ele>3938.485</ele>
        <time>2021-01-23T08:35:07Z</time>
      </trkpt>
      <trkpt lat="19.052712" lon="-98.613842">
        <ele>3942.467</ele>
        <time>2021-01-23T08:35:11Z</time>
      </trkpt>
      <trkpt lat="19.052664" lon="-98.613835">
        <ele>3944.520</ele>
        <time>2021-01-23T08:35:15Z</time>
      </trkpt>
      <trkpt lat="19.052619" lon="-98.613827">
        <ele>3945.046</ele>
        <time>2021-01-23T08:35:22Z</time>
      </trkpt>
      <trkpt lat="19.052585" lon="-98.613788">
        <ele>3945.343</ele>
        <time>2021-01-23T08:35:33Z</time>
      </trkpt>
      <trkpt lat="19.052541" lon="-98.613762">
        <ele>3946.279</ele>
        <time>2021-01-23T08:35:42Z</time>
      </trkpt>
      <trkpt lat="19.052541" lon="-98.613762">
        <ele>3946.205</ele>
        <time>2021-01-23T08:35:42Z</time>
      </trkpt>
      <trkpt lat="19.052496" lon="-98.61374">
        <ele>3946.425</ele>
        <time>2021-01-23T08:35:50Z</time>
      </trkpt>
      <trkpt lat="19.05245" lon="-98.613735">
        <ele>3947.308</ele>
        <time>2021-01-23T08:35:57Z</time>
      </trkpt>
      <trkpt lat="19.052416" lon="-98.613769">
        <ele>3947.993</ele>
        <time>2021-01-23T08:36:28Z</time>
      </trkpt>
      <trkpt lat="19.052434" lon="-98.613722">
        <ele>3943.921</ele>
        <time>2021-01-23T08:38:08Z</time>
      </trkpt>
      <trkpt lat="19.052397" lon="-98.613681">
        <ele>3944.642</ele>
        <time>2021-01-23T08:38:13Z</time>
      </trkpt>
      <trkpt lat="19.052381" lon="-98.61363">
        <ele>3945.874</ele>
        <time>2021-01-23T08:38:17Z</time>
      </trkpt>
      <trkpt lat="19.052358" lon="-98.613586">
        <ele>3946.186</ele>
        <time>2021-01-23T08:38:23Z</time>
      </trkpt>
      <trkpt lat="19.052329" lon="-98.613548">
        <ele>3942.139</ele>
        <time>2021-01-23T08:38:44Z</time>
      </trkpt>
      <trkpt lat="19.052331" lon="-98.613499">
        <ele>3938.135</ele>
        <time>2021-01-23T08:38:53Z</time>
      </trkpt>
      <trkpt lat="19.052339" lon="-98.613452">
        <ele>3936.352</ele>
        <time>2021-01-23T08:39:01Z</time>
      </trkpt>
      <trkpt lat="19.052301" lon="-98.613422">
        <ele>3932.323</ele>
        <time>2021-01-23T08:39:11Z</time>
      </trkpt>
      <trkpt lat="19.052283" lon="-98.613374">
        <ele>3928.083</ele>
        <time>2021-01-23T08:39:19Z</time>
      </trkpt>
      <trkpt lat="19.052283" lon="-98.613374">
        <ele>3928.011</ele>
        <time>2021-01-23T08:39:19Z</time>
      </trkpt>
      <trkpt lat="19.052275" lon="-98.613327">
        <ele>3924.008</ele>
        <time>2021-01-23T08:39:31Z</time>
      </trkpt>
      <trkpt lat="19.052312" lon="-98.613288">
        <ele>3920.038</ele>
        <time>2021-01-23T08:39:39Z</time>
      </trkpt>
      <trkpt lat="19.052344" lon="-98.61325">
        <ele>3921.886</ele>
        <time>2021-01-23T08:39:46Z</time>
      </trkpt>
      <trkpt lat="19.052368" lon="-98.613291">
        <ele>3922.197</ele>
        <time>2021-01-23T08:41:37Z</time>
      </trkpt>
      <trkpt lat="19.052338" lon="-98.613327">
        <ele>3930.149</ele>
        <time>2021-01-23T08:41:53Z</time>
      </trkpt>
      <trkpt lat="19.052338" lon="-98.613327">
        <ele>3930.141</ele>
        <time>2021-01-23T08:41:53Z</time>
      </trkpt>
      <trkpt lat="19.052302" lon="-98.613363">
        <ele>3934.184</ele>
        <time>2021-01-23T08:42:09Z</time>
      </trkpt>
      <trkpt lat="19.052313" lon="-98.61342">
        <ele>3930.180</ele>
        <time>2021-01-23T08:52:40Z</time>
      </trkpt>
      <trkpt lat="19.052354" lon="-98.613453">
        <ele>3926.167</ele>
        <time>2021-01-23T08:52:47Z</time>
      </trkpt>
      <trkpt lat="19.052403" lon="-98.613466">
        <ele>3922.191</ele>
        <time>2021-01-23T08:52:50Z</time>
      </trkpt>
      <trkpt lat="19.052406" lon="-98.613519">
        <ele>3918.181</ele>
        <time>2021-01-23T08:52:53Z</time>
      </trkpt>
      <trkpt lat="19.052368" lon="-98.613583">
        <ele>3915.919</ele>
        <time>2021-01-23T08:52:55Z</time>
      </trkpt>
      <trkpt lat="19.052318" lon="-98.61364">
        <ele>3919.408</ele>
        <time>2021-01-23T08:52:57Z</time>
      </trkpt>
      <trkpt lat="19.052283" lon="-98.613674">
        <ele>3922.725</ele>
        <time>2021-01-23T08:52:59Z</time>
      </trkpt>
      <trkpt lat="19.052236" lon="-98.613701">
        <ele>3926.733</ele>
        <time>2021-01-23T08:53:03Z</time>
      </trkpt>
      <trkpt lat="19.052217" lon="-98.613747">
        <ele>3922.734</ele>
        <time>2021-01-23T08:53:12Z</time>
      </trkpt>
      <trkpt lat="19.052263" lon="-98.61375">
        <ele>3918.716</ele>
        <time>2021-01-23T08:53:25Z</time>
      </trkpt>
      <trkpt lat="19.052317" lon="-98.613752">
        <ele>3914.798</ele>
        <time>2021-01-23T08:53:31Z</time>
      </trkpt>
      <trkpt lat="19.052359" lon="-98.61377">
        <ele>3918.741</ele>
        <time>2021-01-23T08:55:03Z</time>
      </trkpt>
      <trkpt lat="19.052392" lon="-98.613807">
        <ele>3922.717</ele>
        <time>2021-01-23T08:55:13Z</time>
      </trkpt>
      <trkpt lat="19.052345" lon="-98.613807">
        <ele>3926.784</ele>
        <time>2021-01-23T08:57:10Z</time>
      </trkpt>
      <trkpt lat="19.052316" lon="-98.613756">
        <ele>3930.754</ele>
        <time>2021-01-23T09:03:02Z</time>
      </trkpt>
      <trkpt lat="19.052334" lon="-98.613809">
        <ele>3934.756</ele>
        <time>2021-01-23T09:03:07Z</time>
      </trkpt>
      <trkpt lat="19.052283" lon="-98.613801">
        <ele>3934.711</ele>
        <time>2021-01-23T09:04:04Z</time>
      </trkpt>
      <trkpt lat="19.052236" lon="-98.613794">
        <ele>3938.708</ele>
        <time>2021-01-23T09:04:09Z</time>
      </trkpt>
      <trkpt lat="19.052189" lon="-98.613808">
        <ele>3940.711</ele>
        <time>2021-01-23T09:04:13Z</time>
      </trkpt>
      <trkpt lat="19.052133" lon="-98.613814">
        <ele>3936.799</ele>
        <time>2021-01-23T09:04:18Z</time>
      </trkpt>
      <trkpt lat="19.052088" lon="-98.613804">
        <ele>3937.570</ele>
        <time>2021-01-23T09:04:21Z</time>
      </trkpt>
      <trkpt lat="19.052054" lon="-98.613772">
        <ele>3940.492</ele>
        <time>2021-01-23T09:04:27Z</time>
      </trkpt>
      <trkpt lat="19.052009" lon="-98.613747">
        <ele>3940.524</ele>
        <time>2021-01-23T09:04:35Z</time>
      </trkpt>
      <trkpt lat="19.051964" lon="-98.613738">
        <ele>3936.557</ele>
        <time>2021-01-23T09:04:43Z</time>
      </trkpt>
      <trkpt lat="19.051916" lon="-98.613749">
        <ele>3932.543</ele>
        <time>2021-01-23T09:04:48Z</time>
      </trkpt>
      <trkpt lat="19.051869" lon="-98.61375">
        <ele>3928.510</ele>
        <time>2021-01-23T09:04:52Z</time>
      </trkpt>
      <trkpt lat="19.051824" lon="-98.613764">
        <ele>3927.499</ele>
        <time>2021-01-23T09:04:57Z</time>
      </trkpt>
      <trkpt lat="19.05178" lon="-98.613742">
        <ele>3931.407</ele>
        <time>2021-01-23T09:05:06Z</time>
      </trkpt>
      <trkpt lat="19.051731" lon="-98.613728">
        <ele>3939.427</ele>
        <time>2021-01-23T09:05:19Z</time>
      </trkpt>
      <trkpt lat="19.051731" lon="-98.613728">
        <ele>3939.408</ele>
        <time>2021-01-23T09:05:19Z</time>
      </trkpt>
      <trkpt lat="19.051686" lon="-98.61375">
        <ele>3944.115</ele>
        <time>2021-01-23T09:05:23Z</time>
      </trkpt>
      <trkpt lat="19.051686" lon="-98.61375">
        <ele>3944.183</ele>
        <time>2021-01-23T09:05:23Z</time>
      </trkpt>
      <trkpt lat="19.051638" lon="-98.613743">
        <ele>3940.174</ele>
        <time>2021-01-23T09:05:31Z</time>
      </trkpt>
      <trkpt lat="19.051589" lon="-98.613734">
        <ele>3936.196</ele>
        <time>2021-01-23T09:05:37Z</time>
      </trkpt>
      <trkpt lat="19.051544" lon="-98.613742">
        <ele>3933.298</ele>
        <time>2021-01-23T09:05:42Z</time>
      </trkpt>
      <trkpt lat="19.051491" lon="-98.613731">
        <ele>3934.221</ele>
        <time>2021-01-23T09:05:48Z</time>
      </trkpt>
      <trkpt lat="19.051445" lon="-98.613717">
        <ele>3938.267</ele>
        <time>2021-01-23T09:05:56Z</time>
      </trkpt>
      <trkpt lat="19.051393" lon="-98.613705">
        <ele>3942.234</ele>
        <time>2021-01-23T09:06:06Z</time>
      </trkpt>
      <trkpt lat="19.051382" lon="-98.613656">
        <ele>3946.226</ele>
        <time>2021-01-23T09:06:11Z</time>
      </trkpt>
      <trkpt lat="19.051339" lon="-98.613631">
        <ele>3949.247</ele>
        <time>2021-01-23T09:06:18Z</time>
      </trkpt>
      <trkpt lat="19.051289" lon="-98.613622">
        <ele>3951.411</ele>
        <time>2021-01-23T09:06:24Z</time>
      </trkpt>
      <trkpt lat="19.051245" lon="-98.613612">
        <ele>3954.308</ele>
        <time>2021-01-23T09:06:40Z</time>
      </trkpt>
      <trkpt lat="19.051209" lon="-98.613583">
        <ele>3956.188</ele>
        <time>2021-01-23T09:07:15Z</time>
      </trkpt>
      <trkpt lat="19.051231" lon="-98.613536">
        <ele>3962.396</ele>
        <time>2021-01-23T09:07:50Z</time>
      </trkpt>
      <trkpt lat="19.051231" lon="-98.613536">
        <ele>3962.357</ele>
        <time>2021-01-23T09:07:50Z</time>
      </trkpt>
      <trkpt lat="19.051244" lon="-98.613489">
        <ele>3964.979</ele>
        <time>2021-01-23T09:07:55Z</time>
      </trkpt>
      <trkpt lat="19.051217" lon="-98.613448">
        <ele>3966.131</ele>
        <time>2021-01-23T09:08:54Z</time>
      </trkpt>
      <trkpt lat="19.051172" lon="-98.613456">
        <ele>3962.134</ele>
        <time>2021-01-23T09:10:07Z</time>
      </trkpt>
      <trkpt lat="19.051126" lon="-98.613443">
        <ele>3965.650</ele>
        <time>2021-01-23T09:10:46Z</time>
      </trkpt>
      <trkpt lat="19.051081" lon="-98.613431">
        <ele>3968.537</ele>
        <time>2021-01-23T09:11:02Z</time>
      </trkpt>
      <trkpt lat="19.05106" lon="-98.613384">
        <ele>3972.518</ele>
        <time>2021-01-23T09:11:48Z</time>
      </trkpt>
      <trkpt lat="19.051012" lon="-98.613388">
        <ele>3974.698</ele>
        <time>2021-01-23T09:11:56Z</time>
      </trkpt>
      <trkpt lat="19.05097" lon="-98.61341">
        <ele>3976.317</ele>
        <time>2021-01-23T09:12:00Z</time>
      </trkpt>
      <trkpt lat="19.050929" lon="-98.613433">
        <ele>3977.308</ele>
        <time>2021-01-23T09:12:09Z</time>
      </trkpt>
      <trkpt lat="19.050921" lon="-98.61348">
        <ele>3979.517</ele>
        <time>2021-01-23T09:12:34Z</time>
      </trkpt>
      <trkpt lat="19.050879" lon="-98.613455">
        <ele>3974.025</ele>
        <time>2021-01-23T09:24:37Z</time>
      </trkpt>
      <trkpt lat="19.050982" lon="-98.613494">
        <ele>3968.076</ele>
        <time>2021-01-23T09:35:01Z</time>
      </trkpt>
      <trkpt lat="19.050934" lon="-98.613488">
        <ele>3974.068</ele>
        <time>2021-01-23T09:35:07Z</time>
      </trkpt>
      <trkpt lat="19.050914" lon="-98.613444">
        <ele>3974.020</ele>
        <time>2021-01-23T09:36:59Z</time>
      </trkpt>
      <trkpt lat="19.05096" lon="-98.613433">
        <ele>3974.493</ele>
        <time>2021-01-23T09:38:38Z</time>
      </trkpt>
      <trkpt lat="19.050912" lon="-98.613412">
        <ele>3973.059</ele>
        <time>2021-01-23T09:40:11Z</time>
      </trkpt>
      <trkpt lat="19.050881" lon="-98.613372">
        <ele>3971.416</ele>
        <time>2021-01-23T09:40:17Z</time>
      </trkpt>
      <trkpt lat="19.050863" lon="-98.613322">
        <ele>3970.452</ele>
        <time>2021-01-23T09:40:24Z</time>
      </trkpt>
      <trkpt lat="19.050828" lon="-98.613285">
        <ele>3970.653</ele>
        <time>2021-01-23T09:40:29Z</time>
      </trkpt>
      <trkpt lat="19.050781" lon="-98.613289">
        <ele>3973.108</ele>
        <time>2021-01-23T09:40:39Z</time>
      </trkpt>
      <trkpt lat="19.050748" lon="-98.613256">
        <ele>3974.608</ele>
        <time>2021-01-23T09:40:52Z</time>
      </trkpt>
      <trkpt lat="19.050719" lon="-98.613295">
        <ele>3977.571</ele>
        <time>2021-01-23T09:41:32Z</time>
      </trkpt>
      <trkpt lat="19.050679" lon="-98.613321">
        <ele>3980.859</ele>
        <time>2021-01-23T09:41:50Z</time>
      </trkpt>
      <trkpt lat="19.05063" lon="-98.613322">
        <ele>3979.660</ele>
        <time>2021-01-23T09:42:29Z</time>
      </trkpt>
      <trkpt lat="19.050582" lon="-98.613328">
        <ele>3981.342</ele>
        <time>2021-01-23T09:42:34Z</time>
      </trkpt>
      <trkpt lat="19.050545" lon="-98.613299">
        <ele>3982.794</ele>
        <time>2021-01-23T09:42:43Z</time>
      </trkpt>
      <trkpt lat="19.0505" lon="-98.613301">
        <ele>3978.767</ele>
        <time>2021-01-23T09:43:02Z</time>
      </trkpt>
      <trkpt lat="19.050453" lon="-98.61331">
        <ele>3982.793</ele>
        <time>2021-01-23T09:43:13Z</time>
      </trkpt>
      <trkpt lat="19.050408" lon="-98.613317">
        <ele>3985.520</ele>
        <time>2021-01-23T09:43:23Z</time>
      </trkpt>
      <trkpt lat="19.05037" lon="-98.613349">
        <ele>3981.563</ele>
        <time>2021-01-23T09:43:32Z</time>
      </trkpt>
      <trkpt lat="19.050357" lon="-98.613401">
        <ele>3984.444</ele>
        <time>2021-01-23T09:43:41Z</time>
      </trkpt>
      <trkpt lat="19.050316" lon="-98.613428">
        <ele>3986.918</ele>
        <time>2021-01-23T09:44:02Z</time>
      </trkpt>
      <trkpt lat="19.050291" lon="-98.613474">
        <ele>3990.908</ele>
        <time>2021-01-23T09:44:11Z</time>
      </trkpt>
      <trkpt lat="19.050256" lon="-98.613514">
        <ele>3994.462</ele>
        <time>2021-01-23T09:44:19Z</time>
      </trkpt>
      <trkpt lat="19.050222" lon="-98.613546">
        <ele>3998.170</ele>
        <time>2021-01-23T09:44:26Z</time>
      </trkpt>
      <trkpt lat="19.050191" lon="-98.613511">
        <ele>4001.591</ele>
        <time>2021-01-23T09:44:43Z</time>
      </trkpt>
      <trkpt lat="19.050204" lon="-98.613464">
        <ele>4004.033</ele>
        <time>2021-01-23T09:45:00Z</time>
      </trkpt>
      <trkpt lat="19.050165" lon="-98.613438">
        <ele>4006.785</ele>
        <time>2021-01-23T09:45:13Z</time>
      </trkpt>
      <trkpt lat="19.050125" lon="-98.613416">
        <ele>4007.598</ele>
        <time>2021-01-23T09:46:02Z</time>
      </trkpt>
      <trkpt lat="19.05009" lon="-98.613379">
        <ele>4008.484</ele>
        <time>2021-01-23T09:46:19Z</time>
      </trkpt>
      <trkpt lat="19.050057" lon="-98.613343">
        <ele>4008.541</ele>
        <time>2021-01-23T09:46:24Z</time>
      </trkpt>
      <trkpt lat="19.050021" lon="-98.613308">
        <ele>4008.626</ele>
        <time>2021-01-23T09:46:29Z</time>
      </trkpt>
      <trkpt lat="19.049988" lon="-98.613273">
        <ele>4007.847</ele>
        <time>2021-01-23T09:46:34Z</time>
      </trkpt>
      <trkpt lat="19.049943" lon="-98.613267">
        <ele>4007.311</ele>
        <time>2021-01-23T09:46:40Z</time>
      </trkpt>
      <trkpt lat="19.049902" lon="-98.613244">
        <ele>4007.008</ele>
        <time>2021-01-23T09:46:49Z</time>
      </trkpt>
      <trkpt lat="19.04986" lon="-98.613216">
        <ele>4007.268</ele>
        <time>2021-01-23T09:46:57Z</time>
      </trkpt>
      <trkpt lat="19.049824" lon="-98.613182">
        <ele>4007.796</ele>
        <time>2021-01-23T09:47:02Z</time>
      </trkpt>
      <trkpt lat="19.049776" lon="-98.613164">
        <ele>4008.857</ele>
        <time>2021-01-23T09:47:09Z</time>
      </trkpt>
      <trkpt lat="19.049724" lon="-98.613169">
        <ele>4010.329</ele>
        <time>2021-01-23T09:47:15Z</time>
      </trkpt>
      <trkpt lat="19.049675" lon="-98.613163">
        <ele>4011.661</ele>
        <time>2021-01-23T09:47:21Z</time>
      </trkpt>
      <trkpt lat="19.049629" lon="-98.613153">
        <ele>4011.624</ele>
        <time>2021-01-23T09:47:28Z</time>
      </trkpt>
      <trkpt lat="19.049577" lon="-98.613154">
        <ele>4012.430</ele>
        <time>2021-01-23T09:47:38Z</time>
      </trkpt>
      <trkpt lat="19.049555" lon="-98.613111">
        <ele>4014.167</ele>
        <time>2021-01-23T09:47:49Z</time>
      </trkpt>
      <trkpt lat="19.049514" lon="-98.61308">
        <ele>4014.744</ele>
        <time>2021-01-23T09:48:00Z</time>
      </trkpt>
      <trkpt lat="19.049465" lon="-98.613074">
        <ele>4014.305</ele>
        <time>2021-01-23T09:48:07Z</time>
      </trkpt>
      <trkpt lat="19.049419" lon="-98.613076">
        <ele>4014.015</ele>
        <time>2021-01-23T09:48:17Z</time>
      </trkpt>
      <trkpt lat="19.049373" lon="-98.613066">
        <ele>4014.608</ele>
        <time>2021-01-23T09:48:29Z</time>
      </trkpt>
      <trkpt lat="19.049322" lon="-98.613069">
        <ele>4015.890</ele>
        <time>2021-01-23T09:48:37Z</time>
      </trkpt>
      <trkpt lat="19.049276" lon="-98.613078">
        <ele>4018.948</ele>
        <time>2021-01-23T09:48:46Z</time>
      </trkpt>
      <trkpt lat="19.049227" lon="-98.613077">
        <ele>4021.239</ele>
        <time>2021-01-23T09:48:58Z</time>
      </trkpt>
      <trkpt lat="19.049177" lon="-98.613074">
        <ele>4023.021</ele>
        <time>2021-01-23T09:49:08Z</time>
      </trkpt>
      <trkpt lat="19.04913" lon="-98.61307">
        <ele>4024.583</ele>
        <time>2021-01-23T09:49:18Z</time>
      </trkpt>
      <trkpt lat="19.049081" lon="-98.613071">
        <ele>4025.846</ele>
        <time>2021-01-23T09:49:26Z</time>
      </trkpt>
      <trkpt lat="19.049034" lon="-98.613073">
        <ele>4026.652</ele>
        <time>2021-01-23T09:49:33Z</time>
      </trkpt>
      <trkpt lat="19.048991" lon="-98.613059">
        <ele>4028.329</ele>
        <time>2021-01-23T09:49:42Z</time>
      </trkpt>
      <trkpt lat="19.048944" lon="-98.61306">
        <ele>4029.766</ele>
        <time>2021-01-23T09:49:50Z</time>
      </trkpt>
      <trkpt lat="19.048907" lon="-98.613031">
        <ele>4030.529</ele>
        <time>2021-01-23T09:50:03Z</time>
      </trkpt>
      <trkpt lat="19.04886" lon="-98.613024">
        <ele>4031.421</ele>
        <time>2021-01-23T09:50:10Z</time>
      </trkpt>
      <trkpt lat="19.048812" lon="-98.61302">
        <ele>4031.508</ele>
        <time>2021-01-23T09:50:17Z</time>
      </trkpt>
      <trkpt lat="19.048764" lon="-98.613019">
        <ele>4032.082</ele>
        <time>2021-01-23T09:50:25Z</time>
      </trkpt>
      <trkpt lat="19.048714" lon="-98.613025">
        <ele>4033.580</ele>
        <time>2021-01-23T09:50:37Z</time>
      </trkpt>
      <trkpt lat="19.048668" lon="-98.613043">
        <ele>4035.681</ele>
        <time>2021-01-23T09:50:46Z</time>
      </trkpt>
      <trkpt lat="19.048627" lon="-98.613021">
        <ele>4037.363</ele>
        <time>2021-01-23T09:50:54Z</time>
      </trkpt>
      <trkpt lat="19.048583" lon="-98.612995">
        <ele>4039.545</ele>
        <time>2021-01-23T09:51:03Z</time>
      </trkpt>
      <trkpt lat="19.048531" lon="-98.612996">
        <ele>4040.818</ele>
        <time>2021-01-23T09:51:10Z</time>
      </trkpt>
      <trkpt lat="19.048484" lon="-98.613001">
        <ele>4042.014</ele>
        <time>2021-01-23T09:51:19Z</time>
      </trkpt>
      <trkpt lat="19.048438" lon="-98.612996">
        <ele>4043.531</ele>
        <time>2021-01-23T09:51:29Z</time>
      </trkpt>
      <trkpt lat="19.048389" lon="-98.612989">
        <ele>4044.891</ele>
        <time>2021-01-23T09:51:40Z</time>
      </trkpt>
      <trkpt lat="19.048342" lon="-98.612999">
        <ele>4045.281</ele>
        <time>2021-01-23T09:51:55Z</time>
      </trkpt>
      <trkpt lat="19.048296" lon="-98.612995">
        <ele>4046.219</ele>
        <time>2021-01-23T09:52:03Z</time>
      </trkpt>
      <trkpt lat="19.048248" lon="-98.612987">
        <ele>4048.408</ele>
        <time>2021-01-23T09:52:12Z</time>
      </trkpt>
      <trkpt lat="19.048203" lon="-98.612966">
        <ele>4050.515</ele>
        <time>2021-01-23T09:52:41Z</time>
      </trkpt>
      <trkpt lat="19.048158" lon="-98.612969">
        <ele>4052.683</ele>
        <time>2021-01-23T09:53:01Z</time>
      </trkpt>
      <trkpt lat="19.048106" lon="-98.612955">
        <ele>4054.694</ele>
        <time>2021-01-23T09:53:08Z</time>
      </trkpt>
      <trkpt lat="19.048063" lon="-98.612935">
        <ele>4056.636</ele>
        <time>2021-01-23T09:53:15Z</time>
      </trkpt>
      <trkpt lat="19.048018" lon="-98.612925">
        <ele>4058.258</ele>
        <time>2021-01-23T09:53:24Z</time>
      </trkpt>
      <trkpt lat="19.047967" lon="-98.612928">
        <ele>4059.641</ele>
        <time>2021-01-23T09:53:33Z</time>
      </trkpt>
      <trkpt lat="19.047919" lon="-98.612946">
        <ele>4061.667</ele>
        <time>2021-01-23T09:53:41Z</time>
      </trkpt>
      <trkpt lat="19.047872" lon="-98.612959">
        <ele>4064.084</ele>
        <time>2021-01-23T09:53:49Z</time>
      </trkpt>
      <trkpt lat="19.047826" lon="-98.612976">
        <ele>4066.254</ele>
        <time>2021-01-23T09:53:56Z</time>
      </trkpt>
      <trkpt lat="19.047782" lon="-98.612964">
        <ele>4067.156</ele>
        <time>2021-01-23T09:54:03Z</time>
      </trkpt>
      <trkpt lat="19.047739" lon="-98.612988">
        <ele>4068.111</ele>
        <time>2021-01-23T09:54:18Z</time>
      </trkpt>
      <trkpt lat="19.047697" lon="-98.613008">
        <ele>4069.108</ele>
        <time>2021-01-23T09:54:26Z</time>
      </trkpt>
      <trkpt lat="19.04765" lon="-98.613025">
        <ele>4069.771</ele>
        <time>2021-01-23T09:54:34Z</time>
      </trkpt>
      <trkpt lat="19.047604" lon="-98.613039">
        <ele>4070.929</ele>
        <time>2021-01-23T09:54:42Z</time>
      </trkpt>
      <trkpt lat="19.047564" lon="-98.613069">
        <ele>4070.830</ele>
        <time>2021-01-23T09:54:48Z</time>
      </trkpt>
      <trkpt lat="19.047516" lon="-98.61306">
        <ele>4073.592</ele>
        <time>2021-01-23T09:55:14Z</time>
      </trkpt>
      <trkpt lat="19.047468" lon="-98.613068">
        <ele>4075.584</ele>
        <time>2021-01-23T09:55:21Z</time>
      </trkpt>
      <trkpt lat="19.04742" lon="-98.613078">
        <ele>4076.367</ele>
        <time>2021-01-23T09:55:30Z</time>
      </trkpt>
      <trkpt lat="19.047374" lon="-98.613063">
        <ele>4076.473</ele>
        <time>2021-01-23T09:55:38Z</time>
      </trkpt>
      <trkpt lat="19.047328" lon="-98.613065">
        <ele>4077.360</ele>
        <time>2021-01-23T09:55:45Z</time>
      </trkpt>
      <trkpt lat="19.047298" lon="-98.613109">
        <ele>4078.211</ele>
        <time>2021-01-23T09:55:51Z</time>
      </trkpt>
      <trkpt lat="19.04725" lon="-98.613131">
        <ele>4077.921</ele>
        <time>2021-01-23T09:55:58Z</time>
      </trkpt>
      <trkpt lat="19.047205" lon="-98.613122">
        <ele>4078.503</ele>
        <time>2021-01-23T09:56:06Z</time>
      </trkpt>
      <trkpt lat="19.047159" lon="-98.613119">
        <ele>4078.908</ele>
        <time>2021-01-23T09:56:14Z</time>
      </trkpt>
      <trkpt lat="19.04711" lon="-98.613128">
        <ele>4080.777</ele>
        <time>2021-01-23T09:56:22Z</time>
      </trkpt>
      <trkpt lat="19.047062" lon="-98.613144">
        <ele>4082.275</ele>
        <time>2021-01-23T09:56:30Z</time>
      </trkpt>
      <trkpt lat="19.047017" lon="-98.613169">
        <ele>4083.976</ele>
        <time>2021-01-23T09:56:38Z</time>
      </trkpt>
      <trkpt lat="19.046972" lon="-98.613173">
        <ele>4085.378</ele>
        <time>2021-01-23T09:56:49Z</time>
      </trkpt>
      <trkpt lat="19.046929" lon="-98.613195">
        <ele>4088.630</ele>
        <time>2021-01-23T09:56:58Z</time>
      </trkpt>
      <trkpt lat="19.046884" lon="-98.613195">
        <ele>4091.033</ele>
        <time>2021-01-23T09:57:07Z</time>
      </trkpt>
      <trkpt lat="19.046837" lon="-98.613189">
        <ele>4092.829</ele>
        <time>2021-01-23T09:57:16Z</time>
      </trkpt>
      <trkpt lat="19.046792" lon="-98.613208">
        <ele>4093.966</ele>
        <time>2021-01-23T09:57:28Z</time>
      </trkpt>
      <trkpt lat="19.046747" lon="-98.61322">
        <ele>4094.288</ele>
        <time>2021-01-23T09:57:37Z</time>
      </trkpt>
      <trkpt lat="19.046701" lon="-98.613235">
        <ele>4094.424</ele>
        <time>2021-01-23T09:57:47Z</time>
      </trkpt>
      <trkpt lat="19.046655" lon="-98.613232">
        <ele>4095.726</ele>
        <time>2021-01-23T09:57:55Z</time>
      </trkpt>
      <trkpt lat="19.04661" lon="-98.613233">
        <ele>4099.708</ele>
        <time>2021-01-23T09:58:27Z</time>
      </trkpt>
      <trkpt lat="19.046562" lon="-98.613236">
        <ele>4102.114</ele>
        <time>2021-01-23T09:58:38Z</time>
      </trkpt>
      <trkpt lat="19.046525" lon="-98.613267">
        <ele>4105.532</ele>
        <time>2021-01-23T09:59:01Z</time>
      </trkpt>
      <trkpt lat="19.046519" lon="-98.613315">
        <ele>4108.423</ele>
        <time>2021-01-23T09:59:09Z</time>
      </trkpt>
      <trkpt lat="19.046506" lon="-98.613361">
        <ele>4110.195</ele>
        <time>2021-01-23T09:59:15Z</time>
      </trkpt>
      <trkpt lat="19.046508" lon="-98.61341">
        <ele>4111.547</ele>
        <time>2021-01-23T09:59:21Z</time>
      </trkpt>
      <trkpt lat="19.046528" lon="-98.613455">
        <ele>4112.440</ele>
        <time>2021-01-23T09:59:29Z</time>
      </trkpt>
      <trkpt lat="19.046499" lon="-98.613506">
        <ele>4113.786</ele>
        <time>2021-01-23T09:59:35Z</time>
      </trkpt>
      <trkpt lat="19.046515" lon="-98.613551">
        <ele>4114.543</ele>
        <time>2021-01-23T09:59:42Z</time>
      </trkpt>
      <trkpt lat="19.046497" lon="-98.6136">
        <ele>4114.618</ele>
        <time>2021-01-23T10:03:54Z</time>
      </trkpt>
      <trkpt lat="19.046482" lon="-98.613655">
        <ele>4115.498</ele>
        <time>2021-01-23T10:04:00Z</time>
      </trkpt>
      <trkpt lat="19.046453" lon="-98.613694">
        <ele>4115.517</ele>
        <time>2021-01-23T10:04:07Z</time>
      </trkpt>
      <trkpt lat="19.046411" lon="-98.613716">
        <ele>4115.208</ele>
        <time>2021-01-23T10:04:14Z</time>
      </trkpt>
      <trkpt lat="19.046391" lon="-98.613768">
        <ele>4115.457</ele>
        <time>2021-01-23T10:04:22Z</time>
      </trkpt>
      <trkpt lat="19.04637" lon="-98.613818">
        <ele>4115.965</ele>
        <time>2021-01-23T10:04:28Z</time>
      </trkpt>
      <trkpt lat="19.046361" lon="-98.613871">
        <ele>4117.026</ele>
        <time>2021-01-23T10:04:34Z</time>
      </trkpt>
      <trkpt lat="19.046338" lon="-98.613912">
        <ele>4118.118</ele>
        <time>2021-01-23T10:04:42Z</time>
      </trkpt>
      <trkpt lat="19.046312" lon="-98.613955">
        <ele>4118.760</ele>
        <time>2021-01-23T10:04:49Z</time>
      </trkpt>
      <trkpt lat="19.046297" lon="-98.614004">
        <ele>4119.943</ele>
        <time>2021-01-23T10:05:05Z</time>
      </trkpt>
      <trkpt lat="19.046291" lon="-98.614053">
        <ele>4121.439</ele>
        <time>2021-01-23T10:05:10Z</time>
      </trkpt>
      <trkpt lat="19.046281" lon="-98.614099">
        <ele>4123.136</ele>
        <time>2021-01-23T10:05:14Z</time>
      </trkpt>
      <trkpt lat="19.046263" lon="-98.614145">
        <ele>4124.963</ele>
        <time>2021-01-23T10:05:23Z</time>
      </trkpt>
      <trkpt lat="19.046249" lon="-98.61419">
        <ele>4126.444</ele>
        <time>2021-01-23T10:05:35Z</time>
      </trkpt>
      <trkpt lat="19.046222" lon="-98.614232">
        <ele>4127.718</ele>
        <time>2021-01-23T10:05:41Z</time>
      </trkpt>
      <trkpt lat="19.046202" lon="-98.614276">
        <ele>4127.308</ele>
        <time>2021-01-23T10:05:48Z</time>
      </trkpt>
      <trkpt lat="19.046198" lon="-98.614327">
        <ele>4127.022</ele>
        <time>2021-01-23T10:06:01Z</time>
      </trkpt>
      <trkpt lat="19.046171" lon="-98.614373">
        <ele>4127.280</ele>
        <time>2021-01-23T10:06:06Z</time>
      </trkpt>
      <trkpt lat="19.046126" lon="-98.614365">
        <ele>4127.731</ele>
        <time>2021-01-23T10:06:17Z</time>
      </trkpt>
      <trkpt lat="19.046076" lon="-98.614365">
        <ele>4130.443</ele>
        <time>2021-01-23T10:10:46Z</time>
      </trkpt>
      <trkpt lat="19.046031" lon="-98.614383">
        <ele>4131.295</ele>
        <time>2021-01-23T10:12:14Z</time>
      </trkpt>
      <trkpt lat="19.045982" lon="-98.614404">
        <ele>4131.798</ele>
        <time>2021-01-23T10:12:25Z</time>
      </trkpt>
      <trkpt lat="19.045944" lon="-98.614432">
        <ele>4132.834</ele>
        <time>2021-01-23T10:12:32Z</time>
      </trkpt>
      <trkpt lat="19.045899" lon="-98.614443">
        <ele>4133.971</ele>
        <time>2021-01-23T10:12:46Z</time>
      </trkpt>
      <trkpt lat="19.045852" lon="-98.614438">
        <ele>4134.158</ele>
        <time>2021-01-23T10:13:11Z</time>
      </trkpt>
      <trkpt lat="19.045831" lon="-98.614482">
        <ele>4134.252</ele>
        <time>2021-01-23T10:13:20Z</time>
      </trkpt>
      <trkpt lat="19.045788" lon="-98.614467">
        <ele>4135.117</ele>
        <time>2021-01-23T10:13:37Z</time>
      </trkpt>
      <trkpt lat="19.045741" lon="-98.614462">
        <ele>4138.008</ele>
        <time>2021-01-23T10:14:11Z</time>
      </trkpt>
      <trkpt lat="19.045701" lon="-98.614438">
        <ele>4140.611</ele>
        <time>2021-01-23T10:14:22Z</time>
      </trkpt>
      <trkpt lat="19.045657" lon="-98.614422">
        <ele>4140.989</ele>
        <time>2021-01-23T10:14:31Z</time>
      </trkpt>
      <trkpt lat="19.045612" lon="-98.614412">
        <ele>4141.960</ele>
        <time>2021-01-23T10:14:48Z</time>
      </trkpt>
      <trkpt lat="19.045567" lon="-98.61441">
        <ele>4143.752</ele>
        <time>2021-01-23T10:14:58Z</time>
      </trkpt>
      <trkpt lat="19.045526" lon="-98.614439">
        <ele>4145.274</ele>
        <time>2021-01-23T10:15:09Z</time>
      </trkpt>
      <trkpt lat="19.045488" lon="-98.614464">
        <ele>4146.577</ele>
        <time>2021-01-23T10:15:17Z</time>
      </trkpt>
      <trkpt lat="19.045438" lon="-98.614474">
        <ele>4147.313</ele>
        <time>2021-01-23T10:15:28Z</time>
      </trkpt>
      <trkpt lat="19.045389" lon="-98.614469">
        <ele>4149.040</ele>
        <time>2021-01-23T10:15:41Z</time>
      </trkpt>
      <trkpt lat="19.045344" lon="-98.614472">
        <ele>4151.247</ele>
        <time>2021-01-23T10:15:49Z</time>
      </trkpt>
      <trkpt lat="19.045301" lon="-98.614489">
        <ele>4153.729</ele>
        <time>2021-01-23T10:15:59Z</time>
      </trkpt>
      <trkpt lat="19.045283" lon="-98.614533">
        <ele>4154.821</ele>
        <time>2021-01-23T10:16:06Z</time>
      </trkpt>
      <trkpt lat="19.045249" lon="-98.614564">
        <ele>4155.908</ele>
        <time>2021-01-23T10:16:16Z</time>
      </trkpt>
      <trkpt lat="19.045234" lon="-98.614615">
        <ele>4157.320</ele>
        <time>2021-01-23T10:16:22Z</time>
      </trkpt>
      <trkpt lat="19.045206" lon="-98.614654">
        <ele>4157.858</ele>
        <time>2021-01-23T10:16:30Z</time>
      </trkpt>
      <trkpt lat="19.045178" lon="-98.614695">
        <ele>4157.749</ele>
        <time>2021-01-23T10:16:38Z</time>
      </trkpt>
      <trkpt lat="19.045141" lon="-98.614663">
        <ele>4158.821</ele>
        <time>2021-01-23T10:17:13Z</time>
      </trkpt>
      <trkpt lat="19.045106" lon="-98.614629">
        <ele>4161.133</ele>
        <time>2021-01-23T10:17:23Z</time>
      </trkpt>
      <trkpt lat="19.04506" lon="-98.614614">
        <ele>4162.996</ele>
        <time>2021-01-23T10:17:40Z</time>
      </trkpt>
      <trkpt lat="19.045015" lon="-98.6146">
        <ele>4164.412</ele>
        <time>2021-01-23T10:17:53Z</time>
      </trkpt>
      <trkpt lat="19.044973" lon="-98.614627">
        <ele>4165.739</ele>
        <time>2021-01-23T10:18:03Z</time>
      </trkpt>
      <trkpt lat="19.044929" lon="-98.61461">
        <ele>4167.358</ele>
        <time>2021-01-23T10:18:16Z</time>
      </trkpt>
      <trkpt lat="19.044884" lon="-98.614604">
        <ele>4168.252</ele>
        <time>2021-01-23T10:18:25Z</time>
      </trkpt>
      <trkpt lat="19.044838" lon="-98.614611">
        <ele>4169.617</ele>
        <time>2021-01-23T10:18:54Z</time>
      </trkpt>
      <trkpt lat="19.044793" lon="-98.61461">
        <ele>4171.208</ele>
        <time>2021-01-23T10:19:04Z</time>
      </trkpt>
      <trkpt lat="19.044747" lon="-98.614611">
        <ele>4173.081</ele>
        <time>2021-01-23T10:19:22Z</time>
      </trkpt>
      <trkpt lat="19.044703" lon="-98.614588">
        <ele>4175.729</ele>
        <time>2021-01-23T10:19:36Z</time>
      </trkpt>
      <trkpt lat="19.044654" lon="-98.614584">
        <ele>4178.140</ele>
        <time>2021-01-23T10:20:11Z</time>
      </trkpt>
      <trkpt lat="19.044608" lon="-98.614588">
        <ele>4180.362</ele>
        <time>2021-01-23T10:20:27Z</time>
      </trkpt>
      <trkpt lat="19.04456" lon="-98.614584">
        <ele>4183.644</ele>
        <time>2021-01-23T10:20:40Z</time>
      </trkpt>
      <trkpt lat="19.044514" lon="-98.614583">
        <ele>4187.637</ele>
        <time>2021-01-23T10:20:54Z</time>
      </trkpt>
      <trkpt lat="19.044467" lon="-98.614596">
        <ele>4191.243</ele>
        <time>2021-01-23T10:23:55Z</time>
      </trkpt>
      <trkpt lat="19.044428" lon="-98.614566">
        <ele>4193.410</ele>
        <time>2021-01-23T10:24:10Z</time>
      </trkpt>
      <trkpt lat="19.044386" lon="-98.614546">
        <ele>4195.569</ele>
        <time>2021-01-23T10:24:18Z</time>
      </trkpt>
      <trkpt lat="19.044336" lon="-98.614548">
        <ele>4197.604</ele>
        <time>2021-01-23T10:24:27Z</time>
      </trkpt>
      <trkpt lat="19.044291" lon="-98.614558">
        <ele>4199.224</ele>
        <time>2021-01-23T10:24:38Z</time>
      </trkpt>
      <trkpt lat="19.044254" lon="-98.61459">
        <ele>4200.208</ele>
        <time>2021-01-23T10:24:48Z</time>
      </trkpt>
      <trkpt lat="19.044213" lon="-98.614611">
        <ele>4202.012</ele>
        <time>2021-01-23T10:25:08Z</time>
      </trkpt>
      <trkpt lat="19.044183" lon="-98.61465">
        <ele>4205.160</ele>
        <time>2021-01-23T10:25:47Z</time>
      </trkpt>
      <trkpt lat="19.044166" lon="-98.614697">
        <ele>4206.951</ele>
        <time>2021-01-23T10:25:54Z</time>
      </trkpt>
      <trkpt lat="19.044122" lon="-98.614713">
        <ele>4208.873</ele>
        <time>2021-01-23T10:26:03Z</time>
      </trkpt>
      <trkpt lat="19.044077" lon="-98.614708">
        <ele>4210.345</ele>
        <time>2021-01-23T10:26:17Z</time>
      </trkpt>
      <trkpt lat="19.044058" lon="-98.614757">
        <ele>4211.668</ele>
        <time>2021-01-23T10:26:25Z</time>
      </trkpt>
      <trkpt lat="19.044021" lon="-98.614787">
        <ele>4214.094</ele>
        <time>2021-01-23T10:26:36Z</time>
      </trkpt>
      <trkpt lat="19.044008" lon="-98.61484">
        <ele>4216.251</ele>
        <time>2021-01-23T10:26:42Z</time>
      </trkpt>
      <trkpt lat="19.043959" lon="-98.614857">
        <ele>4218.767</ele>
        <time>2021-01-23T10:26:48Z</time>
      </trkpt>
      <trkpt lat="19.043927" lon="-98.614895">
        <ele>4220.281</ele>
        <time>2021-01-23T10:26:54Z</time>
      </trkpt>
      <trkpt lat="19.043885" lon="-98.614918">
        <ele>4221.519</ele>
        <time>2021-01-23T10:27:01Z</time>
      </trkpt>
      <trkpt lat="19.043842" lon="-98.614904">
        <ele>4223.508</ele>
        <time>2021-01-23T10:51:48Z</time>
      </trkpt>
      <trkpt lat="19.043793" lon="-98.614895">
        <ele>4225.922</ele>
        <time>2021-01-23T10:51:55Z</time>
      </trkpt>
      <trkpt lat="19.043746" lon="-98.614879">
        <ele>4226.550</ele>
        <time>2021-01-23T10:52:03Z</time>
      </trkpt>
      <trkpt lat="19.043706" lon="-98.614851">
        <ele>4229.331</ele>
        <time>2021-01-23T10:52:10Z</time>
      </trkpt>
      <trkpt lat="19.043664" lon="-98.614825">
        <ele>4230.653</ele>
        <time>2021-01-23T10:52:28Z</time>
      </trkpt>
      <trkpt lat="19.04363" lon="-98.61479">
        <ele>4232.265</ele>
        <time>2021-01-23T10:52:36Z</time>
      </trkpt>
      <trkpt lat="19.043602" lon="-98.614748">
        <ele>4232.718</ele>
        <time>2021-01-23T10:52:47Z</time>
      </trkpt>
      <trkpt lat="19.043555" lon="-98.614734">
        <ele>4230.674</ele>
        <time>2021-01-23T10:53:02Z</time>
      </trkpt>
      <trkpt lat="19.043506" lon="-98.614745">
        <ele>4231.091</ele>
        <time>2021-01-23T10:53:17Z</time>
      </trkpt>
      <trkpt lat="19.04346" lon="-98.614731">
        <ele>4233.664</ele>
        <time>2021-01-23T10:53:33Z</time>
      </trkpt>
      <trkpt lat="19.043419" lon="-98.61476">
        <ele>4236.406</ele>
        <time>2021-01-23T10:53:40Z</time>
      </trkpt>
      <trkpt lat="19.043375" lon="-98.614735">
        <ele>4238.516</ele>
        <time>2021-01-23T10:53:50Z</time>
      </trkpt>
      <trkpt lat="19.043379" lon="-98.614685">
        <ele>4240.108</ele>
        <time>2021-01-23T10:53:59Z</time>
      </trkpt>
      <trkpt lat="19.043334" lon="-98.614658">
        <ele>4240.762</ele>
        <time>2021-01-23T10:54:08Z</time>
      </trkpt>
      <trkpt lat="19.043288" lon="-98.614633">
        <ele>4242.260</ele>
        <time>2021-01-23T10:54:16Z</time>
      </trkpt>
      <trkpt lat="19.04324" lon="-98.614639">
        <ele>4244.751</ele>
        <time>2021-01-23T10:54:24Z</time>
      </trkpt>
      <trkpt lat="19.043193" lon="-98.61464">
        <ele>4247.463</ele>
        <time>2021-01-23T10:54:32Z</time>
      </trkpt>
      <trkpt lat="19.043148" lon="-98.614632">
        <ele>4249.085</ele>
        <time>2021-01-23T10:54:38Z</time>
      </trkpt>
      <trkpt lat="19.043101" lon="-98.614628">
        <ele>4251.228</ele>
        <time>2021-01-23T10:54:44Z</time>
      </trkpt>
      <trkpt lat="19.043048" lon="-98.614629">
        <ele>4252.914</ele>
        <time>2021-01-23T10:54:49Z</time>
      </trkpt>
      <trkpt lat="19.043002" lon="-98.614626">
        <ele>4253.511</ele>
        <time>2021-01-23T10:54:54Z</time>
      </trkpt>
      <trkpt lat="19.042955" lon="-98.61464">
        <ele>4255.153</ele>
        <time>2021-01-23T10:55:02Z</time>
      </trkpt>
      <trkpt lat="19.04291" lon="-98.614644">
        <ele>4255.604</ele>
        <time>2021-01-23T10:55:09Z</time>
      </trkpt>
      <trkpt lat="19.042864" lon="-98.614639">
        <ele>4256.714</ele>
        <time>2021-01-23T10:55:15Z</time>
      </trkpt>
      <trkpt lat="19.04282" lon="-98.614628">
        <ele>4257.808</ele>
        <time>2021-01-23T10:55:21Z</time>
      </trkpt>
      <trkpt lat="19.042773" lon="-98.614653">
        <ele>4259.631</ele>
        <time>2021-01-23T10:55:28Z</time>
      </trkpt>
      <trkpt lat="19.042724" lon="-98.614669">
        <ele>4261.569</ele>
        <time>2021-01-23T10:55:35Z</time>
      </trkpt>
      <trkpt lat="19.042674" lon="-98.614676">
        <ele>4262.230</ele>
        <time>2021-01-23T10:55:41Z</time>
      </trkpt>
      <trkpt lat="19.042625" lon="-98.614679">
        <ele>4263.452</ele>
        <time>2021-01-23T10:55:48Z</time>
      </trkpt>
      <trkpt lat="19.042574" lon="-98.61469">
        <ele>4263.324</ele>
        <time>2021-01-23T10:55:57Z</time>
      </trkpt>
      <trkpt lat="19.04253" lon="-98.614679">
        <ele>4264.157</ele>
        <time>2021-01-23T10:56:02Z</time>
      </trkpt>
      <trkpt lat="19.042488" lon="-98.614705">
        <ele>4265.483</ele>
        <time>2021-01-23T10:56:09Z</time>
      </trkpt>
      <trkpt lat="19.042446" lon="-98.61473">
        <ele>4266.620</ele>
        <time>2021-01-23T10:56:16Z</time>
      </trkpt>
      <trkpt lat="19.042418" lon="-98.614769">
        <ele>4267.758</ele>
        <time>2021-01-23T10:56:23Z</time>
      </trkpt>
      <trkpt lat="19.042384" lon="-98.61481">
        <ele>4268.052</ele>
        <time>2021-01-23T10:56:31Z</time>
      </trkpt>
      <trkpt lat="19.042351" lon="-98.614844">
        <ele>4267.817</ele>
        <time>2021-01-23T10:56:38Z</time>
      </trkpt>
      <trkpt lat="19.042302" lon="-98.614843">
        <ele>4267.708</ele>
        <time>2021-01-23T10:56:45Z</time>
      </trkpt>
      <trkpt lat="19.042251" lon="-98.614859">
        <ele>4268.411</ele>
        <time>2021-01-23T10:56:52Z</time>
      </trkpt>
      <trkpt lat="19.04221" lon="-98.61488">
        <ele>4270.429</ele>
        <time>2021-01-23T10:56:57Z</time>
      </trkpt>
      <trkpt lat="19.042166" lon="-98.614897">
        <ele>4272.450</ele>
        <time>2021-01-23T10:57:03Z</time>
      </trkpt>
      <trkpt lat="19.042133" lon="-98.614931">
        <ele>4274.862</ele>
        <time>2021-01-23T10:57:27Z</time>
      </trkpt>
      <trkpt lat="19.04209" lon="-98.614948">
        <ele>4277.074</ele>
        <time>2021-01-23T10:58:05Z</time>
      </trkpt>
      <trkpt lat="19.042047" lon="-98.614971">
        <ele>4278.397</ele>
        <time>2021-01-23T10:58:19Z</time>
      </trkpt>
      <trkpt lat="19.041999" lon="-98.61497">
        <ele>4279.173</ele>
        <time>2021-01-23T10:58:24Z</time>
      </trkpt>
      <trkpt lat="19.041946" lon="-98.614973">
        <ele>4280.830</ele>
        <time>2021-01-23T10:58:31Z</time>
      </trkpt>
      <trkpt lat="19.041895" lon="-98.614976">
        <ele>4283.047</ele>
        <time>2021-01-23T10:58:37Z</time>
      </trkpt>
      <trkpt lat="19.041852" lon="-98.614993">
        <ele>4282.329</ele>
        <time>2021-01-23T10:58:47Z</time>
      </trkpt>
      <trkpt lat="19.041807" lon="-98.615002">
        <ele>4281.921</ele>
        <time>2021-01-23T10:58:55Z</time>
      </trkpt>
      <trkpt lat="19.041758" lon="-98.615002">
        <ele>4282.508</ele>
        <time>2021-01-23T10:59:02Z</time>
      </trkpt>
      <trkpt lat="19.04171" lon="-98.614991">
        <ele>4283.250</ele>
        <time>2021-01-23T10:59:09Z</time>
      </trkpt>
      <trkpt lat="19.041665" lon="-98.615004">
        <ele>4284.498</ele>
        <time>2021-01-23T10:59:18Z</time>
      </trkpt>
      <trkpt lat="19.04162" lon="-98.615026">
        <ele>4287.199</ele>
        <time>2021-01-23T10:59:27Z</time>
      </trkpt>
      <trkpt lat="19.04158" lon="-98.615055">
        <ele>4288.331</ele>
        <time>2021-01-23T10:59:36Z</time>
      </trkpt>
      <trkpt lat="19.041542" lon="-98.615091">
        <ele>4289.473</ele>
        <time>2021-01-23T10:59:44Z</time>
      </trkpt>
      <trkpt lat="19.041494" lon="-98.615102">
        <ele>4292.546</ele>
        <time>2021-01-23T11:05:06Z</time>
      </trkpt>
      <trkpt lat="19.041485" lon="-98.615054">
        <ele>4294.482</ele>
        <time>2021-01-23T11:06:50Z</time>
      </trkpt>
      <trkpt lat="19.04148" lon="-98.615102">
        <ele>4295.959</ele>
        <time>2021-01-23T11:08:59Z</time>
      </trkpt>
      <trkpt lat="19.041432" lon="-98.615119">
        <ele>4296.852</ele>
        <time>2021-01-23T11:10:07Z</time>
      </trkpt>
      <trkpt lat="19.041399" lon="-98.615154">
        <ele>4297.353</ele>
        <time>2021-01-23T11:10:15Z</time>
      </trkpt>
      <trkpt lat="19.041361" lon="-98.61518">
        <ele>4298.008</ele>
        <time>2021-01-23T11:10:25Z</time>
      </trkpt>
      <trkpt lat="19.04131" lon="-98.615177">
        <ele>4298.808</ele>
        <time>2021-01-23T11:10:56Z</time>
      </trkpt>
      <trkpt lat="19.041265" lon="-98.615168">
        <ele>4300.561</ele>
        <time>2021-01-23T11:11:01Z</time>
      </trkpt>
      <trkpt lat="19.041219" lon="-98.615186">
        <ele>4303.149</ele>
        <time>2021-01-23T11:11:09Z</time>
      </trkpt>
      <trkpt lat="19.041175" lon="-98.615204">
        <ele>4305.180</ele>
        <time>2021-01-23T11:11:16Z</time>
      </trkpt>
      <trkpt lat="19.041134" lon="-98.615233">
        <ele>4306.742</ele>
        <time>2021-01-23T11:11:26Z</time>
      </trkpt>
      <trkpt lat="19.041106" lon="-98.615273">
        <ele>4308.554</ele>
        <time>2021-01-23T11:11:38Z</time>
      </trkpt>
      <trkpt lat="19.041057" lon="-98.615285">
        <ele>4309.637</ele>
        <time>2021-01-23T11:11:50Z</time>
      </trkpt>
      <trkpt lat="19.041012" lon="-98.615297">
        <ele>4310.223</ele>
        <time>2021-01-23T11:11:59Z</time>
      </trkpt>
      <trkpt lat="19.040967" lon="-98.615314">
        <ele>4313.020</ele>
        <time>2021-01-23T11:12:08Z</time>
      </trkpt>
      <trkpt lat="19.040922" lon="-98.615321">
        <ele>4314.373</ele>
        <time>2021-01-23T11:12:16Z</time>
      </trkpt>
      <trkpt lat="19.040876" lon="-98.615328">
        <ele>4316.385</ele>
        <time>2021-01-23T11:12:32Z</time>
      </trkpt>
      <trkpt lat="19.04083" lon="-98.615338">
        <ele>4317.513</ele>
        <time>2021-01-23T11:12:40Z</time>
      </trkpt>
      <trkpt lat="19.040787" lon="-98.615358">
        <ele>4319.008</ele>
        <time>2021-01-23T11:12:48Z</time>
      </trkpt>
      <trkpt lat="19.040746" lon="-98.615378">
        <ele>4320.723</ele>
        <time>2021-01-23T11:12:57Z</time>
      </trkpt>
      <trkpt lat="19.040697" lon="-98.615383">
        <ele>4321.761</ele>
        <time>2021-01-23T11:13:12Z</time>
      </trkpt>
      <trkpt lat="19.040652" lon="-98.615401">
        <ele>4323.972</ele>
        <time>2021-01-23T11:13:21Z</time>
      </trkpt>
      <trkpt lat="19.040615" lon="-98.615428">
        <ele>4325.624</ele>
        <time>2021-01-23T11:13:32Z</time>
      </trkpt>
      <trkpt lat="19.040571" lon="-98.615447">
        <ele>4327.426</ele>
        <time>2021-01-23T11:13:43Z</time>
      </trkpt>
      <trkpt lat="19.040527" lon="-98.615466">
        <ele>4328.159</ele>
        <time>2021-01-23T11:13:59Z</time>
      </trkpt>
      <trkpt lat="19.040487" lon="-98.61549">
        <ele>4329.715</ele>
        <time>2021-01-23T11:14:08Z</time>
      </trkpt>
      <trkpt lat="19.040442" lon="-98.615509">
        <ele>4331.992</ele>
        <time>2021-01-23T11:14:15Z</time>
      </trkpt>
      <trkpt lat="19.040398" lon="-98.615522">
        <ele>4333.635</ele>
        <time>2021-01-23T11:14:30Z</time>
      </trkpt>
      <trkpt lat="19.040358" lon="-98.615548">
        <ele>4335.486</ele>
        <time>2021-01-23T11:14:41Z</time>
      </trkpt>
      <trkpt lat="19.040318" lon="-98.615573">
        <ele>4337.314</ele>
        <time>2021-01-23T11:14:47Z</time>
      </trkpt>
      <trkpt lat="19.040279" lon="-98.615607">
        <ele>4339.208</ele>
        <time>2021-01-23T11:15:17Z</time>
      </trkpt>
      <trkpt lat="19.040233" lon="-98.615625">
        <ele>4340.449</ele>
        <time>2021-01-23T11:15:25Z</time>
      </trkpt>
      <trkpt lat="19.040182" lon="-98.615631">
        <ele>4342.327</ele>
        <time>2021-01-23T11:15:33Z</time>
      </trkpt>
      <trkpt lat="19.040133" lon="-98.615644">
        <ele>4344.678</ele>
        <time>2021-01-23T11:15:41Z</time>
      </trkpt>
      <trkpt lat="19.040091" lon="-98.615665">
        <ele>4346.430</ele>
        <time>2021-01-23T11:15:48Z</time>
      </trkpt>
      <trkpt lat="19.040044" lon="-98.615671">
        <ele>4347.112</ele>
        <time>2021-01-23T11:15:56Z</time>
      </trkpt>
      <trkpt lat="19.039996" lon="-98.615667">
        <ele>4347.185</ele>
        <time>2021-01-23T11:16:04Z</time>
      </trkpt>
      <trkpt lat="19.039954" lon="-98.615685">
        <ele>4349.151</ele>
        <time>2021-01-23T11:16:15Z</time>
      </trkpt>
      <trkpt lat="19.039904" lon="-98.615686">
        <ele>4349.928</ele>
        <time>2021-01-23T11:16:25Z</time>
      </trkpt>
      <trkpt lat="19.039854" lon="-98.615679">
        <ele>4353.277</ele>
        <time>2021-01-23T11:16:33Z</time>
      </trkpt>
      <trkpt lat="19.039804" lon="-98.615665">
        <ele>4356.461</ele>
        <time>2021-01-23T11:16:41Z</time>
      </trkpt>
      <trkpt lat="19.039759" lon="-98.615643">
        <ele>4358.727</ele>
        <time>2021-01-23T11:17:00Z</time>
      </trkpt>
      <trkpt lat="19.039712" lon="-98.615642">
        <ele>4360.508</ele>
        <time>2021-01-23T11:17:12Z</time>
      </trkpt>
      <trkpt lat="19.039662" lon="-98.615638">
        <ele>4360.823</ele>
        <time>2021-01-23T11:17:19Z</time>
      </trkpt>
      <trkpt lat="19.039621" lon="-98.615617">
        <ele>4360.231</ele>
        <time>2021-01-23T11:17:26Z</time>
      </trkpt>
      <trkpt lat="19.039575" lon="-98.615627">
        <ele>4360.232</ele>
        <time>2021-01-23T11:17:37Z</time>
      </trkpt>
      <trkpt lat="19.039528" lon="-98.615633">
        <ele>4361.014</ele>
        <time>2021-01-23T11:17:45Z</time>
      </trkpt>
      <trkpt lat="19.039481" lon="-98.615642">
        <ele>4361.916</ele>
        <time>2021-01-23T11:17:53Z</time>
      </trkpt>
      <trkpt lat="19.039436" lon="-98.615647">
        <ele>4362.829</ele>
        <time>2021-01-23T11:18:01Z</time>
      </trkpt>
      <trkpt lat="19.039388" lon="-98.615648">
        <ele>4364.245</ele>
        <time>2021-01-23T11:18:11Z</time>
      </trkpt>
      <trkpt lat="19.039343" lon="-98.615662">
        <ele>4365.432</ele>
        <time>2021-01-23T11:18:23Z</time>
      </trkpt>
      <trkpt lat="19.039313" lon="-98.615704">
        <ele>4367.732</ele>
        <time>2021-01-23T11:18:57Z</time>
      </trkpt>
      <trkpt lat="19.039269" lon="-98.615719">
        <ele>4369.992</ele>
        <time>2021-01-23T11:19:05Z</time>
      </trkpt>
      <trkpt lat="19.039222" lon="-98.615722">
        <ele>4371.611</ele>
        <time>2021-01-23T11:19:23Z</time>
      </trkpt>
      <trkpt lat="19.039177" lon="-98.61574">
        <ele>4373.408</ele>
        <time>2021-01-23T11:19:32Z</time>
      </trkpt>
      <trkpt lat="19.039129" lon="-98.615755">
        <ele>4375.349</ele>
        <time>2021-01-23T11:19:41Z</time>
      </trkpt>
      <trkpt lat="19.039084" lon="-98.61576">
        <ele>4376.427</ele>
        <time>2021-01-23T11:19:49Z</time>
      </trkpt>
      <trkpt lat="19.039037" lon="-98.615757">
        <ele>4378.768</ele>
        <time>2021-01-23T11:19:57Z</time>
      </trkpt>
      <trkpt lat="19.038991" lon="-98.61577">
        <ele>4380.130</ele>
        <time>2021-01-23T11:20:07Z</time>
      </trkpt>
      <trkpt lat="19.038943" lon="-98.615789">
        <ele>4380.932</ele>
        <time>2021-01-23T11:20:19Z</time>
      </trkpt>
      <trkpt lat="19.038898" lon="-98.615785">
        <ele>4383.085</ele>
        <time>2021-01-23T11:20:27Z</time>
      </trkpt>
      <trkpt lat="19.038848" lon="-98.615788">
        <ele>4384.351</ele>
        <time>2021-01-23T11:20:37Z</time>
      </trkpt>
      <trkpt lat="19.038797" lon="-98.615809">
        <ele>4386.378</ele>
        <time>2021-01-23T11:20:45Z</time>
      </trkpt>
      <trkpt lat="19.038752" lon="-98.615819">
        <ele>4389.141</ele>
        <time>2021-01-23T11:20:54Z</time>
      </trkpt>
      <trkpt lat="19.038706" lon="-98.615833">
        <ele>4390.481</ele>
        <time>2021-01-23T11:21:03Z</time>
      </trkpt>
      <trkpt lat="19.038663" lon="-98.615851">
        <ele>4391.609</ele>
        <time>2021-01-23T11:21:14Z</time>
      </trkpt>
      <trkpt lat="19.038617" lon="-98.615861">
        <ele>4393.508</ele>
        <time>2021-01-23T11:21:24Z</time>
      </trkpt>
      <trkpt lat="19.038571" lon="-98.61587">
        <ele>4395.480</ele>
        <time>2021-01-23T11:21:37Z</time>
      </trkpt>
      <trkpt lat="19.038532" lon="-98.615895">
        <ele>4397.448</ele>
        <time>2021-01-23T11:21:43Z</time>
      </trkpt>
      <trkpt lat="19.038483" lon="-98.615899">
        <ele>4399.059</ele>
        <time>2021-01-23T11:21:53Z</time>
      </trkpt>
      <trkpt lat="19.038433" lon="-98.615909">
        <ele>4400.781</ele>
        <time>2021-01-23T11:22:09Z</time>
      </trkpt>
      <trkpt lat="19.038393" lon="-98.615935">
        <ele>4402.513</ele>
        <time>2021-01-23T11:22:17Z</time>
      </trkpt>
      <trkpt lat="19.03835" lon="-98.615952">
        <ele>4404.496</ele>
        <time>2021-01-23T11:22:43Z</time>
      </trkpt>
      <trkpt lat="19.0383" lon="-98.615952">
        <ele>4404.362</ele>
        <time>2021-01-23T11:23:10Z</time>
      </trkpt>
      <trkpt lat="19.038256" lon="-98.615966">
        <ele>4405.549</ele>
        <time>2021-01-23T11:23:20Z</time>
      </trkpt>
      <trkpt lat="19.038215" lon="-98.615989">
        <ele>4406.615</ele>
        <time>2021-01-23T11:23:28Z</time>
      </trkpt>
      <trkpt lat="19.038168" lon="-98.615995">
        <ele>4407.765</ele>
        <time>2021-01-23T11:23:40Z</time>
      </trkpt>
      <trkpt lat="19.038129" lon="-98.61602">
        <ele>4409.911</ele>
        <time>2021-01-23T11:23:56Z</time>
      </trkpt>
      <trkpt lat="19.038111" lon="-98.615975">
        <ele>4412.408</ele>
        <time>2021-01-23T11:24:36Z</time>
      </trkpt>
      <trkpt lat="19.038072" lon="-98.616002">
        <ele>4414.347</ele>
        <time>2021-01-23T11:25:18Z</time>
      </trkpt>
      <trkpt lat="19.038024" lon="-98.616022">
        <ele>4416.765</ele>
        <time>2021-01-23T11:25:30Z</time>
      </trkpt>
      <trkpt lat="19.037978" lon="-98.616032">
        <ele>4417.736</ele>
        <time>2021-01-23T11:25:37Z</time>
      </trkpt>
      <trkpt lat="19.037938" lon="-98.616064">
        <ele>4417.948</ele>
        <time>2021-01-23T11:25:44Z</time>
      </trkpt>
      <trkpt lat="19.037896" lon="-98.616081">
        <ele>4419.660</ele>
        <time>2021-01-23T11:25:53Z</time>
      </trkpt>
      <trkpt lat="19.037863" lon="-98.616047">
        <ele>4421.023</ele>
        <time>2021-01-23T11:27:15Z</time>
      </trkpt>
      <trkpt lat="19.037819" lon="-98.616068">
        <ele>4422.349</ele>
        <time>2021-01-23T11:28:23Z</time>
      </trkpt>
      <trkpt lat="19.037765" lon="-98.61607">
        <ele>4422.746</ele>
        <time>2021-01-23T11:28:29Z</time>
      </trkpt>
      <trkpt lat="19.037705" lon="-98.616078">
        <ele>4422.186</ele>
        <time>2021-01-23T11:28:34Z</time>
      </trkpt>
      <trkpt lat="19.037666" lon="-98.616055">
        <ele>4424.160</ele>
        <time>2021-01-23T11:28:50Z</time>
      </trkpt>
      <trkpt lat="19.037623" lon="-98.616076">
        <ele>4425.726</ele>
        <time>2021-01-23T11:29:01Z</time>
      </trkpt>
      <trkpt lat="19.037577" lon="-98.616079">
        <ele>4427.508</ele>
        <time>2021-01-23T11:29:19Z</time>
      </trkpt>
      <trkpt lat="19.037542" lon="-98.616112">
        <ele>4428.644</ele>
        <time>2021-01-23T11:29:32Z</time>
      </trkpt>
      <trkpt lat="19.037506" lon="-98.616143">
        <ele>4429.642</ele>
        <time>2021-01-23T11:29:38Z</time>
      </trkpt>
      <trkpt lat="19.037464" lon="-98.616164">
        <ele>4433.013</ele>
        <time>2021-01-23T11:30:02Z</time>
      </trkpt>
      <trkpt lat="19.037421" lon="-98.616182">
        <ele>4436.365</ele>
        <time>2021-01-23T11:30:11Z</time>
      </trkpt>
      <trkpt lat="19.037371" lon="-98.616177">
        <ele>4439.987</ele>
        <time>2021-01-23T11:30:33Z</time>
      </trkpt>
      <trkpt lat="19.037335" lon="-98.616206">
        <ele>4442.460</ele>
        <time>2021-01-23T11:30:43Z</time>
      </trkpt>
      <trkpt lat="19.037296" lon="-98.616233">
        <ele>4445.926</ele>
        <time>2021-01-23T11:30:57Z</time>
      </trkpt>
      <trkpt lat="19.037258" lon="-98.61626">
        <ele>4447.663</ele>
        <time>2021-01-23T11:31:05Z</time>
      </trkpt>
      <trkpt lat="19.037219" lon="-98.616289">
        <ele>4449.848</ele>
        <time>2021-01-23T11:31:47Z</time>
      </trkpt>
      <trkpt lat="19.037185" lon="-98.616321">
        <ele>4450.761</ele>
        <time>2021-01-23T11:31:59Z</time>
      </trkpt>
      <trkpt lat="19.037145" lon="-98.616355">
        <ele>4451.317</ele>
        <time>2021-01-23T11:32:05Z</time>
      </trkpt>
      <trkpt lat="19.037099" lon="-98.616363">
        <ele>4452.008</ele>
        <time>2021-01-23T11:32:21Z</time>
      </trkpt>
      <trkpt lat="19.037055" lon="-98.616387">
        <ele>4452.440</ele>
        <time>2021-01-23T11:32:27Z</time>
      </trkpt>
      <trkpt lat="19.037007" lon="-98.616393">
        <ele>4454.758</ele>
        <time>2021-01-23T11:32:48Z</time>
      </trkpt>
      <trkpt lat="19.036966" lon="-98.61642">
        <ele>4457.749</ele>
        <time>2021-01-23T11:33:31Z</time>
      </trkpt>
      <trkpt lat="19.036928" lon="-98.616453">
        <ele>4461.131</ele>
        <time>2021-01-23T11:33:54Z</time>
      </trkpt>
      <trkpt lat="19.036887" lon="-98.616479">
        <ele>4463.163</ele>
        <time>2021-01-23T11:34:04Z</time>
      </trkpt>
      <trkpt lat="19.036844" lon="-98.616494">
        <ele>4464.376</ele>
        <time>2021-01-23T11:34:09Z</time>
      </trkpt>
      <trkpt lat="19.036799" lon="-98.616498">
        <ele>4467.042</ele>
        <time>2021-01-23T11:34:39Z</time>
      </trkpt>
      <trkpt lat="19.036755" lon="-98.616509">
        <ele>4468.219</ele>
        <time>2021-01-23T11:34:49Z</time>
      </trkpt>
      <trkpt lat="19.036719" lon="-98.616543">
        <ele>4468.124</ele>
        <time>2021-01-23T11:35:17Z</time>
      </trkpt>
      <trkpt lat="19.036689" lon="-98.616584">
        <ele>4469.304</ele>
        <time>2021-01-23T11:35:33Z</time>
      </trkpt>
      <trkpt lat="19.036654" lon="-98.616613">
        <ele>4472.814</ele>
        <time>2021-01-23T11:35:42Z</time>
      </trkpt>
      <trkpt lat="19.036617" lon="-98.61665">
        <ele>4474.108</ele>
        <time>2021-01-23T11:35:59Z</time>
      </trkpt>
      <trkpt lat="19.036574" lon="-98.616684">
        <ele>4474.148</ele>
        <time>2021-01-23T11:36:02Z</time>
      </trkpt>
      <trkpt lat="19.036528" lon="-98.616689">
        <ele>4476.126</ele>
        <time>2021-01-23T11:36:59Z</time>
      </trkpt>
      <trkpt lat="19.036496" lon="-98.616723">
        <ele>4478.517</ele>
        <time>2021-01-23T11:37:19Z</time>
      </trkpt>
      <trkpt lat="19.036451" lon="-98.616747">
        <ele>4481.949</ele>
        <time>2021-01-23T11:37:37Z</time>
      </trkpt>
      <trkpt lat="19.036416" lon="-98.616777">
        <ele>4484.431</ele>
        <time>2021-01-23T11:37:46Z</time>
      </trkpt>
      <trkpt lat="19.036371" lon="-98.61679">
        <ele>4488.414</ele>
        <time>2021-01-23T11:38:56Z</time>
      </trkpt>
      <trkpt lat="19.036333" lon="-98.616822">
        <ele>4491.970</ele>
        <time>2021-01-23T11:39:01Z</time>
      </trkpt>
      <trkpt lat="19.036292" lon="-98.616846">
        <ele>4495.977</ele>
        <time>2021-01-23T11:39:13Z</time>
      </trkpt>
      <trkpt lat="19.036255" lon="-98.616872">
        <ele>4498.864</ele>
        <time>2021-01-23T11:39:22Z</time>
      </trkpt>
      <trkpt lat="19.036217" lon="-98.616899">
        <ele>4501.306</ele>
        <time>2021-01-23T11:39:34Z</time>
      </trkpt>
      <trkpt lat="19.036177" lon="-98.616875">
        <ele>4504.016</ele>
        <time>2021-01-23T11:41:00Z</time>
      </trkpt>
      <trkpt lat="19.036166" lon="-98.616928">
        <ele>4506.808</ele>
        <time>2021-01-23T11:41:52Z</time>
      </trkpt>
      <trkpt lat="19.036147" lon="-98.616973">
        <ele>4510.122</ele>
        <time>2021-01-23T11:42:09Z</time>
      </trkpt>
      <trkpt lat="19.036107" lon="-98.617003">
        <ele>4512.140</ele>
        <time>2021-01-23T11:42:16Z</time>
      </trkpt>
      <trkpt lat="19.036069" lon="-98.617036">
        <ele>4514.551</ele>
        <time>2021-01-23T11:42:48Z</time>
      </trkpt>
      <trkpt lat="19.036033" lon="-98.617067">
        <ele>4515.513</ele>
        <time>2021-01-23T11:42:58Z</time>
      </trkpt>
      <trkpt lat="19.036006" lon="-98.617117">
        <ele>4515.365</ele>
        <time>2021-01-23T11:43:05Z</time>
      </trkpt>
      <trkpt lat="19.035971" lon="-98.617158">
        <ele>4518.448</ele>
        <time>2021-01-23T11:44:14Z</time>
      </trkpt>
      <trkpt lat="19.035924" lon="-98.617188">
        <ele>4519.594</ele>
        <time>2021-01-23T11:44:22Z</time>
      </trkpt>
      <trkpt lat="19.035876" lon="-98.617203">
        <ele>4522.941</ele>
        <time>2021-01-23T11:44:56Z</time>
      </trkpt>
      <trkpt lat="19.035836" lon="-98.617235">
        <ele>4526.938</ele>
        <time>2021-01-23T11:45:16Z</time>
      </trkpt>
      <trkpt lat="19.035804" lon="-98.617271">
        <ele>4529.470</ele>
        <time>2021-01-23T11:45:23Z</time>
      </trkpt>
      <trkpt lat="19.035766" lon="-98.617299">
        <ele>4530.117</ele>
        <time>2021-01-23T11:45:32Z</time>
      </trkpt>
      <trkpt lat="19.035721" lon="-98.617309">
        <ele>4530.908</ele>
        <time>2021-01-23T11:45:59Z</time>
      </trkpt>
      <trkpt lat="19.035673" lon="-98.617313">
        <ele>4532.239</ele>
        <time>2021-01-23T11:46:15Z</time>
      </trkpt>
      <trkpt lat="19.035626" lon="-98.617312">
        <ele>4534.237</ele>
        <time>2021-01-23T11:46:23Z</time>
      </trkpt>
      <trkpt lat="19.03558" lon="-98.6173">
        <ele>4536.298</ele>
        <time>2021-01-23T11:46:40Z</time>
      </trkpt>
      <trkpt lat="19.035532" lon="-98.617311">
        <ele>4538.630</ele>
        <time>2021-01-23T11:46:54Z</time>
      </trkpt>
      <trkpt lat="19.035487" lon="-98.617307">
        <ele>4541.222</ele>
        <time>2021-01-23T11:47:05Z</time>
      </trkpt>
      <trkpt lat="19.035442" lon="-98.617308">
        <ele>4543.615</ele>
        <time>2021-01-23T11:47:22Z</time>
      </trkpt>
      <trkpt lat="19.035394" lon="-98.617305">
        <ele>4544.691</ele>
        <time>2021-01-23T11:47:54Z</time>
      </trkpt>
      <trkpt lat="19.035348" lon="-98.617318">
        <ele>4546.898</ele>
        <time>2021-01-23T11:48:10Z</time>
      </trkpt>
      <trkpt lat="19.035304" lon="-98.617333">
        <ele>4548.997</ele>
        <time>2021-01-23T11:48:36Z</time>
      </trkpt>
      <trkpt lat="19.03526" lon="-98.617345">
        <ele>4552.223</ele>
        <time>2021-01-23T11:49:33Z</time>
      </trkpt>
      <trkpt lat="19.035219" lon="-98.617367">
        <ele>4554.625</ele>
        <time>2021-01-23T11:49:56Z</time>
      </trkpt>
      <trkpt lat="19.035174" lon="-98.617392">
        <ele>4558.008</ele>
        <time>2021-01-23T11:50:13Z</time>
      </trkpt>
      <trkpt lat="19.035132" lon="-98.617415">
        <ele>4559.755</ele>
        <time>2021-01-23T11:50:30Z</time>
      </trkpt>
      <trkpt lat="19.035089" lon="-98.617432">
        <ele>4562.793</ele>
        <time>2021-01-23T11:51:11Z</time>
      </trkpt>
      <trkpt lat="19.035044" lon="-98.617415">
        <ele>4566.554</ele>
        <time>2021-01-23T11:51:54Z</time>
      </trkpt>
      <trkpt lat="19.035001" lon="-98.617441">
        <ele>4568.486</ele>
        <time>2021-01-23T11:52:06Z</time>
      </trkpt>
      <trkpt lat="19.034953" lon="-98.617448">
        <ele>4572.498</ele>
        <time>2021-01-23T11:52:27Z</time>
      </trkpt>
      <trkpt lat="19.034911" lon="-98.617467">
        <ele>4575.511</ele>
        <time>2021-01-23T11:52:49Z</time>
      </trkpt>
      <trkpt lat="19.034865" lon="-98.61748">
        <ele>4579.467</ele>
        <time>2021-01-23T11:53:54Z</time>
      </trkpt>
      <trkpt lat="19.034835" lon="-98.617517">
        <ele>4582.194</ele>
        <time>2021-01-23T11:54:13Z</time>
      </trkpt>
      <trkpt lat="19.03479" lon="-98.617525">
        <ele>4584.567</ele>
        <time>2021-01-23T11:54:33Z</time>
      </trkpt>
      <trkpt lat="19.034744" lon="-98.617534">
        <ele>4588.081</ele>
        <time>2021-01-23T11:55:54Z</time>
      </trkpt>
      <trkpt lat="19.034699" lon="-98.617551">
        <ele>4592.019</ele>
        <time>2021-01-23T11:57:27Z</time>
      </trkpt>
      <trkpt lat="19.034663" lon="-98.617584">
        <ele>4596.008</ele>
        <time>2021-01-23T11:57:38Z</time>
      </trkpt>
      <trkpt lat="19.034626" lon="-98.617611">
        <ele>4599.732</ele>
        <time>2021-01-23T11:58:04Z</time>
      </trkpt>
      <trkpt lat="19.034583" lon="-98.617628">
        <ele>4602.340</ele>
        <time>2021-01-23T11:58:18Z</time>
      </trkpt>
      <trkpt lat="19.034537" lon="-98.617642">
        <ele>4604.751</ele>
        <time>2021-01-23T11:58:50Z</time>
      </trkpt>
      <trkpt lat="19.034494" lon="-98.617628">
        <ele>4608.583</ele>
        <time>2021-01-23T11:59:07Z</time>
      </trkpt>
      <trkpt lat="19.034452" lon="-98.617655">
        <ele>4610.455</ele>
        <time>2021-01-23T11:59:22Z</time>
      </trkpt>
      <trkpt lat="19.034417" lon="-98.617688">
        <ele>4611.958</ele>
        <time>2021-01-23T11:59:29Z</time>
      </trkpt>
      <trkpt lat="19.034372" lon="-98.617689">
        <ele>4614.464</ele>
        <time>2021-01-23T12:00:35Z</time>
      </trkpt>
      <trkpt lat="19.034326" lon="-98.617692">
        <ele>4615.981</ele>
        <time>2021-01-23T12:01:20Z</time>
      </trkpt>
      <trkpt lat="19.034285" lon="-98.617721">
        <ele>4619.636</ele>
        <time>2021-01-23T12:01:32Z</time>
      </trkpt>
      <trkpt lat="19.034246" lon="-98.61775">
        <ele>4622.217</ele>
        <time>2021-01-23T12:01:41Z</time>
      </trkpt>
      <trkpt lat="19.034205" lon="-98.617771">
        <ele>4624.218</ele>
        <time>2021-01-23T12:02:27Z</time>
      </trkpt>
      <trkpt lat="19.03416" lon="-98.617781">
        <ele>4628.208</ele>
        <time>2021-01-23T12:02:49Z</time>
      </trkpt>
      <trkpt lat="19.034119" lon="-98.617803">
        <ele>4630.689</ele>
        <time>2021-01-23T12:03:03Z</time>
      </trkpt>
      <trkpt lat="19.03408" lon="-98.617828">
        <ele>4633.647</ele>
        <time>2021-01-23T12:03:53Z</time>
      </trkpt>
      <trkpt lat="19.034034" lon="-98.617825">
        <ele>4635.848</ele>
        <time>2021-01-23T12:04:08Z</time>
      </trkpt>
      <trkpt lat="19.033996" lon="-98.617854">
        <ele>4638.340</ele>
        <time>2021-01-23T12:04:16Z</time>
      </trkpt>
      <trkpt lat="19.03395" lon="-98.617855">
        <ele>4641.012</ele>
        <time>2021-01-23T12:04:27Z</time>
      </trkpt>
      <trkpt lat="19.033901" lon="-98.617863">
        <ele>4645.035</ele>
        <time>2021-01-23T12:05:20Z</time>
      </trkpt>
      <trkpt lat="19.033849" lon="-98.617866">
        <ele>4648.271</ele>
        <time>2021-01-23T12:05:36Z</time>
      </trkpt>
      <trkpt lat="19.033802" lon="-98.617868">
        <ele>4650.158</ele>
        <time>2021-01-23T12:05:44Z</time>
      </trkpt>
      <trkpt lat="19.033754" lon="-98.617874">
        <ele>4652.193</ele>
        <time>2021-01-23T12:06:31Z</time>
      </trkpt>
      <trkpt lat="19.033707" lon="-98.617876">
        <ele>4654.565</ele>
        <time>2021-01-23T12:06:40Z</time>
      </trkpt>
      <trkpt lat="19.03366" lon="-98.617888">
        <ele>4657.121</ele>
        <time>2021-01-23T12:07:14Z</time>
      </trkpt>
      <trkpt lat="19.033615" lon="-98.617902">
        <ele>4659.508</ele>
        <time>2021-01-23T12:07:22Z</time>
      </trkpt>
      <trkpt lat="19.033574" lon="-98.61793">
        <ele>4661.785</ele>
        <time>2021-01-23T12:07:35Z</time>
      </trkpt>
      <trkpt lat="19.033533" lon="-98.61796">
        <ele>4663.823</ele>
        <time>2021-01-23T12:08:01Z</time>
      </trkpt>
      <trkpt lat="19.033497" lon="-98.617994">
        <ele>4666.734</ele>
        <time>2021-01-23T12:08:12Z</time>
      </trkpt>
      <trkpt lat="19.033467" lon="-98.618035">
        <ele>4668.846</ele>
        <time>2021-01-23T12:10:28Z</time>
      </trkpt>
      <trkpt lat="19.033419" lon="-98.618037">
        <ele>4672.178</ele>
        <time>2021-01-23T12:20:08Z</time>
      </trkpt>
      <trkpt lat="19.033386" lon="-98.618074">
        <ele>4675.331</ele>
        <time>2021-01-23T12:20:24Z</time>
      </trkpt>
      <trkpt lat="19.03335" lon="-98.618104">
        <ele>4677.257</ele>
        <time>2021-01-23T12:20:39Z</time>
      </trkpt>
      <trkpt lat="19.033324" lon="-98.618144">
        <ele>4679.144</ele>
        <time>2021-01-23T12:20:46Z</time>
      </trkpt>
      <trkpt lat="19.033281" lon="-98.618159">
        <ele>4679.989</ele>
        <time>2021-01-23T12:21:01Z</time>
      </trkpt>
      <trkpt lat="19.033243" lon="-98.618188">
        <ele>4681.206</ele>
        <time>2021-01-23T12:21:09Z</time>
      </trkpt>
      <trkpt lat="19.033207" lon="-98.618217">
        <ele>4683.226</ele>
        <time>2021-01-23T12:21:28Z</time>
      </trkpt>
      <trkpt lat="19.033167" lon="-98.618241">
        <ele>4686.408</ele>
        <time>2021-01-23T12:21:38Z</time>
      </trkpt>
      <trkpt lat="19.033125" lon="-98.618264">
        <ele>4689.114</ele>
        <time>2021-01-23T12:21:55Z</time>
      </trkpt>
      <trkpt lat="19.033094" lon="-98.618302">
        <ele>4691.952</ele>
        <time>2021-01-23T12:22:15Z</time>
      </trkpt>
      <trkpt lat="19.033052" lon="-98.61832">
        <ele>4695.253</ele>
        <time>2021-01-23T12:22:57Z</time>
      </trkpt>
      <trkpt lat="19.033006" lon="-98.618329">
        <ele>4697.645</ele>
        <time>2021-01-23T12:23:09Z</time>
      </trkpt>
      <trkpt lat="19.032958" lon="-98.618342">
        <ele>4700.237</ele>
        <time>2021-01-23T12:23:17Z</time>
      </trkpt>
      <trkpt lat="19.032909" lon="-98.618342">
        <ele>4701.810</ele>
        <time>2021-01-23T12:23:28Z</time>
      </trkpt>
      <trkpt lat="19.032862" lon="-98.618347">
        <ele>4703.986</ele>
        <time>2021-01-23T12:23:39Z</time>
      </trkpt>
      <trkpt lat="19.032814" lon="-98.618351">
        <ele>4706.073</ele>
        <time>2021-01-23T12:23:49Z</time>
      </trkpt>
      <trkpt lat="19.032768" lon="-98.618353">
        <ele>4707.395</ele>
        <time>2021-01-23T12:24:36Z</time>
      </trkpt>
      <trkpt lat="19.03272" lon="-98.618345">
        <ele>4708.149</ele>
        <time>2021-01-23T12:24:54Z</time>
      </trkpt>
      <trkpt lat="19.032684" lon="-98.61838">
        <ele>4712.123</ele>
        <time>2021-01-23T12:25:30Z</time>
      </trkpt>
      <trkpt lat="19.032637" lon="-98.618395">
        <ele>4716.108</ele>
        <time>2021-01-23T12:25:40Z</time>
      </trkpt>
      <trkpt lat="19.032592" lon="-98.618383">
        <ele>4719.445</ele>
        <time>2021-01-23T12:25:51Z</time>
      </trkpt>
      <trkpt lat="19.032551" lon="-98.618404">
        <ele>4721.473</ele>
        <time>2021-01-23T12:26:20Z</time>
      </trkpt>
      <trkpt lat="19.032501" lon="-98.618411">
        <ele>4723.874</ele>
        <time>2021-01-23T12:26:53Z</time>
      </trkpt>
      <trkpt lat="19.032455" lon="-98.618412">
        <ele>4725.226</ele>
        <time>2021-01-23T12:27:04Z</time>
      </trkpt>
      <trkpt lat="19.032415" lon="-98.618438">
        <ele>4727.328</ele>
        <time>2021-01-23T12:27:19Z</time>
      </trkpt>
      <trkpt lat="19.032379" lon="-98.618477">
        <ele>4729.741</ele>
        <time>2021-01-23T12:27:28Z</time>
      </trkpt>
      <trkpt lat="19.032345" lon="-98.618509">
        <ele>4732.057</ele>
        <time>2021-01-23T12:27:35Z</time>
      </trkpt>
      <trkpt lat="19.032296" lon="-98.61852">
        <ele>4734.274</ele>
        <time>2021-01-23T12:28:44Z</time>
      </trkpt>
      <trkpt lat="19.032255" lon="-98.618548">
        <ele>4737.167</ele>
        <time>2021-01-23T12:28:54Z</time>
      </trkpt>
      <trkpt lat="19.032214" lon="-98.618575">
        <ele>4739.281</ele>
        <time>2021-01-23T12:29:07Z</time>
      </trkpt>
      <trkpt lat="19.032182" lon="-98.618612">
        <ele>4742.119</ele>
        <time>2021-01-23T12:29:15Z</time>
      </trkpt>
      <trkpt lat="19.032141" lon="-98.618632">
        <ele>4743.808</ele>
        <time>2021-01-23T12:29:26Z</time>
      </trkpt>
      <trkpt lat="19.032093" lon="-98.618631">
        <ele>4745.212</ele>
        <time>2021-01-23T12:29:37Z</time>
      </trkpt>
      <trkpt lat="19.032053" lon="-98.61866">
        <ele>4746.910</ele>
        <time>2021-01-23T12:30:17Z</time>
      </trkpt>
      <trkpt lat="19.032018" lon="-98.618691">
        <ele>4749.141</ele>
        <time>2021-01-23T12:30:27Z</time>
      </trkpt>
      <trkpt lat="19.031974" lon="-98.618712">
        <ele>4751.213</ele>
        <time>2021-01-23T12:30:37Z</time>
      </trkpt>
      <trkpt lat="19.031933" lon="-98.618743">
        <ele>4752.925</ele>
        <time>2021-01-23T12:30:47Z</time>
      </trkpt>
      <trkpt lat="19.031891" lon="-98.618765">
        <ele>4754.328</ele>
        <time>2021-01-23T12:31:20Z</time>
      </trkpt>
      <trkpt lat="19.031864" lon="-98.618804">
        <ele>4756.364</ele>
        <time>2021-01-23T12:31:26Z</time>
      </trkpt>
      <trkpt lat="19.031826" lon="-98.618834">
        <ele>4757.961</ele>
        <time>2021-01-23T12:31:56Z</time>
      </trkpt>
      <trkpt lat="19.031785" lon="-98.618855">
        <ele>4761.777</ele>
        <time>2021-01-23T12:32:14Z</time>
      </trkpt>
      <trkpt lat="19.031743" lon="-98.618877">
        <ele>4764.461</ele>
        <time>2021-01-23T12:32:27Z</time>
      </trkpt>
      <trkpt lat="19.031716" lon="-98.618918">
        <ele>4767.227</ele>
        <time>2021-01-23T12:33:32Z</time>
      </trkpt>
      <trkpt lat="19.031671" lon="-98.618933">
        <ele>4768.508</ele>
        <time>2021-01-23T12:33:41Z</time>
      </trkpt>
      <trkpt lat="19.031647" lon="-98.618975">
        <ele>4772.153</ele>
        <time>2021-01-23T12:33:56Z</time>
      </trkpt>
      <trkpt lat="19.031612" lon="-98.619008">
        <ele>4775.491</ele>
        <time>2021-01-23T12:34:07Z</time>
      </trkpt>
      <trkpt lat="19.031611" lon="-98.619059">
        <ele>4777.812</ele>
        <time>2021-01-23T12:35:00Z</time>
      </trkpt>
      <trkpt lat="19.031564" lon="-98.619063">
        <ele>4779.694</ele>
        <time>2021-01-23T12:35:13Z</time>
      </trkpt>
      <trkpt lat="19.031518" lon="-98.619067">
        <ele>4781.156</ele>
        <time>2021-01-23T12:35:38Z</time>
      </trkpt>
      <trkpt lat="19.031492" lon="-98.619111">
        <ele>4784.449</ele>
        <time>2021-01-23T12:35:55Z</time>
      </trkpt>
      <trkpt lat="19.031449" lon="-98.61913">
        <ele>4786.885</ele>
        <time>2021-01-23T12:37:27Z</time>
      </trkpt>
      <trkpt lat="19.03141" lon="-98.619155">
        <ele>4789.452</ele>
        <time>2021-01-23T12:37:39Z</time>
      </trkpt>
      <trkpt lat="19.031379" lon="-98.619195">
        <ele>4793.431</ele>
        <time>2021-01-23T12:37:55Z</time>
      </trkpt>
      <trkpt lat="19.031333" lon="-98.619191">
        <ele>4796.661</ele>
        <time>2021-01-23T12:38:06Z</time>
      </trkpt>
      <trkpt lat="19.031306" lon="-98.619234">
        <ele>4799.707</ele>
        <time>2021-01-23T12:38:35Z</time>
      </trkpt>
      <trkpt lat="19.031302" lon="-98.619286">
        <ele>4802.808</ele>
        <time>2021-01-23T12:38:47Z</time>
      </trkpt>
      <trkpt lat="19.031274" lon="-98.619328">
        <ele>4805.099</ele>
        <time>2021-01-23T12:38:56Z</time>
      </trkpt>
      <trkpt lat="19.031228" lon="-98.61934">
        <ele>4807.567</ele>
        <time>2021-01-23T12:39:44Z</time>
      </trkpt>
      <trkpt lat="19.03118" lon="-98.619347">
        <ele>4809.078</ele>
        <time>2021-01-23T12:39:54Z</time>
      </trkpt>
      <trkpt lat="19.03115" lon="-98.619384">
        <ele>4810.780</ele>
        <time>2021-01-23T12:40:06Z</time>
      </trkpt>
      <trkpt lat="19.031113" lon="-98.619416">
        <ele>4814.182</ele>
        <time>2021-01-23T12:41:05Z</time>
      </trkpt>
      <trkpt lat="19.031068" lon="-98.619406">
        <ele>4816.645</ele>
        <time>2021-01-23T12:41:14Z</time>
      </trkpt>
      <trkpt lat="19.031026" lon="-98.619384">
        <ele>4819.321</ele>
        <time>2021-01-23T12:41:39Z</time>
      </trkpt>
      <trkpt lat="19.030983" lon="-98.61941">
        <ele>4821.318</ele>
        <time>2021-01-23T12:42:30Z</time>
      </trkpt>
      <trkpt lat="19.030951" lon="-98.619448">
        <ele>4824.511</ele>
        <time>2021-01-23T12:42:47Z</time>
      </trkpt>
      <trkpt lat="19.030922" lon="-98.619486">
        <ele>4826.421</ele>
        <time>2021-01-23T12:43:02Z</time>
      </trkpt>
      <trkpt lat="19.030885" lon="-98.619515">
        <ele>4828.803</ele>
        <time>2021-01-23T12:43:24Z</time>
      </trkpt>
      <trkpt lat="19.030864" lon="-98.61956">
        <ele>4831.008</ele>
        <time>2021-01-23T12:44:01Z</time>
      </trkpt>
      <trkpt lat="19.030838" lon="-98.619601">
        <ele>4834.767</ele>
        <time>2021-01-23T12:44:37Z</time>
      </trkpt>
      <trkpt lat="19.030797" lon="-98.619621">
        <ele>4838.525</ele>
        <time>2021-01-23T12:44:50Z</time>
      </trkpt>
      <trkpt lat="19.030749" lon="-98.619634">
        <ele>4842.096</ele>
        <time>2021-01-23T12:46:01Z</time>
      </trkpt>
      <trkpt lat="19.030706" lon="-98.619653">
        <ele>4844.598</ele>
        <time>2021-01-23T12:46:11Z</time>
      </trkpt>
      <trkpt lat="19.030667" lon="-98.619682">
        <ele>4847.630</ele>
        <time>2021-01-23T12:47:18Z</time>
      </trkpt>
      <trkpt lat="19.030634" lon="-98.619717">
        <ele>4850.753</ele>
        <time>2021-01-23T12:47:26Z</time>
      </trkpt>
      <trkpt lat="19.030592" lon="-98.619734">
        <ele>4852.519</ele>
        <time>2021-01-23T12:47:51Z</time>
      </trkpt>
      <trkpt lat="19.030549" lon="-98.619747">
        <ele>4854.476</ele>
        <time>2021-01-23T12:48:42Z</time>
      </trkpt>
      <trkpt lat="19.030503" lon="-98.619766">
        <ele>4857.183</ele>
        <time>2021-01-23T12:49:09Z</time>
      </trkpt>
      <trkpt lat="19.030469" lon="-98.6198">
        <ele>4861.125</ele>
        <time>2021-01-23T12:49:59Z</time>
      </trkpt>
      <trkpt lat="19.030432" lon="-98.61983">
        <ele>4864.317</ele>
        <time>2021-01-23T12:50:32Z</time>
      </trkpt>
      <trkpt lat="19.030384" lon="-98.619829">
        <ele>4867.408</ele>
        <time>2021-01-23T12:50:46Z</time>
      </trkpt>
      <trkpt lat="19.030342" lon="-98.619847">
        <ele>4870.134</ele>
        <time>2021-01-23T12:51:39Z</time>
      </trkpt>
      <trkpt lat="19.030318" lon="-98.61989">
        <ele>4873.332</ele>
        <time>2021-01-23T12:51:55Z</time>
      </trkpt>
      <trkpt lat="19.030283" lon="-98.619921">
        <ele>4875.673</ele>
        <time>2021-01-23T12:52:15Z</time>
      </trkpt>
      <trkpt lat="19.030269" lon="-98.619967">
        <ele>4877.465</ele>
        <time>2021-01-23T12:52:43Z</time>
      </trkpt>
      <trkpt lat="19.03022" lon="-98.61998">
        <ele>4877.377</ele>
        <time>2021-01-23T12:53:51Z</time>
      </trkpt>
      <trkpt lat="19.030181" lon="-98.620011">
        <ele>4880.030</ele>
        <time>2021-01-23T12:54:02Z</time>
      </trkpt>
      <trkpt lat="19.030148" lon="-98.62005">
        <ele>4883.616</ele>
        <time>2021-01-23T12:54:57Z</time>
      </trkpt>
      <trkpt lat="19.030114" lon="-98.620082">
        <ele>4887.673</ele>
        <time>2021-01-23T12:57:23Z</time>
      </trkpt>
      <trkpt lat="19.030098" lon="-98.620129">
        <ele>4891.048</ele>
        <time>2021-01-23T13:00:11Z</time>
      </trkpt>
      <trkpt lat="19.030082" lon="-98.620175">
        <ele>4892.261</ele>
        <time>2021-01-23T13:00:48Z</time>
      </trkpt>
      <trkpt lat="19.030037" lon="-98.620181">
        <ele>4894.917</ele>
        <time>2021-01-23T13:01:20Z</time>
      </trkpt>
      <trkpt lat="19.029998" lon="-98.620207">
        <ele>4898.908</ele>
        <time>2021-01-23T13:02:55Z</time>
      </trkpt>
      <trkpt lat="19.029952" lon="-98.620224">
        <ele>4902.910</ele>
        <time>2021-01-23T13:03:13Z</time>
      </trkpt>
      <trkpt lat="19.029906" lon="-98.620239">
        <ele>4904.128</ele>
        <time>2021-01-23T13:03:48Z</time>
      </trkpt>
      <trkpt lat="19.028987" lon="-98.620908">
        <ele>4915.069</ele>
        <time>2021-01-23T13:32:52Z</time>
      </trkpt>
      <trkpt lat="19.02893" lon="-98.620901">
        <ele>4894.091</ele>
        <time>2021-01-23T13:34:56Z</time>
      </trkpt>
      <trkpt lat="19.028898" lon="-98.620935">
        <ele>4895.293</ele>
        <time>2021-01-23T13:35:19Z</time>
      </trkpt>
      <trkpt lat="19.028856" lon="-98.620962">
        <ele>4897.956</ele>
        <time>2021-01-23T13:35:44Z</time>
      </trkpt>
      <trkpt lat="19.028819" lon="-98.62099">
        <ele>4900.392</ele>
        <time>2021-01-23T13:36:26Z</time>
      </trkpt>
      <trkpt lat="19.028776" lon="-98.621003">
        <ele>4901.429</ele>
        <time>2021-01-23T13:37:56Z</time>
      </trkpt>
      <trkpt lat="19.028731" lon="-98.621004">
        <ele>4902.894</ele>
        <time>2021-01-23T13:38:15Z</time>
      </trkpt>
      <trkpt lat="19.028685" lon="-98.621021">
        <ele>4904.157</ele>
        <time>2021-01-23T13:38:33Z</time>
      </trkpt>
      <trkpt lat="19.028653" lon="-98.621055">
        <ele>4907.322</ele>
        <time>2021-01-23T13:39:06Z</time>
      </trkpt>
      <trkpt lat="19.028612" lon="-98.621077">
        <ele>4910.808</ele>
        <time>2021-01-23T13:39:50Z</time>
      </trkpt>
      <trkpt lat="19.028573" lon="-98.621104">
        <ele>4913.765</ele>
        <time>2021-01-23T13:41:03Z</time>
      </trkpt>
      <trkpt lat="19.028528" lon="-98.621101">
        <ele>4916.233</ele>
        <time>2021-01-23T13:41:18Z</time>
      </trkpt>
      <trkpt lat="19.028487" lon="-98.621127">
        <ele>4918.554</ele>
        <time>2021-01-23T13:41:37Z</time>
      </trkpt>
      <trkpt lat="19.028456" lon="-98.621162">
        <ele>4921.986</ele>
        <time>2021-01-23T13:41:58Z</time>
      </trkpt>
      <trkpt lat="19.028416" lon="-98.621189">
        <ele>4925.958</ele>
        <time>2021-01-23T13:42:57Z</time>
      </trkpt>
      <trkpt lat="19.028391" lon="-98.62123">
        <ele>4929.921</ele>
        <time>2021-01-23T13:43:25Z</time>
      </trkpt>
      <trkpt lat="19.028354" lon="-98.621259">
        <ele>4933.937</ele>
        <time>2021-01-23T13:44:05Z</time>
      </trkpt>
      <trkpt lat="19.028307" lon="-98.621263">
        <ele>4937.584</ele>
        <time>2021-01-23T13:44:26Z</time>
      </trkpt>
      <trkpt lat="19.02828" lon="-98.621302">
        <ele>4940.948</ele>
        <time>2021-01-23T13:44:34Z</time>
      </trkpt>
      <trkpt lat="19.028247" lon="-98.621339">
        <ele>4944.161</ele>
        <time>2021-01-23T13:44:46Z</time>
      </trkpt>
      <trkpt lat="19.028203" lon="-98.621357">
        <ele>4948.117</ele>
        <time>2021-01-23T13:46:16Z</time>
      </trkpt>
      <trkpt lat="19.028163" lon="-98.621384">
        <ele>4951.608</ele>
        <time>2021-01-23T13:46:37Z</time>
      </trkpt>
      <trkpt lat="19.028119" lon="-98.621399">
        <ele>4955.320</ele>
        <time>2021-01-23T13:46:53Z</time>
      </trkpt>
      <trkpt lat="19.028082" lon="-98.621427">
        <ele>4958.788</ele>
        <time>2021-01-23T13:48:12Z</time>
      </trkpt>
      <trkpt lat="19.028041" lon="-98.621446">
        <ele>4962.419</ele>
        <time>2021-01-23T13:48:27Z</time>
      </trkpt>
      <trkpt lat="19.027996" lon="-98.621458">
        <ele>4966.481</ele>
        <time>2021-01-23T13:48:50Z</time>
      </trkpt>
      <trkpt lat="19.02795" lon="-98.621477">
        <ele>4969.863</ele>
        <time>2021-01-23T13:51:20Z</time>
      </trkpt>
      <trkpt lat="19.027905" lon="-98.621488">
        <ele>4972.256</ele>
        <time>2021-01-23T13:51:41Z</time>
      </trkpt>
      <trkpt lat="19.027865" lon="-98.62151">
        <ele>4975.782</ele>
        <time>2021-01-23T13:52:04Z</time>
      </trkpt>
      <trkpt lat="19.027837" lon="-98.621548">
        <ele>4978.639</ele>
        <time>2021-01-23T13:52:21Z</time>
      </trkpt>
      <trkpt lat="19.027807" lon="-98.621586">
        <ele>4980.737</ele>
        <time>2021-01-23T13:53:46Z</time>
      </trkpt>
      <trkpt lat="19.027764" lon="-98.621572">
        <ele>4984.749</ele>
        <time>2021-01-23T13:54:47Z</time>
      </trkpt>
      <trkpt lat="19.027729" lon="-98.621604">
        <ele>4988.713</ele>
        <time>2021-01-23T13:55:15Z</time>
      </trkpt>
      <trkpt lat="19.027692" lon="-98.621637">
        <ele>4992.408</ele>
        <time>2021-01-23T13:56:57Z</time>
      </trkpt>
      <trkpt lat="19.027662" lon="-98.621678">
        <ele>4995.829</ele>
        <time>2021-01-23T13:57:12Z</time>
      </trkpt>
      <trkpt lat="19.027616" lon="-98.621689">
        <ele>4998.227</ele>
        <time>2021-01-23T13:57:38Z</time>
      </trkpt>
      <trkpt lat="19.027582" lon="-98.621722">
        <ele>5002.138</ele>
        <time>2021-01-23T13:58:08Z</time>
      </trkpt>
      <trkpt lat="19.027546" lon="-98.621752">
        <ele>5005.250</ele>
        <time>2021-01-23T13:59:19Z</time>
      </trkpt>
      <trkpt lat="19.027503" lon="-98.621776">
        <ele>5008.372</ele>
        <time>2021-01-23T13:59:33Z</time>
      </trkpt>
      <trkpt lat="19.02746" lon="-98.621793">
        <ele>5009.375</ele>
        <time>2021-01-23T13:59:40Z</time>
      </trkpt>
      <trkpt lat="19.027413" lon="-98.621789">
        <ele>5011.191</ele>
        <time>2021-01-23T14:00:28Z</time>
      </trkpt>
      <trkpt lat="19.02737" lon="-98.621808">
        <ele>5014.618</ele>
        <time>2021-01-23T14:00:49Z</time>
      </trkpt>
      <trkpt lat="19.027324" lon="-98.621804">
        <ele>5018.672</ele>
        <time>2021-01-23T14:02:36Z</time>
      </trkpt>
      <trkpt lat="19.027283" lon="-98.621826">
        <ele>5022.613</ele>
        <time>2021-01-23T14:02:51Z</time>
      </trkpt>
      <trkpt lat="19.027237" lon="-98.621837">
        <ele>5025.114</ele>
        <time>2021-01-23T14:03:10Z</time>
      </trkpt>
      <trkpt lat="19.027192" lon="-98.621829">
        <ele>5026.608</ele>
        <time>2021-01-23T14:03:26Z</time>
      </trkpt>
      <trkpt lat="19.027147" lon="-98.621833">
        <ele>5028.783</ele>
        <time>2021-01-23T14:03:34Z</time>
      </trkpt>
      <trkpt lat="19.027136" lon="-98.62188">
        <ele>5031.681</ele>
        <time>2021-01-23T14:04:17Z</time>
      </trkpt>
      <trkpt lat="19.027092" lon="-98.621894">
        <ele>5034.572</ele>
        <time>2021-01-23T14:05:29Z</time>
      </trkpt>
      <trkpt lat="19.027043" lon="-98.621912">
        <ele>5036.684</ele>
        <time>2021-01-23T14:05:41Z</time>
      </trkpt>
      <trkpt lat="19.026998" lon="-98.621928">
        <ele>5037.566</ele>
        <time>2021-01-23T14:05:56Z</time>
      </trkpt>
      <trkpt lat="19.026953" lon="-98.621953">
        <ele>5040.049</ele>
        <time>2021-01-23T14:07:30Z</time>
      </trkpt>
      <trkpt lat="19.02691" lon="-98.621968">
        <ele>5042.385</ele>
        <time>2021-01-23T14:07:38Z</time>
      </trkpt>
      <trkpt lat="19.026865" lon="-98.62197">
        <ele>5045.372</ele>
        <time>2021-01-23T14:07:49Z</time>
      </trkpt>
      <trkpt lat="19.026829" lon="-98.622003">
        <ele>5048.345</ele>
        <time>2021-01-23T14:09:23Z</time>
      </trkpt>
      <trkpt lat="19.026784" lon="-98.622009">
        <ele>5050.947</ele>
        <time>2021-01-23T14:09:35Z</time>
      </trkpt>
      <trkpt lat="19.026741" lon="-98.62203">
        <ele>5053.711</ele>
        <time>2021-01-23T14:09:47Z</time>
      </trkpt>
      <trkpt lat="19.026696" lon="-98.622022">
        <ele>5056.608</ele>
        <time>2021-01-23T14:10:38Z</time>
      </trkpt>
      <trkpt lat="19.026658" lon="-98.622051">
        <ele>5060.670</ele>
        <time>2021-01-23T14:10:59Z</time>
      </trkpt>
      <trkpt lat="19.026614" lon="-98.622073">
        <ele>5063.118</ele>
        <time>2021-01-23T14:11:31Z</time>
      </trkpt>
      <trkpt lat="19.026568" lon="-98.622064">
        <ele>5066.629</ele>
        <time>2021-01-23T14:12:43Z</time>
      </trkpt>
      <trkpt lat="19.026524" lon="-98.62205">
        <ele>5069.161</ele>
        <time>2021-01-23T14:13:17Z</time>
      </trkpt>
      <trkpt lat="19.026481" lon="-98.622034">
        <ele>5071.873</ele>
        <time>2021-01-23T14:13:40Z</time>
      </trkpt>
      <trkpt lat="19.026424" lon="-98.622003">
        <ele>5208.488</ele>
        <time>2021-01-23T15:40:17Z</time>
      </trkpt>
      <trkpt lat="19.026424" lon="-98.622003">
        <ele>5208.424</ele>
        <time>2021-01-23T15:40:17Z</time>
      </trkpt>
      <trkpt lat="19.026471" lon="-98.622018">
        <ele>5200.726</ele>
        <time>2021-01-23T15:42:26Z</time>
      </trkpt>
      <trkpt lat="19.026471" lon="-98.622018">
        <ele>5200.708</ele>
        <time>2021-01-23T15:42:26Z</time>
      </trkpt>
      <trkpt lat="19.026519" lon="-98.622027">
        <ele>5197.464</ele>
        <time>2021-01-23T15:42:37Z</time>
      </trkpt>
      <trkpt lat="19.026559" lon="-98.622049">
        <ele>5195.412</ele>
        <time>2021-01-23T15:42:43Z</time>
      </trkpt>
      <trkpt lat="19.026609" lon="-98.622041">
        <ele>5193.883</ele>
        <time>2021-01-23T15:42:49Z</time>
      </trkpt>
      <trkpt lat="19.026657" lon="-98.622031">
        <ele>5192.055</ele>
        <time>2021-01-23T15:42:56Z</time>
      </trkpt>
      <trkpt lat="19.026704" lon="-98.622044">
        <ele>5189.727</ele>
        <time>2021-01-23T15:43:02Z</time>
      </trkpt>
      <trkpt lat="19.026746" lon="-98.622016">
        <ele>5187.940</ele>
        <time>2021-01-23T15:43:07Z</time>
      </trkpt>
      <trkpt lat="19.026793" lon="-98.621998">
        <ele>5186.016</ele>
        <time>2021-01-23T15:43:12Z</time>
      </trkpt>
      <trkpt lat="19.026835" lon="-98.621966">
        <ele>5183.744</ele>
        <time>2021-01-23T15:43:18Z</time>
      </trkpt>
      <trkpt lat="19.026874" lon="-98.621935">
        <ele>5181.585</ele>
        <time>2021-01-23T15:43:23Z</time>
      </trkpt>
      <trkpt lat="19.026927" lon="-98.621941">
        <ele>5178.689</ele>
        <time>2021-01-23T15:43:29Z</time>
      </trkpt>
      <trkpt lat="19.026973" lon="-98.621937">
        <ele>5175.317</ele>
        <time>2021-01-23T15:43:34Z</time>
      </trkpt>
      <trkpt lat="19.02702" lon="-98.621926">
        <ele>5172.108</ele>
        <time>2021-01-23T15:43:38Z</time>
      </trkpt>
      <trkpt lat="19.027068" lon="-98.621891">
        <ele>5165.844</ele>
        <time>2021-01-23T15:43:43Z</time>
      </trkpt>
      <trkpt lat="19.027068" lon="-98.621891">
        <ele>5165.852</ele>
        <time>2021-01-23T15:43:43Z</time>
      </trkpt>
      <trkpt lat="19.027104" lon="-98.62185">
        <ele>5162.863</ele>
        <time>2021-01-23T15:43:47Z</time>
      </trkpt>
      <trkpt lat="19.027139" lon="-98.621812">
        <ele>5160.285</ele>
        <time>2021-01-23T15:43:51Z</time>
      </trkpt>
      <trkpt lat="19.027176" lon="-98.621776">
        <ele>5156.617</ele>
        <time>2021-01-23T15:43:55Z</time>
      </trkpt>
      <trkpt lat="19.027224" lon="-98.621768">
        <ele>5154.550</ele>
        <time>2021-01-23T15:44:03Z</time>
      </trkpt>
      <trkpt lat="19.027248" lon="-98.621726">
        <ele>5150.856</ele>
        <time>2021-01-23T15:44:17Z</time>
      </trkpt>
      <trkpt lat="19.02729" lon="-98.621698">
        <ele>5147.474</ele>
        <time>2021-01-23T15:44:22Z</time>
      </trkpt>
      <trkpt lat="19.027336" lon="-98.621697">
        <ele>5144.217</ele>
        <time>2021-01-23T15:44:32Z</time>
      </trkpt>
      <trkpt lat="19.027378" lon="-98.621663">
        <ele>5140.287</ele>
        <time>2021-01-23T15:44:39Z</time>
      </trkpt>
      <trkpt lat="19.027407" lon="-98.621623">
        <ele>5136.715</ele>
        <time>2021-01-23T15:44:45Z</time>
      </trkpt>
      <trkpt lat="19.027434" lon="-98.621582">
        <ele>5133.808</ele>
        <time>2021-01-23T15:44:51Z</time>
      </trkpt>
      <trkpt lat="19.027462" lon="-98.62154">
        <ele>5131.677</ele>
        <time>2021-01-23T15:45:01Z</time>
      </trkpt>
      <trkpt lat="19.027478" lon="-98.621494">
        <ele>5129.595</ele>
        <time>2021-01-23T15:45:06Z</time>
      </trkpt>
      <trkpt lat="19.027515" lon="-98.621454">
        <ele>5125.866</ele>
        <time>2021-01-23T15:45:13Z</time>
      </trkpt>
      <trkpt lat="19.027563" lon="-98.621424">
        <ele>5122.028</ele>
        <time>2021-01-23T15:45:20Z</time>
      </trkpt>
      <trkpt lat="19.027608" lon="-98.621412">
        <ele>5118.030</ele>
        <time>2021-01-23T15:45:24Z</time>
      </trkpt>
      <trkpt lat="19.02765" lon="-98.621381">
        <ele>5114.033</ele>
        <time>2021-01-23T15:45:37Z</time>
      </trkpt>
      <trkpt lat="19.027683" lon="-98.621333">
        <ele>5110.179</ele>
        <time>2021-01-23T15:45:42Z</time>
      </trkpt>
      <trkpt lat="19.027737" lon="-98.621321">
        <ele>5106.137</ele>
        <time>2021-01-23T15:45:47Z</time>
      </trkpt>
      <trkpt lat="19.027779" lon="-98.621298">
        <ele>5102.179</ele>
        <time>2021-01-23T15:45:51Z</time>
      </trkpt>
      <trkpt lat="19.027808" lon="-98.621258">
        <ele>5098.605</ele>
        <time>2021-01-23T15:46:08Z</time>
      </trkpt>
      <trkpt lat="19.027843" lon="-98.621224">
        <ele>5096.525</ele>
        <time>2021-01-23T15:46:13Z</time>
      </trkpt>
      <trkpt lat="19.02787" lon="-98.621184">
        <ele>5093.608</ele>
        <time>2021-01-23T15:46:18Z</time>
      </trkpt>
      <trkpt lat="19.027904" lon="-98.621143">
        <ele>5090.783</ele>
        <time>2021-01-23T15:46:22Z</time>
      </trkpt>
      <trkpt lat="19.027937" lon="-98.621107">
        <ele>5088.171</ele>
        <time>2021-01-23T15:46:30Z</time>
      </trkpt>
      <trkpt lat="19.027966" lon="-98.621068">
        <ele>5085.072</ele>
        <time>2021-01-23T15:46:34Z</time>
      </trkpt>
      <trkpt lat="19.028012" lon="-98.621045">
        <ele>5081.074</ele>
        <time>2021-01-23T15:46:39Z</time>
      </trkpt>
      <trkpt lat="19.028063" lon="-98.621035">
        <ele>5077.096</ele>
        <time>2021-01-23T15:46:45Z</time>
      </trkpt>
      <trkpt lat="19.028112" lon="-98.62103">
        <ele>5073.099</ele>
        <time>2021-01-23T15:46:49Z</time>
      </trkpt>
      <trkpt lat="19.028162" lon="-98.621011">
        <ele>5069.055</ele>
        <time>2021-01-23T15:46:54Z</time>
      </trkpt>
      <trkpt lat="19.02821" lon="-98.621003">
        <ele>5065.163</ele>
        <time>2021-01-23T15:47:08Z</time>
      </trkpt>
      <trkpt lat="19.028254" lon="-98.620989">
        <ele>5062.046</ele>
        <time>2021-01-23T15:47:12Z</time>
      </trkpt>
      <trkpt lat="19.0283" lon="-98.620958">
        <ele>5059.788</ele>
        <time>2021-01-23T15:47:16Z</time>
      </trkpt>
      <trkpt lat="19.028353" lon="-98.620933">
        <ele>5056.716</ele>
        <time>2021-01-23T15:47:20Z</time>
      </trkpt>
      <trkpt lat="19.028401" lon="-98.620917">
        <ele>5052.708</ele>
        <time>2021-01-23T15:47:24Z</time>
      </trkpt>
      <trkpt lat="19.028452" lon="-98.620903">
        <ele>5048.750</ele>
        <time>2021-01-23T15:47:28Z</time>
      </trkpt>
      <trkpt lat="19.028498" lon="-98.620897">
        <ele>5044.788</ele>
        <time>2021-01-23T15:47:31Z</time>
      </trkpt>
      <trkpt lat="19.028539" lon="-98.620867">
        <ele>5040.759</ele>
        <time>2021-01-23T15:47:35Z</time>
      </trkpt>
      <trkpt lat="19.028588" lon="-98.620837">
        <ele>5033.341</ele>
        <time>2021-01-23T15:47:39Z</time>
      </trkpt>
      <trkpt lat="19.028588" lon="-98.620837">
        <ele>5033.323</ele>
        <time>2021-01-23T15:47:39Z</time>
      </trkpt>
      <trkpt lat="19.028635" lon="-98.620809">
        <ele>5029.366</ele>
        <time>2021-01-23T15:47:43Z</time>
      </trkpt>
      <trkpt lat="19.028662" lon="-98.620769">
        <ele>5025.772</ele>
        <time>2021-01-23T15:47:53Z</time>
      </trkpt>
      <trkpt lat="19.028714" lon="-98.620739">
        <ele>5022.770</ele>
        <time>2021-01-23T15:48:09Z</time>
      </trkpt>
      <trkpt lat="19.028766" lon="-98.620725">
        <ele>5019.737</ele>
        <time>2021-01-23T15:48:12Z</time>
      </trkpt>
      <trkpt lat="19.02881" lon="-98.620698">
        <ele>5016.749</ele>
        <time>2021-01-23T15:48:15Z</time>
      </trkpt>
      <trkpt lat="19.028855" lon="-98.620677">
        <ele>5013.713</ele>
        <time>2021-01-23T15:48:21Z</time>
      </trkpt>
      <trkpt lat="19.028903" lon="-98.620669">
        <ele>5010.708</ele>
        <time>2021-01-23T15:48:27Z</time>
      </trkpt>
      <trkpt lat="19.028951" lon="-98.620649">
        <ele>5007.339</ele>
        <time>2021-01-23T15:48:34Z</time>
      </trkpt>
      <trkpt lat="19.028994" lon="-98.620635">
        <ele>5004.577</ele>
        <time>2021-01-23T15:48:37Z</time>
      </trkpt>
      <trkpt lat="19.029043" lon="-98.620621">
        <ele>5001.228</ele>
        <time>2021-01-23T15:48:43Z</time>
      </trkpt>
      <trkpt lat="19.029089" lon="-98.620595">
        <ele>4997.240</ele>
        <time>2021-01-23T15:48:53Z</time>
      </trkpt>
      <trkpt lat="19.029134" lon="-98.620568">
        <ele>4993.292</ele>
        <time>2021-01-23T15:48:57Z</time>
      </trkpt>
      <trkpt lat="19.029172" lon="-98.620532">
        <ele>4989.655</ele>
        <time>2021-01-23T15:49:13Z</time>
      </trkpt>
      <trkpt lat="19.029223" lon="-98.620507">
        <ele>4986.361</ele>
        <time>2021-01-23T15:49:16Z</time>
      </trkpt>
      <trkpt lat="19.029276" lon="-98.620485">
        <ele>4983.179</ele>
        <time>2021-01-23T15:49:19Z</time>
      </trkpt>
      <trkpt lat="19.029332" lon="-98.620462">
        <ele>4979.621</ele>
        <time>2021-01-23T15:49:22Z</time>
      </trkpt>
      <trkpt lat="19.029375" lon="-98.620427">
        <ele>4976.341</ele>
        <time>2021-01-23T15:49:25Z</time>
      </trkpt>
      <trkpt lat="19.029421" lon="-98.62042">
        <ele>4972.705</ele>
        <time>2021-01-23T15:49:52Z</time>
      </trkpt>
      <trkpt lat="19.029465" lon="-98.6204">
        <ele>4968.908</ele>
        <time>2021-01-23T15:49:57Z</time>
      </trkpt>
      <trkpt lat="19.029514" lon="-98.620365">
        <ele>4965.818</ele>
        <time>2021-01-23T15:50:01Z</time>
      </trkpt>
      <trkpt lat="19.029564" lon="-98.620348">
        <ele>4962.886</ele>
        <time>2021-01-23T15:50:04Z</time>
      </trkpt>
      <trkpt lat="19.029609" lon="-98.620337">
        <ele>4959.887</ele>
        <time>2021-01-23T15:50:18Z</time>
      </trkpt>
      <trkpt lat="19.029659" lon="-98.620311">
        <ele>4955.879</ele>
        <time>2021-01-23T15:50:23Z</time>
      </trkpt>
      <trkpt lat="19.029708" lon="-98.620302">
        <ele>4951.891</ele>
        <time>2021-01-23T15:50:26Z</time>
      </trkpt>
      <trkpt lat="19.029766" lon="-98.620279">
        <ele>4947.854</ele>
        <time>2021-01-23T15:50:29Z</time>
      </trkpt>
      <trkpt lat="19.02982" lon="-98.620253">
        <ele>4943.850</ele>
        <time>2021-01-23T15:50:33Z</time>
      </trkpt>
      <trkpt lat="19.029863" lon="-98.620224">
        <ele>4939.888</ele>
        <time>2021-01-23T15:50:36Z</time>
      </trkpt>
      <trkpt lat="19.0299" lon="-98.620187">
        <ele>4935.879</ele>
        <time>2021-01-23T15:50:39Z</time>
      </trkpt>
      <trkpt lat="19.029942" lon="-98.620159">
        <ele>4931.805</ele>
        <time>2021-01-23T15:50:42Z</time>
      </trkpt>
      <trkpt lat="19.029984" lon="-98.620129">
        <ele>4928.425</ele>
        <time>2021-01-23T15:50:51Z</time>
      </trkpt>
      <trkpt lat="19.030036" lon="-98.620097">
        <ele>4924.808</ele>
        <time>2021-01-23T15:50:55Z</time>
      </trkpt>
      <trkpt lat="19.030082" lon="-98.620086">
        <ele>4921.833</ele>
        <time>2021-01-23T15:51:00Z</time>
      </trkpt>
      <trkpt lat="19.030127" lon="-98.620071">
        <ele>4917.821</ele>
        <time>2021-01-23T15:52:03Z</time>
      </trkpt>
      <trkpt lat="19.030173" lon="-98.620046">
        <ele>4914.472</ele>
        <time>2021-01-23T15:52:13Z</time>
      </trkpt>
      <trkpt lat="19.030227" lon="-98.620031">
        <ele>4910.874</ele>
        <time>2021-01-23T15:52:17Z</time>
      </trkpt>
      <trkpt lat="19.030259" lon="-98.619993">
        <ele>4907.456</ele>
        <time>2021-01-23T15:52:20Z</time>
      </trkpt>
      <trkpt lat="19.030302" lon="-98.619965">
        <ele>4903.499</ele>
        <time>2021-01-23T15:52:23Z</time>
      </trkpt>
      <trkpt lat="19.030359" lon="-98.61998">
        <ele>4899.895</ele>
        <time>2021-01-23T15:52:27Z</time>
      </trkpt>
      <trkpt lat="19.030405" lon="-98.619977">
        <ele>4896.863</ele>
        <time>2021-01-23T15:52:30Z</time>
      </trkpt>
      <trkpt lat="19.030459" lon="-98.61995">
        <ele>4893.881</ele>
        <time>2021-01-23T15:52:34Z</time>
      </trkpt>
      <trkpt lat="19.030497" lon="-98.619925">
        <ele>4890.861</ele>
        <time>2021-01-23T15:52:37Z</time>
      </trkpt>
      <trkpt lat="19.030545" lon="-98.619893">
        <ele>4887.817</ele>
        <time>2021-01-23T15:52:41Z</time>
      </trkpt>
      <trkpt lat="19.030597" lon="-98.619889">
        <ele>4884.008</ele>
        <time>2021-01-23T15:52:46Z</time>
      </trkpt>
      <trkpt lat="19.030643" lon="-98.619865">
        <ele>4880.184</ele>
        <time>2021-01-23T15:52:50Z</time>
      </trkpt>
      <trkpt lat="19.030682" lon="-98.619841">
        <ele>4876.682</ele>
        <time>2021-01-23T15:52:54Z</time>
      </trkpt>
      <trkpt lat="19.030727" lon="-98.619829">
        <ele>4874.163</ele>
        <time>2021-01-23T15:52:58Z</time>
      </trkpt>
      <trkpt lat="19.03078" lon="-98.619833">
        <ele>4871.495</ele>
        <time>2021-01-23T15:53:05Z</time>
      </trkpt>
      <trkpt lat="19.030826" lon="-98.619828">
        <ele>4868.217</ele>
        <time>2021-01-23T15:53:10Z</time>
      </trkpt>
      <trkpt lat="19.030879" lon="-98.619812">
        <ele>4865.590</ele>
        <time>2021-01-23T15:53:17Z</time>
      </trkpt>
      <trkpt lat="19.030924" lon="-98.619798">
        <ele>4863.136</ele>
        <time>2021-01-23T15:53:23Z</time>
      </trkpt>
      <trkpt lat="19.030972" lon="-98.61978">
        <ele>4859.624</ele>
        <time>2021-01-23T15:53:29Z</time>
      </trkpt>
      <trkpt lat="19.031007" lon="-98.619742">
        <ele>4856.387</ele>
        <time>2021-01-23T15:53:36Z</time>
      </trkpt>
      <trkpt lat="19.031048" lon="-98.619703">
        <ele>4853.542</ele>
        <time>2021-01-23T15:53:44Z</time>
      </trkpt>
      <trkpt lat="19.031092" lon="-98.619716">
        <ele>4849.826</ele>
        <time>2021-01-23T15:54:07Z</time>
      </trkpt>
      <trkpt lat="19.031144" lon="-98.619688">
        <ele>4846.408</ele>
        <time>2021-01-23T15:54:11Z</time>
      </trkpt>
      <trkpt lat="19.031184" lon="-98.619655">
        <ele>4844.494</ele>
        <time>2021-01-23T15:54:19Z</time>
      </trkpt>
      <trkpt lat="19.031209" lon="-98.619614">
        <ele>4840.552</ele>
        <time>2021-01-23T15:54:25Z</time>
      </trkpt>
      <trkpt lat="19.031209" lon="-98.619614">
        <ele>4840.513</ele>
        <time>2021-01-23T15:54:25Z</time>
      </trkpt>
      <trkpt lat="19.031228" lon="-98.619569">
        <ele>4839.215</ele>
        <time>2021-01-23T15:54:42Z</time>
      </trkpt>
      <trkpt lat="19.031256" lon="-98.619525">
        <ele>4837.297</ele>
        <time>2021-01-23T15:54:53Z</time>
      </trkpt>
      <trkpt lat="19.03129" lon="-98.619493">
        <ele>4834.450</ele>
        <time>2021-01-23T15:55:02Z</time>
      </trkpt>
      <trkpt lat="19.031314" lon="-98.619453">
        <ele>4831.546</ele>
        <time>2021-01-23T15:55:07Z</time>
      </trkpt>
      <trkpt lat="19.031359" lon="-98.619442">
        <ele>4828.614</ele>
        <time>2021-01-23T15:55:14Z</time>
      </trkpt>
      <trkpt lat="19.031403" lon="-98.619422">
        <ele>4825.621</ele>
        <time>2021-01-23T15:55:19Z</time>
      </trkpt>
      <trkpt lat="19.031447" lon="-98.619387">
        <ele>4822.641</ele>
        <time>2021-01-23T15:55:23Z</time>
      </trkpt>
      <trkpt lat="19.031501" lon="-98.619388">
        <ele>4820.005</ele>
        <time>2021-01-23T15:55:27Z</time>
      </trkpt>
      <trkpt lat="19.031558" lon="-98.619375">
        <ele>4816.108</ele>
        <time>2021-01-23T15:55:40Z</time>
      </trkpt>
      <trkpt lat="19.031596" lon="-98.619347">
        <ele>4812.188</ele>
        <time>2021-01-23T15:55:42Z</time>
      </trkpt>
      <trkpt lat="19.031647" lon="-98.619326">
        <ele>4808.156</ele>
        <time>2021-01-23T15:55:45Z</time>
      </trkpt>
      <trkpt lat="19.031691" lon="-98.619311">
        <ele>4804.127</ele>
        <time>2021-01-23T15:55:48Z</time>
      </trkpt>
      <trkpt lat="19.031739" lon="-98.619291">
        <ele>4800.169</ele>
        <time>2021-01-23T15:55:52Z</time>
      </trkpt>
      <trkpt lat="19.031772" lon="-98.619258">
        <ele>4796.921</ele>
        <time>2021-01-23T15:56:01Z</time>
      </trkpt>
      <trkpt lat="19.031822" lon="-98.619245">
        <ele>4794.684</ele>
        <time>2021-01-23T15:56:08Z</time>
      </trkpt>
      <trkpt lat="19.031872" lon="-98.61923">
        <ele>4792.010</ele>
        <time>2021-01-23T15:56:15Z</time>
      </trkpt>
      <trkpt lat="19.03192" lon="-98.619204">
        <ele>4788.448</ele>
        <time>2021-01-23T15:56:21Z</time>
      </trkpt>
      <trkpt lat="19.031972" lon="-98.619192">
        <ele>4784.777</ele>
        <time>2021-01-23T15:56:26Z</time>
      </trkpt>
      <trkpt lat="19.032011" lon="-98.619167">
        <ele>4781.761</ele>
        <time>2021-01-23T15:56:39Z</time>
      </trkpt>
      <trkpt lat="19.032061" lon="-98.619151">
        <ele>4779.127</ele>
        <time>2021-01-23T15:57:08Z</time>
      </trkpt>
      <trkpt lat="19.032108" lon="-98.61913">
        <ele>4776.308</ele>
        <time>2021-01-23T15:57:16Z</time>
      </trkpt>
      <trkpt lat="19.03215" lon="-98.619148">
        <ele>4773.083</ele>
        <time>2021-01-23T15:57:23Z</time>
      </trkpt>
      <trkpt lat="19.03215" lon="-98.619148">
        <ele>4773.031</ele>
        <time>2021-01-23T15:57:23Z</time>
      </trkpt>
      <trkpt lat="19.032184" lon="-98.619114">
        <ele>4771.962</ele>
        <time>2021-01-23T15:57:33Z</time>
      </trkpt>
      <trkpt lat="19.032228" lon="-98.619095">
        <ele>4768.264</ele>
        <time>2021-01-23T15:58:25Z</time>
      </trkpt>
      <trkpt lat="19.032228" lon="-98.619095">
        <ele>4768.296</ele>
        <time>2021-01-23T15:58:25Z</time>
      </trkpt>
      <trkpt lat="19.032256" lon="-98.619057">
        <ele>4767.469</ele>
        <time>2021-01-23T15:58:40Z</time>
      </trkpt>
      <trkpt lat="19.032299" lon="-98.619027">
        <ele>4766.575</ele>
        <time>2021-01-23T15:59:07Z</time>
      </trkpt>
      <trkpt lat="19.032348" lon="-98.618989">
        <ele>4765.273</ele>
        <time>2021-01-23T15:59:11Z</time>
      </trkpt>
      <trkpt lat="19.03239" lon="-98.618958">
        <ele>4763.256</ele>
        <time>2021-01-23T15:59:14Z</time>
      </trkpt>
      <trkpt lat="19.032436" lon="-98.618933">
        <ele>4760.859</ele>
        <time>2021-01-23T15:59:18Z</time>
      </trkpt>
      <trkpt lat="19.032485" lon="-98.618905">
        <ele>4757.814</ele>
        <time>2021-01-23T15:59:22Z</time>
      </trkpt>
      <trkpt lat="19.032536" lon="-98.6189">
        <ele>4754.408</ele>
        <time>2021-01-23T15:59:26Z</time>
      </trkpt>
      <trkpt lat="19.032579" lon="-98.618877">
        <ele>4751.151</ele>
        <time>2021-01-23T15:59:30Z</time>
      </trkpt>
      <trkpt lat="19.032618" lon="-98.618838">
        <ele>4747.939</ele>
        <time>2021-01-23T15:59:37Z</time>
      </trkpt>
      <trkpt lat="19.032664" lon="-98.618828">
        <ele>4745.270</ele>
        <time>2021-01-23T15:59:40Z</time>
      </trkpt>
      <trkpt lat="19.032718" lon="-98.618812">
        <ele>4742.872</ele>
        <time>2021-01-23T15:59:43Z</time>
      </trkpt>
      <trkpt lat="19.032774" lon="-98.618794">
        <ele>4740.274</ele>
        <time>2021-01-23T15:59:47Z</time>
      </trkpt>
      <trkpt lat="19.032828" lon="-98.618786">
        <ele>4737.427</ele>
        <time>2021-01-23T15:59:52Z</time>
      </trkpt>
      <trkpt lat="19.032877" lon="-98.61878">
        <ele>4733.443</ele>
        <time>2021-01-23T16:00:00Z</time>
      </trkpt>
      <trkpt lat="19.032935" lon="-98.618769">
        <ele>4729.471</ele>
        <time>2021-01-23T16:00:04Z</time>
      </trkpt>
      <trkpt lat="19.032987" lon="-98.618761">
        <ele>4726.135</ele>
        <time>2021-01-23T16:00:08Z</time>
      </trkpt>
      <trkpt lat="19.033035" lon="-98.618767">
        <ele>4722.186</ele>
        <time>2021-01-23T16:00:14Z</time>
      </trkpt>
      <trkpt lat="19.033085" lon="-98.618757">
        <ele>4719.714</ele>
        <time>2021-01-23T16:00:19Z</time>
      </trkpt>
      <trkpt lat="19.033126" lon="-98.618726">
        <ele>4717.908</ele>
        <time>2021-01-23T16:00:22Z</time>
      </trkpt>
      <trkpt lat="19.03315" lon="-98.618681">
        <ele>4716.839</ele>
        <time>2021-01-23T16:00:26Z</time>
      </trkpt>
      <trkpt lat="19.033187" lon="-98.618641">
        <ele>4715.747</ele>
        <time>2021-01-23T16:00:29Z</time>
      </trkpt>
      <trkpt lat="19.033226" lon="-98.61861">
        <ele>4713.968</ele>
        <time>2021-01-23T16:00:32Z</time>
      </trkpt>
      <trkpt lat="19.033274" lon="-98.61858">
        <ele>4712.440</ele>
        <time>2021-01-23T16:00:35Z</time>
      </trkpt>
      <trkpt lat="19.033319" lon="-98.618574">
        <ele>4709.132</ele>
        <time>2021-01-23T16:00:42Z</time>
      </trkpt>
      <trkpt lat="19.033372" lon="-98.618543">
        <ele>4706.335</ele>
        <time>2021-01-23T16:00:46Z</time>
      </trkpt>
      <trkpt lat="19.033413" lon="-98.618498">
        <ele>4703.811</ele>
        <time>2021-01-23T16:00:51Z</time>
      </trkpt>
      <trkpt lat="19.033455" lon="-98.618469">
        <ele>4701.919</ele>
        <time>2021-01-23T16:00:56Z</time>
      </trkpt>
      <trkpt lat="19.033506" lon="-98.618467">
        <ele>4700.066</ele>
        <time>2021-01-23T16:01:00Z</time>
      </trkpt>
      <trkpt lat="19.033563" lon="-98.618471">
        <ele>4696.829</ele>
        <time>2021-01-23T16:01:04Z</time>
      </trkpt>
      <trkpt lat="19.033613" lon="-98.618473">
        <ele>4693.721</ele>
        <time>2021-01-23T16:01:08Z</time>
      </trkpt>
      <trkpt lat="19.03366" lon="-98.61846">
        <ele>4690.608</ele>
        <time>2021-01-23T16:01:12Z</time>
      </trkpt>
      <trkpt lat="19.033708" lon="-98.618443">
        <ele>4688.042</ele>
        <time>2021-01-23T16:01:15Z</time>
      </trkpt>
      <trkpt lat="19.033751" lon="-98.618418">
        <ele>4685.250</ele>
        <time>2021-01-23T16:01:18Z</time>
      </trkpt>
      <trkpt lat="19.033797" lon="-98.618403">
        <ele>4681.941</ele>
        <time>2021-01-23T16:01:24Z</time>
      </trkpt>
      <trkpt lat="19.033845" lon="-98.618397">
        <ele>4678.323</ele>
        <time>2021-01-23T16:01:33Z</time>
      </trkpt>
      <trkpt lat="19.033888" lon="-98.618352">
        <ele>4675.885</ele>
        <time>2021-01-23T16:01:37Z</time>
      </trkpt>
      <trkpt lat="19.033926" lon="-98.618311">
        <ele>4672.728</ele>
        <time>2021-01-23T16:01:41Z</time>
      </trkpt>
      <trkpt lat="19.033972" lon="-98.618279">
        <ele>4670.484</ele>
        <time>2021-01-23T16:01:45Z</time>
      </trkpt>
      <trkpt lat="19.034015" lon="-98.618254">
        <ele>4667.832</ele>
        <time>2021-01-23T16:01:49Z</time>
      </trkpt>
      <trkpt lat="19.03405" lon="-98.618214">
        <ele>4665.528</ele>
        <time>2021-01-23T16:01:52Z</time>
      </trkpt>
      <trkpt lat="19.034098" lon="-98.618178">
        <ele>4663.389</ele>
        <time>2021-01-23T16:01:56Z</time>
      </trkpt>
      <trkpt lat="19.034139" lon="-98.618154">
        <ele>4661.217</ele>
        <time>2021-01-23T16:01:59Z</time>
      </trkpt>
      <trkpt lat="19.034185" lon="-98.618125">
        <ele>4659.508</ele>
        <time>2021-01-23T16:02:14Z</time>
      </trkpt>
      <trkpt lat="19.034211" lon="-98.618076">
        <ele>4655.368</ele>
        <time>2021-01-23T16:02:17Z</time>
      </trkpt>
      <trkpt lat="19.034211" lon="-98.618076">
        <ele>4655.336</ele>
        <time>2021-01-23T16:02:17Z</time>
      </trkpt>
      <trkpt lat="19.034248" lon="-98.618035">
        <ele>4652.817</ele>
        <time>2021-01-23T16:02:22Z</time>
      </trkpt>
      <trkpt lat="19.034299" lon="-98.618012">
        <ele>4650.519</ele>
        <time>2021-01-23T16:02:38Z</time>
      </trkpt>
      <trkpt lat="19.034336" lon="-98.617983">
        <ele>4647.511</ele>
        <time>2021-01-23T16:02:42Z</time>
      </trkpt>
      <trkpt lat="19.034382" lon="-98.617946">
        <ele>4645.324</ele>
        <time>2021-01-23T16:02:47Z</time>
      </trkpt>
      <trkpt lat="19.034429" lon="-98.617923">
        <ele>4642.040</ele>
        <time>2021-01-23T16:02:51Z</time>
      </trkpt>
      <trkpt lat="19.034473" lon="-98.61791">
        <ele>4638.898</ele>
        <time>2021-01-23T16:02:54Z</time>
      </trkpt>
      <trkpt lat="19.034519" lon="-98.617896">
        <ele>4635.793</ele>
        <time>2021-01-23T16:02:59Z</time>
      </trkpt>
      <trkpt lat="19.034563" lon="-98.617874">
        <ele>4632.265</ele>
        <time>2021-01-23T16:03:03Z</time>
      </trkpt>
      <trkpt lat="19.034606" lon="-98.617847">
        <ele>4628.921</ele>
        <time>2021-01-23T16:03:09Z</time>
      </trkpt>
      <trkpt lat="19.034649" lon="-98.617831">
        <ele>4625.708</ele>
        <time>2021-01-23T16:03:13Z</time>
      </trkpt>
      <trkpt lat="19.034691" lon="-98.617809">
        <ele>4623.065</ele>
        <time>2021-01-23T16:03:18Z</time>
      </trkpt>
      <trkpt lat="19.034741" lon="-98.617788">
        <ele>4621.073</ele>
        <time>2021-01-23T16:03:22Z</time>
      </trkpt>
      <trkpt lat="19.034781" lon="-98.617742">
        <ele>4619.464</ele>
        <time>2021-01-23T16:03:27Z</time>
      </trkpt>
      <trkpt lat="19.034815" lon="-98.617697">
        <ele>4617.236</ele>
        <time>2021-01-23T16:03:30Z</time>
      </trkpt>
      <trkpt lat="19.034864" lon="-98.617655">
        <ele>4613.858</ele>
        <time>2021-01-23T16:03:34Z</time>
      </trkpt>
      <trkpt lat="19.034864" lon="-98.617655">
        <ele>4613.821</ele>
        <time>2021-01-23T16:03:34Z</time>
      </trkpt>
      <trkpt lat="19.034907" lon="-98.61763">
        <ele>4611.467</ele>
        <time>2021-01-23T16:03:37Z</time>
      </trkpt>
      <trkpt lat="19.034947" lon="-98.617607">
        <ele>4608.875</ele>
        <time>2021-01-23T16:03:40Z</time>
      </trkpt>
      <trkpt lat="19.034999" lon="-98.617578">
        <ele>4604.826</ele>
        <time>2021-01-23T16:03:44Z</time>
      </trkpt>
      <trkpt lat="19.035052" lon="-98.617557">
        <ele>4600.847</ele>
        <time>2021-01-23T16:03:48Z</time>
      </trkpt>
      <trkpt lat="19.035103" lon="-98.617537">
        <ele>4596.811</ele>
        <time>2021-01-23T16:03:52Z</time>
      </trkpt>
      <trkpt lat="19.035143" lon="-98.617508">
        <ele>4593.608</ele>
        <time>2021-01-23T16:03:57Z</time>
      </trkpt>
      <trkpt lat="19.035196" lon="-98.617509">
        <ele>4589.788</ele>
        <time>2021-01-23T16:04:19Z</time>
      </trkpt>
      <trkpt lat="19.035252" lon="-98.617481">
        <ele>4586.216</ele>
        <time>2021-01-23T16:04:22Z</time>
      </trkpt>
      <trkpt lat="19.035314" lon="-98.617471">
        <ele>4583.377</ele>
        <time>2021-01-23T16:04:25Z</time>
      </trkpt>
      <trkpt lat="19.035368" lon="-98.617461">
        <ele>4579.979</ele>
        <time>2021-01-23T16:04:28Z</time>
      </trkpt>
      <trkpt lat="19.035421" lon="-98.617438">
        <ele>4575.941</ele>
        <time>2021-01-23T16:04:33Z</time>
      </trkpt>
      <trkpt lat="19.035468" lon="-98.617422">
        <ele>4572.364</ele>
        <time>2021-01-23T16:04:36Z</time>
      </trkpt>
      <trkpt lat="19.035523" lon="-98.617403">
        <ele>4569.310</ele>
        <time>2021-01-23T16:04:40Z</time>
      </trkpt>
      <trkpt lat="19.035575" lon="-98.617378">
        <ele>4566.318</ele>
        <time>2021-01-23T16:04:43Z</time>
      </trkpt>
      <trkpt lat="19.035624" lon="-98.617337">
        <ele>4563.714</ele>
        <time>2021-01-23T16:04:46Z</time>
      </trkpt>
      <trkpt lat="19.035673" lon="-98.617286">
        <ele>4561.354</ele>
        <time>2021-01-23T16:04:49Z</time>
      </trkpt>
      <trkpt lat="19.035728" lon="-98.617266">
        <ele>4559.109</ele>
        <time>2021-01-23T16:04:52Z</time>
      </trkpt>
      <trkpt lat="19.03577" lon="-98.617239">
        <ele>4556.608</ele>
        <time>2021-01-23T16:04:55Z</time>
      </trkpt>
      <trkpt lat="19.035812" lon="-98.617199">
        <ele>4554.797</ele>
        <time>2021-01-23T16:04:58Z</time>
      </trkpt>
      <trkpt lat="19.035866" lon="-98.617175">
        <ele>4553.255</ele>
        <time>2021-01-23T16:05:02Z</time>
      </trkpt>
      <trkpt lat="19.035913" lon="-98.617164">
        <ele>4551.166</ele>
        <time>2021-01-23T16:05:06Z</time>
      </trkpt>
      <trkpt lat="19.035949" lon="-98.617126">
        <ele>4548.658</ele>
        <time>2021-01-23T16:05:09Z</time>
      </trkpt>
      <trkpt lat="19.035988" lon="-98.617096">
        <ele>4545.960</ele>
        <time>2021-01-23T16:05:38Z</time>
      </trkpt>
      <trkpt lat="19.035995" lon="-98.617047">
        <ele>4543.963</ele>
        <time>2021-01-23T16:05:52Z</time>
      </trkpt>
      <trkpt lat="19.03603" lon="-98.617015">
        <ele>4541.569</ele>
        <time>2021-01-23T16:05:55Z</time>
      </trkpt>
      <trkpt lat="19.036076" lon="-98.616982">
        <ele>4538.917</ele>
        <time>2021-01-23T16:05:58Z</time>
      </trkpt>
      <trkpt lat="19.036133" lon="-98.616987">
        <ele>4535.755</ele>
        <time>2021-01-23T16:06:08Z</time>
      </trkpt>
      <trkpt lat="19.036172" lon="-98.616957">
        <ele>4533.007</ele>
        <time>2021-01-23T16:06:11Z</time>
      </trkpt>
      <trkpt lat="19.036214" lon="-98.616922">
        <ele>4530.217</ele>
        <time>2021-01-23T16:06:14Z</time>
      </trkpt>
      <trkpt lat="19.036259" lon="-98.616884">
        <ele>4527.708</ele>
        <time>2021-01-23T16:06:17Z</time>
      </trkpt>
      <trkpt lat="19.036299" lon="-98.61685">
        <ele>4525.831</ele>
        <time>2021-01-23T16:06:20Z</time>
      </trkpt>
      <trkpt lat="19.036342" lon="-98.616808">
        <ele>4525.129</ele>
        <time>2021-01-23T16:06:24Z</time>
      </trkpt>
      <trkpt lat="19.036393" lon="-98.616776">
        <ele>4523.560</ele>
        <time>2021-01-23T16:06:27Z</time>
      </trkpt>
      <trkpt lat="19.036442" lon="-98.616753">
        <ele>4521.332</ele>
        <time>2021-01-23T16:06:30Z</time>
      </trkpt>
      <trkpt lat="19.036502" lon="-98.616745">
        <ele>4518.854</ele>
        <time>2021-01-23T16:06:43Z</time>
      </trkpt>
      <trkpt lat="19.036547" lon="-98.61675">
        <ele>4517.377</ele>
        <time>2021-01-23T16:06:45Z</time>
      </trkpt>
      <trkpt lat="19.036601" lon="-98.616761">
        <ele>4514.443</ele>
        <time>2021-01-23T16:06:48Z</time>
      </trkpt>
      <trkpt lat="19.036656" lon="-98.616768">
        <ele>4511.111</ele>
        <time>2021-01-23T16:06:51Z</time>
      </trkpt>
      <trkpt lat="19.036706" lon="-98.616762">
        <ele>4507.975</ele>
        <time>2021-01-23T16:06:54Z</time>
      </trkpt>
      <trkpt lat="19.036752" lon="-98.616768">
        <ele>4504.828</ele>
        <time>2021-01-23T16:06:57Z</time>
      </trkpt>
      <trkpt lat="19.036795" lon="-98.616752">
        <ele>4502.520</ele>
        <time>2021-01-23T16:07:00Z</time>
      </trkpt>
      <trkpt lat="19.036836" lon="-98.616731">
        <ele>4500.308</ele>
        <time>2021-01-23T16:07:03Z</time>
      </trkpt>
      <trkpt lat="19.036882" lon="-98.616733">
        <ele>4498.223</ele>
        <time>2021-01-23T16:07:06Z</time>
      </trkpt>
      <trkpt lat="19.036931" lon="-98.616716">
        <ele>4495.341</ele>
        <time>2021-01-23T16:07:09Z</time>
      </trkpt>
      <trkpt lat="19.036978" lon="-98.616706">
        <ele>4492.892</ele>
        <time>2021-01-23T16:07:12Z</time>
      </trkpt>
      <trkpt lat="19.037029" lon="-98.616678">
        <ele>4489.774</ele>
        <time>2021-01-23T16:07:16Z</time>
      </trkpt>
      <trkpt lat="19.037029" lon="-98.616678">
        <ele>4489.756</ele>
        <time>2021-01-23T16:07:16Z</time>
      </trkpt>
      <trkpt lat="19.037065" lon="-98.616649">
        <ele>4488.659</ele>
        <time>2021-01-23T16:07:18Z</time>
      </trkpt>
      <trkpt lat="19.037111" lon="-98.616625">
        <ele>4485.575</ele>
        <time>2021-01-23T16:07:33Z</time>
      </trkpt>
      <trkpt lat="19.037162" lon="-98.616595">
        <ele>4479.443</ele>
        <time>2021-01-23T16:07:36Z</time>
      </trkpt>
      <trkpt lat="19.037162" lon="-98.616595">
        <ele>4479.423</ele>
        <time>2021-01-23T16:07:36Z</time>
      </trkpt>
      <trkpt lat="19.037206" lon="-98.616579">
        <ele>4476.883</ele>
        <time>2021-01-23T16:07:39Z</time>
      </trkpt>
      <trkpt lat="19.037249" lon="-98.616536">
        <ele>4474.911</ele>
        <time>2021-01-23T16:07:43Z</time>
      </trkpt>
      <trkpt lat="19.037288" lon="-98.616501">
        <ele>4473.308</ele>
        <time>2021-01-23T16:07:46Z</time>
      </trkpt>
      <trkpt lat="19.037337" lon="-98.616469">
        <ele>4471.638</ele>
        <time>2021-01-23T16:07:50Z</time>
      </trkpt>
      <trkpt lat="19.037375" lon="-98.616437">
        <ele>4469.386</ele>
        <time>2021-01-23T16:07:53Z</time>
      </trkpt>
      <trkpt lat="19.037375" lon="-98.616437">
        <ele>4469.317</ele>
        <time>2021-01-23T16:07:53Z</time>
      </trkpt>
      <trkpt lat="19.037431" lon="-98.616412">
        <ele>4468.479</ele>
        <time>2021-01-23T16:07:56Z</time>
      </trkpt>
      <trkpt lat="19.037476" lon="-98.61639">
        <ele>4467.061</ele>
        <time>2021-01-23T16:07:59Z</time>
      </trkpt>
      <trkpt lat="19.037508" lon="-98.616356">
        <ele>4466.254</ele>
        <time>2021-01-23T16:08:02Z</time>
      </trkpt>
      <trkpt lat="19.037545" lon="-98.616313">
        <ele>4463.740</ele>
        <time>2021-01-23T16:08:05Z</time>
      </trkpt>
      <trkpt lat="19.037591" lon="-98.616295">
        <ele>4461.028</ele>
        <time>2021-01-23T16:08:09Z</time>
      </trkpt>
      <trkpt lat="19.037626" lon="-98.616265">
        <ele>4458.239</ele>
        <time>2021-01-23T16:08:12Z</time>
      </trkpt>
      <trkpt lat="19.037679" lon="-98.616257">
        <ele>4457.301</ele>
        <time>2021-01-23T16:08:17Z</time>
      </trkpt>
      <trkpt lat="19.037725" lon="-98.61625">
        <ele>4453.621</ele>
        <time>2021-01-23T16:09:50Z</time>
      </trkpt>
      <trkpt lat="19.037775" lon="-98.616221">
        <ele>4450.208</ele>
        <time>2021-01-23T16:09:54Z</time>
      </trkpt>
      <trkpt lat="19.037829" lon="-98.616193">
        <ele>4447.779</ele>
        <time>2021-01-23T16:09:57Z</time>
      </trkpt>
      <trkpt lat="19.037879" lon="-98.61618">
        <ele>4443.847</ele>
        <time>2021-01-23T16:10:00Z</time>
      </trkpt>
      <trkpt lat="19.037929" lon="-98.616145">
        <ele>4440.728</ele>
        <time>2021-01-23T16:10:03Z</time>
      </trkpt>
      <trkpt lat="19.037981" lon="-98.616112">
        <ele>4438.870</ele>
        <time>2021-01-23T16:10:06Z</time>
      </trkpt>
      <trkpt lat="19.038038" lon="-98.616078">
        <ele>4437.312</ele>
        <time>2021-01-23T16:10:09Z</time>
      </trkpt>
      <trkpt lat="19.038083" lon="-98.616063">
        <ele>4436.045</ele>
        <time>2021-01-23T16:10:12Z</time>
      </trkpt>
      <trkpt lat="19.038118" lon="-98.616033">
        <ele>4434.821</ele>
        <time>2021-01-23T16:10:19Z</time>
      </trkpt>
      <trkpt lat="19.038164" lon="-98.616012">
        <ele>4432.559</ele>
        <time>2021-01-23T16:10:36Z</time>
      </trkpt>
      <trkpt lat="19.0382" lon="-98.615978">
        <ele>4430.382</ele>
        <time>2021-01-23T16:10:41Z</time>
      </trkpt>
      <trkpt lat="19.038247" lon="-98.615959">
        <ele>4427.443</ele>
        <time>2021-01-23T16:10:46Z</time>
      </trkpt>
      <trkpt lat="19.038288" lon="-98.615938">
        <ele>4426.117</ele>
        <time>2021-01-23T16:10:50Z</time>
      </trkpt>
      <trkpt lat="19.038328" lon="-98.615914">
        <ele>4423.308</ele>
        <time>2021-01-23T16:10:55Z</time>
      </trkpt>
      <trkpt lat="19.038384" lon="-98.615909">
        <ele>4422.054</ele>
        <time>2021-01-23T16:11:00Z</time>
      </trkpt>
      <trkpt lat="19.038438" lon="-98.615904">
        <ele>4420.812</ele>
        <time>2021-01-23T16:11:04Z</time>
      </trkpt>
      <trkpt lat="19.038487" lon="-98.61588">
        <ele>4420.143</ele>
        <time>2021-01-23T16:11:07Z</time>
      </trkpt>
      <trkpt lat="19.038523" lon="-98.615849">
        <ele>4419.315</ele>
        <time>2021-01-23T16:11:09Z</time>
      </trkpt>
      <trkpt lat="19.03857" lon="-98.615821">
        <ele>4418.097</ele>
        <time>2021-01-23T16:11:11Z</time>
      </trkpt>
      <trkpt lat="19.038619" lon="-98.615816">
        <ele>4416.080</ele>
        <time>2021-01-23T16:11:13Z</time>
      </trkpt>
      <trkpt lat="19.038675" lon="-98.615809">
        <ele>4413.216</ele>
        <time>2021-01-23T16:11:16Z</time>
      </trkpt>
      <trkpt lat="19.038724" lon="-98.615804">
        <ele>4411.164</ele>
        <time>2021-01-23T16:11:18Z</time>
      </trkpt>
      <trkpt lat="19.038772" lon="-98.615794">
        <ele>4409.953</ele>
        <time>2021-01-23T16:11:20Z</time>
      </trkpt>
      <trkpt lat="19.038822" lon="-98.615786">
        <ele>4408.004</ele>
        <time>2021-01-23T16:11:22Z</time>
      </trkpt>
      <trkpt lat="19.038888" lon="-98.615778">
        <ele>4405.214</ele>
        <time>2021-01-23T16:11:25Z</time>
      </trkpt>
      <trkpt lat="19.038953" lon="-98.615768">
        <ele>4402.308</ele>
        <time>2021-01-23T16:11:28Z</time>
      </trkpt>
      <trkpt lat="19.039014" lon="-98.615759">
        <ele>4400.241</ele>
        <time>2021-01-23T16:11:31Z</time>
      </trkpt>
      <trkpt lat="19.039061" lon="-98.615757">
        <ele>4398.189</ele>
        <time>2021-01-23T16:11:33Z</time>
      </trkpt>
      <trkpt lat="19.039107" lon="-98.615757">
        <ele>4396.580</ele>
        <time>2021-01-23T16:11:35Z</time>
      </trkpt>
      <trkpt lat="19.039172" lon="-98.615743">
        <ele>4395.552</ele>
        <time>2021-01-23T16:11:38Z</time>
      </trkpt>
      <trkpt lat="19.039226" lon="-98.615719">
        <ele>4394.174</ele>
        <time>2021-01-23T16:11:41Z</time>
      </trkpt>
      <trkpt lat="19.039275" lon="-98.615702">
        <ele>4393.387</ele>
        <time>2021-01-23T16:11:43Z</time>
      </trkpt>
      <trkpt lat="19.039343" lon="-98.615683">
        <ele>4392.033</ele>
        <time>2021-01-23T16:11:46Z</time>
      </trkpt>
      <trkpt lat="19.039401" lon="-98.615683">
        <ele>4390.871</ele>
        <time>2021-01-23T16:11:49Z</time>
      </trkpt>
      <trkpt lat="19.039463" lon="-98.615682">
        <ele>4390.139</ele>
        <time>2021-01-23T16:11:52Z</time>
      </trkpt>
      <trkpt lat="19.039508" lon="-98.615676">
        <ele>4388.901</ele>
        <time>2021-01-23T16:11:54Z</time>
      </trkpt>
      <trkpt lat="19.039556" lon="-98.615669">
        <ele>4387.821</ele>
        <time>2021-01-23T16:11:56Z</time>
      </trkpt>
      <trkpt lat="19.039601" lon="-98.615662">
        <ele>4386.308</ele>
        <time>2021-01-23T16:11:58Z</time>
      </trkpt>
      <trkpt lat="19.039662" lon="-98.61566">
        <ele>4385.099</ele>
        <time>2021-01-23T16:12:01Z</time>
      </trkpt>
      <trkpt lat="19.039709" lon="-98.615669">
        <ele>4383.457</ele>
        <time>2021-01-23T16:12:03Z</time>
      </trkpt>
      <trkpt lat="19.039761" lon="-98.615677">
        <ele>4382.128</ele>
        <time>2021-01-23T16:12:06Z</time>
      </trkpt>
      <trkpt lat="19.039824" lon="-98.61566">
        <ele>4381.350</ele>
        <time>2021-01-23T16:12:09Z</time>
      </trkpt>
      <trkpt lat="19.039879" lon="-98.615637">
        <ele>4380.892</ele>
        <time>2021-01-23T16:12:12Z</time>
      </trkpt>
      <trkpt lat="19.03994" lon="-98.61563">
        <ele>4379.315</ele>
        <time>2021-01-23T16:12:15Z</time>
      </trkpt>
      <trkpt lat="19.039999" lon="-98.615645">
        <ele>4378.081</ele>
        <time>2021-01-23T16:12:18Z</time>
      </trkpt>
      <trkpt lat="19.040059" lon="-98.615636">
        <ele>4376.899</ele>
        <time>2021-01-23T16:12:21Z</time>
      </trkpt>
      <trkpt lat="19.040059" lon="-98.615636">
        <ele>4376.891</ele>
        <time>2021-01-23T16:12:21Z</time>
      </trkpt>
      <trkpt lat="19.040104" lon="-98.615624">
        <ele>4376.581</ele>
        <time>2021-01-23T16:12:23Z</time>
      </trkpt>
      <trkpt lat="19.040167" lon="-98.615617">
        <ele>4375.119</ele>
        <time>2021-01-23T16:12:26Z</time>
      </trkpt>
      <trkpt lat="19.040226" lon="-98.615617">
        <ele>4373.508</ele>
        <time>2021-01-23T16:12:29Z</time>
      </trkpt>
      <trkpt lat="19.040283" lon="-98.615608">
        <ele>4371.765</ele>
        <time>2021-01-23T16:12:32Z</time>
      </trkpt>
      <trkpt lat="19.040337" lon="-98.615592">
        <ele>4370.263</ele>
        <time>2021-01-23T16:12:35Z</time>
      </trkpt>
      <trkpt lat="19.040376" lon="-98.615562">
        <ele>4369.794</ele>
        <time>2021-01-23T16:12:38Z</time>
      </trkpt>
      <trkpt lat="19.040434" lon="-98.615553">
        <ele>4366.256</ele>
        <time>2021-01-23T16:13:33Z</time>
      </trkpt>
      <trkpt lat="19.040482" lon="-98.615531">
        <ele>4363.728</ele>
        <time>2021-01-23T16:13:35Z</time>
      </trkpt>
      <trkpt lat="19.040515" lon="-98.615496">
        <ele>4358.731</ele>
        <time>2021-01-23T16:13:37Z</time>
      </trkpt>
      <trkpt lat="19.040515" lon="-98.615496">
        <ele>4358.797</ele>
        <time>2021-01-23T16:13:37Z</time>
      </trkpt>
      <trkpt lat="19.04055" lon="-98.615457">
        <ele>4355.035</ele>
        <time>2021-01-23T16:13:39Z</time>
      </trkpt>
      <trkpt lat="19.04055" lon="-98.615457">
        <ele>4355.074</ele>
        <time>2021-01-23T16:13:39Z</time>
      </trkpt>
      <trkpt lat="19.040601" lon="-98.615448">
        <ele>4352.656</ele>
        <time>2021-01-23T16:13:42Z</time>
      </trkpt>
      <trkpt lat="19.040654" lon="-98.615448">
        <ele>4349.521</ele>
        <time>2021-01-23T16:13:45Z</time>
      </trkpt>
      <trkpt lat="19.040713" lon="-98.615447">
        <ele>4345.508</ele>
        <time>2021-01-23T16:13:48Z</time>
      </trkpt>
      <trkpt lat="19.040772" lon="-98.61545">
        <ele>4341.763</ele>
        <time>2021-01-23T16:13:51Z</time>
      </trkpt>
      <trkpt lat="19.040834" lon="-98.61542">
        <ele>4339.031</ele>
        <time>2021-01-23T16:13:54Z</time>
      </trkpt>
      <trkpt lat="19.040897" lon="-98.615396">
        <ele>4338.652</ele>
        <time>2021-01-23T16:13:57Z</time>
      </trkpt>
      <trkpt lat="19.040954" lon="-98.615375">
        <ele>4337.524</ele>
        <time>2021-01-23T16:14:00Z</time>
      </trkpt>
      <trkpt lat="19.041003" lon="-98.61537">
        <ele>4338.936</ele>
        <time>2021-01-23T16:14:22Z</time>
      </trkpt>
      <trkpt lat="19.041055" lon="-98.615344">
        <ele>4338.589</ele>
        <time>2021-01-23T16:14:26Z</time>
      </trkpt>
      <trkpt lat="19.041101" lon="-98.615315">
        <ele>4337.195</ele>
        <time>2021-01-23T16:14:29Z</time>
      </trkpt>
      <trkpt lat="19.041138" lon="-98.615274">
        <ele>4337.093</ele>
        <time>2021-01-23T16:14:33Z</time>
      </trkpt>
      <trkpt lat="19.041138" lon="-98.615274">
        <ele>4337.091</ele>
        <time>2021-01-23T16:14:33Z</time>
      </trkpt>
      <trkpt lat="19.041194" lon="-98.615259">
        <ele>4336.281</ele>
        <time>2021-01-23T16:14:37Z</time>
      </trkpt>
      <trkpt lat="19.041228" lon="-98.615224">
        <ele>4334.119</ele>
        <time>2021-01-23T16:14:40Z</time>
      </trkpt>
      <trkpt lat="19.041228" lon="-98.615224">
        <ele>4334.108</ele>
        <time>2021-01-23T16:14:40Z</time>
      </trkpt>
      <trkpt lat="19.04128" lon="-98.615205">
        <ele>4332.465</ele>
        <time>2021-01-23T16:14:43Z</time>
      </trkpt>
      <trkpt lat="19.041341" lon="-98.615199">
        <ele>4330.623</ele>
        <time>2021-01-23T16:14:47Z</time>
      </trkpt>
      <trkpt lat="19.041403" lon="-98.615192">
        <ele>4329.524</ele>
        <time>2021-01-23T16:14:50Z</time>
      </trkpt>
      <trkpt lat="19.041455" lon="-98.615159">
        <ele>4326.966</ele>
        <time>2021-01-23T16:14:54Z</time>
      </trkpt>
      <trkpt lat="19.041497" lon="-98.615138">
        <ele>4324.568</ele>
        <time>2021-01-23T16:14:57Z</time>
      </trkpt>
      <trkpt lat="19.041543" lon="-98.615132">
        <ele>4321.921</ele>
        <time>2021-01-23T16:15:00Z</time>
      </trkpt>
      <trkpt lat="19.041586" lon="-98.615116">
        <ele>4316.827</ele>
        <time>2021-01-23T16:15:06Z</time>
      </trkpt>
      <trkpt lat="19.041586" lon="-98.615116">
        <ele>4316.885</ele>
        <time>2021-01-23T16:15:06Z</time>
      </trkpt>
      <trkpt lat="19.041626" lon="-98.615086">
        <ele>4313.731</ele>
        <time>2021-01-23T16:15:11Z</time>
      </trkpt>
      <trkpt lat="19.041684" lon="-98.615075">
        <ele>4309.761</ele>
        <time>2021-01-23T16:15:15Z</time>
      </trkpt>
      <trkpt lat="19.041747" lon="-98.615071">
        <ele>4306.607</ele>
        <time>2021-01-23T16:15:18Z</time>
      </trkpt>
      <trkpt lat="19.041801" lon="-98.615065">
        <ele>4304.708</ele>
        <time>2021-01-23T16:15:21Z</time>
      </trkpt>
      <trkpt lat="19.041853" lon="-98.615056">
        <ele>4302.819</ele>
        <time>2021-01-23T16:15:24Z</time>
      </trkpt>
      <trkpt lat="19.041901" lon="-98.615063">
        <ele>4302.557</ele>
        <time>2021-01-23T16:15:27Z</time>
      </trkpt>
      <trkpt lat="19.041958" lon="-98.615053">
        <ele>4302.768</ele>
        <time>2021-01-23T16:15:30Z</time>
      </trkpt>
      <trkpt lat="19.042003" lon="-98.615042">
        <ele>4302.070</ele>
        <time>2021-01-23T16:15:32Z</time>
      </trkpt>
      <trkpt lat="19.04205" lon="-98.615028">
        <ele>4300.872</ele>
        <time>2021-01-23T16:15:34Z</time>
      </trkpt>
      <trkpt lat="19.042098" lon="-98.615008">
        <ele>4298.515</ele>
        <time>2021-01-23T16:15:36Z</time>
      </trkpt>
      <trkpt lat="19.042159" lon="-98.615006">
        <ele>4296.791</ele>
        <time>2021-01-23T16:15:38Z</time>
      </trkpt>
      <trkpt lat="19.042212" lon="-98.615022">
        <ele>4293.699</ele>
        <time>2021-01-23T16:15:40Z</time>
      </trkpt>
      <trkpt lat="19.042258" lon="-98.615018">
        <ele>4292.258</ele>
        <time>2021-01-23T16:15:42Z</time>
      </trkpt>
      <trkpt lat="19.042307" lon="-98.615009">
        <ele>4291.352</ele>
        <time>2021-01-23T16:15:44Z</time>
      </trkpt>
      <trkpt lat="19.042354" lon="-98.615004">
        <ele>4290.817</ele>
        <time>2021-01-23T16:15:46Z</time>
      </trkpt>
      <trkpt lat="19.042398" lon="-98.614991">
        <ele>4290.108</ele>
        <time>2021-01-23T16:15:48Z</time>
      </trkpt>
      <trkpt lat="19.042444" lon="-98.61494">
        <ele>4289.381</ele>
        <time>2021-01-23T16:15:51Z</time>
      </trkpt>
      <trkpt lat="19.042491" lon="-98.614915">
        <ele>4287.639</ele>
        <time>2021-01-23T16:15:53Z</time>
      </trkpt>
      <trkpt lat="19.042543" lon="-98.61492">
        <ele>4285.840</ele>
        <time>2021-01-23T16:15:56Z</time>
      </trkpt>
      <trkpt lat="19.042587" lon="-98.614953">
        <ele>4285.192</ele>
        <time>2021-01-23T16:16:00Z</time>
      </trkpt>
      <trkpt lat="19.042634" lon="-98.614957">
        <ele>4284.794</ele>
        <time>2021-01-23T16:16:10Z</time>
      </trkpt>
      <trkpt lat="19.04268" lon="-98.614945">
        <ele>4284.587</ele>
        <time>2021-01-23T16:16:13Z</time>
      </trkpt>
      <trkpt lat="19.042697" lon="-98.614894">
        <ele>4283.613</ele>
        <time>2021-01-23T16:16:19Z</time>
      </trkpt>
      <trkpt lat="19.042699" lon="-98.614842">
        <ele>4283.881</ele>
        <time>2021-01-23T16:16:23Z</time>
      </trkpt>
      <trkpt lat="19.042711" lon="-98.614792">
        <ele>4283.945</ele>
        <time>2021-01-23T16:16:28Z</time>
      </trkpt>
      <trkpt lat="19.042734" lon="-98.61474">
        <ele>4282.047</ele>
        <time>2021-01-23T16:16:32Z</time>
      </trkpt>
      <trkpt lat="19.042765" lon="-98.614697">
        <ele>4282.011</ele>
        <time>2021-01-23T16:16:36Z</time>
      </trkpt>
      <trkpt lat="19.042798" lon="-98.614661">
        <ele>4282.408</ele>
        <time>2021-01-23T16:16:39Z</time>
      </trkpt>
      <trkpt lat="19.04284" lon="-98.614635">
        <ele>4282.330</ele>
        <time>2021-01-23T16:16:42Z</time>
      </trkpt>
      <trkpt lat="19.042898" lon="-98.61465">
        <ele>4280.998</ele>
        <time>2021-01-23T16:16:45Z</time>
      </trkpt>
      <trkpt lat="19.042898" lon="-98.61465">
        <ele>4280.929</ele>
        <time>2021-01-23T16:16:45Z</time>
      </trkpt>
      <trkpt lat="19.042947" lon="-98.614672">
        <ele>4279.431</ele>
        <time>2021-01-23T16:16:48Z</time>
      </trkpt>
      <trkpt lat="19.042993" lon="-98.614682">
        <ele>4278.913</ele>
        <time>2021-01-23T16:16:51Z</time>
      </trkpt>
      <trkpt lat="19.043041" lon="-98.614667">
        <ele>4277.026</ele>
        <time>2021-01-23T16:16:55Z</time>
      </trkpt>
      <trkpt lat="19.043088" lon="-98.614685">
        <ele>4274.752</ele>
        <time>2021-01-23T16:16:59Z</time>
      </trkpt>
      <trkpt lat="19.043136" lon="-98.614698">
        <ele>4274.140</ele>
        <time>2021-01-23T16:17:03Z</time>
      </trkpt>
      <trkpt lat="19.043193" lon="-98.614694">
        <ele>4272.953</ele>
        <time>2021-01-23T16:17:08Z</time>
      </trkpt>
      <trkpt lat="19.043233" lon="-98.614657">
        <ele>4271.404</ele>
        <time>2021-01-23T16:17:11Z</time>
      </trkpt>
      <trkpt lat="19.043247" lon="-98.614605">
        <ele>4269.714</ele>
        <time>2021-01-23T16:17:14Z</time>
      </trkpt>
      <trkpt lat="19.043277" lon="-98.614563">
        <ele>4268.308</ele>
        <time>2021-01-23T16:17:17Z</time>
      </trkpt>
      <trkpt lat="19.043328" lon="-98.614522">
        <ele>4267.461</ele>
        <time>2021-01-23T16:17:20Z</time>
      </trkpt>
      <trkpt lat="19.043377" lon="-98.614491">
        <ele>4266.949</ele>
        <time>2021-01-23T16:17:22Z</time>
      </trkpt>
      <trkpt lat="19.043435" lon="-98.614474">
        <ele>4266.660</ele>
        <time>2021-01-23T16:17:24Z</time>
      </trkpt>
      <trkpt lat="19.043491" lon="-98.614463">
        <ele>4265.612</ele>
        <time>2021-01-23T16:17:26Z</time>
      </trkpt>
      <trkpt lat="19.043557" lon="-98.614452">
        <ele>4265.064</ele>
        <time>2021-01-23T16:17:29Z</time>
      </trkpt>
      <trkpt lat="19.043605" lon="-98.614462">
        <ele>4263.417</ele>
        <time>2021-01-23T16:17:32Z</time>
      </trkpt>
      <trkpt lat="19.043646" lon="-98.614497">
        <ele>4262.543</ele>
        <time>2021-01-23T16:17:35Z</time>
      </trkpt>
      <trkpt lat="19.043683" lon="-98.614529">
        <ele>4261.981</ele>
        <time>2021-01-23T16:17:40Z</time>
      </trkpt>
      <trkpt lat="19.04373" lon="-98.614545">
        <ele>4258.896</ele>
        <time>2021-01-23T16:17:45Z</time>
      </trkpt>
      <trkpt lat="19.043762" lon="-98.61458">
        <ele>4256.531</ele>
        <time>2021-01-23T16:17:50Z</time>
      </trkpt>
      <trkpt lat="19.043759" lon="-98.614642">
        <ele>4254.324</ele>
        <time>2021-01-23T16:17:54Z</time>
      </trkpt>
      <trkpt lat="19.043762" lon="-98.614698">
        <ele>4252.208</ele>
        <time>2021-01-23T16:17:59Z</time>
      </trkpt>
      <trkpt lat="19.043739" lon="-98.614745">
        <ele>4250.155</ele>
        <time>2021-01-23T16:18:03Z</time>
      </trkpt>
      <trkpt lat="19.043764" lon="-98.614789">
        <ele>4247.743</ele>
        <time>2021-01-23T16:18:07Z</time>
      </trkpt>
      <trkpt lat="19.043806" lon="-98.614831">
        <ele>4246.224</ele>
        <time>2021-01-23T16:18:12Z</time>
      </trkpt>
      <trkpt lat="19.043848" lon="-98.614859">
        <ele>4245.746</ele>
        <time>2021-01-23T16:18:15Z</time>
      </trkpt>
      <trkpt lat="19.043896" lon="-98.614873">
        <ele>4244.688</ele>
        <time>2021-01-23T16:18:20Z</time>
      </trkpt>
      <trkpt lat="19.043896" lon="-98.614873">
        <ele>4244.671</ele>
        <time>2021-01-23T16:18:20Z</time>
      </trkpt>
      <trkpt lat="19.043924" lon="-98.614833">
        <ele>4244.087</ele>
        <time>2021-01-23T16:18:23Z</time>
      </trkpt>
      <trkpt lat="19.043968" lon="-98.614794">
        <ele>4243.255</ele>
        <time>2021-01-23T16:18:28Z</time>
      </trkpt>
      <trkpt lat="19.044012" lon="-98.614779">
        <ele>4242.337</ele>
        <time>2021-01-23T16:18:32Z</time>
      </trkpt>
      <trkpt lat="19.044058" lon="-98.614756">
        <ele>4239.849</ele>
        <time>2021-01-23T16:18:37Z</time>
      </trkpt>
      <trkpt lat="19.044114" lon="-98.614743">
        <ele>4237.913</ele>
        <time>2021-01-23T16:18:43Z</time>
      </trkpt>
      <trkpt lat="19.044154" lon="-98.61471">
        <ele>4235.208</ele>
        <time>2021-01-23T16:18:48Z</time>
      </trkpt>
      <trkpt lat="19.04416" lon="-98.614657">
        <ele>4234.049</ele>
        <time>2021-01-23T16:19:22Z</time>
      </trkpt>
      <trkpt lat="19.044195" lon="-98.61462">
        <ele>4232.547</ele>
        <time>2021-01-23T16:19:31Z</time>
      </trkpt>
      <trkpt lat="19.044239" lon="-98.614598">
        <ele>4230.458</ele>
        <time>2021-01-23T16:19:37Z</time>
      </trkpt>
      <trkpt lat="19.044291" lon="-98.614587">
        <ele>4228.390</ele>
        <time>2021-01-23T16:19:44Z</time>
      </trkpt>
      <trkpt lat="19.044342" lon="-98.614578">
        <ele>4225.522</ele>
        <time>2021-01-23T16:19:51Z</time>
      </trkpt>
      <trkpt lat="19.044388" lon="-98.614559">
        <ele>4223.045</ele>
        <time>2021-01-23T16:20:02Z</time>
      </trkpt>
      <trkpt lat="19.044439" lon="-98.614542">
        <ele>4220.391</ele>
        <time>2021-01-23T16:20:08Z</time>
      </trkpt>
      <trkpt lat="19.044492" lon="-98.614529">
        <ele>4217.939</ele>
        <time>2021-01-23T16:20:13Z</time>
      </trkpt>
      <trkpt lat="19.044549" lon="-98.614524">
        <ele>4216.098</ele>
        <time>2021-01-23T16:20:18Z</time>
      </trkpt>
      <trkpt lat="19.044593" lon="-98.614543">
        <ele>4212.115</ele>
        <time>2021-01-23T16:20:24Z</time>
      </trkpt>
      <trkpt lat="19.044642" lon="-98.614563">
        <ele>4209.026</ele>
        <time>2021-01-23T16:20:33Z</time>
      </trkpt>
      <trkpt lat="19.044689" lon="-98.614579">
        <ele>4206.308</ele>
        <time>2021-01-23T16:20:38Z</time>
      </trkpt>
      <trkpt lat="19.04474" lon="-98.61459">
        <ele>4204.795</ele>
        <time>2021-01-23T16:20:44Z</time>
      </trkpt>
      <trkpt lat="19.044787" lon="-98.614592">
        <ele>4202.913</ele>
        <time>2021-01-23T16:20:49Z</time>
      </trkpt>
      <trkpt lat="19.044837" lon="-98.614595">
        <ele>4200.284</ele>
        <time>2021-01-23T16:20:53Z</time>
      </trkpt>
      <trkpt lat="19.044892" lon="-98.614609">
        <ele>4197.496</ele>
        <time>2021-01-23T16:20:58Z</time>
      </trkpt>
      <trkpt lat="19.044929" lon="-98.614646">
        <ele>4194.158</ele>
        <time>2021-01-23T16:21:04Z</time>
      </trkpt>
      <trkpt lat="19.044977" lon="-98.614638">
        <ele>4190.921</ele>
        <time>2021-01-23T16:21:59Z</time>
      </trkpt>
      <trkpt lat="19.045029" lon="-98.614654">
        <ele>4187.857</ele>
        <time>2021-01-23T16:22:04Z</time>
      </trkpt>
      <trkpt lat="19.04508" lon="-98.614675">
        <ele>4186.325</ele>
        <time>2021-01-23T16:22:09Z</time>
      </trkpt>
      <trkpt lat="19.045123" lon="-98.614704">
        <ele>4183.879</ele>
        <time>2021-01-23T16:22:14Z</time>
      </trkpt>
      <trkpt lat="19.045167" lon="-98.614718">
        <ele>4181.505</ele>
        <time>2021-01-23T16:22:19Z</time>
      </trkpt>
      <trkpt lat="19.045203" lon="-98.61468">
        <ele>4178.925</ele>
        <time>2021-01-23T16:22:23Z</time>
      </trkpt>
      <trkpt lat="19.045237" lon="-98.614641">
        <ele>4177.808</ele>
        <time>2021-01-23T16:22:27Z</time>
      </trkpt>
      <trkpt lat="19.045284" lon="-98.614626">
        <ele>4177.553</ele>
        <time>2021-01-23T16:22:33Z</time>
      </trkpt>
      <trkpt lat="19.04532" lon="-98.614655">
        <ele>4176.181</ele>
        <time>2021-01-23T16:22:39Z</time>
      </trkpt>
      <trkpt lat="19.04536" lon="-98.614617">
        <ele>4175.382</ele>
        <time>2021-01-23T16:22:44Z</time>
      </trkpt>
      <trkpt lat="19.045404" lon="-98.614598">
        <ele>4174.814</ele>
        <time>2021-01-23T16:22:53Z</time>
      </trkpt>
      <trkpt lat="19.045452" lon="-98.614595">
        <ele>4172.966</ele>
        <time>2021-01-23T16:23:02Z</time>
      </trkpt>
      <trkpt lat="19.0455" lon="-98.614612">
        <ele>4170.229</ele>
        <time>2021-01-23T16:23:08Z</time>
      </trkpt>
      <trkpt lat="19.045541" lon="-98.614584">
        <ele>4168.695</ele>
        <time>2021-01-23T16:23:15Z</time>
      </trkpt>
      <trkpt lat="19.045594" lon="-98.614584">
        <ele>4167.233</ele>
        <time>2021-01-23T16:23:22Z</time>
      </trkpt>
      <trkpt lat="19.045631" lon="-98.614555">
        <ele>4164.821</ele>
        <time>2021-01-23T16:23:27Z</time>
      </trkpt>
      <trkpt lat="19.045668" lon="-98.614526">
        <ele>4163.341</ele>
        <time>2021-01-23T16:23:33Z</time>
      </trkpt>
      <trkpt lat="19.045718" lon="-98.614541">
        <ele>4162.005</ele>
        <time>2021-01-23T16:23:40Z</time>
      </trkpt>
      <trkpt lat="19.045758" lon="-98.614508">
        <ele>4161.208</ele>
        <time>2021-01-23T16:23:47Z</time>
      </trkpt>
      <trkpt lat="19.045802" lon="-98.614487">
        <ele>4159.968</ele>
        <time>2021-01-23T16:23:55Z</time>
      </trkpt>
      <trkpt lat="19.045844" lon="-98.614462">
        <ele>4159.536</ele>
        <time>2021-01-23T16:24:03Z</time>
      </trkpt>
      <trkpt lat="19.045896" lon="-98.614456">
        <ele>4158.117</ele>
        <time>2021-01-23T16:24:11Z</time>
      </trkpt>
      <trkpt lat="19.045942" lon="-98.61445">
        <ele>4155.349</ele>
        <time>2021-01-23T16:24:18Z</time>
      </trkpt>
      <trkpt lat="19.04598" lon="-98.614417">
        <ele>4152.431</ele>
        <time>2021-01-23T16:24:25Z</time>
      </trkpt>
      <trkpt lat="19.046024" lon="-98.614399">
        <ele>4149.554</ele>
        <time>2021-01-23T16:24:32Z</time>
      </trkpt>
      <trkpt lat="19.046065" lon="-98.614375">
        <ele>4147.790</ele>
        <time>2021-01-23T16:24:39Z</time>
      </trkpt>
      <trkpt lat="19.046112" lon="-98.614352">
        <ele>4145.418</ele>
        <time>2021-01-23T16:24:45Z</time>
      </trkpt>
      <trkpt lat="19.046156" lon="-98.614313">
        <ele>4143.269</ele>
        <time>2021-01-23T16:24:52Z</time>
      </trkpt>
      <trkpt lat="19.046204" lon="-98.614297">
        <ele>4141.504</ele>
        <time>2021-01-23T16:24:58Z</time>
      </trkpt>
      <trkpt lat="19.046237" lon="-98.614253">
        <ele>4139.724</ele>
        <time>2021-01-23T16:25:03Z</time>
      </trkpt>
      <trkpt lat="19.046284" lon="-98.614269">
        <ele>4138.208</ele>
        <time>2021-01-23T16:25:09Z</time>
      </trkpt>
      <trkpt lat="19.046335" lon="-98.614279">
        <ele>4137.372</ele>
        <time>2021-01-23T16:25:15Z</time>
      </trkpt>
      <trkpt lat="19.046379" lon="-98.614306">
        <ele>4136.410</ele>
        <time>2021-01-23T16:25:21Z</time>
      </trkpt>
      <trkpt lat="19.046424" lon="-98.61428">
        <ele>4137.031</ele>
        <time>2021-01-23T16:25:28Z</time>
      </trkpt>
      <trkpt lat="19.04644" lon="-98.614231">
        <ele>4135.093</ele>
        <time>2021-01-23T16:25:33Z</time>
      </trkpt>
      <trkpt lat="19.046489" lon="-98.614237">
        <ele>4134.275</ele>
        <time>2021-01-23T16:25:44Z</time>
      </trkpt>
      <trkpt lat="19.046522" lon="-98.614202">
        <ele>4132.938</ele>
        <time>2021-01-23T16:25:52Z</time>
      </trkpt>
      <trkpt lat="19.046569" lon="-98.614204">
        <ele>4131.034</ele>
        <time>2021-01-23T16:26:02Z</time>
      </trkpt>
      <trkpt lat="19.046569" lon="-98.614204">
        <ele>4131.052</ele>
        <time>2021-01-23T16:26:02Z</time>
      </trkpt>
      <trkpt lat="19.046617" lon="-98.614189">
        <ele>4130.238</ele>
        <time>2021-01-23T16:26:13Z</time>
      </trkpt>
      <trkpt lat="19.046662" lon="-98.614165">
        <ele>4129.370</ele>
        <time>2021-01-23T16:26:18Z</time>
      </trkpt>
      <trkpt lat="19.046705" lon="-98.614189">
        <ele>4129.617</ele>
        <time>2021-01-23T16:26:24Z</time>
      </trkpt>
      <trkpt lat="19.046746" lon="-98.614216">
        <ele>4131.808</ele>
        <time>2021-01-23T16:26:30Z</time>
      </trkpt>
      <trkpt lat="19.046787" lon="-98.614242">
        <ele>4132.339</ele>
        <time>2021-01-23T16:26:39Z</time>
      </trkpt>
      <trkpt lat="19.0468" lon="-98.613739">
        <ele>4128.357</ele>
        <time>2021-01-23T16:39:23Z</time>
      </trkpt>
      <trkpt lat="19.046762" lon="-98.613982">
        <ele>4124.328</ele>
        <time>2021-01-23T16:39:24Z</time>
      </trkpt>
      <trkpt lat="19.046782" lon="-98.61409">
        <ele>4128.350</ele>
        <time>2021-01-23T16:39:26Z</time>
      </trkpt>
      <trkpt lat="19.047716" lon="-98.613928">
        <ele>4077.712</ele>
        <time>2021-01-23T17:20:04Z</time>
      </trkpt>
      <trkpt lat="19.047723" lon="-98.613875">
        <ele>4094.755</ele>
        <time>2021-01-23T17:20:25Z</time>
      </trkpt>
      <trkpt lat="19.04777" lon="-98.613861">
        <ele>4111.091</ele>
        <time>2021-01-23T17:20:30Z</time>
      </trkpt>
      <trkpt lat="19.047814" lon="-98.613848">
        <ele>4116.379</ele>
        <time>2021-01-23T17:20:34Z</time>
      </trkpt>
      <trkpt lat="19.047829" lon="-98.613795">
        <ele>4112.367</ele>
        <time>2021-01-23T17:20:38Z</time>
      </trkpt>
      <trkpt lat="19.047863" lon="-98.61375">
        <ele>4108.381</ele>
        <time>2021-01-23T17:20:43Z</time>
      </trkpt>
      <trkpt lat="19.047906" lon="-98.613708">
        <ele>4104.319</ele>
        <time>2021-01-23T17:20:48Z</time>
      </trkpt>
      <trkpt lat="19.047952" lon="-98.613699">
        <ele>4100.308</ele>
        <time>2021-01-23T17:20:53Z</time>
      </trkpt>
      <trkpt lat="19.048002" lon="-98.613684">
        <ele>4096.352</ele>
        <time>2021-01-23T17:20:57Z</time>
      </trkpt>
      <trkpt lat="19.048037" lon="-98.613641">
        <ele>4092.310</ele>
        <time>2021-01-23T17:21:01Z</time>
      </trkpt>
      <trkpt lat="19.04808" lon="-98.613604">
        <ele>4088.391</ele>
        <time>2021-01-23T17:21:05Z</time>
      </trkpt>
      <trkpt lat="19.048121" lon="-98.613581">
        <ele>4084.393</ele>
        <time>2021-01-23T17:21:09Z</time>
      </trkpt>
      <trkpt lat="19.048167" lon="-98.613571">
        <ele>4080.645</ele>
        <time>2021-01-23T17:21:13Z</time>
      </trkpt>
      <trkpt lat="19.048212" lon="-98.613529">
        <ele>4077.638</ele>
        <time>2021-01-23T17:21:17Z</time>
      </trkpt>
      <trkpt lat="19.04826" lon="-98.613503">
        <ele>4075.844</ele>
        <time>2021-01-23T17:21:21Z</time>
      </trkpt>
      <trkpt lat="19.048312" lon="-98.61349">
        <ele>4074.352</ele>
        <time>2021-01-23T17:21:25Z</time>
      </trkpt>
      <trkpt lat="19.048353" lon="-98.61347">
        <ele>4072.614</ele>
        <time>2021-01-23T17:21:29Z</time>
      </trkpt>
      <trkpt lat="19.0484" lon="-98.613477">
        <ele>4072.454</ele>
        <time>2021-01-23T17:21:33Z</time>
      </trkpt>
      <trkpt lat="19.048446" lon="-98.613437">
        <ele>4071.909</ele>
        <time>2021-01-23T17:21:38Z</time>
      </trkpt>
      <trkpt lat="19.048493" lon="-98.613415">
        <ele>4070.808</ele>
        <time>2021-01-23T17:21:42Z</time>
      </trkpt>
      <trkpt lat="19.048548" lon="-98.613391">
        <ele>4070.117</ele>
        <time>2021-01-23T17:21:47Z</time>
      </trkpt>
      <trkpt lat="19.048593" lon="-98.613373">
        <ele>4069.755</ele>
        <time>2021-01-23T17:21:51Z</time>
      </trkpt>
      <trkpt lat="19.048649" lon="-98.613358">
        <ele>4067.916</ele>
        <time>2021-01-23T17:21:55Z</time>
      </trkpt>
      <trkpt lat="19.048704" lon="-98.613347">
        <ele>4066.078</ele>
        <time>2021-01-23T17:22:00Z</time>
      </trkpt>
      <trkpt lat="19.048748" lon="-98.613318">
        <ele>4064.540</ele>
        <time>2021-01-23T17:22:06Z</time>
      </trkpt>
      <trkpt lat="19.048782" lon="-98.613275">
        <ele>4063.613</ele>
        <time>2021-01-23T17:22:12Z</time>
      </trkpt>
      <trkpt lat="19.048827" lon="-98.613271">
        <ele>4062.239</ele>
        <time>2021-01-23T17:22:16Z</time>
      </trkpt>
      <trkpt lat="19.048872" lon="-98.613271">
        <ele>4060.217</ele>
        <time>2021-01-23T17:22:20Z</time>
      </trkpt>
      <trkpt lat="19.04892" lon="-98.613254">
        <ele>4055.112</ele>
        <time>2021-01-23T17:22:24Z</time>
      </trkpt>
      <trkpt lat="19.04892" lon="-98.613254">
        <ele>4055.132</ele>
        <time>2021-01-23T17:22:24Z</time>
      </trkpt>
      <trkpt lat="19.048974" lon="-98.613244">
        <ele>4054.705</ele>
        <time>2021-01-23T17:22:28Z</time>
      </trkpt>
      <trkpt lat="19.049026" lon="-98.613237">
        <ele>4055.308</ele>
        <time>2021-01-23T17:22:33Z</time>
      </trkpt>
      <trkpt lat="19.049082" lon="-98.613233">
        <ele>4055.777</ele>
        <time>2021-01-23T17:22:38Z</time>
      </trkpt>
      <trkpt lat="19.049136" lon="-98.613231">
        <ele>4055.195</ele>
        <time>2021-01-23T17:22:42Z</time>
      </trkpt>
      <trkpt lat="19.049184" lon="-98.61322">
        <ele>4053.986</ele>
        <time>2021-01-23T17:22:45Z</time>
      </trkpt>
      <trkpt lat="19.049228" lon="-98.613205">
        <ele>4052.828</ele>
        <time>2021-01-23T17:22:48Z</time>
      </trkpt>
      <trkpt lat="19.049282" lon="-98.613195">
        <ele>4051.340</ele>
        <time>2021-01-23T17:22:52Z</time>
      </trkpt>
      <trkpt lat="19.049331" lon="-98.613202">
        <ele>4049.213</ele>
        <time>2021-01-23T17:22:55Z</time>
      </trkpt>
      <trkpt lat="19.049376" lon="-98.613216">
        <ele>4046.849</ele>
        <time>2021-01-23T17:22:58Z</time>
      </trkpt>
      <trkpt lat="19.049424" lon="-98.613231">
        <ele>4044.917</ele>
        <time>2021-01-23T17:23:03Z</time>
      </trkpt>
      <trkpt lat="19.049469" lon="-98.613238">
        <ele>4043.098</ele>
        <time>2021-01-23T17:23:07Z</time>
      </trkpt>
      <trkpt lat="19.049515" lon="-98.61324">
        <ele>4041.415</ele>
        <time>2021-01-23T17:23:11Z</time>
      </trkpt>
      <trkpt lat="19.049566" lon="-98.613232">
        <ele>4039.726</ele>
        <time>2021-01-23T17:23:16Z</time>
      </trkpt>
      <trkpt lat="19.049612" lon="-98.613235">
        <ele>4036.708</ele>
        <time>2021-01-23T17:23:20Z</time>
      </trkpt>
      <trkpt lat="19.049661" lon="-98.613225">
        <ele>4034.575</ele>
        <time>2021-01-23T17:23:24Z</time>
      </trkpt>
      <trkpt lat="19.049716" lon="-98.613223">
        <ele>4032.443</ele>
        <time>2021-01-23T17:23:29Z</time>
      </trkpt>
      <trkpt lat="19.049762" lon="-98.613223">
        <ele>4030.784</ele>
        <time>2021-01-23T17:23:32Z</time>
      </trkpt>
      <trkpt lat="19.049808" lon="-98.613223">
        <ele>4029.796</ele>
        <time>2021-01-23T17:23:37Z</time>
      </trkpt>
      <trkpt lat="19.049852" lon="-98.61321">
        <ele>4029.178</ele>
        <time>2021-01-23T17:23:42Z</time>
      </trkpt>
      <trkpt lat="19.049912" lon="-98.61322">
        <ele>4027.971</ele>
        <time>2021-01-23T17:23:47Z</time>
      </trkpt>
      <trkpt lat="19.049953" lon="-98.613245">
        <ele>4027.657</ele>
        <time>2021-01-23T17:23:52Z</time>
      </trkpt>
      <trkpt lat="19.049995" lon="-98.613264">
        <ele>4027.055</ele>
        <time>2021-01-23T17:23:57Z</time>
      </trkpt>
      <trkpt lat="19.050031" lon="-98.613296">
        <ele>4027.114</ele>
        <time>2021-01-23T17:24:03Z</time>
      </trkpt>
      <trkpt lat="19.050074" lon="-98.613317">
        <ele>4027.554</ele>
        <time>2021-01-23T17:24:08Z</time>
      </trkpt>
      <trkpt lat="19.050105" lon="-98.61336">
        <ele>4027.809</ele>
        <time>2021-01-23T17:24:16Z</time>
      </trkpt>
      <trkpt lat="19.050098" lon="-98.613301">
        <ele>4028.408</ele>
        <time>2021-01-23T17:24:58Z</time>
      </trkpt>
      <trkpt lat="19.050134" lon="-98.613262">
        <ele>4029.557</ele>
        <time>2021-01-23T17:25:02Z</time>
      </trkpt>
      <trkpt lat="19.050161" lon="-98.613222">
        <ele>4030.275</ele>
        <time>2021-01-23T17:25:06Z</time>
      </trkpt>
      <trkpt lat="19.050175" lon="-98.613176">
        <ele>4029.856</ele>
        <time>2021-01-23T17:25:10Z</time>
      </trkpt>
      <trkpt lat="19.050203" lon="-98.613136">
        <ele>4029.628</ele>
        <time>2021-01-23T17:25:16Z</time>
      </trkpt>
      <trkpt lat="19.050236" lon="-98.613101">
        <ele>4028.380</ele>
        <time>2021-01-23T17:25:24Z</time>
      </trkpt>
      <trkpt lat="19.050231" lon="-98.61305">
        <ele>4027.973</ele>
        <time>2021-01-23T17:25:29Z</time>
      </trkpt>
      <trkpt lat="19.050255" lon="-98.612995">
        <ele>4026.559</ele>
        <time>2021-01-23T17:25:33Z</time>
      </trkpt>
      <trkpt lat="19.050291" lon="-98.612959">
        <ele>4025.197</ele>
        <time>2021-01-23T17:25:36Z</time>
      </trkpt>
      <trkpt lat="19.050291" lon="-98.612959">
        <ele>4025.136</ele>
        <time>2021-01-23T17:25:36Z</time>
      </trkpt>
      <trkpt lat="19.050342" lon="-98.612937">
        <ele>4023.617</ele>
        <time>2021-01-23T17:25:41Z</time>
      </trkpt>
      <trkpt lat="19.050384" lon="-98.612959">
        <ele>4022.318</ele>
        <time>2021-01-23T17:25:45Z</time>
      </trkpt>
      <trkpt lat="19.050429" lon="-98.612961">
        <ele>4021.108</ele>
        <time>2021-01-23T17:25:48Z</time>
      </trkpt>
      <trkpt lat="19.050472" lon="-98.61298">
        <ele>4019.699</ele>
        <time>2021-01-23T17:25:52Z</time>
      </trkpt>
      <trkpt lat="19.050523" lon="-98.61296">
        <ele>4017.577</ele>
        <time>2021-01-23T17:25:58Z</time>
      </trkpt>
      <trkpt lat="19.050579" lon="-98.612959">
        <ele>4016.258</ele>
        <time>2021-01-23T17:26:02Z</time>
      </trkpt>
      <trkpt lat="19.050592" lon="-98.613018">
        <ele>4013.810</ele>
        <time>2021-01-23T17:26:08Z</time>
      </trkpt>
      <trkpt lat="19.050631" lon="-98.613049">
        <ele>4010.442</ele>
        <time>2021-01-23T17:26:14Z</time>
      </trkpt>
      <trkpt lat="19.050665" lon="-98.613085">
        <ele>4007.215</ele>
        <time>2021-01-23T17:26:19Z</time>
      </trkpt>
      <trkpt lat="19.050689" lon="-98.613135">
        <ele>4005.761</ele>
        <time>2021-01-23T17:26:24Z</time>
      </trkpt>
      <trkpt lat="19.050702" lon="-98.613191">
        <ele>4002.419</ele>
        <time>2021-01-23T17:26:28Z</time>
      </trkpt>
      <trkpt lat="19.050754" lon="-98.613214">
        <ele>3998.448</ele>
        <time>2021-01-23T17:26:32Z</time>
      </trkpt>
      <trkpt lat="19.050799" lon="-98.613222">
        <ele>3995.861</ele>
        <time>2021-01-23T17:26:35Z</time>
      </trkpt>
      <trkpt lat="19.050799" lon="-98.613222">
        <ele>3995.817</ele>
        <time>2021-01-23T17:26:35Z</time>
      </trkpt>
      <trkpt lat="19.050847" lon="-98.613254">
        <ele>3994.808</ele>
        <time>2021-01-23T17:26:38Z</time>
      </trkpt>
      <trkpt lat="19.050888" lon="-98.613276">
        <ele>3994.270</ele>
        <time>2021-01-23T17:26:42Z</time>
      </trkpt>
      <trkpt lat="19.050935" lon="-98.613296">
        <ele>3993.058</ele>
        <time>2021-01-23T17:26:46Z</time>
      </trkpt>
      <trkpt lat="19.050981" lon="-98.613331">
        <ele>3991.179</ele>
        <time>2021-01-23T17:26:50Z</time>
      </trkpt>
      <trkpt lat="19.051025" lon="-98.613347">
        <ele>3988.021</ele>
        <time>2021-01-23T17:27:22Z</time>
      </trkpt>
      <trkpt lat="19.051073" lon="-98.613363">
        <ele>3985.773</ele>
        <time>2021-01-23T17:27:27Z</time>
      </trkpt>
      <trkpt lat="19.051118" lon="-98.61339">
        <ele>3983.996</ele>
        <time>2021-01-23T17:27:31Z</time>
      </trkpt>
      <trkpt lat="19.051138" lon="-98.613437">
        <ele>3980.432</ele>
        <time>2021-01-23T17:27:40Z</time>
      </trkpt>
      <trkpt lat="19.051175" lon="-98.613473">
        <ele>3977.560</ele>
        <time>2021-01-23T17:27:49Z</time>
      </trkpt>
      <trkpt lat="19.051222" lon="-98.613489">
        <ele>3974.282</ele>
        <time>2021-01-23T17:27:58Z</time>
      </trkpt>
      <trkpt lat="19.051256" lon="-98.613527">
        <ele>3970.243</ele>
        <time>2021-01-23T17:28:04Z</time>
      </trkpt>
      <trkpt lat="19.051273" lon="-98.613574">
        <ele>3967.017</ele>
        <time>2021-01-23T17:28:10Z</time>
      </trkpt>
      <trkpt lat="19.0513" lon="-98.613617">
        <ele>3965.108</ele>
        <time>2021-01-23T17:28:16Z</time>
      </trkpt>
      <trkpt lat="19.051348" lon="-98.613634">
        <ele>3963.984</ele>
        <time>2021-01-23T17:28:20Z</time>
      </trkpt>
      <trkpt lat="19.051376" lon="-98.613675">
        <ele>3962.072</ele>
        <time>2021-01-23T17:28:24Z</time>
      </trkpt>
      <trkpt lat="19.051421" lon="-98.613707">
        <ele>3960.153</ele>
        <time>2021-01-23T17:28:28Z</time>
      </trkpt>
      <trkpt lat="19.051474" lon="-98.613693">
        <ele>3959.385</ele>
        <time>2021-01-23T17:28:31Z</time>
      </trkpt>
      <trkpt lat="19.051523" lon="-98.613696">
        <ele>3958.447</ele>
        <time>2021-01-23T17:28:35Z</time>
      </trkpt>
      <trkpt lat="19.051566" lon="-98.61372">
        <ele>3956.760</ele>
        <time>2021-01-23T17:28:40Z</time>
      </trkpt>
      <trkpt lat="19.051609" lon="-98.613754">
        <ele>3955.786</ele>
        <time>2021-01-23T17:28:46Z</time>
      </trkpt>
      <trkpt lat="19.051657" lon="-98.613767">
        <ele>3954.374</ele>
        <time>2021-01-23T17:28:52Z</time>
      </trkpt>
      <trkpt lat="19.051699" lon="-98.613743">
        <ele>3954.251</ele>
        <time>2021-01-23T17:28:56Z</time>
      </trkpt>
      <trkpt lat="19.051737" lon="-98.613701">
        <ele>3953.801</ele>
        <time>2021-01-23T17:29:02Z</time>
      </trkpt>
      <trkpt lat="19.051786" lon="-98.613707">
        <ele>3953.911</ele>
        <time>2021-01-23T17:29:06Z</time>
      </trkpt>
      <trkpt lat="19.051837" lon="-98.613692">
        <ele>3954.408</ele>
        <time>2021-01-23T17:29:11Z</time>
      </trkpt>
      <trkpt lat="19.051885" lon="-98.613686">
        <ele>3953.951</ele>
        <time>2021-01-23T17:29:15Z</time>
      </trkpt>
      <trkpt lat="19.051938" lon="-98.613687">
        <ele>3953.659</ele>
        <time>2021-01-23T17:29:21Z</time>
      </trkpt>
      <trkpt lat="19.051988" lon="-98.613696">
        <ele>3953.440</ele>
        <time>2021-01-23T17:29:26Z</time>
      </trkpt>
      <trkpt lat="19.052042" lon="-98.613702">
        <ele>3953.712</ele>
        <time>2021-01-23T17:29:31Z</time>
      </trkpt>
      <trkpt lat="19.052093" lon="-98.613711">
        <ele>3954.724</ele>
        <time>2021-01-23T17:29:35Z</time>
      </trkpt>
      <trkpt lat="19.052136" lon="-98.613739">
        <ele>3954.917</ele>
        <time>2021-01-23T17:29:40Z</time>
      </trkpt>
      <trkpt lat="19.052174" lon="-98.613772">
        <ele>3955.033</ele>
        <time>2021-01-23T17:29:44Z</time>
      </trkpt>
      <trkpt lat="19.052208" lon="-98.613803">
        <ele>3954.731</ele>
        <time>2021-01-23T17:29:50Z</time>
      </trkpt>
      <trkpt lat="19.052256" lon="-98.613788">
        <ele>3953.356</ele>
        <time>2021-01-23T17:30:05Z</time>
      </trkpt>
      <trkpt lat="19.052308" lon="-98.613771">
        <ele>3953.359</ele>
        <time>2021-01-23T17:30:10Z</time>
      </trkpt>
      <trkpt lat="19.052355" lon="-98.613772">
        <ele>3952.114</ele>
        <time>2021-01-23T17:30:15Z</time>
      </trkpt>
      <trkpt lat="19.052406" lon="-98.613772">
        <ele>3952.208</ele>
        <time>2021-01-23T17:30:20Z</time>
      </trkpt>
      <trkpt lat="19.05244" lon="-98.61374">
        <ele>3951.481</ele>
        <time>2021-01-23T17:30:38Z</time>
      </trkpt>
      <trkpt lat="19.052468" lon="-98.613701">
        <ele>3953.349</ele>
        <time>2021-01-23T17:31:45Z</time>
      </trkpt>
      <trkpt lat="19.052518" lon="-98.613696">
        <ele>3954.190</ele>
        <time>2021-01-23T17:31:49Z</time>
      </trkpt>
      <trkpt lat="19.052564" lon="-98.613698">
        <ele>3953.872</ele>
        <time>2021-01-23T17:31:53Z</time>
      </trkpt>
      <trkpt lat="19.052612" lon="-98.6137">
        <ele>3954.094</ele>
        <time>2021-01-23T17:31:58Z</time>
      </trkpt>
      <trkpt lat="19.052663" lon="-98.613716">
        <ele>3952.917</ele>
        <time>2021-01-23T17:32:05Z</time>
      </trkpt>
      <trkpt lat="19.052709" lon="-98.613734">
        <ele>3952.383</ele>
        <time>2021-01-23T17:32:09Z</time>
      </trkpt>
      <trkpt lat="19.052754" lon="-98.613739">
        <ele>3951.561</ele>
        <time>2021-01-23T17:32:13Z</time>
      </trkpt>
      <trkpt lat="19.052801" lon="-98.613745">
        <ele>3951.499</ele>
        <time>2021-01-23T17:32:18Z</time>
      </trkpt>
      <trkpt lat="19.052854" lon="-98.613736">
        <ele>3951.407</ele>
        <time>2021-01-23T17:32:23Z</time>
      </trkpt>
      <trkpt lat="19.052898" lon="-98.613722">
        <ele>3951.827</ele>
        <time>2021-01-23T17:32:27Z</time>
      </trkpt>
      <trkpt lat="19.052948" lon="-98.613716">
        <ele>3952.408</ele>
        <time>2021-01-23T17:32:31Z</time>
      </trkpt>
      <trkpt lat="19.052988" lon="-98.613741">
        <ele>3951.695</ele>
        <time>2021-01-23T17:32:37Z</time>
      </trkpt>
      <trkpt lat="19.05303" lon="-98.613768">
        <ele>3951.143</ele>
        <time>2021-01-23T17:32:43Z</time>
      </trkpt>
      <trkpt lat="19.053075" lon="-98.613769">
        <ele>3950.024</ele>
        <time>2021-01-23T17:32:50Z</time>
      </trkpt>
      <trkpt lat="19.053126" lon="-98.613765">
        <ele>3948.526</ele>
        <time>2021-01-23T17:32:56Z</time>
      </trkpt>
      <trkpt lat="19.053185" lon="-98.613769">
        <ele>3947.678</ele>
        <time>2021-01-23T17:33:01Z</time>
      </trkpt>
      <trkpt lat="19.053228" lon="-98.613782">
        <ele>3946.741</ele>
        <time>2021-01-23T17:33:05Z</time>
      </trkpt>
      <trkpt lat="19.053274" lon="-98.613797">
        <ele>3946.117</ele>
        <time>2021-01-23T17:33:10Z</time>
      </trkpt>
      <trkpt lat="19.053322" lon="-98.613794">
        <ele>3945.445</ele>
        <time>2021-01-23T17:33:18Z</time>
      </trkpt>
      <trkpt lat="19.053368" lon="-98.613802">
        <ele>3944.646</ele>
        <time>2021-01-23T17:33:25Z</time>
      </trkpt>
      <trkpt lat="19.0534" lon="-98.613837">
        <ele>3944.588</ele>
        <time>2021-01-23T17:33:29Z</time>
      </trkpt>
      <trkpt lat="19.053443" lon="-98.613865">
        <ele>3944.416</ele>
        <time>2021-01-23T17:33:33Z</time>
      </trkpt>
      <trkpt lat="19.053479" lon="-98.613896">
        <ele>3943.708</ele>
        <time>2021-01-23T17:33:38Z</time>
      </trkpt>
      <trkpt lat="19.053479" lon="-98.613896">
        <ele>3943.720</ele>
        <time>2021-01-23T17:33:38Z</time>
      </trkpt>
      <trkpt lat="19.053529" lon="-98.613887">
        <ele>3944.378</ele>
        <time>2021-01-23T17:33:46Z</time>
      </trkpt>
      <trkpt lat="19.053567" lon="-98.613922">
        <ele>3945.179</ele>
        <time>2021-01-23T17:33:50Z</time>
      </trkpt>
      <trkpt lat="19.053609" lon="-98.613955">
        <ele>3945.251</ele>
        <time>2021-01-23T17:33:55Z</time>
      </trkpt>
      <trkpt lat="19.053605" lon="-98.614005">
        <ele>3946.043</ele>
        <time>2021-01-23T17:34:07Z</time>
      </trkpt>
      <trkpt lat="19.053639" lon="-98.614048">
        <ele>3946.116</ele>
        <time>2021-01-23T17:34:12Z</time>
      </trkpt>
      <trkpt lat="19.053672" lon="-98.614086">
        <ele>3944.272</ele>
        <time>2021-01-23T17:34:17Z</time>
      </trkpt>
      <trkpt lat="19.053718" lon="-98.614111">
        <ele>3941.830</ele>
        <time>2021-01-23T17:34:22Z</time>
      </trkpt>
      <trkpt lat="19.053752" lon="-98.614147">
        <ele>3939.664</ele>
        <time>2021-01-23T17:34:26Z</time>
      </trkpt>
      <trkpt lat="19.053793" lon="-98.61418">
        <ele>3937.906</ele>
        <time>2021-01-23T17:34:30Z</time>
      </trkpt>
      <trkpt lat="19.053832" lon="-98.614206">
        <ele>3933.716</ele>
        <time>2021-01-23T17:34:36Z</time>
      </trkpt>
      <trkpt lat="19.053832" lon="-98.614206">
        <ele>3933.708</ele>
        <time>2021-01-23T17:34:36Z</time>
      </trkpt>
      <trkpt lat="19.053868" lon="-98.614239">
        <ele>3932.412</ele>
        <time>2021-01-23T17:34:43Z</time>
      </trkpt>
      <trkpt lat="19.053914" lon="-98.614253">
        <ele>3930.070</ele>
        <time>2021-01-23T17:34:51Z</time>
      </trkpt>
      <trkpt lat="19.053958" lon="-98.614239">
        <ele>3927.431</ele>
        <time>2021-01-23T17:34:56Z</time>
      </trkpt>
      <trkpt lat="19.054004" lon="-98.61423">
        <ele>3925.463</ele>
        <time>2021-01-23T17:35:02Z</time>
      </trkpt>
      <trkpt lat="19.054046" lon="-98.614265">
        <ele>3923.595</ele>
        <time>2021-01-23T17:35:08Z</time>
      </trkpt>
      <trkpt lat="19.054046" lon="-98.614265">
        <ele>3923.548</ele>
        <time>2021-01-23T17:35:08Z</time>
      </trkpt>
      <trkpt lat="19.054087" lon="-98.614286">
        <ele>3923.534</ele>
        <time>2021-01-23T17:35:13Z</time>
      </trkpt>
      <trkpt lat="19.054111" lon="-98.614326">
        <ele>3924.162</ele>
        <time>2021-01-23T17:35:20Z</time>
      </trkpt>
      <trkpt lat="19.054111" lon="-98.614326">
        <ele>3924.151</ele>
        <time>2021-01-23T17:35:20Z</time>
      </trkpt>
      <trkpt lat="19.054138" lon="-98.614367">
        <ele>3923.801</ele>
        <time>2021-01-23T17:35:31Z</time>
      </trkpt>
      <trkpt lat="19.054182" lon="-98.614389">
        <ele>3922.011</ele>
        <time>2021-01-23T17:35:38Z</time>
      </trkpt>
      <trkpt lat="19.054232" lon="-98.614383">
        <ele>3921.308</ele>
        <time>2021-01-23T17:35:48Z</time>
      </trkpt>
      <trkpt lat="19.054277" lon="-98.61437">
        <ele>3920.931</ele>
        <time>2021-01-23T17:35:53Z</time>
      </trkpt>
      <trkpt lat="19.054323" lon="-98.614366">
        <ele>3920.799</ele>
        <time>2021-01-23T17:36:02Z</time>
      </trkpt>
      <trkpt lat="19.054373" lon="-98.614364">
        <ele>3919.420</ele>
        <time>2021-01-23T17:36:09Z</time>
      </trkpt>
      <trkpt lat="19.054425" lon="-98.614375">
        <ele>3918.252</ele>
        <time>2021-01-23T17:36:14Z</time>
      </trkpt>
      <trkpt lat="19.054474" lon="-98.614368">
        <ele>3917.534</ele>
        <time>2021-01-23T17:36:21Z</time>
      </trkpt>
      <trkpt lat="19.054523" lon="-98.614378">
        <ele>3916.827</ele>
        <time>2021-01-23T17:36:37Z</time>
      </trkpt>
      <trkpt lat="19.054523" lon="-98.614378">
        <ele>3916.853</ele>
        <time>2021-01-23T17:36:37Z</time>
      </trkpt>
      <trkpt lat="19.054553" lon="-98.614414">
        <ele>3915.881</ele>
        <time>2021-01-23T17:36:42Z</time>
      </trkpt>
      <trkpt lat="19.05458" lon="-98.614452">
        <ele>3915.564</ele>
        <time>2021-01-23T17:36:45Z</time>
      </trkpt>
      <trkpt lat="19.05458" lon="-98.614452">
        <ele>3915.506</ele>
        <time>2021-01-23T17:36:45Z</time>
      </trkpt>
      <trkpt lat="19.054617" lon="-98.614489">
        <ele>3915.416</ele>
        <time>2021-01-23T17:36:49Z</time>
      </trkpt>
      <trkpt lat="19.054653" lon="-98.614518">
        <ele>3914.608</ele>
        <time>2021-01-23T17:36:55Z</time>
      </trkpt>
      <trkpt lat="19.054694" lon="-98.614538">
        <ele>3914.542</ele>
        <time>2021-01-23T17:37:02Z</time>
      </trkpt>
      <trkpt lat="19.054727" lon="-98.614573">
        <ele>3914.460</ele>
        <time>2021-01-23T17:37:07Z</time>
      </trkpt>
      <trkpt lat="19.054764" lon="-98.614603">
        <ele>3914.471</ele>
        <time>2021-01-23T17:37:16Z</time>
      </trkpt>
      <trkpt lat="19.054811" lon="-98.614587">
        <ele>3911.653</ele>
        <time>2021-01-23T17:37:23Z</time>
      </trkpt>
      <trkpt lat="19.054862" lon="-98.614586">
        <ele>3908.795</ele>
        <time>2021-01-23T17:37:38Z</time>
      </trkpt>
      <trkpt lat="19.054904" lon="-98.614603">
        <ele>3906.688</ele>
        <time>2021-01-23T17:37:43Z</time>
      </trkpt>
      <trkpt lat="19.054945" lon="-98.614622">
        <ele>3905.324</ele>
        <time>2021-01-23T17:37:49Z</time>
      </trkpt>
      <trkpt lat="19.054991" lon="-98.614639">
        <ele>3904.122</ele>
        <time>2021-01-23T17:37:54Z</time>
      </trkpt>
      <trkpt lat="19.055036" lon="-98.614654">
        <ele>3902.696</ele>
        <time>2021-01-23T17:38:00Z</time>
      </trkpt>
      <trkpt lat="19.055076" lon="-98.614679">
        <ele>3901.731</ele>
        <time>2021-01-23T17:38:15Z</time>
      </trkpt>
      <trkpt lat="19.055101" lon="-98.614722">
        <ele>3900.824</ele>
        <time>2021-01-23T17:38:23Z</time>
      </trkpt>
      <trkpt lat="19.055149" lon="-98.614732">
        <ele>3899.408</ele>
        <time>2021-01-23T17:38:32Z</time>
      </trkpt>
      <trkpt lat="19.055196" lon="-98.614728">
        <ele>3897.545</ele>
        <time>2021-01-23T17:38:37Z</time>
      </trkpt>
      <trkpt lat="19.055196" lon="-98.614728">
        <ele>3897.533</ele>
        <time>2021-01-23T17:38:37Z</time>
      </trkpt>
      <trkpt lat="19.055243" lon="-98.614726">
        <ele>3897.184</ele>
        <time>2021-01-23T17:38:47Z</time>
      </trkpt>
      <trkpt lat="19.055261" lon="-98.61468">
        <ele>3895.226</ele>
        <time>2021-01-23T17:39:20Z</time>
      </trkpt>
      <trkpt lat="19.055311" lon="-98.614692">
        <ele>3892.958</ele>
        <time>2021-01-23T17:40:48Z</time>
      </trkpt>
      <trkpt lat="19.055354" lon="-98.614731">
        <ele>3890.721</ele>
        <time>2021-01-23T17:40:54Z</time>
      </trkpt>
      <trkpt lat="19.055399" lon="-98.614748">
        <ele>3889.427</ele>
        <time>2021-01-23T17:40:59Z</time>
      </trkpt>
      <trkpt lat="19.055447" lon="-98.614736">
        <ele>3887.895</ele>
        <time>2021-01-23T17:41:05Z</time>
      </trkpt>
      <trkpt lat="19.05548" lon="-98.614768">
        <ele>3884.439</ele>
        <time>2021-01-23T17:41:15Z</time>
      </trkpt>
      <trkpt lat="19.05548" lon="-98.614768">
        <ele>3884.401</ele>
        <time>2021-01-23T17:41:15Z</time>
      </trkpt>
      <trkpt lat="19.055532" lon="-98.614785">
        <ele>3883.621</ele>
        <time>2021-01-23T17:41:22Z</time>
      </trkpt>
      <trkpt lat="19.055577" lon="-98.614779">
        <ele>3881.608</ele>
        <time>2021-01-23T17:41:34Z</time>
      </trkpt>
      <trkpt lat="19.055577" lon="-98.614779">
        <ele>3881.679</ele>
        <time>2021-01-23T17:41:34Z</time>
      </trkpt>
      <trkpt lat="19.055622" lon="-98.614788">
        <ele>3880.767</ele>
        <time>2021-01-23T17:41:47Z</time>
      </trkpt>
      <trkpt lat="19.055671" lon="-98.61481">
        <ele>3879.088</ele>
        <time>2021-01-23T17:41:54Z</time>
      </trkpt>
      <trkpt lat="19.055718" lon="-98.614797">
        <ele>3876.790</ele>
        <time>2021-01-23T17:42:01Z</time>
      </trkpt>
      <trkpt lat="19.055718" lon="-98.614797">
        <ele>3876.742</ele>
        <time>2021-01-23T17:42:01Z</time>
      </trkpt>
      <trkpt lat="19.055771" lon="-98.614783">
        <ele>3875.825</ele>
        <time>2021-01-23T17:42:05Z</time>
      </trkpt>
      <trkpt lat="19.055795" lon="-98.614826">
        <ele>3876.511</ele>
        <time>2021-01-23T17:42:16Z</time>
      </trkpt>
      <trkpt lat="19.055822" lon="-98.614867">
        <ele>3875.399</ele>
        <time>2021-01-23T17:42:23Z</time>
      </trkpt>
      <trkpt lat="19.055862" lon="-98.614896">
        <ele>3873.034</ele>
        <time>2021-01-23T17:42:29Z</time>
      </trkpt>
      <trkpt lat="19.055913" lon="-98.61491">
        <ele>3872.455</ele>
        <time>2021-01-23T17:42:34Z</time>
      </trkpt>
      <trkpt lat="19.055954" lon="-98.614937">
        <ele>3871.210</ele>
        <time>2021-01-23T17:42:39Z</time>
      </trkpt>
      <trkpt lat="19.055982" lon="-98.614975">
        <ele>3869.308</ele>
        <time>2021-01-23T17:42:46Z</time>
      </trkpt>
      <trkpt lat="19.055983" lon="-98.615027">
        <ele>3868.239</ele>
        <time>2021-01-23T17:42:53Z</time>
      </trkpt>
      <trkpt lat="19.056038" lon="-98.615033">
        <ele>3862.037</ele>
        <time>2021-01-23T17:43:15Z</time>
      </trkpt>
      <trkpt lat="19.056038" lon="-98.615033">
        <ele>3862.038</ele>
        <time>2021-01-23T17:43:15Z</time>
      </trkpt>
      <trkpt lat="19.056081" lon="-98.615049">
        <ele>3859.060</ele>
        <time>2021-01-23T17:43:20Z</time>
      </trkpt>
      <trkpt lat="19.056125" lon="-98.615077">
        <ele>3856.092</ele>
        <time>2021-01-23T17:43:25Z</time>
      </trkpt>
      <trkpt lat="19.056174" lon="-98.615084">
        <ele>3852.565</ele>
        <time>2021-01-23T17:43:31Z</time>
      </trkpt>
      <trkpt lat="19.056174" lon="-98.615084">
        <ele>3852.531</ele>
        <time>2021-01-23T17:43:31Z</time>
      </trkpt>
      <trkpt lat="19.056221" lon="-98.615077">
        <ele>3851.759</ele>
        <time>2021-01-23T17:43:39Z</time>
      </trkpt>
      <trkpt lat="19.056271" lon="-98.61509">
        <ele>3852.825</ele>
        <time>2021-01-23T17:43:44Z</time>
      </trkpt>
      <trkpt lat="19.056316" lon="-98.615102">
        <ele>3853.526</ele>
        <time>2021-01-23T17:43:48Z</time>
      </trkpt>
      <trkpt lat="19.056369" lon="-98.615119">
        <ele>3854.708</ele>
        <time>2021-01-23T17:43:53Z</time>
      </trkpt>
      <trkpt lat="19.056414" lon="-98.615134">
        <ele>3853.908</ele>
        <time>2021-01-23T17:43:59Z</time>
      </trkpt>
      <trkpt lat="19.056414" lon="-98.615134">
        <ele>3853.918</ele>
        <time>2021-01-23T17:43:59Z</time>
      </trkpt>
      <trkpt lat="19.056453" lon="-98.615163">
        <ele>3854.116</ele>
        <time>2021-01-23T17:44:04Z</time>
      </trkpt>
      <trkpt lat="19.056496" lon="-98.615179">
        <ele>3853.827</ele>
        <time>2021-01-23T17:44:37Z</time>
      </trkpt>
      <trkpt lat="19.05654" lon="-98.615202">
        <ele>3852.039</ele>
        <time>2021-01-23T17:44:40Z</time>
      </trkpt>
      <trkpt lat="19.056586" lon="-98.615215">
        <ele>3850.541</ele>
        <time>2021-01-23T17:44:43Z</time>
      </trkpt>
      <trkpt lat="19.056635" lon="-98.615224">
        <ele>3849.294</ele>
        <time>2021-01-23T17:44:48Z</time>
      </trkpt>
      <trkpt lat="19.056678" lon="-98.615242">
        <ele>3847.330</ele>
        <time>2021-01-23T17:44:52Z</time>
      </trkpt>
      <trkpt lat="19.056678" lon="-98.615242">
        <ele>3847.368</ele>
        <time>2021-01-23T17:44:52Z</time>
      </trkpt>
      <trkpt lat="19.056725" lon="-98.615254">
        <ele>3845.736</ele>
        <time>2021-01-23T17:45:06Z</time>
      </trkpt>
      <trkpt lat="19.056765" lon="-98.615277">
        <ele>3844.317</ele>
        <time>2021-01-23T17:45:15Z</time>
      </trkpt>
      <trkpt lat="19.056815" lon="-98.615288">
        <ele>3840.318</ele>
        <time>2021-01-23T17:45:24Z</time>
      </trkpt>
      <trkpt lat="19.056856" lon="-98.615254">
        <ele>3836.708</ele>
        <time>2021-01-23T17:45:28Z</time>
      </trkpt>
      <trkpt lat="19.056894" lon="-98.615224">
        <ele>3837.139</ele>
        <time>2021-01-23T17:45:32Z</time>
      </trkpt>
      <trkpt lat="19.056894" lon="-98.615224">
        <ele>3837.157</ele>
        <time>2021-01-23T17:45:32Z</time>
      </trkpt>
      <trkpt lat="19.056939" lon="-98.61521">
        <ele>3836.898</ele>
        <time>2021-01-23T17:45:36Z</time>
      </trkpt>
      <trkpt lat="19.056986" lon="-98.615212">
        <ele>3835.420</ele>
        <time>2021-01-23T17:45:41Z</time>
      </trkpt>
      <trkpt lat="19.057035" lon="-98.615218">
        <ele>3833.032</ele>
        <time>2021-01-23T17:45:45Z</time>
      </trkpt>
      <trkpt lat="19.057092" lon="-98.615221">
        <ele>3831.115</ele>
        <time>2021-01-23T17:45:49Z</time>
      </trkpt>
      <trkpt lat="19.057139" lon="-98.615206">
        <ele>3830.681</ele>
        <time>2021-01-23T17:45:55Z</time>
      </trkpt>
      <trkpt lat="19.057139" lon="-98.615206">
        <ele>3830.629</ele>
        <time>2021-01-23T17:45:55Z</time>
      </trkpt>
      <trkpt lat="19.057187" lon="-98.615224">
        <ele>3830.996</ele>
        <time>2021-01-23T17:46:04Z</time>
      </trkpt>
      <trkpt lat="19.057238" lon="-98.615246">
        <ele>3831.131</ele>
        <time>2021-01-23T17:46:09Z</time>
      </trkpt>
      <trkpt lat="19.057282" lon="-98.615256">
        <ele>3830.424</ele>
        <time>2021-01-23T17:46:12Z</time>
      </trkpt>
      <trkpt lat="19.057331" lon="-98.61526">
        <ele>3830.408</ele>
        <time>2021-01-23T17:46:15Z</time>
      </trkpt>
      <trkpt lat="19.057383" lon="-98.615247">
        <ele>3829.685</ele>
        <time>2021-01-23T17:46:20Z</time>
      </trkpt>
      <trkpt lat="19.057371" lon="-98.6152">
        <ele>3828.333</ele>
        <time>2021-01-23T17:46:38Z</time>
      </trkpt>
      <trkpt lat="19.057319" lon="-98.6152">
        <ele>3827.124</ele>
        <time>2021-01-23T17:46:43Z</time>
      </trkpt>
      <trkpt lat="19.057373" lon="-98.615191">
        <ele>3824.456</ele>
        <time>2021-01-23T17:49:54Z</time>
      </trkpt>
      <trkpt lat="19.057422" lon="-98.615213">
        <ele>3822.848</ele>
        <time>2021-01-23T17:49:57Z</time>
      </trkpt>
      <trkpt lat="19.057477" lon="-98.615219">
        <ele>3821.841</ele>
        <time>2021-01-23T17:50:02Z</time>
      </trkpt>
      <trkpt lat="19.057527" lon="-98.615236">
        <ele>3822.437</ele>
        <time>2021-01-23T17:50:05Z</time>
      </trkpt>
      <trkpt lat="19.057587" lon="-98.615229">
        <ele>3822.445</ele>
        <time>2021-01-23T17:50:08Z</time>
      </trkpt>
      <trkpt lat="19.057637" lon="-98.615212">
        <ele>3822.889</ele>
        <time>2021-01-23T17:50:11Z</time>
      </trkpt>
      <trkpt lat="19.057697" lon="-98.615204">
        <ele>3822.206</ele>
        <time>2021-01-23T17:50:14Z</time>
      </trkpt>
      <trkpt lat="19.057755" lon="-98.615196">
        <ele>3821.926</ele>
        <time>2021-01-23T17:50:19Z</time>
      </trkpt>
      <trkpt lat="19.057804" lon="-98.615206">
        <ele>3822.508</ele>
        <time>2021-01-23T17:50:24Z</time>
      </trkpt>
      <trkpt lat="19.057854" lon="-98.615211">
        <ele>3822.174</ele>
        <time>2021-01-23T17:50:29Z</time>
      </trkpt>
      <trkpt lat="19.057884" lon="-98.615166">
        <ele>3820.692</ele>
        <time>2021-01-23T17:50:34Z</time>
      </trkpt>
      <trkpt lat="19.057894" lon="-98.615107">
        <ele>3819.723</ele>
        <time>2021-01-23T17:50:38Z</time>
      </trkpt>
      <trkpt lat="19.057935" lon="-98.615082">
        <ele>3819.245</ele>
        <time>2021-01-23T17:50:41Z</time>
      </trkpt>
      <trkpt lat="19.057982" lon="-98.615079">
        <ele>3819.767</ele>
        <time>2021-01-23T17:50:45Z</time>
      </trkpt>
      <trkpt lat="19.058044" lon="-98.615074">
        <ele>3818.870</ele>
        <time>2021-01-23T17:50:50Z</time>
      </trkpt>
      <trkpt lat="19.058099" lon="-98.615077">
        <ele>3817.596</ele>
        <time>2021-01-23T17:51:06Z</time>
      </trkpt>
      <trkpt lat="19.058143" lon="-98.615059">
        <ele>3814.734</ele>
        <time>2021-01-23T17:51:10Z</time>
      </trkpt>
      <trkpt lat="19.058196" lon="-98.615057">
        <ele>3813.015</ele>
        <time>2021-01-23T17:51:14Z</time>
      </trkpt>
      <trkpt lat="19.058244" lon="-98.61505">
        <ele>3811.265</ele>
        <time>2021-01-23T17:51:17Z</time>
      </trkpt>
      <trkpt lat="19.058299" lon="-98.615029">
        <ele>3810.111</ele>
        <time>2021-01-23T17:51:21Z</time>
      </trkpt>
      <trkpt lat="19.058349" lon="-98.615012">
        <ele>3809.408</ele>
        <time>2021-01-23T17:51:25Z</time>
      </trkpt>
      <trkpt lat="19.058398" lon="-98.614992">
        <ele>3808.227</ele>
        <time>2021-01-23T17:51:29Z</time>
      </trkpt>
      <trkpt lat="19.058443" lon="-98.614976">
        <ele>3807.565</ele>
        <time>2021-01-23T17:51:33Z</time>
      </trkpt>
      <trkpt lat="19.05849" lon="-98.614945">
        <ele>3804.396</ele>
        <time>2021-01-23T17:51:37Z</time>
      </trkpt>
      <trkpt lat="19.058519" lon="-98.6149">
        <ele>3801.228</ele>
        <time>2021-01-23T17:51:42Z</time>
      </trkpt>
      <trkpt lat="19.058556" lon="-98.61487">
        <ele>3798.130</ele>
        <time>2021-01-23T17:51:47Z</time>
      </trkpt>
      <trkpt lat="19.058603" lon="-98.61487">
        <ele>3797.593</ele>
        <time>2021-01-23T17:51:55Z</time>
      </trkpt>
      <trkpt lat="19.058652" lon="-98.614858">
        <ele>3797.969</ele>
        <time>2021-01-23T17:52:00Z</time>
      </trkpt>
      <trkpt lat="19.058698" lon="-98.614851">
        <ele>3798.997</ele>
        <time>2021-01-23T17:52:04Z</time>
      </trkpt>
      <trkpt lat="19.058746" lon="-98.614836">
        <ele>3800.382</ele>
        <time>2021-01-23T17:52:08Z</time>
      </trkpt>
      <trkpt lat="19.058794" lon="-98.614812">
        <ele>3800.843</ele>
        <time>2021-01-23T17:52:12Z</time>
      </trkpt>
      <trkpt lat="19.058844" lon="-98.614797">
        <ele>3800.317</ele>
        <time>2021-01-23T17:52:18Z</time>
      </trkpt>
      <trkpt lat="19.058888" lon="-98.614785">
        <ele>3801.208</ele>
        <time>2021-01-23T17:52:22Z</time>
      </trkpt>
      <trkpt lat="19.058933" lon="-98.614771">
        <ele>3800.994</ele>
        <time>2021-01-23T17:52:25Z</time>
      </trkpt>
      <trkpt lat="19.058989" lon="-98.614758">
        <ele>3801.172</ele>
        <time>2021-01-23T17:52:29Z</time>
      </trkpt>
      <trkpt lat="19.059042" lon="-98.614754">
        <ele>3801.293</ele>
        <time>2021-01-23T17:52:33Z</time>
      </trkpt>
      <trkpt lat="19.059087" lon="-98.614743">
        <ele>3801.715</ele>
        <time>2021-01-23T17:52:37Z</time>
      </trkpt>
      <trkpt lat="19.059134" lon="-98.61475">
        <ele>3799.697</ele>
        <time>2021-01-23T17:52:55Z</time>
      </trkpt>
      <trkpt lat="19.059188" lon="-98.614749">
        <ele>3799.980</ele>
        <time>2021-01-23T17:53:01Z</time>
      </trkpt>
      <trkpt lat="19.059234" lon="-98.614772">
        <ele>3801.536</ele>
        <time>2021-01-23T17:53:05Z</time>
      </trkpt>
      <trkpt lat="19.059234" lon="-98.614772">
        <ele>3801.584</ele>
        <time>2021-01-23T17:53:05Z</time>
      </trkpt>
      <trkpt lat="19.059275" lon="-98.614806">
        <ele>3801.962</ele>
        <time>2021-01-23T17:53:08Z</time>
      </trkpt>
      <trkpt lat="19.059321" lon="-98.614816">
        <ele>3800.183</ele>
        <time>2021-01-23T17:53:12Z</time>
      </trkpt>
      <trkpt lat="19.059357" lon="-98.614778">
        <ele>3796.111</ele>
        <time>2021-01-23T17:53:18Z</time>
      </trkpt>
      <trkpt lat="19.059391" lon="-98.614739">
        <ele>3793.808</ele>
        <time>2021-01-23T17:53:23Z</time>
      </trkpt>
      <trkpt lat="19.059435" lon="-98.614722">
        <ele>3791.662</ele>
        <time>2021-01-23T17:53:28Z</time>
      </trkpt>
      <trkpt lat="19.059486" lon="-98.614718">
        <ele>3791.940</ele>
        <time>2021-01-23T17:53:33Z</time>
      </trkpt>
      <trkpt lat="19.05954" lon="-98.614709">
        <ele>3791.741</ele>
        <time>2021-01-23T17:53:37Z</time>
      </trkpt>
      <trkpt lat="19.059593" lon="-98.614712">
        <ele>3792.053</ele>
        <time>2021-01-23T17:53:41Z</time>
      </trkpt>
      <trkpt lat="19.059643" lon="-98.61471">
        <ele>3791.025</ele>
        <time>2021-01-23T17:53:46Z</time>
      </trkpt>
      <trkpt lat="19.059695" lon="-98.614706">
        <ele>3790.458</ele>
        <time>2021-01-23T17:53:52Z</time>
      </trkpt>
      <trkpt lat="19.059738" lon="-98.614735">
        <ele>3790.894</ele>
        <time>2021-01-23T17:53:56Z</time>
      </trkpt>
      <trkpt lat="19.059773" lon="-98.614777">
        <ele>3791.982</ele>
        <time>2021-01-23T17:54:01Z</time>
      </trkpt>
      <trkpt lat="19.059807" lon="-98.614815">
        <ele>3792.595</ele>
        <time>2021-01-23T17:54:06Z</time>
      </trkpt>
      <trkpt lat="19.059842" lon="-98.614851">
        <ele>3791.749</ele>
        <time>2021-01-23T17:54:14Z</time>
      </trkpt>
      <trkpt lat="19.059887" lon="-98.614867">
        <ele>3791.223</ele>
        <time>2021-01-23T17:54:19Z</time>
      </trkpt>
      <trkpt lat="19.05994" lon="-98.614881">
        <ele>3791.308</ele>
        <time>2021-01-23T17:54:23Z</time>
      </trkpt>
      <trkpt lat="19.059989" lon="-98.614886">
        <ele>3790.225</ele>
        <time>2021-01-23T17:54:27Z</time>
      </trkpt>
      <trkpt lat="19.060039" lon="-98.614877">
        <ele>3789.583</ele>
        <time>2021-01-23T17:54:32Z</time>
      </trkpt>
      <trkpt lat="19.060089" lon="-98.614896">
        <ele>3790.864</ele>
        <time>2021-01-23T17:54:38Z</time>
      </trkpt>
      <trkpt lat="19.060089" lon="-98.614896">
        <ele>3790.856</ele>
        <time>2021-01-23T17:54:38Z</time>
      </trkpt>
      <trkpt lat="19.060143" lon="-98.614898">
        <ele>3789.988</ele>
        <time>2021-01-23T17:54:43Z</time>
      </trkpt>
      <trkpt lat="19.06019" lon="-98.614907">
        <ele>3789.421</ele>
        <time>2021-01-23T17:54:49Z</time>
      </trkpt>
      <trkpt lat="19.060229" lon="-98.614943">
        <ele>3789.557</ele>
        <time>2021-01-23T17:54:57Z</time>
      </trkpt>
      <trkpt lat="19.060228" lon="-98.615007">
        <ele>3789.975</ele>
        <time>2021-01-23T17:55:01Z</time>
      </trkpt>
      <trkpt lat="19.060223" lon="-98.615065">
        <ele>3789.856</ele>
        <time>2021-01-23T17:55:05Z</time>
      </trkpt>
      <trkpt lat="19.060245" lon="-98.615114">
        <ele>3790.159</ele>
        <time>2021-01-23T17:55:08Z</time>
      </trkpt>
      <trkpt lat="19.060274" lon="-98.615161">
        <ele>3790.314</ele>
        <time>2021-01-23T17:55:11Z</time>
      </trkpt>
      <trkpt lat="19.060299" lon="-98.615202">
        <ele>3790.008</ele>
        <time>2021-01-23T17:55:15Z</time>
      </trkpt>
      <trkpt lat="19.060324" lon="-98.615245">
        <ele>3789.431</ele>
        <time>2021-01-23T17:55:19Z</time>
      </trkpt>
      <trkpt lat="19.060331" lon="-98.615292">
        <ele>3790.759</ele>
        <time>2021-01-23T17:55:26Z</time>
      </trkpt>
      <trkpt lat="19.060326" lon="-98.61534">
        <ele>3791.130</ele>
        <time>2021-01-23T17:55:39Z</time>
      </trkpt>
      <trkpt lat="19.060316" lon="-98.615395">
        <ele>3790.142</ele>
        <time>2021-01-23T17:56:30Z</time>
      </trkpt>
      <trkpt lat="19.060298" lon="-98.615454">
        <ele>3787.544</ele>
        <time>2021-01-23T17:56:35Z</time>
      </trkpt>
      <trkpt lat="19.060288" lon="-98.615504">
        <ele>3786.347</ele>
        <time>2021-01-23T17:56:38Z</time>
      </trkpt>
      <trkpt lat="19.060293" lon="-98.615561">
        <ele>3785.673</ele>
        <time>2021-01-23T17:56:42Z</time>
      </trkpt>
      <trkpt lat="19.060295" lon="-98.615615">
        <ele>3786.831</ele>
        <time>2021-01-23T17:56:47Z</time>
      </trkpt>
      <trkpt lat="19.060287" lon="-98.615669">
        <ele>3787.122</ele>
        <time>2021-01-23T17:56:54Z</time>
      </trkpt>
      <trkpt lat="19.060249" lon="-98.6157">
        <ele>3786.562</ele>
        <time>2021-01-23T17:56:59Z</time>
      </trkpt>
      <trkpt lat="19.060207" lon="-98.61574">
        <ele>3784.908</ele>
        <time>2021-01-23T17:57:03Z</time>
      </trkpt>
      <trkpt lat="19.060176" lon="-98.615785">
        <ele>3784.408</ele>
        <time>2021-01-23T17:57:06Z</time>
      </trkpt>
      <trkpt lat="19.06016" lon="-98.615832">
        <ele>3784.538</ele>
        <time>2021-01-23T17:57:11Z</time>
      </trkpt>
      <trkpt lat="19.060208" lon="-98.615865">
        <ele>3785.396</ele>
        <time>2021-01-23T17:57:16Z</time>
      </trkpt>
      <trkpt lat="19.060238" lon="-98.615901">
        <ele>3787.037</ele>
        <time>2021-01-23T17:57:19Z</time>
      </trkpt>
      <trkpt lat="19.060284" lon="-98.61592">
        <ele>3788.099</ele>
        <time>2021-01-23T17:57:23Z</time>
      </trkpt>
      <trkpt lat="19.060309" lon="-98.61596">
        <ele>3788.251</ele>
        <time>2021-01-23T17:57:28Z</time>
      </trkpt>
      <trkpt lat="19.06036" lon="-98.615972">
        <ele>3786.354</ele>
        <time>2021-01-23T17:58:08Z</time>
      </trkpt>
      <trkpt lat="19.060411" lon="-98.615964">
        <ele>3785.680</ele>
        <time>2021-01-23T17:58:14Z</time>
      </trkpt>
      <trkpt lat="19.060452" lon="-98.615985">
        <ele>3785.288</ele>
        <time>2021-01-23T17:58:18Z</time>
      </trkpt>
      <trkpt lat="19.060495" lon="-98.616005">
        <ele>3785.346</ele>
        <time>2021-01-23T17:58:22Z</time>
      </trkpt>
      <trkpt lat="19.060541" lon="-98.616003">
        <ele>3785.488</ele>
        <time>2021-01-23T17:58:27Z</time>
      </trkpt>
      <trkpt lat="19.060541" lon="-98.616003">
        <ele>3785.416</ele>
        <time>2021-01-23T17:58:27Z</time>
      </trkpt>
      <trkpt lat="19.060588" lon="-98.616003">
        <ele>3785.408</ele>
        <time>2021-01-23T17:58:31Z</time>
      </trkpt>
      <trkpt lat="19.060628" lon="-98.616032">
        <ele>3785.020</ele>
        <time>2021-01-23T17:58:36Z</time>
      </trkpt>
      <trkpt lat="19.060665" lon="-98.616072">
        <ele>3784.028</ele>
        <time>2021-01-23T17:58:41Z</time>
      </trkpt>
      <trkpt lat="19.060709" lon="-98.616107">
        <ele>3783.079</ele>
        <time>2021-01-23T17:58:45Z</time>
      </trkpt>
      <trkpt lat="19.060709" lon="-98.616107">
        <ele>3783.041</ele>
        <time>2021-01-23T17:58:45Z</time>
      </trkpt>
      <trkpt lat="19.060736" lon="-98.616146">
        <ele>3781.673</ele>
        <time>2021-01-23T17:58:48Z</time>
      </trkpt>
      <trkpt lat="19.060756" lon="-98.616194">
        <ele>3779.996</ele>
        <time>2021-01-23T17:58:53Z</time>
      </trkpt>
      <trkpt lat="19.060787" lon="-98.616246">
        <ele>3780.962</ele>
        <time>2021-01-23T17:58:59Z</time>
      </trkpt>
      <trkpt lat="19.060787" lon="-98.616246">
        <ele>3780.950</ele>
        <time>2021-01-23T17:58:59Z</time>
      </trkpt>
      <trkpt lat="19.060822" lon="-98.616291">
        <ele>3780.391</ele>
        <time>2021-01-23T17:59:03Z</time>
      </trkpt>
      <trkpt lat="19.060859" lon="-98.616323">
        <ele>3780.081</ele>
        <time>2021-01-23T17:59:07Z</time>
      </trkpt>
      <trkpt lat="19.060903" lon="-98.616352">
        <ele>3778.619</ele>
        <time>2021-01-23T17:59:11Z</time>
      </trkpt>
      <trkpt lat="19.060948" lon="-98.616373">
        <ele>3776.608</ele>
        <time>2021-01-23T17:59:16Z</time>
      </trkpt>
      <trkpt lat="19.060996" lon="-98.616395">
        <ele>3776.215</ele>
        <time>2021-01-23T17:59:22Z</time>
      </trkpt>
      <trkpt lat="19.061042" lon="-98.616391">
        <ele>3776.383</ele>
        <time>2021-01-23T17:59:29Z</time>
      </trkpt>
      <trkpt lat="19.061093" lon="-98.616389">
        <ele>3778.494</ele>
        <time>2021-01-23T17:59:35Z</time>
      </trkpt>
      <trkpt lat="19.061144" lon="-98.616381">
        <ele>3778.536</ele>
        <time>2021-01-23T17:59:40Z</time>
      </trkpt>
      <trkpt lat="19.061189" lon="-98.616378">
        <ele>3776.668</ele>
        <time>2021-01-23T17:59:45Z</time>
      </trkpt>
      <trkpt lat="19.061189" lon="-98.616378">
        <ele>3776.661</ele>
        <time>2021-01-23T17:59:45Z</time>
      </trkpt>
      <trkpt lat="19.061229" lon="-98.616351">
        <ele>3773.057</ele>
        <time>2021-01-23T17:59:58Z</time>
      </trkpt>
      <trkpt lat="19.061276" lon="-98.616358">
        <ele>3770.045</ele>
        <time>2021-01-23T18:00:05Z</time>
      </trkpt>
      <trkpt lat="19.061336" lon="-98.616351">
        <ele>3769.466</ele>
        <time>2021-01-23T18:00:09Z</time>
      </trkpt>
      <trkpt lat="19.061389" lon="-98.616365">
        <ele>3766.629</ele>
        <time>2021-01-23T18:00:13Z</time>
      </trkpt>
      <trkpt lat="19.061437" lon="-98.616382">
        <ele>3763.721</ele>
        <time>2021-01-23T18:00:18Z</time>
      </trkpt>
      <trkpt lat="19.061486" lon="-98.616389">
        <ele>3762.008</ele>
        <time>2021-01-23T18:00:25Z</time>
      </trkpt>
      <trkpt lat="19.061531" lon="-98.616375">
        <ele>3761.492</ele>
        <time>2021-01-23T18:00:34Z</time>
      </trkpt>
      <trkpt lat="19.061572" lon="-98.616345">
        <ele>3759.820</ele>
        <time>2021-01-23T18:00:41Z</time>
      </trkpt>
      <trkpt lat="19.061613" lon="-98.616324">
        <ele>3758.951</ele>
        <time>2021-01-23T18:01:53Z</time>
      </trkpt>
      <trkpt lat="19.061613" lon="-98.616324">
        <ele>3758.983</ele>
        <time>2021-01-23T18:01:53Z</time>
      </trkpt>
      <trkpt lat="19.061655" lon="-98.616306">
        <ele>3760.725</ele>
        <time>2021-01-23T18:01:57Z</time>
      </trkpt>
      <trkpt lat="19.061687" lon="-98.616267">
        <ele>3761.018</ele>
        <time>2021-01-23T18:02:02Z</time>
      </trkpt>
      <trkpt lat="19.061712" lon="-98.616221">
        <ele>3762.424</ele>
        <time>2021-01-23T18:02:09Z</time>
      </trkpt>
      <trkpt lat="19.061739" lon="-98.616183">
        <ele>3761.272</ele>
        <time>2021-01-23T18:02:14Z</time>
      </trkpt>
      <trkpt lat="19.061773" lon="-98.616151">
        <ele>3760.142</ele>
        <time>2021-01-23T18:02:18Z</time>
      </trkpt>
      <trkpt lat="19.061773" lon="-98.616151">
        <ele>3760.122</ele>
        <time>2021-01-23T18:02:18Z</time>
      </trkpt>
      <trkpt lat="19.061812" lon="-98.616122">
        <ele>3760.214</ele>
        <time>2021-01-23T18:02:23Z</time>
      </trkpt>
      <trkpt lat="19.06186" lon="-98.616115">
        <ele>3760.308</ele>
        <time>2021-01-23T18:02:27Z</time>
      </trkpt>
      <trkpt lat="19.061905" lon="-98.616105">
        <ele>3761.230</ele>
        <time>2021-01-23T18:02:31Z</time>
      </trkpt>
      <trkpt lat="19.061954" lon="-98.61609">
        <ele>3760.998</ele>
        <time>2021-01-23T18:02:35Z</time>
      </trkpt>
      <trkpt lat="19.061999" lon="-98.616069">
        <ele>3761.179</ele>
        <time>2021-01-23T18:02:40Z</time>
      </trkpt>
      <trkpt lat="19.062046" lon="-98.616056">
        <ele>3761.691</ele>
        <time>2021-01-23T18:02:47Z</time>
      </trkpt>
      <trkpt lat="19.062092" lon="-98.61606">
        <ele>3759.953</ele>
        <time>2021-01-23T18:02:58Z</time>
      </trkpt>
      <trkpt lat="19.062075" lon="-98.616107">
        <ele>3758.156</ele>
        <time>2021-01-23T18:03:04Z</time>
      </trkpt>
      <trkpt lat="19.062042" lon="-98.61614">
        <ele>3756.272</ele>
        <time>2021-01-23T18:03:10Z</time>
      </trkpt>
      <trkpt lat="19.062093" lon="-98.616138">
        <ele>3754.410</ele>
        <time>2021-01-23T18:03:22Z</time>
      </trkpt>
      <trkpt lat="19.062093" lon="-98.616138">
        <ele>3754.463</ele>
        <time>2021-01-23T18:03:22Z</time>
      </trkpt>
      <trkpt lat="19.062135" lon="-98.616157">
        <ele>3752.044</ele>
        <time>2021-01-23T18:03:27Z</time>
      </trkpt>
      <trkpt lat="19.062181" lon="-98.616173">
        <ele>3749.818</ele>
        <time>2021-01-23T18:03:31Z</time>
      </trkpt>
      <trkpt lat="19.062226" lon="-98.61618">
        <ele>3748.108</ele>
        <time>2021-01-23T18:03:35Z</time>
      </trkpt>
      <trkpt lat="19.06227" lon="-98.616194">
        <ele>3747.142</ele>
        <time>2021-01-23T18:03:40Z</time>
      </trkpt>
      <trkpt lat="19.062306" lon="-98.616223">
        <ele>3746.550</ele>
        <time>2021-01-23T18:03:52Z</time>
      </trkpt>
      <trkpt lat="19.062352" lon="-98.616224">
        <ele>3746.151</ele>
        <time>2021-01-23T18:04:09Z</time>
      </trkpt>
      <trkpt lat="19.06241" lon="-98.616206">
        <ele>3745.953</ele>
        <time>2021-01-23T18:04:13Z</time>
      </trkpt>
      <trkpt lat="19.062466" lon="-98.61619">
        <ele>3745.495</ele>
        <time>2021-01-23T18:04:16Z</time>
      </trkpt>
      <trkpt lat="19.062516" lon="-98.616167">
        <ele>3745.538</ele>
        <time>2021-01-23T18:04:19Z</time>
      </trkpt>
      <trkpt lat="19.062561" lon="-98.616139">
        <ele>3746.384</ele>
        <time>2021-01-23T18:04:22Z</time>
      </trkpt>
      <trkpt lat="19.0626" lon="-98.616111">
        <ele>3748.492</ele>
        <time>2021-01-23T18:04:25Z</time>
      </trkpt>
      <trkpt lat="19.0626" lon="-98.616111">
        <ele>3748.439</ele>
        <time>2021-01-23T18:04:25Z</time>
      </trkpt>
      <trkpt lat="19.062634" lon="-98.61608">
        <ele>3744.701</ele>
        <time>2021-01-23T18:04:29Z</time>
      </trkpt>
      <trkpt lat="19.062634" lon="-98.61608">
        <ele>3744.721</ele>
        <time>2021-01-23T18:04:29Z</time>
      </trkpt>
      <trkpt lat="19.062681" lon="-98.616077">
        <ele>3743.908</ele>
        <time>2021-01-23T18:04:34Z</time>
      </trkpt>
      <trkpt lat="19.062726" lon="-98.61607">
        <ele>3742.279</ele>
        <time>2021-01-23T18:04:39Z</time>
      </trkpt>
      <trkpt lat="19.062778" lon="-98.61605">
        <ele>3739.227</ele>
        <time>2021-01-23T18:04:44Z</time>
      </trkpt>
      <trkpt lat="19.062823" lon="-98.616032">
        <ele>3738.238</ele>
        <time>2021-01-23T18:04:48Z</time>
      </trkpt>
      <trkpt lat="19.062875" lon="-98.616017">
        <ele>3739.240</ele>
        <time>2021-01-23T18:04:53Z</time>
      </trkpt>
      <trkpt lat="19.062923" lon="-98.615993">
        <ele>3740.242</ele>
        <time>2021-01-23T18:04:57Z</time>
      </trkpt>
      <trkpt lat="19.062967" lon="-98.615972">
        <ele>3740.455</ele>
        <time>2021-01-23T18:05:01Z</time>
      </trkpt>
      <trkpt lat="19.063003" lon="-98.615932">
        <ele>3740.531</ele>
        <time>2021-01-23T18:05:07Z</time>
      </trkpt>
      <trkpt lat="19.063021" lon="-98.615871">
        <ele>3740.239</ele>
        <time>2021-01-23T18:05:13Z</time>
      </trkpt>
      <trkpt lat="19.063046" lon="-98.615823">
        <ele>3740.053</ele>
        <time>2021-01-23T18:05:16Z</time>
      </trkpt>
      <trkpt lat="19.063074" lon="-98.615775">
        <ele>3741.104</ele>
        <time>2021-01-23T18:05:18Z</time>
      </trkpt>
      <trkpt lat="19.06309" lon="-98.61573">
        <ele>3741.314</ele>
        <time>2021-01-23T18:05:21Z</time>
      </trkpt>
      <trkpt lat="19.06311" lon="-98.615682">
        <ele>3742.208</ele>
        <time>2021-01-23T18:05:29Z</time>
      </trkpt>
      <trkpt lat="19.063136" lon="-98.61564">
        <ele>3740.881</ele>
        <time>2021-01-23T18:05:35Z</time>
      </trkpt>
      <trkpt lat="19.063187" lon="-98.615619">
        <ele>3739.549</ele>
        <time>2021-01-23T18:05:41Z</time>
      </trkpt>
      <trkpt lat="19.063238" lon="-98.615617">
        <ele>3738.790</ele>
        <time>2021-01-23T18:05:46Z</time>
      </trkpt>
      <trkpt lat="19.063284" lon="-98.615599">
        <ele>3738.232</ele>
        <time>2021-01-23T18:05:51Z</time>
      </trkpt>
      <trkpt lat="19.063329" lon="-98.615584">
        <ele>3734.354</ele>
        <time>2021-01-23T18:05:58Z</time>
      </trkpt>
      <trkpt lat="19.063373" lon="-98.615558">
        <ele>3732.017</ele>
        <time>2021-01-23T18:06:07Z</time>
      </trkpt>
      <trkpt lat="19.06342" lon="-98.615552">
        <ele>3729.433</ele>
        <time>2021-01-23T18:06:18Z</time>
      </trkpt>
      <trkpt lat="19.063384" lon="-98.615592">
        <ele>3727.061</ele>
        <time>2021-01-23T18:06:28Z</time>
      </trkpt>
      <trkpt lat="19.063336" lon="-98.615599">
        <ele>3725.259</ele>
        <time>2021-01-23T18:06:36Z</time>
      </trkpt>
      <trkpt lat="19.063289" lon="-98.615624">
        <ele>3723.303</ele>
        <time>2021-01-23T18:06:43Z</time>
      </trkpt>
      <trkpt lat="19.063262" lon="-98.615669">
        <ele>3724.623</ele>
        <time>2021-01-23T18:06:49Z</time>
      </trkpt>
      <trkpt lat="19.063241" lon="-98.615711">
        <ele>3725.008</ele>
        <time>2021-01-23T18:06:55Z</time>
      </trkpt>
      <trkpt lat="19.063216" lon="-98.615752">
        <ele>3725.651</ele>
        <time>2021-01-23T18:07:00Z</time>
      </trkpt>
      <trkpt lat="19.06324" lon="-98.615805">
        <ele>3726.489</ele>
        <time>2021-01-23T18:07:05Z</time>
      </trkpt>
      <trkpt lat="19.063266" lon="-98.615845">
        <ele>3727.730</ele>
        <time>2021-01-23T18:07:08Z</time>
      </trkpt>
      <trkpt lat="19.063294" lon="-98.615891">
        <ele>3727.382</ele>
        <time>2021-01-23T18:07:12Z</time>
      </trkpt>
      <trkpt lat="19.06332" lon="-98.615946">
        <ele>3727.864</ele>
        <time>2021-01-23T18:07:16Z</time>
      </trkpt>
      <trkpt lat="19.063356" lon="-98.615981">
        <ele>3727.367</ele>
        <time>2021-01-23T18:07:21Z</time>
      </trkpt>
      <trkpt lat="19.063405" lon="-98.615999">
        <ele>3726.693</ele>
        <time>2021-01-23T18:07:25Z</time>
      </trkpt>
      <trkpt lat="19.063456" lon="-98.616011">
        <ele>3726.211</ele>
        <time>2021-01-23T18:07:30Z</time>
      </trkpt>
      <trkpt lat="19.063506" lon="-98.616009">
        <ele>3726.034</ele>
        <time>2021-01-23T18:07:35Z</time>
      </trkpt>
      <trkpt lat="19.063551" lon="-98.615996">
        <ele>3727.555</ele>
        <time>2021-01-23T18:07:39Z</time>
      </trkpt>
      <trkpt lat="19.063605" lon="-98.61598">
        <ele>3728.410</ele>
        <time>2021-01-23T18:07:44Z</time>
      </trkpt>
      <trkpt lat="19.063652" lon="-98.615963">
        <ele>3728.908</ele>
        <time>2021-01-23T18:07:49Z</time>
      </trkpt>
      <trkpt lat="19.063699" lon="-98.615988">
        <ele>3728.489</ele>
        <time>2021-01-23T18:07:54Z</time>
      </trkpt>
      <trkpt lat="19.063749" lon="-98.615961">
        <ele>3726.977</ele>
        <time>2021-01-23T18:08:01Z</time>
      </trkpt>
      <trkpt lat="19.06378" lon="-98.615923">
        <ele>3726.098</ele>
        <time>2021-01-23T18:08:04Z</time>
      </trkpt>
      <trkpt lat="19.063819" lon="-98.615887">
        <ele>3724.760</ele>
        <time>2021-01-23T18:08:09Z</time>
      </trkpt>
      <trkpt lat="19.063866" lon="-98.61587">
        <ele>3723.552</ele>
        <time>2021-01-23T18:08:14Z</time>
      </trkpt>
      <trkpt lat="19.063912" lon="-98.615871">
        <ele>3721.695</ele>
        <time>2021-01-23T18:08:18Z</time>
      </trkpt>
      <trkpt lat="19.063962" lon="-98.615877">
        <ele>3722.021</ele>
        <time>2021-01-23T18:08:23Z</time>
      </trkpt>
      <trkpt lat="19.064006" lon="-98.6159">
        <ele>3722.399</ele>
        <time>2021-01-23T18:08:28Z</time>
      </trkpt>
      <trkpt lat="19.064059" lon="-98.615912">
        <ele>3721.731</ele>
        <time>2021-01-23T18:08:33Z</time>
      </trkpt>
      <trkpt lat="19.064111" lon="-98.615887">
        <ele>3721.361</ele>
        <time>2021-01-23T18:08:38Z</time>
      </trkpt>
      <trkpt lat="19.064156" lon="-98.61588">
        <ele>3721.107</ele>
        <time>2021-01-23T18:08:42Z</time>
      </trkpt>
      <trkpt lat="19.064207" lon="-98.615853">
        <ele>3721.008</ele>
        <time>2021-01-23T18:08:47Z</time>
      </trkpt>
      <trkpt lat="19.064244" lon="-98.615811">
        <ele>3719.359</ele>
        <time>2021-01-23T18:08:52Z</time>
      </trkpt>
      <trkpt lat="19.064268" lon="-98.615762">
        <ele>3719.977</ele>
        <time>2021-01-23T18:08:57Z</time>
      </trkpt>
      <trkpt lat="19.064288" lon="-98.615713">
        <ele>3719.188</ele>
        <time>2021-01-23T18:09:03Z</time>
      </trkpt>
      <trkpt lat="19.064329" lon="-98.615683">
        <ele>3717.430</ele>
        <time>2021-01-23T18:09:11Z</time>
      </trkpt>
      <trkpt lat="19.064356" lon="-98.615636">
        <ele>3716.052</ele>
        <time>2021-01-23T18:09:17Z</time>
      </trkpt>
      <trkpt lat="19.06439" lon="-98.615592">
        <ele>3715.115</ele>
        <time>2021-01-23T18:09:22Z</time>
      </trkpt>
      <trkpt lat="19.064429" lon="-98.615566">
        <ele>3714.631</ele>
        <time>2021-01-23T18:09:27Z</time>
      </trkpt>
      <trkpt lat="19.064468" lon="-98.615538">
        <ele>3714.339</ele>
        <time>2021-01-23T18:09:33Z</time>
      </trkpt>
      <trkpt lat="19.064494" lon="-98.615488">
        <ele>3713.723</ele>
        <time>2021-01-23T18:09:39Z</time>
      </trkpt>
      <trkpt lat="19.064517" lon="-98.615441">
        <ele>3711.783</ele>
        <time>2021-01-23T18:09:44Z</time>
      </trkpt>
      <trkpt lat="19.064534" lon="-98.615393">
        <ele>3709.811</ele>
        <time>2021-01-23T18:09:49Z</time>
      </trkpt>
      <trkpt lat="19.064534" lon="-98.615393">
        <ele>3709.808</ele>
        <time>2021-01-23T18:09:49Z</time>
      </trkpt>
      <trkpt lat="19.064554" lon="-98.615341">
        <ele>3709.088</ele>
        <time>2021-01-23T18:09:57Z</time>
      </trkpt>
      <trkpt lat="19.064594" lon="-98.615299">
        <ele>3709.356</ele>
        <time>2021-01-23T18:10:01Z</time>
      </trkpt>
      <trkpt lat="19.064629" lon="-98.61525">
        <ele>3709.567</ele>
        <time>2021-01-23T18:10:05Z</time>
      </trkpt>
      <trkpt lat="19.064664" lon="-98.615213">
        <ele>3708.819</ele>
        <time>2021-01-23T18:10:10Z</time>
      </trkpt>
      <trkpt lat="19.0647" lon="-98.615176">
        <ele>3707.651</ele>
        <time>2021-01-23T18:10:15Z</time>
      </trkpt>
      <trkpt lat="19.064739" lon="-98.615145">
        <ele>3704.914</ele>
        <time>2021-01-23T18:10:21Z</time>
      </trkpt>
      <trkpt lat="19.064768" lon="-98.615107">
        <ele>3701.780</ele>
        <time>2021-01-23T18:10:39Z</time>
      </trkpt>
      <trkpt lat="19.064808" lon="-98.61507">
        <ele>3698.698</ele>
        <time>2021-01-23T18:10:44Z</time>
      </trkpt>
      <trkpt lat="19.064845" lon="-98.615041">
        <ele>3697.143</ele>
        <time>2021-01-23T18:10:47Z</time>
      </trkpt>
      <trkpt lat="19.064895" lon="-98.615016">
        <ele>3696.664</ele>
        <time>2021-01-23T18:10:50Z</time>
      </trkpt>
      <trkpt lat="19.064939" lon="-98.615002">
        <ele>3695.510</ele>
        <time>2021-01-23T18:10:53Z</time>
      </trkpt>
      <trkpt lat="19.064986" lon="-98.614967">
        <ele>3694.808</ele>
        <time>2021-01-23T18:10:57Z</time>
      </trkpt>
      <trkpt lat="19.065033" lon="-98.614943">
        <ele>3694.450</ele>
        <time>2021-01-23T18:11:01Z</time>
      </trkpt>
      <trkpt lat="19.065077" lon="-98.614925">
        <ele>3694.238</ele>
        <time>2021-01-23T18:11:05Z</time>
      </trkpt>
      <trkpt lat="19.065121" lon="-98.614901">
        <ele>3694.939</ele>
        <time>2021-01-23T18:11:09Z</time>
      </trkpt>
      <trkpt lat="19.065174" lon="-98.61488">
        <ele>3696.931</ele>
        <time>2021-01-23T18:11:14Z</time>
      </trkpt>
      <trkpt lat="19.065219" lon="-98.61488">
        <ele>3697.763</ele>
        <time>2021-01-23T18:11:17Z</time>
      </trkpt>
      <trkpt lat="19.065269" lon="-98.614887">
        <ele>3697.416</ele>
        <time>2021-01-23T18:11:20Z</time>
      </trkpt>
      <trkpt lat="19.065325" lon="-98.614881">
        <ele>3696.432</ele>
        <time>2021-01-23T18:11:24Z</time>
      </trkpt>
      <trkpt lat="19.065369" lon="-98.614865">
        <ele>3694.690</ele>
        <time>2021-01-23T18:11:28Z</time>
      </trkpt>
      <trkpt lat="19.065414" lon="-98.614842">
        <ele>3693.963</ele>
        <time>2021-01-23T18:11:33Z</time>
      </trkpt>
      <trkpt lat="19.065456" lon="-98.614807">
        <ele>3693.144</ele>
        <time>2021-01-23T18:11:39Z</time>
      </trkpt>
      <trkpt lat="19.065495" lon="-98.614774">
        <ele>3691.818</ele>
        <time>2021-01-23T18:11:44Z</time>
      </trkpt>
      <trkpt lat="19.065536" lon="-98.614749">
        <ele>3690.208</ele>
        <time>2021-01-23T18:11:51Z</time>
      </trkpt>
      <trkpt lat="19.065581" lon="-98.614745">
        <ele>3688.532</ele>
        <time>2021-01-23T18:11:55Z</time>
      </trkpt>
      <trkpt lat="19.065625" lon="-98.614759">
        <ele>3688.310</ele>
        <time>2021-01-23T18:11:59Z</time>
      </trkpt>
      <trkpt lat="19.065674" lon="-98.614744">
        <ele>3686.261</ele>
        <time>2021-01-23T18:12:05Z</time>
      </trkpt>
      <trkpt lat="19.06572" lon="-98.614711">
        <ele>3684.163</ele>
        <time>2021-01-23T18:12:10Z</time>
      </trkpt>
      <trkpt lat="19.065758" lon="-98.61468">
        <ele>3682.475</ele>
        <time>2021-01-23T18:12:15Z</time>
      </trkpt>
      <trkpt lat="19.065789" lon="-98.614639">
        <ele>3680.278</ele>
        <time>2021-01-23T18:12:22Z</time>
      </trkpt>
      <trkpt lat="19.065823" lon="-98.614602">
        <ele>3676.864</ele>
        <time>2021-01-23T18:12:27Z</time>
      </trkpt>
      <trkpt lat="19.065823" lon="-98.614602">
        <ele>3676.862</ele>
        <time>2021-01-23T18:12:27Z</time>
      </trkpt>
      <trkpt lat="19.065879" lon="-98.614579">
        <ele>3676.452</ele>
        <time>2021-01-23T18:12:31Z</time>
      </trkpt>
      <trkpt lat="19.065937" lon="-98.614568">
        <ele>3676.253</ele>
        <time>2021-01-23T18:12:35Z</time>
      </trkpt>
      <trkpt lat="19.065982" lon="-98.61456">
        <ele>3676.908</ele>
        <time>2021-01-23T18:12:38Z</time>
      </trkpt>
      <trkpt lat="19.066028" lon="-98.614542">
        <ele>3675.308</ele>
        <time>2021-01-23T18:12:42Z</time>
      </trkpt>
      <trkpt lat="19.066074" lon="-98.614515">
        <ele>3675.181</ele>
        <time>2021-01-23T18:12:47Z</time>
      </trkpt>
      <trkpt lat="19.066127" lon="-98.614505">
        <ele>3674.619</ele>
        <time>2021-01-23T18:12:51Z</time>
      </trkpt>
      <trkpt lat="19.066177" lon="-98.61452">
        <ele>3673.530</ele>
        <time>2021-01-23T18:12:55Z</time>
      </trkpt>
      <trkpt lat="19.066223" lon="-98.614534">
        <ele>3672.092</ele>
        <time>2021-01-23T18:13:01Z</time>
      </trkpt>
      <trkpt lat="19.066239" lon="-98.614579">
        <ele>3672.744</ele>
        <time>2021-01-23T18:13:09Z</time>
      </trkpt>
      <trkpt lat="19.066285" lon="-98.614567">
        <ele>3673.117</ele>
        <time>2021-01-23T18:13:13Z</time>
      </trkpt>
      <trkpt lat="19.066324" lon="-98.614535">
        <ele>3674.223</ele>
        <time>2021-01-23T18:13:18Z</time>
      </trkpt>
      <trkpt lat="19.066369" lon="-98.614521">
        <ele>3674.861</ele>
        <time>2021-01-23T18:13:28Z</time>
      </trkpt>
      <trkpt lat="19.066409" lon="-98.614551">
        <ele>3676.094</ele>
        <time>2021-01-23T18:13:38Z</time>
      </trkpt>
      <trkpt lat="19.066447" lon="-98.614586">
        <ele>3678.357</ele>
        <time>2021-01-23T18:14:54Z</time>
      </trkpt>
      <trkpt lat="19.066457" lon="-98.614635">
        <ele>3679.322</ele>
        <time>2021-01-23T18:14:57Z</time>
      </trkpt>
      <trkpt lat="19.066446" lon="-98.614683">
        <ele>3678.708</ele>
        <time>2021-01-23T18:15:03Z</time>
      </trkpt>
      <trkpt lat="19.066435" lon="-98.614737">
        <ele>3677.975</ele>
        <time>2021-01-23T18:15:08Z</time>
      </trkpt>
      <trkpt lat="19.066419" lon="-98.614782">
        <ele>3677.823</ele>
        <time>2021-01-23T18:15:15Z</time>
      </trkpt>
      <trkpt lat="19.06643" lon="-98.61483">
        <ele>3678.284</ele>
        <time>2021-01-23T18:15:19Z</time>
      </trkpt>
      <trkpt lat="19.066475" lon="-98.614854">
        <ele>3678.486</ele>
        <time>2021-01-23T18:15:25Z</time>
      </trkpt>
      <trkpt lat="19.066521" lon="-98.614874">
        <ele>3678.168</ele>
        <time>2021-01-23T18:15:31Z</time>
      </trkpt>
      <trkpt lat="19.06656" lon="-98.614844">
        <ele>3677.161</ele>
        <time>2021-01-23T18:15:39Z</time>
      </trkpt>
      <trkpt lat="19.066599" lon="-98.614801">
        <ele>3677.377</ele>
        <time>2021-01-23T18:15:47Z</time>
      </trkpt>
      <trkpt lat="19.066644" lon="-98.614797">
        <ele>3677.475</ele>
        <time>2021-01-23T18:15:51Z</time>
      </trkpt>
      <trkpt lat="19.066698" lon="-98.614809">
        <ele>3675.969</ele>
        <time>2021-01-23T18:15:56Z</time>
      </trkpt>
      <trkpt lat="19.066729" lon="-98.614847">
        <ele>3675.004</ele>
        <time>2021-01-23T18:16:00Z</time>
      </trkpt>
      <trkpt lat="19.066754" lon="-98.61489">
        <ele>3674.924</ele>
        <time>2021-01-23T18:16:05Z</time>
      </trkpt>
      <trkpt lat="19.066784" lon="-98.614926">
        <ele>3675.608</ele>
        <time>2021-01-23T18:16:09Z</time>
      </trkpt>
      <trkpt lat="19.066825" lon="-98.614965">
        <ele>3676.032</ele>
        <time>2021-01-23T18:16:13Z</time>
      </trkpt>
      <trkpt lat="19.066876" lon="-98.614991">
        <ele>3677.580</ele>
        <time>2021-01-23T18:16:17Z</time>
      </trkpt>
      <trkpt lat="19.066911" lon="-98.615029">
        <ele>3678.451</ele>
        <time>2021-01-23T18:16:21Z</time>
      </trkpt>
      <trkpt lat="19.066934" lon="-98.615073">
        <ele>3678.933</ele>
        <time>2021-01-23T18:16:26Z</time>
      </trkpt>
      <trkpt lat="19.066957" lon="-98.615117">
        <ele>3679.635</ele>
        <time>2021-01-23T18:16:35Z</time>
      </trkpt>
      <trkpt lat="19.066992" lon="-98.615149">
        <ele>3679.648</ele>
        <time>2021-01-23T18:16:38Z</time>
      </trkpt>
      <trkpt lat="19.067032" lon="-98.615183">
        <ele>3679.654</ele>
        <time>2021-01-23T18:16:44Z</time>
      </trkpt>
      <trkpt lat="19.067074" lon="-98.615207">
        <ele>3679.642</ele>
        <time>2021-01-23T18:16:51Z</time>
      </trkpt>
      <trkpt lat="19.067121" lon="-98.615223">
        <ele>3680.485</ele>
        <time>2021-01-23T18:16:57Z</time>
      </trkpt>
      <trkpt lat="19.067152" lon="-98.615265">
        <ele>3678.189</ele>
        <time>2021-01-23T18:17:03Z</time>
      </trkpt>
      <trkpt lat="19.067179" lon="-98.615309">
        <ele>3678.717</ele>
        <time>2021-01-23T18:17:08Z</time>
      </trkpt>
      <trkpt lat="19.067205" lon="-98.615352">
        <ele>3676.108</ele>
        <time>2021-01-23T18:17:13Z</time>
      </trkpt>
      <trkpt lat="19.067205" lon="-98.615352">
        <ele>3676.154</ele>
        <time>2021-01-23T18:17:13Z</time>
      </trkpt>
      <trkpt lat="19.067228" lon="-98.615404">
        <ele>3675.132</ele>
        <time>2021-01-23T18:17:17Z</time>
      </trkpt>
      <trkpt lat="19.067265" lon="-98.615444">
        <ele>3676.193</ele>
        <time>2021-01-23T18:17:21Z</time>
      </trkpt>
      <trkpt lat="19.067289" lon="-98.615499">
        <ele>3677.175</ele>
        <time>2021-01-23T18:17:25Z</time>
      </trkpt>
      <trkpt lat="19.067291" lon="-98.615553">
        <ele>3676.937</ele>
        <time>2021-01-23T18:17:30Z</time>
      </trkpt>
      <trkpt lat="19.067302" lon="-98.615605">
        <ele>3675.640</ele>
        <time>2021-01-23T18:17:34Z</time>
      </trkpt>
      <trkpt lat="19.06732" lon="-98.615656">
        <ele>3674.436</ele>
        <time>2021-01-23T18:17:38Z</time>
      </trkpt>
      <trkpt lat="19.067328" lon="-98.615706">
        <ele>3674.594</ele>
        <time>2021-01-23T18:17:42Z</time>
      </trkpt>
      <trkpt lat="19.067303" lon="-98.615758">
        <ele>3675.053</ele>
        <time>2021-01-23T18:17:48Z</time>
      </trkpt>
      <trkpt lat="19.067291" lon="-98.615808">
        <ele>3676.104</ele>
        <time>2021-01-23T18:17:50Z</time>
      </trkpt>
      <trkpt lat="19.067294" lon="-98.615857">
        <ele>3676.314</ele>
        <time>2021-01-23T18:17:52Z</time>
      </trkpt>
      <trkpt lat="19.067311" lon="-98.615904">
        <ele>3676.408</ele>
        <time>2021-01-23T18:18:04Z</time>
      </trkpt>
      <trkpt lat="19.067344" lon="-98.615942">
        <ele>3677.331</ele>
        <time>2021-01-23T18:18:10Z</time>
      </trkpt>
      <trkpt lat="19.067382" lon="-98.615972">
        <ele>3678.659</ele>
        <time>2021-01-23T18:18:13Z</time>
      </trkpt>
      <trkpt lat="19.067422" lon="-98.615997">
        <ele>3677.890</ele>
        <time>2021-01-23T18:18:19Z</time>
      </trkpt>
      <trkpt lat="19.06743" lon="-98.616067">
        <ele>3677.382</ele>
        <time>2021-01-23T18:18:23Z</time>
      </trkpt>
      <trkpt lat="19.06744" lon="-98.616132">
        <ele>3677.414</ele>
        <time>2021-01-23T18:18:26Z</time>
      </trkpt>
      <trkpt lat="19.067468" lon="-98.616172">
        <ele>3677.557</ele>
        <time>2021-01-23T18:18:29Z</time>
      </trkpt>
      <trkpt lat="19.067514" lon="-98.616197">
        <ele>3678.783</ele>
        <time>2021-01-23T18:18:47Z</time>
      </trkpt>
      <trkpt lat="19.067545" lon="-98.616243">
        <ele>3680.511</ele>
        <time>2021-01-23T18:18:52Z</time>
      </trkpt>
      <trkpt lat="19.067545" lon="-98.616243">
        <ele>3680.599</ele>
        <time>2021-01-23T18:18:52Z</time>
      </trkpt>
      <trkpt lat="19.067559" lon="-98.616296">
        <ele>3680.507</ele>
        <time>2021-01-23T18:18:57Z</time>
      </trkpt>
      <trkpt lat="19.067577" lon="-98.616344">
        <ele>3681.327</ele>
        <time>2021-01-23T18:19:01Z</time>
      </trkpt>
      <trkpt lat="19.067609" lon="-98.616389">
        <ele>3681.808</ele>
        <time>2021-01-23T18:19:05Z</time>
      </trkpt>
      <trkpt lat="19.067647" lon="-98.616438">
        <ele>3681.345</ele>
        <time>2021-01-23T18:19:09Z</time>
      </trkpt>
      <trkpt lat="19.067676" lon="-98.616477">
        <ele>3681.443</ele>
        <time>2021-01-23T18:19:12Z</time>
      </trkpt>
      <trkpt lat="19.067696" lon="-98.616528">
        <ele>3681.924</ele>
        <time>2021-01-23T18:19:16Z</time>
      </trkpt>
      <trkpt lat="19.067713" lon="-98.616574">
        <ele>3682.676</ele>
        <time>2021-01-23T18:19:20Z</time>
      </trkpt>
      <trkpt lat="19.067717" lon="-98.616622">
        <ele>3685.898</ele>
        <time>2021-01-23T18:19:24Z</time>
      </trkpt>
      <trkpt lat="19.067717" lon="-98.616622">
        <ele>3685.811</ele>
        <time>2021-01-23T18:19:24Z</time>
      </trkpt>
      <trkpt lat="19.067724" lon="-98.616673">
        <ele>3686.597</ele>
        <time>2021-01-23T18:19:29Z</time>
      </trkpt>
      <trkpt lat="19.067737" lon="-98.616728">
        <ele>3687.315</ele>
        <time>2021-01-23T18:19:34Z</time>
      </trkpt>
      <trkpt lat="19.067754" lon="-98.616782">
        <ele>3686.264</ele>
        <time>2021-01-23T18:19:39Z</time>
      </trkpt>
      <trkpt lat="19.067769" lon="-98.616833">
        <ele>3685.506</ele>
        <time>2021-01-23T18:19:43Z</time>
      </trkpt>
      <trkpt lat="19.067786" lon="-98.616877">
        <ele>3686.316</ele>
        <time>2021-01-23T18:19:47Z</time>
      </trkpt>
      <trkpt lat="19.067803" lon="-98.616927">
        <ele>3686.008</ele>
        <time>2021-01-23T18:19:52Z</time>
      </trkpt>
      <trkpt lat="19.067809" lon="-98.616974">
        <ele>3685.462</ele>
        <time>2021-01-23T18:19:58Z</time>
      </trkpt>
      <trkpt lat="19.06783" lon="-98.617018">
        <ele>3683.860</ele>
        <time>2021-01-23T18:20:03Z</time>
      </trkpt>
      <trkpt lat="19.067825" lon="-98.617067">
        <ele>3682.581</ele>
        <time>2021-01-23T18:20:08Z</time>
      </trkpt>
      <trkpt lat="19.067979" lon="-98.617001">
        <ele>3692.073</ele>
        <time>2021-01-23T18:52:50Z</time>
      </trkpt>
      <trkpt lat="19.067999" lon="-98.616957">
        <ele>3693.045</ele>
        <time>2021-01-23T18:53:01Z</time>
      </trkpt>
      <trkpt lat="19.068008" lon="-98.616903">
        <ele>3689.888</ele>
        <time>2021-01-23T18:53:05Z</time>
      </trkpt>
      <trkpt lat="19.068025" lon="-98.616855">
        <ele>3689.134</ele>
        <time>2021-01-23T18:53:08Z</time>
      </trkpt>
      <trkpt lat="19.068045" lon="-98.616804">
        <ele>3688.312</ele>
        <time>2021-01-23T18:53:10Z</time>
      </trkpt>
      <trkpt lat="19.068084" lon="-98.616753">
        <ele>3686.668</ele>
        <time>2021-01-23T18:53:13Z</time>
      </trkpt>
      <trkpt lat="19.068134" lon="-98.616721">
        <ele>3685.642</ele>
        <time>2021-01-23T18:53:16Z</time>
      </trkpt>
      <trkpt lat="19.068188" lon="-98.616686">
        <ele>3684.226</ele>
        <time>2021-01-23T18:53:19Z</time>
      </trkpt>
      <trkpt lat="19.068254" lon="-98.616663">
        <ele>3682.608</ele>
        <time>2021-01-23T18:53:22Z</time>
      </trkpt>
      <trkpt lat="19.068297" lon="-98.616646">
        <ele>3682.062</ele>
        <time>2021-01-23T18:53:24Z</time>
      </trkpt>
      <trkpt lat="19.06834" lon="-98.616617">
        <ele>3681.610</ele>
        <time>2021-01-23T18:53:26Z</time>
      </trkpt>
      <trkpt lat="19.068386" lon="-98.61659">
        <ele>3681.861</ele>
        <time>2021-01-23T18:53:28Z</time>
      </trkpt>
      <trkpt lat="19.068431" lon="-98.616576">
        <ele>3682.363</ele>
        <time>2021-01-23T18:53:30Z</time>
      </trkpt>
      <trkpt lat="19.068477" lon="-98.616573">
        <ele>3682.655</ele>
        <time>2021-01-23T18:53:32Z</time>
      </trkpt>
      <trkpt lat="19.068533" lon="-98.616584">
        <ele>3682.458</ele>
        <time>2021-01-23T18:53:34Z</time>
      </trkpt>
      <trkpt lat="19.068594" lon="-98.616584">
        <ele>3681.154</ele>
        <time>2021-01-23T18:53:36Z</time>
      </trkpt>
      <trkpt lat="19.068645" lon="-98.616571">
        <ele>3680.782</ele>
        <time>2021-01-23T18:53:38Z</time>
      </trkpt>
      <trkpt lat="19.068705" lon="-98.616549">
        <ele>3679.754</ele>
        <time>2021-01-23T18:53:41Z</time>
      </trkpt>
      <trkpt lat="19.06875" lon="-98.616533">
        <ele>3679.156</ele>
        <time>2021-01-23T18:53:43Z</time>
      </trkpt>
      <trkpt lat="19.068791" lon="-98.616513">
        <ele>3678.311</ele>
        <time>2021-01-23T18:53:45Z</time>
      </trkpt>
      <trkpt lat="19.068832" lon="-98.616494">
        <ele>3677.808</ele>
        <time>2021-01-23T18:53:47Z</time>
      </trkpt>
      <trkpt lat="19.068877" lon="-98.616479">
        <ele>3677.191</ele>
        <time>2021-01-23T18:53:49Z</time>
      </trkpt>
      <trkpt lat="19.06893" lon="-98.616478">
        <ele>3677.199</ele>
        <time>2021-01-23T18:53:52Z</time>
      </trkpt>
      <trkpt lat="19.068988" lon="-98.616461">
        <ele>3677.170</ele>
        <time>2021-01-23T18:53:55Z</time>
      </trkpt>
      <trkpt lat="19.069044" lon="-98.616452">
        <ele>3675.962</ele>
        <time>2021-01-23T18:53:58Z</time>
      </trkpt>
      <trkpt lat="19.069095" lon="-98.616446">
        <ele>3675.694</ele>
        <time>2021-01-23T18:54:00Z</time>
      </trkpt>
      <trkpt lat="19.069157" lon="-98.616436">
        <ele>3676.247</ele>
        <time>2021-01-23T18:54:03Z</time>
      </trkpt>
      <trkpt lat="19.069213" lon="-98.616427">
        <ele>3676.273</ele>
        <time>2021-01-23T18:54:06Z</time>
      </trkpt>
      <trkpt lat="19.069259" lon="-98.616418">
        <ele>3676.681</ele>
        <time>2021-01-23T18:54:08Z</time>
      </trkpt>
      <trkpt lat="19.069309" lon="-98.616412">
        <ele>3676.416</ele>
        <time>2021-01-23T18:54:10Z</time>
      </trkpt>
      <trkpt lat="19.069363" lon="-98.61641">
        <ele>3675.576</ele>
        <time>2021-01-23T18:54:13Z</time>
      </trkpt>
      <trkpt lat="19.069426" lon="-98.616403">
        <ele>3673.413</ele>
        <time>2021-01-23T18:54:17Z</time>
      </trkpt>
      <trkpt lat="19.069485" lon="-98.616415">
        <ele>3672.108</ele>
        <time>2021-01-23T18:54:20Z</time>
      </trkpt>
      <trkpt lat="19.069544" lon="-98.616421">
        <ele>3672.177</ele>
        <time>2021-01-23T18:54:23Z</time>
      </trkpt>
      <trkpt lat="19.069599" lon="-98.616438">
        <ele>3672.155</ele>
        <time>2021-01-23T18:54:26Z</time>
      </trkpt>
      <trkpt lat="19.069662" lon="-98.616442">
        <ele>3671.316</ele>
        <time>2021-01-23T18:54:29Z</time>
      </trkpt>
      <trkpt lat="19.069706" lon="-98.61643">
        <ele>3670.458</ele>
        <time>2021-01-23T18:54:31Z</time>
      </trkpt>
      <trkpt lat="19.069742" lon="-98.6164">
        <ele>3669.930</ele>
        <time>2021-01-23T18:54:33Z</time>
      </trkpt>
      <trkpt lat="19.069783" lon="-98.616359">
        <ele>3670.033</ele>
        <time>2021-01-23T18:54:36Z</time>
      </trkpt>
      <trkpt lat="19.069829" lon="-98.616319">
        <ele>3670.589</ele>
        <time>2021-01-23T18:54:39Z</time>
      </trkpt>
      <trkpt lat="19.06987" lon="-98.616284">
        <ele>3670.477</ele>
        <time>2021-01-23T18:54:42Z</time>
      </trkpt>
      <trkpt lat="19.069916" lon="-98.616245">
        <ele>3670.757</ele>
        <time>2021-01-23T18:54:46Z</time>
      </trkpt>
      <trkpt lat="19.069951" lon="-98.616212">
        <ele>3670.900</ele>
        <time>2021-01-23T18:54:49Z</time>
      </trkpt>
      <trkpt lat="19.069991" lon="-98.61617">
        <ele>3671.420</ele>
        <time>2021-01-23T18:54:52Z</time>
      </trkpt>
      <trkpt lat="19.070031" lon="-98.616139">
        <ele>3670.908</ele>
        <time>2021-01-23T18:54:56Z</time>
      </trkpt>
      <trkpt lat="19.070084" lon="-98.616119">
        <ele>3671.061</ele>
        <time>2021-01-23T18:55:00Z</time>
      </trkpt>
      <trkpt lat="19.070122" lon="-98.616068">
        <ele>3670.319</ele>
        <time>2021-01-23T18:55:03Z</time>
      </trkpt>
      <trkpt lat="19.070163" lon="-98.616031">
        <ele>3668.720</ele>
        <time>2021-01-23T18:55:06Z</time>
      </trkpt>
      <trkpt lat="19.070203" lon="-98.615989">
        <ele>3668.122</ele>
        <time>2021-01-23T18:55:10Z</time>
      </trkpt>
      <trkpt lat="19.070243" lon="-98.61596">
        <ele>3668.134</ele>
        <time>2021-01-23T18:55:13Z</time>
      </trkpt>
      <trkpt lat="19.070288" lon="-98.615941">
        <ele>3668.597</ele>
        <time>2021-01-23T18:55:16Z</time>
      </trkpt>
      <trkpt lat="19.070319" lon="-98.615902">
        <ele>3670.473</ele>
        <time>2021-01-23T18:55:19Z</time>
      </trkpt>
      <trkpt lat="19.070339" lon="-98.615859">
        <ele>3671.961</ele>
        <time>2021-01-23T18:55:23Z</time>
      </trkpt>
      <trkpt lat="19.070361" lon="-98.615812">
        <ele>3671.219</ele>
        <time>2021-01-23T18:55:27Z</time>
      </trkpt>
      <trkpt lat="19.070388" lon="-98.615769">
        <ele>3668.809</ele>
        <time>2021-01-23T18:55:31Z</time>
      </trkpt>
      <trkpt lat="19.070427" lon="-98.615731">
        <ele>3667.419</ele>
        <time>2021-01-23T18:55:34Z</time>
      </trkpt>
      <trkpt lat="19.070466" lon="-98.615698">
        <ele>3666.508</ele>
        <time>2021-01-23T18:55:37Z</time>
      </trkpt>
      <trkpt lat="19.070501" lon="-98.615648">
        <ele>3666.027</ele>
        <time>2021-01-23T18:55:40Z</time>
      </trkpt>
      <trkpt lat="19.070534" lon="-98.615615">
        <ele>3667.375</ele>
        <time>2021-01-23T18:55:43Z</time>
      </trkpt>
      <trkpt lat="19.070568" lon="-98.615583">
        <ele>3667.736</ele>
        <time>2021-01-23T18:55:45Z</time>
      </trkpt>
      <trkpt lat="19.070617" lon="-98.615545">
        <ele>3666.798</ele>
        <time>2021-01-23T18:55:48Z</time>
      </trkpt>
      <trkpt lat="19.070662" lon="-98.615504">
        <ele>3666.170</ele>
        <time>2021-01-23T18:55:51Z</time>
      </trkpt>
      <trkpt lat="19.070695" lon="-98.615458">
        <ele>3665.763</ele>
        <time>2021-01-23T18:55:54Z</time>
      </trkpt>
      <trkpt lat="19.070738" lon="-98.615425">
        <ele>3665.959</ele>
        <time>2021-01-23T18:55:58Z</time>
      </trkpt>
      <trkpt lat="19.070773" lon="-98.615386">
        <ele>3665.657</ele>
        <time>2021-01-23T18:56:03Z</time>
      </trkpt>
      <trkpt lat="19.070806" lon="-98.615336">
        <ele>3665.023</ele>
        <time>2021-01-23T18:56:08Z</time>
      </trkpt>
      <trkpt lat="19.070815" lon="-98.615283">
        <ele>3663.983</ele>
        <time>2021-01-23T18:56:11Z</time>
      </trkpt>
      <trkpt lat="19.070844" lon="-98.615238">
        <ele>3663.611</ele>
        <time>2021-01-23T18:56:15Z</time>
      </trkpt>
      <trkpt lat="19.070861" lon="-98.615181">
        <ele>3663.008</ele>
        <time>2021-01-23T18:56:19Z</time>
      </trkpt>
      <trkpt lat="19.070889" lon="-98.615138">
        <ele>3663.148</ele>
        <time>2021-01-23T18:56:24Z</time>
      </trkpt>
      <trkpt lat="19.070918" lon="-98.615093">
        <ele>3664.366</ele>
        <time>2021-01-23T18:56:27Z</time>
      </trkpt>
      <trkpt lat="19.07095" lon="-98.61504">
        <ele>3664.297</ele>
        <time>2021-01-23T18:56:31Z</time>
      </trkpt>
      <trkpt lat="19.070982" lon="-98.614986">
        <ele>3663.899</ele>
        <time>2021-01-23T18:56:34Z</time>
      </trkpt>
      <trkpt lat="19.071011" lon="-98.614949">
        <ele>3663.551</ele>
        <time>2021-01-23T18:56:36Z</time>
      </trkpt>
      <trkpt lat="19.07105" lon="-98.614899">
        <ele>3662.564</ele>
        <time>2021-01-23T18:56:39Z</time>
      </trkpt>
      <trkpt lat="19.07109" lon="-98.614847">
        <ele>3660.360</ele>
        <time>2021-01-23T18:56:42Z</time>
      </trkpt>
      <trkpt lat="19.07112" lon="-98.614798">
        <ele>3659.478</ele>
        <time>2021-01-23T18:56:45Z</time>
      </trkpt>
      <trkpt lat="19.071157" lon="-98.61475">
        <ele>3658.147</ele>
        <time>2021-01-23T18:56:48Z</time>
      </trkpt>
      <trkpt lat="19.0712" lon="-98.614711">
        <ele>3656.529</ele>
        <time>2021-01-23T18:56:51Z</time>
      </trkpt>
      <trkpt lat="19.07123" lon="-98.61467">
        <ele>3655.121</ele>
        <time>2021-01-23T18:56:53Z</time>
      </trkpt>
      <trkpt lat="19.071248" lon="-98.614622">
        <ele>3652.708</ele>
        <time>2021-01-23T18:56:55Z</time>
      </trkpt>
      <trkpt lat="19.071265" lon="-98.614569">
        <ele>3650.840</ele>
        <time>2021-01-23T18:56:58Z</time>
      </trkpt>
      <trkpt lat="19.071281" lon="-98.61451">
        <ele>3648.918</ele>
        <time>2021-01-23T18:57:01Z</time>
      </trkpt>
      <trkpt lat="19.071305" lon="-98.614453">
        <ele>3647.899</ele>
        <time>2021-01-23T18:57:04Z</time>
      </trkpt>
      <trkpt lat="19.07133" lon="-98.614409">
        <ele>3647.121</ele>
        <time>2021-01-23T18:57:07Z</time>
      </trkpt>
      <trkpt lat="19.071375" lon="-98.614375">
        <ele>3645.563</ele>
        <time>2021-01-23T18:57:11Z</time>
      </trkpt>
      <trkpt lat="19.071404" lon="-98.614323">
        <ele>3644.116</ele>
        <time>2021-01-23T18:57:14Z</time>
      </trkpt>
      <trkpt lat="19.071439" lon="-98.614265">
        <ele>3643.342</ele>
        <time>2021-01-23T18:57:17Z</time>
      </trkpt>
      <trkpt lat="19.071454" lon="-98.614216">
        <ele>3642.450</ele>
        <time>2021-01-23T18:57:19Z</time>
      </trkpt>
      <trkpt lat="19.071458" lon="-98.614161">
        <ele>3641.578</ele>
        <time>2021-01-23T18:57:22Z</time>
      </trkpt>
      <trkpt lat="19.071454" lon="-98.614111">
        <ele>3640.533</ele>
        <time>2021-01-23T18:57:24Z</time>
      </trkpt>
      <trkpt lat="19.071449" lon="-98.614062">
        <ele>3640.326</ele>
        <time>2021-01-23T18:57:26Z</time>
      </trkpt>
      <trkpt lat="19.07145" lon="-98.613999">
        <ele>3640.208</ele>
        <time>2021-01-23T18:57:29Z</time>
      </trkpt>
      <trkpt lat="19.071459" lon="-98.613948">
        <ele>3639.323</ele>
        <time>2021-01-23T18:57:32Z</time>
      </trkpt>
      <trkpt lat="19.071478" lon="-98.613892">
        <ele>3638.441</ele>
        <time>2021-01-23T18:57:35Z</time>
      </trkpt>
      <trkpt lat="19.071493" lon="-98.613824">
        <ele>3637.842</ele>
        <time>2021-01-23T18:57:38Z</time>
      </trkpt>
      <trkpt lat="19.071506" lon="-98.61376">
        <ele>3636.794</ele>
        <time>2021-01-23T18:57:41Z</time>
      </trkpt>
      <trkpt lat="19.07151" lon="-98.6137">
        <ele>3635.686</ele>
        <time>2021-01-23T18:57:44Z</time>
      </trkpt>
      <trkpt lat="19.0715" lon="-98.613631">
        <ele>3635.079</ele>
        <time>2021-01-23T18:57:47Z</time>
      </trkpt>
      <trkpt lat="19.071481" lon="-98.613564">
        <ele>3634.215</ele>
        <time>2021-01-23T18:57:50Z</time>
      </trkpt>
      <trkpt lat="19.071451" lon="-98.613509">
        <ele>3633.783</ele>
        <time>2021-01-23T18:57:53Z</time>
      </trkpt>
      <trkpt lat="19.07142" lon="-98.613467">
        <ele>3633.032</ele>
        <time>2021-01-23T18:57:55Z</time>
      </trkpt>
      <trkpt lat="19.071399" lon="-98.613421">
        <ele>3633.092</ele>
        <time>2021-01-23T18:57:57Z</time>
      </trkpt>
      <trkpt lat="19.071393" lon="-98.613373">
        <ele>3632.611</ele>
        <time>2021-01-23T18:57:59Z</time>
      </trkpt>
      <trkpt lat="19.071413" lon="-98.613318">
        <ele>3632.808</ele>
        <time>2021-01-23T18:58:02Z</time>
      </trkpt>
      <trkpt lat="19.071453" lon="-98.613293">
        <ele>3632.159</ele>
        <time>2021-01-23T18:58:04Z</time>
      </trkpt>
      <trkpt lat="19.071511" lon="-98.613276">
        <ele>3631.787</ele>
        <time>2021-01-23T18:58:07Z</time>
      </trkpt>
      <trkpt lat="19.071559" lon="-98.613266">
        <ele>3631.418</ele>
        <time>2021-01-23T18:58:10Z</time>
      </trkpt>
      <trkpt lat="19.071611" lon="-98.613261">
        <ele>3630.480</ele>
        <time>2021-01-23T18:58:15Z</time>
      </trkpt>
      <trkpt lat="19.071662" lon="-98.613235">
        <ele>3630.272</ele>
        <time>2021-01-23T18:58:19Z</time>
      </trkpt>
      <trkpt lat="19.071706" lon="-98.613201">
        <ele>3630.535</ele>
        <time>2021-01-23T18:58:24Z</time>
      </trkpt>
      <trkpt lat="19.071743" lon="-98.61317">
        <ele>3629.971</ele>
        <time>2021-01-23T18:58:27Z</time>
      </trkpt>
      <trkpt lat="19.07178" lon="-98.613129">
        <ele>3630.749</ele>
        <time>2021-01-23T18:58:30Z</time>
      </trkpt>
      <trkpt lat="19.071813" lon="-98.613096">
        <ele>3630.025</ele>
        <time>2021-01-23T18:58:34Z</time>
      </trkpt>
      <trkpt lat="19.071847" lon="-98.613057">
        <ele>3628.426</ele>
        <time>2021-01-23T18:58:39Z</time>
      </trkpt>
      <trkpt lat="19.071888" lon="-98.613009">
        <ele>3627.808</ele>
        <time>2021-01-23T18:58:42Z</time>
      </trkpt>
      <trkpt lat="19.071929" lon="-98.61296">
        <ele>3627.508</ele>
        <time>2021-01-23T18:58:45Z</time>
      </trkpt>
      <trkpt lat="19.071955" lon="-98.612921">
        <ele>3625.758</ele>
        <time>2021-01-23T18:58:48Z</time>
      </trkpt>
      <trkpt lat="19.071978" lon="-98.612876">
        <ele>3624.266</ele>
        <time>2021-01-23T18:58:51Z</time>
      </trkpt>
      <trkpt lat="19.072003" lon="-98.61283">
        <ele>3622.927</ele>
        <time>2021-01-23T18:58:54Z</time>
      </trkpt>
      <trkpt lat="19.072041" lon="-98.612791">
        <ele>3622.959</ele>
        <time>2021-01-23T18:58:58Z</time>
      </trkpt>
      <trkpt lat="19.07208" lon="-98.612763">
        <ele>3621.721</ele>
        <time>2021-01-23T18:59:01Z</time>
      </trkpt>
      <trkpt lat="19.072118" lon="-98.612725">
        <ele>3620.264</ele>
        <time>2021-01-23T18:59:04Z</time>
      </trkpt>
      <trkpt lat="19.072142" lon="-98.612683">
        <ele>3619.390</ele>
        <time>2021-01-23T18:59:07Z</time>
      </trkpt>
      <trkpt lat="19.072174" lon="-98.612634">
        <ele>3618.068</ele>
        <time>2021-01-23T18:59:11Z</time>
      </trkpt>
      <trkpt lat="19.072206" lon="-98.612597">
        <ele>3617.229</ele>
        <time>2021-01-23T18:59:14Z</time>
      </trkpt>
      <trkpt lat="19.072235" lon="-98.612554">
        <ele>3616.700</ele>
        <time>2021-01-23T18:59:18Z</time>
      </trkpt>
      <trkpt lat="19.072269" lon="-98.612519">
        <ele>3616.820</ele>
        <time>2021-01-23T18:59:21Z</time>
      </trkpt>
      <trkpt lat="19.072294" lon="-98.612479">
        <ele>3616.908</ele>
        <time>2021-01-23T18:59:23Z</time>
      </trkpt>
      <trkpt lat="19.072321" lon="-98.612415">
        <ele>3617.378</ele>
        <time>2021-01-23T18:59:26Z</time>
      </trkpt>
      <trkpt lat="19.072344" lon="-98.612364">
        <ele>3618.436</ele>
        <time>2021-01-23T18:59:29Z</time>
      </trkpt>
      <trkpt lat="19.072366" lon="-98.612321">
        <ele>3619.417</ele>
        <time>2021-01-23T18:59:32Z</time>
      </trkpt>
      <trkpt lat="19.072393" lon="-98.612278">
        <ele>3620.089</ele>
        <time>2021-01-23T18:59:36Z</time>
      </trkpt>
      <trkpt lat="19.072424" lon="-98.612239">
        <ele>3620.061</ele>
        <time>2021-01-23T18:59:39Z</time>
      </trkpt>
      <trkpt lat="19.072474" lon="-98.612236">
        <ele>3618.874</ele>
        <time>2021-01-23T18:59:43Z</time>
      </trkpt>
      <trkpt lat="19.072512" lon="-98.612201">
        <ele>3617.330</ele>
        <time>2021-01-23T18:59:47Z</time>
      </trkpt>
      <trkpt lat="19.072554" lon="-98.612154">
        <ele>3617.258</ele>
        <time>2021-01-23T18:59:50Z</time>
      </trkpt>
      <trkpt lat="19.072587" lon="-98.612112">
        <ele>3617.562</ele>
        <time>2021-01-23T18:59:53Z</time>
      </trkpt>
      <trkpt lat="19.072619" lon="-98.612068">
        <ele>3618.183</ele>
        <time>2021-01-23T18:59:57Z</time>
      </trkpt>
      <trkpt lat="19.072664" lon="-98.612037">
        <ele>3616.911</ele>
        <time>2021-01-23T19:00:02Z</time>
      </trkpt>
      <trkpt lat="19.072697" lon="-98.612003">
        <ele>3615.808</ele>
        <time>2021-01-23T19:00:07Z</time>
      </trkpt>
      <trkpt lat="19.072731" lon="-98.611959">
        <ele>3615.132</ele>
        <time>2021-01-23T19:00:12Z</time>
      </trkpt>
      <trkpt lat="19.072774" lon="-98.611938">
        <ele>3613.510</ele>
        <time>2021-01-23T19:00:16Z</time>
      </trkpt>
      <trkpt lat="19.072822" lon="-98.611941">
        <ele>3612.131</ele>
        <time>2021-01-23T19:00:20Z</time>
      </trkpt>
      <trkpt lat="19.07287" lon="-98.611949">
        <ele>3610.143</ele>
        <time>2021-01-23T19:00:25Z</time>
      </trkpt>
      <trkpt lat="19.072915" lon="-98.611981">
        <ele>3609.715</ele>
        <time>2021-01-23T19:00:31Z</time>
      </trkpt>
      <trkpt lat="19.072966" lon="-98.611974">
        <ele>3608.778</ele>
        <time>2021-01-23T19:00:36Z</time>
      </trkpt>
      <trkpt lat="19.073007" lon="-98.61195">
        <ele>3608.954</ele>
        <time>2021-01-23T19:00:42Z</time>
      </trkpt>
      <trkpt lat="19.073061" lon="-98.61197">
        <ele>3608.282</ele>
        <time>2021-01-23T19:00:46Z</time>
      </trkpt>
      <trkpt lat="19.073116" lon="-98.611984">
        <ele>3607.838</ele>
        <time>2021-01-23T19:00:50Z</time>
      </trkpt>
      <trkpt lat="19.073167" lon="-98.611999">
        <ele>3607.170</ele>
        <time>2021-01-23T19:00:54Z</time>
      </trkpt>
      <trkpt lat="19.073217" lon="-98.612009">
        <ele>3605.117</ele>
        <time>2021-01-23T19:00:58Z</time>
      </trkpt>
      <trkpt lat="19.073274" lon="-98.612017">
        <ele>3602.308</ele>
        <time>2021-01-23T19:01:02Z</time>
      </trkpt>
      <trkpt lat="19.073329" lon="-98.612018">
        <ele>3599.869</ele>
        <time>2021-01-23T19:01:07Z</time>
      </trkpt>
      <trkpt lat="19.073386" lon="-98.612014">
        <ele>3598.757</ele>
        <time>2021-01-23T19:01:10Z</time>
      </trkpt>
      <trkpt lat="19.073436" lon="-98.611994">
        <ele>3598.898</ele>
        <time>2021-01-23T19:01:14Z</time>
      </trkpt>
      <trkpt lat="19.073468" lon="-98.611959">
        <ele>3598.580</ele>
        <time>2021-01-23T19:01:17Z</time>
      </trkpt>
      <trkpt lat="19.073512" lon="-98.611921">
        <ele>3596.312</ele>
        <time>2021-01-23T19:01:21Z</time>
      </trkpt>
      <trkpt lat="19.073532" lon="-98.611873">
        <ele>3594.285</ele>
        <time>2021-01-23T19:01:25Z</time>
      </trkpt>
      <trkpt lat="19.073553" lon="-98.61183">
        <ele>3593.781</ele>
        <time>2021-01-23T19:01:29Z</time>
      </trkpt>
      <trkpt lat="19.073586" lon="-98.611774">
        <ele>3593.499</ele>
        <time>2021-01-23T19:01:33Z</time>
      </trkpt>
      <trkpt lat="19.073605" lon="-98.611729">
        <ele>3593.634</ele>
        <time>2021-01-23T19:01:35Z</time>
      </trkpt>
      <trkpt lat="19.073621" lon="-98.611684">
        <ele>3593.355</ele>
        <time>2021-01-23T19:01:37Z</time>
      </trkpt>
      <trkpt lat="19.073655" lon="-98.611637">
        <ele>3593.510</ele>
        <time>2021-01-23T19:01:40Z</time>
      </trkpt>
      <trkpt lat="19.073696" lon="-98.611586">
        <ele>3594.408</ele>
        <time>2021-01-23T19:01:43Z</time>
      </trkpt>
      <trkpt lat="19.07373" lon="-98.611538">
        <ele>3593.439</ele>
        <time>2021-01-23T19:01:46Z</time>
      </trkpt>
      <trkpt lat="19.073756" lon="-98.611492">
        <ele>3592.887</ele>
        <time>2021-01-23T19:01:49Z</time>
      </trkpt>
      <trkpt lat="19.073789" lon="-98.611445">
        <ele>3592.468</ele>
        <time>2021-01-23T19:01:54Z</time>
      </trkpt>
      <trkpt lat="19.073831" lon="-98.611417">
        <ele>3591.840</ele>
        <time>2021-01-23T19:01:58Z</time>
      </trkpt>
      <trkpt lat="19.073868" lon="-98.611375">
        <ele>3591.472</ele>
        <time>2021-01-23T19:02:01Z</time>
      </trkpt>
      <trkpt lat="19.07389" lon="-98.61133">
        <ele>3591.655</ele>
        <time>2021-01-23T19:02:04Z</time>
      </trkpt>
      <trkpt lat="19.073919" lon="-98.611285">
        <ele>3590.971</ele>
        <time>2021-01-23T19:02:08Z</time>
      </trkpt>
      <trkpt lat="19.07395" lon="-98.61124">
        <ele>3590.169</ele>
        <time>2021-01-23T19:02:12Z</time>
      </trkpt>
      <trkpt lat="19.073983" lon="-98.611198">
        <ele>3588.447</ele>
        <time>2021-01-23T19:02:16Z</time>
      </trkpt>
      <trkpt lat="19.074007" lon="-98.611155">
        <ele>3586.629</ele>
        <time>2021-01-23T19:02:19Z</time>
      </trkpt>
      <trkpt lat="19.074037" lon="-98.611108">
        <ele>3584.321</ele>
        <time>2021-01-23T19:02:22Z</time>
      </trkpt>
      <trkpt lat="19.074084" lon="-98.611072">
        <ele>3581.708</ele>
        <time>2021-01-23T19:02:26Z</time>
      </trkpt>
      <trkpt lat="19.074127" lon="-98.611046">
        <ele>3580.630</ele>
        <time>2021-01-23T19:02:29Z</time>
      </trkpt>
      <trkpt lat="19.074174" lon="-98.611023">
        <ele>3578.738</ele>
        <time>2021-01-23T19:02:32Z</time>
      </trkpt>
      <trkpt lat="19.074227" lon="-98.611006">
        <ele>3577.679</ele>
        <time>2021-01-23T19:02:35Z</time>
      </trkpt>
      <trkpt lat="19.074285" lon="-98.610989">
        <ele>3577.761</ele>
        <time>2021-01-23T19:02:39Z</time>
      </trkpt>
      <trkpt lat="19.074333" lon="-98.610961">
        <ele>3576.613</ele>
        <time>2021-01-23T19:02:43Z</time>
      </trkpt>
      <trkpt lat="19.074372" lon="-98.610924">
        <ele>3575.166</ele>
        <time>2021-01-23T19:02:47Z</time>
      </trkpt>
      <trkpt lat="19.074416" lon="-98.61089">
        <ele>3574.262</ele>
        <time>2021-01-23T19:02:50Z</time>
      </trkpt>
      <trkpt lat="19.074468" lon="-98.610853">
        <ele>3574.580</ele>
        <time>2021-01-23T19:02:53Z</time>
      </trkpt>
      <trkpt lat="19.074512" lon="-98.610798">
        <ele>3574.711</ele>
        <time>2021-01-23T19:02:56Z</time>
      </trkpt>
      <trkpt lat="19.074553" lon="-98.610745">
        <ele>3574.821</ele>
        <time>2021-01-23T19:02:59Z</time>
      </trkpt>
      <trkpt lat="19.074581" lon="-98.610703">
        <ele>3575.303</ele>
        <time>2021-01-23T19:03:01Z</time>
      </trkpt>
      <trkpt lat="19.074624" lon="-98.610659">
        <ele>3576.008</ele>
        <time>2021-01-23T19:03:05Z</time>
      </trkpt>
      <trkpt lat="19.074678" lon="-98.610618">
        <ele>3575.697</ele>
        <time>2021-01-23T19:03:08Z</time>
      </trkpt>
      <trkpt lat="19.074715" lon="-98.610577">
        <ele>3574.645</ele>
        <time>2021-01-23T19:03:11Z</time>
      </trkpt>
      <trkpt lat="19.074749" lon="-98.610532">
        <ele>3574.886</ele>
        <time>2021-01-23T19:03:15Z</time>
      </trkpt>
      <trkpt lat="19.074796" lon="-98.610506">
        <ele>3574.128</ele>
        <time>2021-01-23T19:03:20Z</time>
      </trkpt>
      <trkpt lat="19.074843" lon="-98.61049">
        <ele>3572.940</ele>
        <time>2021-01-23T19:03:24Z</time>
      </trkpt>
      <trkpt lat="19.074901" lon="-98.610493">
        <ele>3571.473</ele>
        <time>2021-01-23T19:03:29Z</time>
      </trkpt>
      <trkpt lat="19.074958" lon="-98.610467">
        <ele>3569.729</ele>
        <time>2021-01-23T19:03:33Z</time>
      </trkpt>
      <trkpt lat="19.074998" lon="-98.61043">
        <ele>3568.387</ele>
        <time>2021-01-23T19:03:36Z</time>
      </trkpt>
      <trkpt lat="19.075025" lon="-98.610377">
        <ele>3567.835</ele>
        <time>2021-01-23T19:03:39Z</time>
      </trkpt>
      <trkpt lat="19.075069" lon="-98.61034">
        <ele>3566.786</ele>
        <time>2021-01-23T19:03:42Z</time>
      </trkpt>
      <trkpt lat="19.075109" lon="-98.610317">
        <ele>3566.914</ele>
        <time>2021-01-23T19:03:45Z</time>
      </trkpt>
      <trkpt lat="19.075157" lon="-98.610292">
        <ele>3566.608</ele>
        <time>2021-01-23T19:03:50Z</time>
      </trkpt>
      <trkpt lat="19.075196" lon="-98.610257">
        <ele>3566.429</ele>
        <time>2021-01-23T19:03:54Z</time>
      </trkpt>
      <trkpt lat="19.075244" lon="-98.610215">
        <ele>3565.997</ele>
        <time>2021-01-23T19:03:58Z</time>
      </trkpt>
      <trkpt lat="19.075279" lon="-98.610176">
        <ele>3565.698</ele>
        <time>2021-01-23T19:04:01Z</time>
      </trkpt>
      <trkpt lat="19.07532" lon="-98.610144">
        <ele>3564.220</ele>
        <time>2021-01-23T19:04:04Z</time>
      </trkpt>
      <trkpt lat="19.075368" lon="-98.610116">
        <ele>3563.492</ele>
        <time>2021-01-23T19:04:07Z</time>
      </trkpt>
      <trkpt lat="19.075413" lon="-98.610081">
        <ele>3563.345</ele>
        <time>2021-01-23T19:04:10Z</time>
      </trkpt>
      <trkpt lat="19.07545" lon="-98.610041">
        <ele>3563.261</ele>
        <time>2021-01-23T19:04:13Z</time>
      </trkpt>
      <trkpt lat="19.075498" lon="-98.610016">
        <ele>3561.679</ele>
        <time>2021-01-23T19:04:17Z</time>
      </trkpt>
      <trkpt lat="19.075552" lon="-98.609995">
        <ele>3561.039</ele>
        <time>2021-01-23T19:04:22Z</time>
      </trkpt>
      <trkpt lat="19.075596" lon="-98.609982">
        <ele>3559.501</ele>
        <time>2021-01-23T19:04:26Z</time>
      </trkpt>
      <trkpt lat="19.075665" lon="-98.609982">
        <ele>3558.221</ele>
        <time>2021-01-23T19:04:29Z</time>
      </trkpt>
      <trkpt lat="19.075714" lon="-98.609986">
        <ele>3556.208</ele>
        <time>2021-01-23T19:04:31Z</time>
      </trkpt>
      <trkpt lat="19.075763" lon="-98.609979">
        <ele>3555.489</ele>
        <time>2021-01-23T19:04:33Z</time>
      </trkpt>
      <trkpt lat="19.075809" lon="-98.609959">
        <ele>3554.517</ele>
        <time>2021-01-23T19:04:35Z</time>
      </trkpt>
      <trkpt lat="19.075855" lon="-98.609936">
        <ele>3553.288</ele>
        <time>2021-01-23T19:04:37Z</time>
      </trkpt>
      <trkpt lat="19.075901" lon="-98.609923">
        <ele>3550.870</ele>
        <time>2021-01-23T19:04:41Z</time>
      </trkpt>
      <trkpt lat="19.075953" lon="-98.609919">
        <ele>3550.282</ele>
        <time>2021-01-23T19:04:44Z</time>
      </trkpt>
      <trkpt lat="19.076017" lon="-98.609897">
        <ele>3549.885</ele>
        <time>2021-01-23T19:04:47Z</time>
      </trkpt>
      <trkpt lat="19.076061" lon="-98.609877">
        <ele>3549.661</ele>
        <time>2021-01-23T19:04:49Z</time>
      </trkpt>
      <trkpt lat="19.076104" lon="-98.60986">
        <ele>3549.969</ele>
        <time>2021-01-23T19:04:51Z</time>
      </trkpt>
      <trkpt lat="19.076171" lon="-98.609843">
        <ele>3549.397</ele>
        <time>2021-01-23T19:04:54Z</time>
      </trkpt>
      <trkpt lat="19.076219" lon="-98.60985">
        <ele>3549.323</ele>
        <time>2021-01-23T19:04:56Z</time>
      </trkpt>
      <trkpt lat="19.076276" lon="-98.609856">
        <ele>3549.325</ele>
        <time>2021-01-23T19:04:59Z</time>
      </trkpt>
      <trkpt lat="19.076331" lon="-98.609867">
        <ele>3549.708</ele>
        <time>2021-01-23T19:05:02Z</time>
      </trkpt>
      <trkpt lat="19.076385" lon="-98.609877">
        <ele>3549.915</ele>
        <time>2021-01-23T19:05:05Z</time>
      </trkpt>
      <trkpt lat="19.076434" lon="-98.609863">
        <ele>3549.283</ele>
        <time>2021-01-23T19:05:09Z</time>
      </trkpt>
      <trkpt lat="19.076473" lon="-98.609818">
        <ele>3548.884</ele>
        <time>2021-01-23T19:05:13Z</time>
      </trkpt>
      <trkpt lat="19.076508" lon="-98.609787">
        <ele>3548.676</ele>
        <time>2021-01-23T19:05:16Z</time>
      </trkpt>
      <trkpt lat="19.076555" lon="-98.609756">
        <ele>3548.538</ele>
        <time>2021-01-23T19:05:20Z</time>
      </trkpt>
      <trkpt lat="19.076607" lon="-98.609718">
        <ele>3546.891</ele>
        <time>2021-01-23T19:05:23Z</time>
      </trkpt>
      <trkpt lat="19.076658" lon="-98.609694">
        <ele>3544.257</ele>
        <time>2021-01-23T19:05:26Z</time>
      </trkpt>
      <trkpt lat="19.076704" lon="-98.609691">
        <ele>3542.235</ele>
        <time>2021-01-23T19:05:29Z</time>
      </trkpt>
      <trkpt lat="19.076758" lon="-98.60968">
        <ele>3540.659</ele>
        <time>2021-01-23T19:05:32Z</time>
      </trkpt>
      <trkpt lat="19.076801" lon="-98.609655">
        <ele>3539.303</ele>
        <time>2021-01-23T19:05:36Z</time>
      </trkpt>
      <trkpt lat="19.076862" lon="-98.609661">
        <ele>3536.123</ele>
        <time>2021-01-23T19:05:42Z</time>
      </trkpt>
      <trkpt lat="19.076922" lon="-98.609692">
        <ele>3534.608</ele>
        <time>2021-01-23T19:05:45Z</time>
      </trkpt>
      <trkpt lat="19.076966" lon="-98.609728">
        <ele>3534.541</ele>
        <time>2021-01-23T19:05:47Z</time>
      </trkpt>
      <trkpt lat="19.076998" lon="-98.609765">
        <ele>3533.229</ele>
        <time>2021-01-23T19:05:49Z</time>
      </trkpt>
      <trkpt lat="19.077051" lon="-98.60982">
        <ele>3531.260</ele>
        <time>2021-01-23T19:05:52Z</time>
      </trkpt>
      <trkpt lat="19.077094" lon="-98.609846">
        <ele>3530.452</ele>
        <time>2021-01-23T19:05:54Z</time>
      </trkpt>
      <trkpt lat="19.077134" lon="-98.609869">
        <ele>3529.994</ele>
        <time>2021-01-23T19:05:58Z</time>
      </trkpt>
      <trkpt lat="19.077177" lon="-98.609908">
        <ele>3530.017</ele>
        <time>2021-01-23T19:06:01Z</time>
      </trkpt>
      <trkpt lat="19.077214" lon="-98.609936">
        <ele>3530.573</ele>
        <time>2021-01-23T19:06:03Z</time>
      </trkpt>
      <trkpt lat="19.077255" lon="-98.609981">
        <ele>3530.821</ele>
        <time>2021-01-23T19:06:06Z</time>
      </trkpt>
      <trkpt lat="19.077277" lon="-98.610034">
        <ele>3530.642</ele>
        <time>2021-01-23T19:06:09Z</time>
      </trkpt>
      <trkpt lat="19.077288" lon="-98.610092">
        <ele>3530.522</ele>
        <time>2021-01-23T19:06:12Z</time>
      </trkpt>
      <trkpt lat="19.077294" lon="-98.610141">
        <ele>3530.414</ele>
        <time>2021-01-23T19:06:14Z</time>
      </trkpt>
      <trkpt lat="19.077297" lon="-98.610196">
        <ele>3531.208</ele>
        <time>2021-01-23T19:06:17Z</time>
      </trkpt>
      <trkpt lat="19.077302" lon="-98.610244">
        <ele>3532.560</ele>
        <time>2021-01-23T19:06:20Z</time>
      </trkpt>
      <trkpt lat="19.077331" lon="-98.610298">
        <ele>3533.398</ele>
        <time>2021-01-23T19:06:23Z</time>
      </trkpt>
      <trkpt lat="19.077389" lon="-98.610337">
        <ele>3533.839</ele>
        <time>2021-01-23T19:06:26Z</time>
      </trkpt>
      <trkpt lat="19.07745" lon="-98.610364">
        <ele>3533.791</ele>
        <time>2021-01-23T19:06:28Z</time>
      </trkpt>
      <trkpt lat="19.077506" lon="-98.610385">
        <ele>3533.233</ele>
        <time>2021-01-23T19:06:30Z</time>
      </trkpt>
      <trkpt lat="19.077559" lon="-98.610401">
        <ele>3532.926</ele>
        <time>2021-01-23T19:06:32Z</time>
      </trkpt>
      <trkpt lat="19.077616" lon="-98.610423">
        <ele>3532.712</ele>
        <time>2021-01-23T19:06:34Z</time>
      </trkpt>
      <trkpt lat="19.077672" lon="-98.61044">
        <ele>3533.030</ele>
        <time>2021-01-23T19:06:37Z</time>
      </trkpt>
      <trkpt lat="19.077726" lon="-98.610465">
        <ele>3533.296</ele>
        <time>2021-01-23T19:06:40Z</time>
      </trkpt>
      <trkpt lat="19.077779" lon="-98.61047">
        <ele>3532.531</ele>
        <time>2021-01-23T19:06:44Z</time>
      </trkpt>
      <trkpt lat="19.07784" lon="-98.610459">
        <ele>3531.324</ele>
        <time>2021-01-23T19:06:47Z</time>
      </trkpt>
      <trkpt lat="19.077882" lon="-98.610485">
        <ele>3528.608</ele>
        <time>2021-01-23T19:06:50Z</time>
      </trkpt>
      <trkpt lat="19.077935" lon="-98.610506">
        <ele>3527.065</ele>
        <time>2021-01-23T19:06:53Z</time>
      </trkpt>
      <trkpt lat="19.077981" lon="-98.610521">
        <ele>3526.463</ele>
        <time>2021-01-23T19:06:56Z</time>
      </trkpt>
      <trkpt lat="19.078022" lon="-98.610542">
        <ele>3525.774</ele>
        <time>2021-01-23T19:07:00Z</time>
      </trkpt>
      <trkpt lat="19.078066" lon="-98.610555">
        <ele>3525.386</ele>
        <time>2021-01-23T19:07:03Z</time>
      </trkpt>
      <trkpt lat="19.078112" lon="-98.610549">
        <ele>3524.698</ele>
        <time>2021-01-23T19:07:07Z</time>
      </trkpt>
      <trkpt lat="19.078143" lon="-98.610506">
        <ele>3524.281</ele>
        <time>2021-01-23T19:07:15Z</time>
      </trkpt>
      <trkpt lat="19.078205" lon="-98.61048">
        <ele>3525.287</ele>
        <time>2021-01-23T19:07:24Z</time>
      </trkpt>
      <trkpt lat="19.078236" lon="-98.610429">
        <ele>3525.085</ele>
        <time>2021-01-23T19:07:27Z</time>
      </trkpt>
      <trkpt lat="19.07826" lon="-98.610383">
        <ele>3523.772</ele>
        <time>2021-01-23T19:07:29Z</time>
      </trkpt>
      <trkpt lat="19.078309" lon="-98.610352">
        <ele>3522.113</ele>
        <time>2021-01-23T19:07:32Z</time>
      </trkpt>
      <trkpt lat="19.078353" lon="-98.610341">
        <ele>3521.114</ele>
        <time>2021-01-23T19:07:36Z</time>
      </trkpt>
      <trkpt lat="19.078398" lon="-98.610333">
        <ele>3518.108</ele>
        <time>2021-01-23T19:07:45Z</time>
      </trkpt>
      <trkpt lat="19.078434" lon="-98.610284">
        <ele>3515.553</ele>
        <time>2021-01-23T19:07:49Z</time>
      </trkpt>
      <trkpt lat="19.078467" lon="-98.61024">
        <ele>3514.361</ele>
        <time>2021-01-23T19:07:53Z</time>
      </trkpt>
      <trkpt lat="19.078497" lon="-98.610197">
        <ele>3513.292</ele>
        <time>2021-01-23T19:07:57Z</time>
      </trkpt>
      <trkpt lat="19.078545" lon="-98.610174">
        <ele>3513.794</ele>
        <time>2021-01-23T19:08:02Z</time>
      </trkpt>
      <trkpt lat="19.078584" lon="-98.610143">
        <ele>3514.036</ele>
        <time>2021-01-23T19:08:08Z</time>
      </trkpt>
      <trkpt lat="19.078652" lon="-98.610149">
        <ele>3513.059</ele>
        <time>2021-01-23T19:08:14Z</time>
      </trkpt>
      <trkpt lat="19.078708" lon="-98.610129">
        <ele>3512.025</ele>
        <time>2021-01-23T19:08:16Z</time>
      </trkpt>
      <trkpt lat="19.078759" lon="-98.61011">
        <ele>3511.433</ele>
        <time>2021-01-23T19:08:18Z</time>
      </trkpt>
      <trkpt lat="19.07881" lon="-98.610085">
        <ele>3511.049</ele>
        <time>2021-01-23T19:08:20Z</time>
      </trkpt>
      <trkpt lat="19.07887" lon="-98.61007">
        <ele>3510.802</ele>
        <time>2021-01-23T19:08:22Z</time>
      </trkpt>
      <trkpt lat="19.078928" lon="-98.610059">
        <ele>3510.322</ele>
        <time>2021-01-23T19:08:24Z</time>
      </trkpt>
      <trkpt lat="19.078987" lon="-98.610056">
        <ele>3508.808</ele>
        <time>2021-01-23T19:08:27Z</time>
      </trkpt>
      <trkpt lat="19.079032" lon="-98.610081">
        <ele>3507.520</ele>
        <time>2021-01-23T19:08:29Z</time>
      </trkpt>
      <trkpt lat="19.079073" lon="-98.610102">
        <ele>3506.748</ele>
        <time>2021-01-23T19:08:32Z</time>
      </trkpt>
      <trkpt lat="19.079121" lon="-98.610107">
        <ele>3506.279</ele>
        <time>2021-01-23T19:08:35Z</time>
      </trkpt>
      <trkpt lat="19.079179" lon="-98.610125">
        <ele>3506.741</ele>
        <time>2021-01-23T19:08:38Z</time>
      </trkpt>
      <trkpt lat="19.079228" lon="-98.610123">
        <ele>3507.033</ele>
        <time>2021-01-23T19:08:41Z</time>
      </trkpt>
      <trkpt lat="19.079286" lon="-98.610115">
        <ele>3507.686</ele>
        <time>2021-01-23T19:08:44Z</time>
      </trkpt>
      <trkpt lat="19.079346" lon="-98.610116">
        <ele>3508.072</ele>
        <time>2021-01-23T19:08:47Z</time>
      </trkpt>
      <trkpt lat="19.07939" lon="-98.610099">
        <ele>3508.220</ele>
        <time>2021-01-23T19:08:49Z</time>
      </trkpt>
      <trkpt lat="19.079441" lon="-98.610073">
        <ele>3508.368</ele>
        <time>2021-01-23T19:08:52Z</time>
      </trkpt>
      <trkpt lat="19.079495" lon="-98.610047">
        <ele>3508.842</ele>
        <time>2021-01-23T19:08:55Z</time>
      </trkpt>
      <trkpt lat="19.079537" lon="-98.61002">
        <ele>3508.726</ele>
        <time>2021-01-23T19:08:57Z</time>
      </trkpt>
      <trkpt lat="19.079587" lon="-98.609986">
        <ele>3509.008</ele>
        <time>2021-01-23T19:09:00Z</time>
      </trkpt>
      <trkpt lat="19.079621" lon="-98.609948">
        <ele>3509.272</ele>
        <time>2021-01-23T19:09:03Z</time>
      </trkpt>
      <trkpt lat="19.079652" lon="-98.60991">
        <ele>3509.320</ele>
        <time>2021-01-23T19:09:06Z</time>
      </trkpt>
      <trkpt lat="19.079683" lon="-98.60985">
        <ele>3509.891</ele>
        <time>2021-01-23T19:09:09Z</time>
      </trkpt>
      <trkpt lat="19.079709" lon="-98.60981">
        <ele>3508.573</ele>
        <time>2021-01-23T19:09:12Z</time>
      </trkpt>
      <trkpt lat="19.079759" lon="-98.609794">
        <ele>3507.315</ele>
        <time>2021-01-23T19:09:15Z</time>
      </trkpt>
      <trkpt lat="19.079804" lon="-98.609785">
        <ele>3506.258</ele>
        <time>2021-01-23T19:09:18Z</time>
      </trkpt>
      <trkpt lat="19.079853" lon="-98.609767">
        <ele>3505.114</ele>
        <time>2021-01-23T19:09:22Z</time>
      </trkpt>
      <trkpt lat="19.079893" lon="-98.609736">
        <ele>3503.352</ele>
        <time>2021-01-23T19:09:26Z</time>
      </trkpt>
      <trkpt lat="19.07994" lon="-98.609716">
        <ele>3502.251</ele>
        <time>2021-01-23T19:09:30Z</time>
      </trkpt>
      <trkpt lat="19.079986" lon="-98.609683">
        <ele>3501.501</ele>
        <time>2021-01-23T19:09:33Z</time>
      </trkpt>
      <trkpt lat="19.080032" lon="-98.609646">
        <ele>3500.311</ele>
        <time>2021-01-23T19:09:37Z</time>
      </trkpt>
      <trkpt lat="19.080069" lon="-98.609618">
        <ele>3500.408</ele>
        <time>2021-01-23T19:09:40Z</time>
      </trkpt>
      <trkpt lat="19.080119" lon="-98.609586">
        <ele>3501.241</ele>
        <time>2021-01-23T19:09:44Z</time>
      </trkpt>
      <trkpt lat="19.08017" lon="-98.609546">
        <ele>3500.919</ele>
        <time>2021-01-23T19:09:47Z</time>
      </trkpt>
      <trkpt lat="19.080211" lon="-98.609519">
        <ele>3501.140</ele>
        <time>2021-01-23T19:09:49Z</time>
      </trkpt>
      <trkpt lat="19.08025" lon="-98.609485">
        <ele>3501.292</ele>
        <time>2021-01-23T19:09:51Z</time>
      </trkpt>
      <trkpt lat="19.08028" lon="-98.609445">
        <ele>3500.954</ele>
        <time>2021-01-23T19:09:53Z</time>
      </trkpt>
      <trkpt lat="19.080313" lon="-98.609408">
        <ele>3499.947</ele>
        <time>2021-01-23T19:09:55Z</time>
      </trkpt>
      <trkpt lat="19.080357" lon="-98.609373">
        <ele>3498.913</ele>
        <time>2021-01-23T19:09:57Z</time>
      </trkpt>
      <trkpt lat="19.080393" lon="-98.609333">
        <ele>3499.121</ele>
        <time>2021-01-23T19:09:59Z</time>
      </trkpt>
      <trkpt lat="19.080427" lon="-98.609291">
        <ele>3499.291</ele>
        <time>2021-01-23T19:10:01Z</time>
      </trkpt>
      <trkpt lat="19.080464" lon="-98.609235">
        <ele>3498.981</ele>
        <time>2021-01-23T19:10:04Z</time>
      </trkpt>
      <trkpt lat="19.080493" lon="-98.609194">
        <ele>3497.919</ele>
        <time>2021-01-23T19:10:07Z</time>
      </trkpt>
      <trkpt lat="19.080513" lon="-98.609147">
        <ele>3497.708</ele>
        <time>2021-01-23T19:10:10Z</time>
      </trkpt>
      <trkpt lat="19.080537" lon="-98.609087">
        <ele>3497.695</ele>
        <time>2021-01-23T19:10:13Z</time>
      </trkpt>
      <trkpt lat="19.080549" lon="-98.609029">
        <ele>3497.123</ele>
        <time>2021-01-23T19:10:16Z</time>
      </trkpt>
      <trkpt lat="19.080559" lon="-98.608982">
        <ele>3496.884</ele>
        <time>2021-01-23T19:10:21Z</time>
      </trkpt>
      <trkpt lat="19.080571" lon="-98.608929">
        <ele>3495.016</ele>
        <time>2021-01-23T19:10:25Z</time>
      </trkpt>
      <trkpt lat="19.08059" lon="-98.608885">
        <ele>3493.948</ele>
        <time>2021-01-23T19:10:28Z</time>
      </trkpt>
      <trkpt lat="19.080624" lon="-98.608834">
        <ele>3492.941</ele>
        <time>2021-01-23T19:10:31Z</time>
      </trkpt>
      <trkpt lat="19.08066" lon="-98.608797">
        <ele>3493.167</ele>
        <time>2021-01-23T19:10:34Z</time>
      </trkpt>
      <trkpt lat="19.080692" lon="-98.608761">
        <ele>3493.655</ele>
        <time>2021-01-23T19:10:37Z</time>
      </trkpt>
      <trkpt lat="19.080734" lon="-98.60873">
        <ele>3493.547</ele>
        <time>2021-01-23T19:10:41Z</time>
      </trkpt>
      <trkpt lat="19.080781" lon="-98.608712">
        <ele>3493.029</ele>
        <time>2021-01-23T19:10:45Z</time>
      </trkpt>
      <trkpt lat="19.080819" lon="-98.608685">
        <ele>3493.121</ele>
        <time>2021-01-23T19:10:48Z</time>
      </trkpt>
      <trkpt lat="19.080856" lon="-98.608644">
        <ele>3494.008</ele>
        <time>2021-01-23T19:10:51Z</time>
      </trkpt>
      <trkpt lat="19.080886" lon="-98.608606">
        <ele>3494.140</ele>
        <time>2021-01-23T19:10:54Z</time>
      </trkpt>
      <trkpt lat="19.080928" lon="-98.608574">
        <ele>3493.868</ele>
        <time>2021-01-23T19:10:58Z</time>
      </trkpt>
      <trkpt lat="19.080967" lon="-98.608549">
        <ele>3494.499</ele>
        <time>2021-01-23T19:11:01Z</time>
      </trkpt>
      <trkpt lat="19.081004" lon="-98.608514">
        <ele>3495.211</ele>
        <time>2021-01-23T19:11:04Z</time>
      </trkpt>
      <trkpt lat="19.081045" lon="-98.608491">
        <ele>3495.333</ele>
        <time>2021-01-23T19:11:09Z</time>
      </trkpt>
      <trkpt lat="19.081089" lon="-98.608446">
        <ele>3495.716</ele>
        <time>2021-01-23T19:11:12Z</time>
      </trkpt>
      <trkpt lat="19.081128" lon="-98.608413">
        <ele>3495.652</ele>
        <time>2021-01-23T19:11:14Z</time>
      </trkpt>
      <trkpt lat="19.081192" lon="-98.608394">
        <ele>3494.740</ele>
        <time>2021-01-23T19:11:17Z</time>
      </trkpt>
      <trkpt lat="19.081241" lon="-98.60839">
        <ele>3493.884</ele>
        <time>2021-01-23T19:11:20Z</time>
      </trkpt>
      <trkpt lat="19.081292" lon="-98.608376">
        <ele>3491.607</ele>
        <time>2021-01-23T19:11:24Z</time>
      </trkpt>
      <trkpt lat="19.081342" lon="-98.608363">
        <ele>3489.117</ele>
        <time>2021-01-23T19:11:28Z</time>
      </trkpt>
      <trkpt lat="19.081387" lon="-98.608351">
        <ele>3486.408</ele>
        <time>2021-01-23T19:11:32Z</time>
      </trkpt>
      <trkpt lat="19.081426" lon="-98.608324">
        <ele>3485.614</ele>
        <time>2021-01-23T19:11:36Z</time>
      </trkpt>
      <trkpt lat="19.081475" lon="-98.60829">
        <ele>3485.582</ele>
        <time>2021-01-23T19:11:40Z</time>
      </trkpt>
      <trkpt lat="19.081518" lon="-98.608259">
        <ele>3486.223</ele>
        <time>2021-01-23T19:11:44Z</time>
      </trkpt>
      <trkpt lat="19.081558" lon="-98.608236">
        <ele>3487.015</ele>
        <time>2021-01-23T19:11:47Z</time>
      </trkpt>
      <trkpt lat="19.081592" lon="-98.608198">
        <ele>3487.537</ele>
        <time>2021-01-23T19:11:51Z</time>
      </trkpt>
      <trkpt lat="19.081632" lon="-98.60817">
        <ele>3487.880</ele>
        <time>2021-01-23T19:11:57Z</time>
      </trkpt>
      <trkpt lat="19.081688" lon="-98.608151">
        <ele>3488.096</ele>
        <time>2021-01-23T19:12:01Z</time>
      </trkpt>
      <trkpt lat="19.081726" lon="-98.608113">
        <ele>3488.164</ele>
        <time>2021-01-23T19:12:04Z</time>
      </trkpt>
      <trkpt lat="19.081765" lon="-98.608075">
        <ele>3487.811</ele>
        <time>2021-01-23T19:12:07Z</time>
      </trkpt>
      <trkpt lat="19.081834" lon="-98.608061">
        <ele>3486.821</ele>
        <time>2021-01-23T19:12:10Z</time>
      </trkpt>
      <trkpt lat="19.08189" lon="-98.608044">
        <ele>3487.003</ele>
        <time>2021-01-23T19:12:13Z</time>
      </trkpt>
      <trkpt lat="19.08194" lon="-98.608036">
        <ele>3487.108</ele>
        <time>2021-01-23T19:12:16Z</time>
      </trkpt>
      <trkpt lat="19.081986" lon="-98.608027">
        <ele>3486.817</ele>
        <time>2021-01-23T19:12:20Z</time>
      </trkpt>
      <trkpt lat="19.082032" lon="-98.608018">
        <ele>3484.615</ele>
        <time>2021-01-23T19:12:24Z</time>
      </trkpt>
      <trkpt lat="19.082088" lon="-98.608037">
        <ele>3482.956</ele>
        <time>2021-01-23T19:12:28Z</time>
      </trkpt>
      <trkpt lat="19.082132" lon="-98.608051">
        <ele>3481.188</ele>
        <time>2021-01-23T19:12:31Z</time>
      </trkpt>
      <trkpt lat="19.082188" lon="-98.608038">
        <ele>3480.060</ele>
        <time>2021-01-23T19:12:35Z</time>
      </trkpt>
      <trkpt lat="19.082242" lon="-98.608017">
        <ele>3478.923</ele>
        <time>2021-01-23T19:12:39Z</time>
      </trkpt>
      <trkpt lat="19.082297" lon="-98.607995">
        <ele>3478.339</ele>
        <time>2021-01-23T19:12:43Z</time>
      </trkpt>
      <trkpt lat="19.082341" lon="-98.60798">
        <ele>3477.577</ele>
        <time>2021-01-23T19:12:46Z</time>
      </trkpt>
      <trkpt lat="19.082393" lon="-98.607971">
        <ele>3477.474</ele>
        <time>2021-01-23T19:12:50Z</time>
      </trkpt>
      <trkpt lat="19.082437" lon="-98.60795">
        <ele>3478.256</ele>
        <time>2021-01-23T19:12:53Z</time>
      </trkpt>
      <trkpt lat="19.082486" lon="-98.607924">
        <ele>3478.321</ele>
        <time>2021-01-23T19:12:56Z</time>
      </trkpt>
      <trkpt lat="19.082522" lon="-98.607894">
        <ele>3479.108</ele>
        <time>2021-01-23T19:12:59Z</time>
      </trkpt>
      <trkpt lat="19.082565" lon="-98.60786">
        <ele>3480.463</ele>
        <time>2021-01-23T19:13:03Z</time>
      </trkpt>
      <trkpt lat="19.082605" lon="-98.607825">
        <ele>3480.841</ele>
        <time>2021-01-23T19:13:07Z</time>
      </trkpt>
      <trkpt lat="19.082662" lon="-98.607802">
        <ele>3480.282</ele>
        <time>2021-01-23T19:13:11Z</time>
      </trkpt>
      <trkpt lat="19.082708" lon="-98.607775">
        <ele>3480.364</ele>
        <time>2021-01-23T19:13:14Z</time>
      </trkpt>
      <trkpt lat="19.082751" lon="-98.60774">
        <ele>3480.796</ele>
        <time>2021-01-23T19:13:18Z</time>
      </trkpt>
      <trkpt lat="19.082791" lon="-98.607713">
        <ele>3481.429</ele>
        <time>2021-01-23T19:13:22Z</time>
      </trkpt>
      <trkpt lat="19.082836" lon="-98.607688">
        <ele>3481.845</ele>
        <time>2021-01-23T19:13:26Z</time>
      </trkpt>
      <trkpt lat="19.082885" lon="-98.607649">
        <ele>3481.283</ele>
        <time>2021-01-23T19:13:30Z</time>
      </trkpt>
      <trkpt lat="19.082928" lon="-98.607626">
        <ele>3480.548</ele>
        <time>2021-01-23T19:13:33Z</time>
      </trkpt>
      <trkpt lat="19.082973" lon="-98.607599">
        <ele>3479.761</ele>
        <time>2021-01-23T19:13:36Z</time>
      </trkpt>
      <trkpt lat="19.08302" lon="-98.607565">
        <ele>3479.617</ele>
        <time>2021-01-23T19:13:39Z</time>
      </trkpt>
      <trkpt lat="19.08306" lon="-98.607521">
        <ele>3479.908</ele>
        <time>2021-01-23T19:13:43Z</time>
      </trkpt>
      <trkpt lat="19.0831" lon="-98.607482">
        <ele>3479.380</ele>
        <time>2021-01-23T19:13:47Z</time>
      </trkpt>
      <trkpt lat="19.083141" lon="-98.607453">
        <ele>3477.368</ele>
        <time>2021-01-23T19:13:51Z</time>
      </trkpt>
      <trkpt lat="19.083189" lon="-98.60744">
        <ele>3475.369</ele>
        <time>2021-01-23T19:13:55Z</time>
      </trkpt>
      <trkpt lat="19.083238" lon="-98.607421">
        <ele>3474.511</ele>
        <time>2021-01-23T19:14:00Z</time>
      </trkpt>
      <trkpt lat="19.083279" lon="-98.607393">
        <ele>3473.673</ele>
        <time>2021-01-23T19:14:05Z</time>
      </trkpt>
      <trkpt lat="19.083311" lon="-98.607356">
        <ele>3473.936</ele>
        <time>2021-01-23T19:14:15Z</time>
      </trkpt>
      <trkpt lat="19.083339" lon="-98.607308">
        <ele>3474.192</ele>
        <time>2021-01-23T19:14:18Z</time>
      </trkpt>
      <trkpt lat="19.083377" lon="-98.607269">
        <ele>3473.860</ele>
        <time>2021-01-23T19:14:21Z</time>
      </trkpt>
      <trkpt lat="19.08342" lon="-98.607219">
        <ele>3474.083</ele>
        <time>2021-01-23T19:14:24Z</time>
      </trkpt>
      <trkpt lat="19.083461" lon="-98.60719">
        <ele>3474.125</ele>
        <time>2021-01-23T19:14:27Z</time>
      </trkpt>
      <trkpt lat="19.083499" lon="-98.607162">
        <ele>3473.417</ele>
        <time>2021-01-23T19:14:31Z</time>
      </trkpt>
      <trkpt lat="19.083537" lon="-98.607113">
        <ele>3473.008</ele>
        <time>2021-01-23T19:14:35Z</time>
      </trkpt>
      <trkpt lat="19.083557" lon="-98.607068">
        <ele>3473.994</ele>
        <time>2021-01-23T19:14:37Z</time>
      </trkpt>
      <trkpt lat="19.083576" lon="-98.60702">
        <ele>3475.312</ele>
        <time>2021-01-23T19:14:39Z</time>
      </trkpt>
      <trkpt lat="19.083606" lon="-98.606967">
        <ele>3475.393</ele>
        <time>2021-01-23T19:14:43Z</time>
      </trkpt>
      <trkpt lat="19.083635" lon="-98.606928">
        <ele>3474.565</ele>
        <time>2021-01-23T19:14:46Z</time>
      </trkpt>
      <trkpt lat="19.083666" lon="-98.606881">
        <ele>3474.447</ele>
        <time>2021-01-23T19:14:49Z</time>
      </trkpt>
      <trkpt lat="19.083706" lon="-98.606836">
        <ele>3474.040</ele>
        <time>2021-01-23T19:14:52Z</time>
      </trkpt>
      <trkpt lat="19.083741" lon="-98.606789">
        <ele>3473.786</ele>
        <time>2021-01-23T19:14:56Z</time>
      </trkpt>
      <trkpt lat="19.083785" lon="-98.606758">
        <ele>3473.534</ele>
        <time>2021-01-23T19:15:01Z</time>
      </trkpt>
      <trkpt lat="19.083835" lon="-98.606746">
        <ele>3471.068</ele>
        <time>2021-01-23T19:15:07Z</time>
      </trkpt>
      <trkpt lat="19.083884" lon="-98.606712">
        <ele>3468.742</ele>
        <time>2021-01-23T19:15:11Z</time>
      </trkpt>
      <trkpt lat="19.083931" lon="-98.606677">
        <ele>3467.726</ele>
        <time>2021-01-23T19:15:15Z</time>
      </trkpt>
      <trkpt lat="19.083963" lon="-98.606641">
        <ele>3467.908</ele>
        <time>2021-01-23T19:15:18Z</time>
      </trkpt>
      <trkpt lat="19.083996" lon="-98.606593">
        <ele>3468.052</ele>
        <time>2021-01-23T19:15:21Z</time>
      </trkpt>
      <trkpt lat="19.084018" lon="-98.606549">
        <ele>3467.750</ele>
        <time>2021-01-23T19:15:24Z</time>
      </trkpt>
      <trkpt lat="19.084063" lon="-98.606512">
        <ele>3467.541</ele>
        <time>2021-01-23T19:15:27Z</time>
      </trkpt>
      <trkpt lat="19.084101" lon="-98.606475">
        <ele>3467.013</ele>
        <time>2021-01-23T19:15:31Z</time>
      </trkpt>
      <trkpt lat="19.08414" lon="-98.606439">
        <ele>3466.715</ele>
        <time>2021-01-23T19:15:36Z</time>
      </trkpt>
      <trkpt lat="19.084188" lon="-98.606433">
        <ele>3468.128</ele>
        <time>2021-01-23T19:15:40Z</time>
      </trkpt>
      <trkpt lat="19.084216" lon="-98.606382">
        <ele>3468.134</ele>
        <time>2021-01-23T19:15:43Z</time>
      </trkpt>
      <trkpt lat="19.084241" lon="-98.606336">
        <ele>3467.782</ele>
        <time>2021-01-23T19:15:47Z</time>
      </trkpt>
      <trkpt lat="19.084281" lon="-98.60631">
        <ele>3465.912</ele>
        <time>2021-01-23T19:15:51Z</time>
      </trkpt>
      <trkpt lat="19.084318" lon="-98.606278">
        <ele>3464.432</ele>
        <time>2021-01-23T19:15:55Z</time>
      </trkpt>
      <trkpt lat="19.084361" lon="-98.606247">
        <ele>3463.905</ele>
        <time>2021-01-23T19:15:58Z</time>
      </trkpt>
      <trkpt lat="19.084403" lon="-98.606226">
        <ele>3463.608</ele>
        <time>2021-01-23T19:16:01Z</time>
      </trkpt>
      <trkpt lat="19.084455" lon="-98.606206">
        <ele>3463.837</ele>
        <time>2021-01-23T19:16:05Z</time>
      </trkpt>
      <trkpt lat="19.084476" lon="-98.606157">
        <ele>3462.765</ele>
        <time>2021-01-23T19:16:09Z</time>
      </trkpt>
      <trkpt lat="19.084522" lon="-98.606121">
        <ele>3462.946</ele>
        <time>2021-01-23T19:16:13Z</time>
      </trkpt>
      <trkpt lat="19.084574" lon="-98.606109">
        <ele>3463.838</ele>
        <time>2021-01-23T19:16:17Z</time>
      </trkpt>
      <trkpt lat="19.084627" lon="-98.606105">
        <ele>3462.750</ele>
        <time>2021-01-23T19:16:21Z</time>
      </trkpt>
      <trkpt lat="19.08467" lon="-98.606122">
        <ele>3462.513</ele>
        <time>2021-01-23T19:16:24Z</time>
      </trkpt>
      <trkpt lat="19.084717" lon="-98.606126">
        <ele>3462.869</ele>
        <time>2021-01-23T19:16:27Z</time>
      </trkpt>
      <trkpt lat="19.084759" lon="-98.606107">
        <ele>3463.427</ele>
        <time>2021-01-23T19:16:31Z</time>
      </trkpt>
      <trkpt lat="19.084777" lon="-98.606062">
        <ele>3464.133</ele>
        <time>2021-01-23T19:16:37Z</time>
      </trkpt>
      <trkpt lat="19.084819" lon="-98.606034">
        <ele>3465.723</ele>
        <time>2021-01-23T19:16:42Z</time>
      </trkpt>
      <trkpt lat="19.084867" lon="-98.605989">
        <ele>3467.115</ele>
        <time>2021-01-23T19:16:46Z</time>
      </trkpt>
      <trkpt lat="19.084929" lon="-98.60598">
        <ele>3468.308</ele>
        <time>2021-01-23T19:16:49Z</time>
      </trkpt>
      <trkpt lat="19.084988" lon="-98.605959">
        <ele>3467.489</ele>
        <time>2021-01-23T19:16:52Z</time>
      </trkpt>
      <trkpt lat="19.085027" lon="-98.605934">
        <ele>3468.197</ele>
        <time>2021-01-23T19:16:56Z</time>
      </trkpt>
      <trkpt lat="19.085071" lon="-98.605893">
        <ele>3467.758</ele>
        <time>2021-01-23T19:16:59Z</time>
      </trkpt>
      <trkpt lat="19.085086" lon="-98.605841">
        <ele>3467.990</ele>
        <time>2021-01-23T19:17:06Z</time>
      </trkpt>
      <trkpt lat="19.085121" lon="-98.60581">
        <ele>3467.642</ele>
        <time>2021-01-23T19:17:09Z</time>
      </trkpt>
      <trkpt lat="19.085158" lon="-98.605743">
        <ele>3468.625</ele>
        <time>2021-01-23T19:17:12Z</time>
      </trkpt>
      <trkpt lat="19.085185" lon="-98.605681">
        <ele>3468.871</ele>
        <time>2021-01-23T19:17:14Z</time>
      </trkpt>
      <trkpt lat="19.08521" lon="-98.605625">
        <ele>3468.559</ele>
        <time>2021-01-23T19:17:17Z</time>
      </trkpt>
      <trkpt lat="19.085236" lon="-98.605586">
        <ele>3467.577</ele>
        <time>2021-01-23T19:17:20Z</time>
      </trkpt>
      <trkpt lat="19.085246" lon="-98.605536">
        <ele>3466.561</ele>
        <time>2021-01-23T19:17:22Z</time>
      </trkpt>
      <trkpt lat="19.08526" lon="-98.605482">
        <ele>3465.527</ele>
        <time>2021-01-23T19:17:25Z</time>
      </trkpt>
      <trkpt lat="19.08528" lon="-98.60543">
        <ele>3464.508</ele>
        <time>2021-01-23T19:17:29Z</time>
      </trkpt>
      <trkpt lat="19.085309" lon="-98.605385">
        <ele>3460.553</ele>
        <time>2021-01-23T19:17:37Z</time>
      </trkpt>
      <trkpt lat="19.085326" lon="-98.605335">
        <ele>3457.171</ele>
        <time>2021-01-23T19:17:43Z</time>
      </trkpt>
      <trkpt lat="19.085336" lon="-98.605283">
        <ele>3455.122</ele>
        <time>2021-01-23T19:17:47Z</time>
      </trkpt>
      <trkpt lat="19.085375" lon="-98.60525">
        <ele>3451.984</ele>
        <time>2021-01-23T19:17:52Z</time>
      </trkpt>
      <trkpt lat="19.085419" lon="-98.605225">
        <ele>3450.016</ele>
        <time>2021-01-23T19:17:57Z</time>
      </trkpt>
      <trkpt lat="19.085425" lon="-98.605166">
        <ele>3448.489</ele>
        <time>2021-01-23T19:18:01Z</time>
      </trkpt>
      <trkpt lat="19.085412" lon="-98.605111">
        <ele>3448.385</ele>
        <time>2021-01-23T19:18:04Z</time>
      </trkpt>
      <trkpt lat="19.085411" lon="-98.605059">
        <ele>3448.673</ele>
        <time>2021-01-23T19:18:08Z</time>
      </trkpt>
      <trkpt lat="19.085416" lon="-98.605004">
        <ele>3448.847</ele>
        <time>2021-01-23T19:18:11Z</time>
      </trkpt>
      <trkpt lat="19.085413" lon="-98.604954">
        <ele>3446.529</ele>
        <time>2021-01-23T19:18:15Z</time>
      </trkpt>
      <trkpt lat="19.085407" lon="-98.6049">
        <ele>3445.121</ele>
        <time>2021-01-23T19:18:21Z</time>
      </trkpt>
      <trkpt lat="19.085416" lon="-98.604847">
        <ele>3443.908</ele>
        <time>2021-01-23T19:18:24Z</time>
      </trkpt>
      <trkpt lat="19.085415" lon="-98.604794">
        <ele>3443.260</ele>
        <time>2021-01-23T19:18:27Z</time>
      </trkpt>
      <trkpt lat="19.085416" lon="-98.604741">
        <ele>3443.258</ele>
        <time>2021-01-23T19:18:30Z</time>
      </trkpt>
      <trkpt lat="19.085427" lon="-98.604673">
        <ele>3442.049</ele>
        <time>2021-01-23T19:18:34Z</time>
      </trkpt>
      <trkpt lat="19.085448" lon="-98.604622">
        <ele>3441.371</ele>
        <time>2021-01-23T19:18:39Z</time>
      </trkpt>
      <trkpt lat="19.085455" lon="-98.604575">
        <ele>3440.923</ele>
        <time>2021-01-23T19:18:42Z</time>
      </trkpt>
      <trkpt lat="19.08543" lon="-98.604535">
        <ele>3440.216</ele>
        <time>2021-01-23T19:18:45Z</time>
      </trkpt>
      <trkpt lat="19.085383" lon="-98.604504">
        <ele>3439.412</ele>
        <time>2021-01-23T19:18:48Z</time>
      </trkpt>
      <trkpt lat="19.08534" lon="-98.604483">
        <ele>3438.920</ele>
        <time>2021-01-23T19:18:51Z</time>
      </trkpt>
      <trkpt lat="19.08528" lon="-98.604472">
        <ele>3439.033</ele>
        <time>2021-01-23T19:18:54Z</time>
      </trkpt>
      <trkpt lat="19.085235" lon="-98.604455">
        <ele>3437.523</ele>
        <time>2021-01-23T19:18:58Z</time>
      </trkpt>
      <trkpt lat="19.085189" lon="-98.604417">
        <ele>3436.615</ele>
        <time>2021-01-23T19:19:02Z</time>
      </trkpt>
      <trkpt lat="19.085153" lon="-98.604387">
        <ele>3435.608</ele>
        <time>2021-01-23T19:19:05Z</time>
      </trkpt>
      <trkpt lat="19.085119" lon="-98.604347">
        <ele>3434.689</ele>
        <time>2021-01-23T19:19:08Z</time>
      </trkpt>
      <trkpt lat="19.085082" lon="-98.604318">
        <ele>3434.417</ele>
        <time>2021-01-23T19:19:12Z</time>
      </trkpt>
      <trkpt lat="19.085031" lon="-98.604314">
        <ele>3433.998</ele>
        <time>2021-01-23T19:19:17Z</time>
      </trkpt>
      <trkpt lat="19.084992" lon="-98.604278">
        <ele>3433.290</ele>
        <time>2021-01-23T19:19:22Z</time>
      </trkpt>
      <trkpt lat="19.08495" lon="-98.604256">
        <ele>3432.482</ele>
        <time>2021-01-23T19:19:25Z</time>
      </trkpt>
      <trkpt lat="19.084912" lon="-98.604227">
        <ele>3431.585</ele>
        <time>2021-01-23T19:19:28Z</time>
      </trkpt>
      <trkpt lat="19.08488" lon="-98.60419">
        <ele>3431.051</ele>
        <time>2021-01-23T19:19:31Z</time>
      </trkpt>
      <trkpt lat="19.084837" lon="-98.604153">
        <ele>3430.769</ele>
        <time>2021-01-23T19:19:34Z</time>
      </trkpt>
      <trkpt lat="19.084791" lon="-98.604126">
        <ele>3429.772</ele>
        <time>2021-01-23T19:19:37Z</time>
      </trkpt>
      <trkpt lat="19.084748" lon="-98.604113">
        <ele>3429.113</ele>
        <time>2021-01-23T19:19:40Z</time>
      </trkpt>
      <trkpt lat="19.084693" lon="-98.60411">
        <ele>3428.314</ele>
        <time>2021-01-23T19:19:44Z</time>
      </trkpt>
      <trkpt lat="19.084647" lon="-98.604102">
        <ele>3427.008</ele>
        <time>2021-01-23T19:19:48Z</time>
      </trkpt>
      <trkpt lat="19.084608" lon="-98.604074">
        <ele>3425.873</ele>
        <time>2021-01-23T19:19:53Z</time>
      </trkpt>
      <trkpt lat="19.084549" lon="-98.604073">
        <ele>3425.161</ele>
        <time>2021-01-23T19:19:58Z</time>
      </trkpt>
      <trkpt lat="19.084501" lon="-98.60407">
        <ele>3424.722</ele>
        <time>2021-01-23T19:20:01Z</time>
      </trkpt>
      <trkpt lat="19.084452" lon="-98.604057">
        <ele>3424.194</ele>
        <time>2021-01-23T19:20:05Z</time>
      </trkpt>
      <trkpt lat="19.084401" lon="-98.604038">
        <ele>3423.746</ele>
        <time>2021-01-23T19:20:09Z</time>
      </trkpt>
      <trkpt lat="19.084362" lon="-98.604008">
        <ele>3423.529</ele>
        <time>2021-01-23T19:20:12Z</time>
      </trkpt>
      <trkpt lat="19.08434" lon="-98.603959">
        <ele>3423.885</ele>
        <time>2021-01-23T19:20:16Z</time>
      </trkpt>
      <trkpt lat="19.084339" lon="-98.603908">
        <ele>3424.073</ele>
        <time>2021-01-23T19:20:21Z</time>
      </trkpt>
      <trkpt lat="19.084374" lon="-98.603867">
        <ele>3424.125</ele>
        <time>2021-01-23T19:20:26Z</time>
      </trkpt>
      <trkpt lat="19.084404" lon="-98.603829">
        <ele>3424.626</ele>
        <time>2021-01-23T19:20:30Z</time>
      </trkpt>
      <trkpt lat="19.084429" lon="-98.603774">
        <ele>3424.108</ele>
        <time>2021-01-23T19:20:34Z</time>
      </trkpt>
      <trkpt lat="19.084444" lon="-98.603723">
        <ele>3423.008</ele>
        <time>2021-01-23T19:20:38Z</time>
      </trkpt>
      <trkpt lat="19.084471" lon="-98.603676">
        <ele>3421.178</ele>
        <time>2021-01-23T19:20:44Z</time>
      </trkpt>
      <trkpt lat="19.084502" lon="-98.60363">
        <ele>3418.426</ele>
        <time>2021-01-23T19:20:49Z</time>
      </trkpt>
      <trkpt lat="19.084524" lon="-98.603573">
        <ele>3416.057</ele>
        <time>2021-01-23T19:20:53Z</time>
      </trkpt>
      <trkpt lat="19.08453" lon="-98.60352">
        <ele>3415.359</ele>
        <time>2021-01-23T19:20:57Z</time>
      </trkpt>
      <trkpt lat="19.08454" lon="-98.603469">
        <ele>3414.591</ele>
        <time>2021-01-23T19:21:03Z</time>
      </trkpt>
      <trkpt lat="19.084576" lon="-98.603426">
        <ele>3414.024</ele>
        <time>2021-01-23T19:21:07Z</time>
      </trkpt>
      <trkpt lat="19.084607" lon="-98.60339">
        <ele>3412.930</ele>
        <time>2021-01-23T19:21:10Z</time>
      </trkpt>
      <trkpt lat="19.08463" lon="-98.603345">
        <ele>3412.628</ele>
        <time>2021-01-23T19:21:13Z</time>
      </trkpt>
      <trkpt lat="19.08466" lon="-98.603286">
        <ele>3412.858</ele>
        <time>2021-01-23T19:21:16Z</time>
      </trkpt>
      <trkpt lat="19.08468" lon="-98.603231">
        <ele>3412.952</ele>
        <time>2021-01-23T19:21:19Z</time>
      </trkpt>
      <trkpt lat="19.084709" lon="-98.603175">
        <ele>3413.417</ele>
        <time>2021-01-23T19:21:22Z</time>
      </trkpt>
      <trkpt lat="19.084745" lon="-98.603119">
        <ele>3413.308</ele>
        <time>2021-01-23T19:21:25Z</time>
      </trkpt>
      <trkpt lat="19.08477" lon="-98.603057">
        <ele>3413.281</ele>
        <time>2021-01-23T19:21:28Z</time>
      </trkpt>
      <trkpt lat="19.084782" lon="-98.603005">
        <ele>3413.229</ele>
        <time>2021-01-23T19:21:31Z</time>
      </trkpt>
      <trkpt lat="19.084814" lon="-98.60297">
        <ele>3411.610</ele>
        <time>2021-01-23T19:21:35Z</time>
      </trkpt>
      <trkpt lat="19.084837" lon="-98.602918">
        <ele>3411.812</ele>
        <time>2021-01-23T19:21:40Z</time>
      </trkpt>
      <trkpt lat="19.084839" lon="-98.602868">
        <ele>3411.594</ele>
        <time>2021-01-23T19:21:45Z</time>
      </trkpt>
      <trkpt lat="19.08487" lon="-98.602817">
        <ele>3411.337</ele>
        <time>2021-01-23T19:21:49Z</time>
      </trkpt>
      <trkpt lat="19.084883" lon="-98.602765">
        <ele>3410.843</ele>
        <time>2021-01-23T19:21:52Z</time>
      </trkpt>
      <trkpt lat="19.084903" lon="-98.60272">
        <ele>3409.761</ele>
        <time>2021-01-23T19:21:55Z</time>
      </trkpt>
      <trkpt lat="19.084919" lon="-98.602675">
        <ele>3409.013</ele>
        <time>2021-01-23T19:21:59Z</time>
      </trkpt>
      <trkpt lat="19.084918" lon="-98.602617">
        <ele>3407.843</ele>
        <time>2021-01-23T19:22:08Z</time>
      </trkpt>
      <trkpt lat="19.084952" lon="-98.602566">
        <ele>3405.907</ele>
        <time>2021-01-23T19:22:13Z</time>
      </trkpt>
      <trkpt lat="19.084942" lon="-98.602513">
        <ele>3405.108</ele>
        <time>2021-01-23T19:22:20Z</time>
      </trkpt>
      <trkpt lat="19.084924" lon="-98.602459">
        <ele>3404.657</ele>
        <time>2021-01-23T19:22:24Z</time>
      </trkpt>
      <trkpt lat="19.084967" lon="-98.602437">
        <ele>3403.185</ele>
        <time>2021-01-23T19:22:28Z</time>
      </trkpt>
      <trkpt lat="19.085019" lon="-98.602413">
        <ele>3401.036</ele>
        <time>2021-01-23T19:22:32Z</time>
      </trkpt>
      <trkpt lat="19.085056" lon="-98.602382">
        <ele>3399.428</ele>
        <time>2021-01-23T19:22:35Z</time>
      </trkpt>
      <trkpt lat="19.085103" lon="-98.602364">
        <ele>3398.460</ele>
        <time>2021-01-23T19:22:39Z</time>
      </trkpt>
      <trkpt lat="19.085135" lon="-98.602323">
        <ele>3396.653</ele>
        <time>2021-01-23T19:22:43Z</time>
      </trkpt>
      <trkpt lat="19.085165" lon="-98.60227">
        <ele>3395.969</ele>
        <time>2021-01-23T19:22:48Z</time>
      </trkpt>
      <trkpt lat="19.085181" lon="-98.602225">
        <ele>3395.997</ele>
        <time>2021-01-23T19:22:51Z</time>
      </trkpt>
      <trkpt lat="19.085212" lon="-98.602173">
        <ele>3396.364</ele>
        <time>2021-01-23T19:22:55Z</time>
      </trkpt>
      <trkpt lat="19.085249" lon="-98.602137">
        <ele>3396.106</ele>
        <time>2021-01-23T19:22:59Z</time>
      </trkpt>
      <trkpt lat="19.085283" lon="-98.602094">
        <ele>3396.416</ele>
        <time>2021-01-23T19:23:03Z</time>
      </trkpt>
      <trkpt lat="19.085296" lon="-98.602046">
        <ele>3397.008</ele>
        <time>2021-01-23T19:23:06Z</time>
      </trkpt>
      <trkpt lat="19.08531" lon="-98.601987">
        <ele>3397.392</ele>
        <time>2021-01-23T19:23:09Z</time>
      </trkpt>
      <trkpt lat="19.085318" lon="-98.601936">
        <ele>3398.370</ele>
        <time>2021-01-23T19:23:12Z</time>
      </trkpt>
      <trkpt lat="19.085337" lon="-98.601877">
        <ele>3399.721</ele>
        <time>2021-01-23T19:23:16Z</time>
      </trkpt>
      <trkpt lat="19.085352" lon="-98.60181">
        <ele>3400.983</ele>
        <time>2021-01-23T19:23:19Z</time>
      </trkpt>
      <trkpt lat="19.085364" lon="-98.601761">
        <ele>3401.695</ele>
        <time>2021-01-23T19:23:24Z</time>
      </trkpt>
      <trkpt lat="19.085383" lon="-98.60171">
        <ele>3400.848</ele>
        <time>2021-01-23T19:23:28Z</time>
      </trkpt>
      <trkpt lat="19.085409" lon="-98.601662">
        <ele>3399.154</ele>
        <time>2021-01-23T19:23:33Z</time>
      </trkpt>
      <trkpt lat="19.085438" lon="-98.601607">
        <ele>3398.182</ele>
        <time>2021-01-23T19:23:36Z</time>
      </trkpt>
      <trkpt lat="19.085444" lon="-98.601553">
        <ele>3395.924</ele>
        <time>2021-01-23T19:23:39Z</time>
      </trkpt>
      <trkpt lat="19.085441" lon="-98.6015">
        <ele>3395.804</ele>
        <time>2021-01-23T19:23:43Z</time>
      </trkpt>
      <trkpt lat="19.085446" lon="-98.601444">
        <ele>3396.514</ele>
        <time>2021-01-23T19:23:46Z</time>
      </trkpt>
      <trkpt lat="19.085463" lon="-98.601389">
        <ele>3395.308</ele>
        <time>2021-01-23T19:23:50Z</time>
      </trkpt>
      <trkpt lat="19.085509" lon="-98.601387">
        <ele>3393.848</ele>
        <time>2021-01-23T19:23:56Z</time>
      </trkpt>
      <trkpt lat="19.085549" lon="-98.601359">
        <ele>3392.546</ele>
        <time>2021-01-23T19:24:00Z</time>
      </trkpt>
      <trkpt lat="19.085592" lon="-98.601314">
        <ele>3392.147</ele>
        <time>2021-01-23T19:24:04Z</time>
      </trkpt>
      <trkpt lat="19.085617" lon="-98.601261">
        <ele>3390.339</ele>
        <time>2021-01-23T19:24:07Z</time>
      </trkpt>
      <trkpt lat="19.085635" lon="-98.601209">
        <ele>3389.211</ele>
        <time>2021-01-23T19:24:10Z</time>
      </trkpt>
      <trkpt lat="19.085655" lon="-98.601154">
        <ele>3388.994</ele>
        <time>2021-01-23T19:24:13Z</time>
      </trkpt>
      <trkpt lat="19.085682" lon="-98.60111">
        <ele>3388.390</ele>
        <time>2021-01-23T19:24:17Z</time>
      </trkpt>
      <trkpt lat="19.085722" lon="-98.601067">
        <ele>3388.048</ele>
        <time>2021-01-23T19:24:22Z</time>
      </trkpt>
      <trkpt lat="19.085726" lon="-98.601005">
        <ele>3388.228</ele>
        <time>2021-01-23T19:24:25Z</time>
      </trkpt>
      <trkpt lat="19.085728" lon="-98.600955">
        <ele>3387.989</ele>
        <time>2021-01-23T19:24:28Z</time>
      </trkpt>
      <trkpt lat="19.085753" lon="-98.600913">
        <ele>3386.917</ele>
        <time>2021-01-23T19:24:34Z</time>
      </trkpt>
      <trkpt lat="19.085779" lon="-98.600861">
        <ele>3387.108</ele>
        <time>2021-01-23T19:24:38Z</time>
      </trkpt>
      <trkpt lat="19.085797" lon="-98.60081">
        <ele>3386.878</ele>
        <time>2021-01-23T19:24:41Z</time>
      </trkpt>
      <trkpt lat="19.085817" lon="-98.600764">
        <ele>3386.666</ele>
        <time>2021-01-23T19:24:44Z</time>
      </trkpt>
      <trkpt lat="19.085839" lon="-98.600713">
        <ele>3385.737</ele>
        <time>2021-01-23T19:24:47Z</time>
      </trkpt>
      <trkpt lat="19.085857" lon="-98.600668">
        <ele>3384.869</ele>
        <time>2021-01-23T19:24:50Z</time>
      </trkpt>
      <trkpt lat="19.085891" lon="-98.600627">
        <ele>3383.821</ele>
        <time>2021-01-23T19:24:55Z</time>
      </trkpt>
      <trkpt lat="19.085917" lon="-98.600572">
        <ele>3381.614</ele>
        <time>2021-01-23T19:24:59Z</time>
      </trkpt>
      <trkpt lat="19.085946" lon="-98.600531">
        <ele>3379.950</ele>
        <time>2021-01-23T19:25:02Z</time>
      </trkpt>
      <trkpt lat="19.085998" lon="-98.600507">
        <ele>3379.388</ele>
        <time>2021-01-23T19:25:07Z</time>
      </trkpt>
      <trkpt lat="19.086026" lon="-98.600458">
        <ele>3379.768</ele>
        <time>2021-01-23T19:25:11Z</time>
      </trkpt>
      <trkpt lat="19.086053" lon="-98.600406">
        <ele>3379.642</ele>
        <time>2021-01-23T19:25:14Z</time>
      </trkpt>
      <trkpt lat="19.086082" lon="-98.600362">
        <ele>3379.926</ele>
        <time>2021-01-23T19:25:17Z</time>
      </trkpt>
      <trkpt lat="19.086121" lon="-98.600328">
        <ele>3380.508</ele>
        <time>2021-01-23T19:25:21Z</time>
      </trkpt>
      <trkpt lat="19.086147" lon="-98.600275">
        <ele>3380.572</ele>
        <time>2021-01-23T19:25:27Z</time>
      </trkpt>
      <trkpt lat="19.086175" lon="-98.600231">
        <ele>3379.720</ele>
        <time>2021-01-23T19:25:37Z</time>
      </trkpt>
      <trkpt lat="19.086216" lon="-98.600196">
        <ele>3378.441</ele>
        <time>2021-01-23T19:25:40Z</time>
      </trkpt>
      <trkpt lat="19.086259" lon="-98.600161">
        <ele>3377.623</ele>
        <time>2021-01-23T19:25:43Z</time>
      </trkpt>
      <trkpt lat="19.086299" lon="-98.600116">
        <ele>3377.575</ele>
        <time>2021-01-23T19:25:46Z</time>
      </trkpt>
      <trkpt lat="19.086325" lon="-98.600057">
        <ele>3377.148</ele>
        <time>2021-01-23T19:25:49Z</time>
      </trkpt>
      <trkpt lat="19.08634" lon="-98.600007">
        <ele>3377.644</ele>
        <time>2021-01-23T19:25:52Z</time>
      </trkpt>
      <trkpt lat="19.086371" lon="-98.599965">
        <ele>3376.722</ele>
        <time>2021-01-23T19:25:55Z</time>
      </trkpt>
      <trkpt lat="19.086396" lon="-98.59991">
        <ele>3375.897</ele>
        <time>2021-01-23T19:25:59Z</time>
      </trkpt>
      <trkpt lat="19.086413" lon="-98.599864">
        <ele>3374.823</ele>
        <time>2021-01-23T19:26:02Z</time>
      </trkpt>
      <trkpt lat="19.086433" lon="-98.599811">
        <ele>3374.625</ele>
        <time>2021-01-23T19:26:05Z</time>
      </trkpt>
      <trkpt lat="19.08647" lon="-98.59977">
        <ele>3374.108</ele>
        <time>2021-01-23T19:26:08Z</time>
      </trkpt>
      <trkpt lat="19.086509" lon="-98.599733">
        <ele>3373.415</ele>
        <time>2021-01-23T19:26:11Z</time>
      </trkpt>
      <trkpt lat="19.086547" lon="-98.599698">
        <ele>3372.643</ele>
        <time>2021-01-23T19:26:15Z</time>
      </trkpt>
      <trkpt lat="19.086581" lon="-98.599666">
        <ele>3371.744</ele>
        <time>2021-01-23T19:26:19Z</time>
      </trkpt>
      <trkpt lat="19.086606" lon="-98.599622">
        <ele>3372.446</ele>
        <time>2021-01-23T19:26:24Z</time>
      </trkpt>
      <trkpt lat="19.086617" lon="-98.599576">
        <ele>3371.648</ele>
        <time>2021-01-23T19:26:29Z</time>
      </trkpt>
      <trkpt lat="19.086627" lon="-98.599523">
        <ele>3371.561</ele>
        <time>2021-01-23T19:26:33Z</time>
      </trkpt>
      <trkpt lat="19.086624" lon="-98.599465">
        <ele>3370.367</ele>
        <time>2021-01-23T19:26:36Z</time>
      </trkpt>
      <trkpt lat="19.086629" lon="-98.599403">
        <ele>3369.235</ele>
        <time>2021-01-23T19:26:40Z</time>
      </trkpt>
      <trkpt lat="19.086635" lon="-98.599354">
        <ele>3368.542</ele>
        <time>2021-01-23T19:26:45Z</time>
      </trkpt>
      <trkpt lat="19.086651" lon="-98.599302">
        <ele>3368.122</ele>
        <time>2021-01-23T19:26:49Z</time>
      </trkpt>
      <trkpt lat="19.086642" lon="-98.599251">
        <ele>3367.514</ele>
        <time>2021-01-23T19:26:55Z</time>
      </trkpt>
      <trkpt lat="19.086615" lon="-98.599207">
        <ele>3367.108</ele>
        <time>2021-01-23T19:27:00Z</time>
      </trkpt>
      <trkpt lat="19.086609" lon="-98.59916">
        <ele>3367.370</ele>
        <time>2021-01-23T19:27:04Z</time>
      </trkpt>
      <trkpt lat="19.086623" lon="-98.599101">
        <ele>3367.068</ele>
        <time>2021-01-23T19:27:09Z</time>
      </trkpt>
      <trkpt lat="19.086627" lon="-98.599041">
        <ele>3366.419</ele>
        <time>2021-01-23T19:27:13Z</time>
      </trkpt>
      <trkpt lat="19.086627" lon="-98.59899">
        <ele>3366.181</ele>
        <time>2021-01-23T19:27:16Z</time>
      </trkpt>
      <trkpt lat="19.086646" lon="-98.598944">
        <ele>3365.523</ele>
        <time>2021-01-23T19:27:20Z</time>
      </trkpt>
      <trkpt lat="19.086661" lon="-98.598897">
        <ele>3365.116</ele>
        <time>2021-01-23T19:27:23Z</time>
      </trkpt>
      <trkpt lat="19.086675" lon="-98.598849">
        <ele>3364.542</ele>
        <time>2021-01-23T19:27:26Z</time>
      </trkpt>
      <trkpt lat="19.086695" lon="-98.598802">
        <ele>3365.330</ele>
        <time>2021-01-23T19:27:29Z</time>
      </trkpt>
      <trkpt lat="19.08672" lon="-98.598753">
        <ele>3366.221</ele>
        <time>2021-01-23T19:27:32Z</time>
      </trkpt>
      <trkpt lat="19.086753" lon="-98.59871">
        <ele>3366.341</ele>
        <time>2021-01-23T19:27:35Z</time>
      </trkpt>
      <trkpt lat="19.086785" lon="-98.598667">
        <ele>3365.605</ele>
        <time>2021-01-23T19:27:38Z</time>
      </trkpt>
      <trkpt lat="19.086824" lon="-98.598634">
        <ele>3365.208</ele>
        <time>2021-01-23T19:27:41Z</time>
      </trkpt>
      <trkpt lat="19.086862" lon="-98.598609">
        <ele>3364.928</ele>
        <time>2021-01-23T19:27:45Z</time>
      </trkpt>
      <trkpt lat="19.086904" lon="-98.598579">
        <ele>3363.936</ele>
        <time>2021-01-23T19:27:49Z</time>
      </trkpt>
      <trkpt lat="19.086943" lon="-98.598535">
        <ele>3362.947</ele>
        <time>2021-01-23T19:27:54Z</time>
      </trkpt>
      <trkpt lat="19.08698" lon="-98.598498">
        <ele>3361.539</ele>
        <time>2021-01-23T19:27:58Z</time>
      </trkpt>
      <trkpt lat="19.08703" lon="-98.59849">
        <ele>3361.111</ele>
        <time>2021-01-23T19:28:02Z</time>
      </trkpt>
      <trkpt lat="19.087074" lon="-98.598464">
        <ele>3360.484</ele>
        <time>2021-01-23T19:28:06Z</time>
      </trkpt>
      <trkpt lat="19.087119" lon="-98.598437">
        <ele>3359.220</ele>
        <time>2021-01-23T19:28:10Z</time>
      </trkpt>
      <trkpt lat="19.087171" lon="-98.598422">
        <ele>3358.958</ele>
        <time>2021-01-23T19:28:14Z</time>
      </trkpt>
      <trkpt lat="19.087216" lon="-98.598403">
        <ele>3358.371</ele>
        <time>2021-01-23T19:28:18Z</time>
      </trkpt>
      <trkpt lat="19.087254" lon="-98.598376">
        <ele>3358.741</ele>
        <time>2021-01-23T19:28:22Z</time>
      </trkpt>
      <trkpt lat="19.087301" lon="-98.598349">
        <ele>3358.215</ele>
        <time>2021-01-23T19:28:26Z</time>
      </trkpt>
      <trkpt lat="19.087357" lon="-98.598332">
        <ele>3356.308</ele>
        <time>2021-01-23T19:28:29Z</time>
      </trkpt>
      <trkpt lat="19.087402" lon="-98.598318">
        <ele>3355.173</ele>
        <time>2021-01-23T19:28:32Z</time>
      </trkpt>
      <trkpt lat="19.087455" lon="-98.598308">
        <ele>3354.081</ele>
        <time>2021-01-23T19:28:36Z</time>
      </trkpt>
      <trkpt lat="19.087503" lon="-98.598308">
        <ele>3352.922</ele>
        <time>2021-01-23T19:28:40Z</time>
      </trkpt>
      <trkpt lat="19.087551" lon="-98.598315">
        <ele>3351.564</ele>
        <time>2021-01-23T19:28:44Z</time>
      </trkpt>
      <trkpt lat="19.087604" lon="-98.598305">
        <ele>3351.076</ele>
        <time>2021-01-23T19:28:48Z</time>
      </trkpt>
      <trkpt lat="19.087657" lon="-98.598301">
        <ele>3349.959</ele>
        <time>2021-01-23T19:28:52Z</time>
      </trkpt>
      <trkpt lat="19.087703" lon="-98.598312">
        <ele>3350.175</ele>
        <time>2021-01-23T19:28:56Z</time>
      </trkpt>
      <trkpt lat="19.087756" lon="-98.598309">
        <ele>3350.613</ele>
        <time>2021-01-23T19:28:59Z</time>
      </trkpt>
      <trkpt lat="19.087809" lon="-98.598286">
        <ele>3351.768</ele>
        <time>2021-01-23T19:29:02Z</time>
      </trkpt>
      <trkpt lat="19.087861" lon="-98.598281">
        <ele>3350.842</ele>
        <time>2021-01-23T19:29:09Z</time>
      </trkpt>
      <trkpt lat="19.08791" lon="-98.598293">
        <ele>3348.626</ele>
        <time>2021-01-23T19:29:12Z</time>
      </trkpt>
      <trkpt lat="19.087952" lon="-98.598317">
        <ele>3348.508</ele>
        <time>2021-01-23T19:29:16Z</time>
      </trkpt>
      <trkpt lat="19.087992" lon="-98.598355">
        <ele>3349.672</ele>
        <time>2021-01-23T19:29:20Z</time>
      </trkpt>
      <trkpt lat="19.088029" lon="-98.598382">
        <ele>3350.310</ele>
        <time>2021-01-23T19:29:23Z</time>
      </trkpt>
      <trkpt lat="19.088068" lon="-98.598415">
        <ele>3351.541</ele>
        <time>2021-01-23T19:29:26Z</time>
      </trkpt>
      <trkpt lat="19.088114" lon="-98.598439">
        <ele>3352.273</ele>
        <time>2021-01-23T19:29:30Z</time>
      </trkpt>
      <trkpt lat="19.088155" lon="-98.598464">
        <ele>3352.225</ele>
        <time>2021-01-23T19:29:35Z</time>
      </trkpt>
      <trkpt lat="19.088198" lon="-98.598492">
        <ele>3351.038</ele>
        <time>2021-01-23T19:29:39Z</time>
      </trkpt>
      <trkpt lat="19.088236" lon="-98.598524">
        <ele>3349.594</ele>
        <time>2021-01-23T19:29:43Z</time>
      </trkpt>
      <trkpt lat="19.088267" lon="-98.598574">
        <ele>3348.252</ele>
        <time>2021-01-23T19:29:47Z</time>
      </trkpt>
      <trkpt lat="19.088301" lon="-98.598607">
        <ele>3347.041</ele>
        <time>2021-01-23T19:29:50Z</time>
      </trkpt>
      <trkpt lat="19.088329" lon="-98.598647">
        <ele>3345.581</ele>
        <time>2021-01-23T19:29:54Z</time>
      </trkpt>
      <trkpt lat="19.088366" lon="-98.598675">
        <ele>3345.009</ele>
        <time>2021-01-23T19:29:57Z</time>
      </trkpt>
      <trkpt lat="19.088402" lon="-98.598717">
        <ele>3344.708</ele>
        <time>2021-01-23T19:30:01Z</time>
      </trkpt>
      <trkpt lat="19.088435" lon="-98.598752">
        <ele>3345.310</ele>
        <time>2021-01-23T19:30:04Z</time>
      </trkpt>
      <trkpt lat="19.088473" lon="-98.598787">
        <ele>3346.118</ele>
        <time>2021-01-23T19:30:07Z</time>
      </trkpt>
      <trkpt lat="19.088501" lon="-98.598836">
        <ele>3345.869</ele>
        <time>2021-01-23T19:30:11Z</time>
      </trkpt>
      <trkpt lat="19.088542" lon="-98.598872">
        <ele>3346.051</ele>
        <time>2021-01-23T19:30:15Z</time>
      </trkpt>
      <trkpt lat="19.088566" lon="-98.598912">
        <ele>3346.973</ele>
        <time>2021-01-23T19:30:18Z</time>
      </trkpt>
      <trkpt lat="19.088602" lon="-98.598955">
        <ele>3347.516</ele>
        <time>2021-01-23T19:30:22Z</time>
      </trkpt>
      <trkpt lat="19.088636" lon="-98.59899">
        <ele>3347.022</ele>
        <time>2021-01-23T19:30:25Z</time>
      </trkpt>
      <trkpt lat="19.088668" lon="-98.599029">
        <ele>3346.350</ele>
        <time>2021-01-23T19:30:28Z</time>
      </trkpt>
      <trkpt lat="19.088702" lon="-98.599075">
        <ele>3346.382</ele>
        <time>2021-01-23T19:30:31Z</time>
      </trkpt>
      <trkpt lat="19.088742" lon="-98.599121">
        <ele>3347.143</ele>
        <time>2021-01-23T19:30:35Z</time>
      </trkpt>
      <trkpt lat="19.088762" lon="-98.59917">
        <ele>3347.217</ele>
        <time>2021-01-23T19:30:39Z</time>
      </trkpt>
      <trkpt lat="19.088779" lon="-98.599222">
        <ele>3346.408</ele>
        <time>2021-01-23T19:30:43Z</time>
      </trkpt>
      <trkpt lat="19.088793" lon="-98.599268">
        <ele>3345.144</ele>
        <time>2021-01-23T19:30:46Z</time>
      </trkpt>
      <trkpt lat="19.088818" lon="-98.599319">
        <ele>3345.922</ele>
        <time>2021-01-23T19:30:51Z</time>
      </trkpt>
      <trkpt lat="19.088843" lon="-98.599369">
        <ele>3346.473</ele>
        <time>2021-01-23T19:30:55Z</time>
      </trkpt>
      <trkpt lat="19.088886" lon="-98.599407">
        <ele>3347.565</ele>
        <time>2021-01-23T19:31:00Z</time>
      </trkpt>
      <trkpt lat="19.08893" lon="-98.599433">
        <ele>3348.267</ele>
        <time>2021-01-23T19:31:04Z</time>
      </trkpt>
      <trkpt lat="19.088976" lon="-98.599458">
        <ele>3347.870</ele>
        <time>2021-01-23T19:31:07Z</time>
      </trkpt>
      <trkpt lat="19.089015" lon="-98.599492">
        <ele>3347.226</ele>
        <time>2021-01-23T19:31:11Z</time>
      </trkpt>
      <trkpt lat="19.089028" lon="-98.59954">
        <ele>3346.854</ele>
        <time>2021-01-23T19:31:15Z</time>
      </trkpt>
      <trkpt lat="19.089045" lon="-98.599584">
        <ele>3347.014</ele>
        <time>2021-01-23T19:31:19Z</time>
      </trkpt>
      <trkpt lat="19.089059" lon="-98.599632">
        <ele>3346.754</ele>
        <time>2021-01-23T19:31:22Z</time>
      </trkpt>
      <trkpt lat="19.089062" lon="-98.599683">
        <ele>3346.109</ele>
        <time>2021-01-23T19:31:25Z</time>
      </trkpt>
      <trkpt lat="19.089064" lon="-98.599736">
        <ele>3345.808</ele>
        <time>2021-01-23T19:31:28Z</time>
      </trkpt>
      <trkpt lat="19.089071" lon="-98.599793">
        <ele>3345.637</ele>
        <time>2021-01-23T19:31:32Z</time>
      </trkpt>
      <trkpt lat="19.08908" lon="-98.599855">
        <ele>3344.715</ele>
        <time>2021-01-23T19:31:37Z</time>
      </trkpt>
      <trkpt lat="19.089095" lon="-98.599907">
        <ele>3344.536</ele>
        <time>2021-01-23T19:31:40Z</time>
      </trkpt>
      <trkpt lat="19.089102" lon="-98.599959">
        <ele>3343.678</ele>
        <time>2021-01-23T19:31:43Z</time>
      </trkpt>
      <trkpt lat="19.089099" lon="-98.600009">
        <ele>3342.730</ele>
        <time>2021-01-23T19:31:46Z</time>
      </trkpt>
      <trkpt lat="19.089083" lon="-98.600059">
        <ele>3342.133</ele>
        <time>2021-01-23T19:31:50Z</time>
      </trkpt>
      <trkpt lat="19.089087" lon="-98.600118">
        <ele>3344.279</ele>
        <time>2021-01-23T19:31:54Z</time>
      </trkpt>
      <trkpt lat="19.089097" lon="-98.600179">
        <ele>3343.827</ele>
        <time>2021-01-23T19:31:58Z</time>
      </trkpt>
      <trkpt lat="19.089107" lon="-98.600237">
        <ele>3342.825</ele>
        <time>2021-01-23T19:32:02Z</time>
      </trkpt>
      <trkpt lat="19.089124" lon="-98.600292">
        <ele>3343.026</ele>
        <time>2021-01-23T19:32:06Z</time>
      </trkpt>
      <trkpt lat="19.089126" lon="-98.600352">
        <ele>3343.508</ele>
        <time>2021-01-23T19:32:11Z</time>
      </trkpt>
      <trkpt lat="19.089119" lon="-98.600402">
        <ele>3344.608</ele>
        <time>2021-01-23T19:32:15Z</time>
      </trkpt>
      <trkpt lat="19.089125" lon="-98.600467">
        <ele>3345.758</ele>
        <time>2021-01-23T19:32:19Z</time>
      </trkpt>
      <trkpt lat="19.089132" lon="-98.600517">
        <ele>3346.746</ele>
        <time>2021-01-23T19:32:23Z</time>
      </trkpt>
      <trkpt lat="19.089131" lon="-98.600569">
        <ele>3347.387</ele>
        <time>2021-01-23T19:32:27Z</time>
      </trkpt>
      <trkpt lat="19.089139" lon="-98.600627">
        <ele>3347.329</ele>
        <time>2021-01-23T19:32:31Z</time>
      </trkpt>
      <trkpt lat="19.089148" lon="-98.600682">
        <ele>3346.151</ele>
        <time>2021-01-23T19:32:36Z</time>
      </trkpt>
      <trkpt lat="19.089137" lon="-98.600734">
        <ele>3345.894</ele>
        <time>2021-01-23T19:32:39Z</time>
      </trkpt>
      <trkpt lat="19.08915" lon="-98.600783">
        <ele>3346.040</ele>
        <time>2021-01-23T19:32:41Z</time>
      </trkpt>
      <trkpt lat="19.089162" lon="-98.60084">
        <ele>3346.128</ele>
        <time>2021-01-23T19:32:44Z</time>
      </trkpt>
      <trkpt lat="19.089154" lon="-98.600887">
        <ele>3346.231</ele>
        <time>2021-01-23T19:32:47Z</time>
      </trkpt>
      <trkpt lat="19.089162" lon="-98.600938">
        <ele>3345.461</ele>
        <time>2021-01-23T19:32:50Z</time>
      </trkpt>
      <trkpt lat="19.089162" lon="-98.600998">
        <ele>3344.907</ele>
        <time>2021-01-23T19:32:54Z</time>
      </trkpt>
      <trkpt lat="19.089163" lon="-98.601046">
        <ele>3344.608</ele>
        <time>2021-01-23T19:32:58Z</time>
      </trkpt>
      <trkpt lat="19.089177" lon="-98.601099">
        <ele>3344.899</ele>
        <time>2021-01-23T19:33:01Z</time>
      </trkpt>
      <trkpt lat="19.0892" lon="-98.601148">
        <ele>3345.747</ele>
        <time>2021-01-23T19:33:04Z</time>
      </trkpt>
      <trkpt lat="19.089231" lon="-98.601193">
        <ele>3345.528</ele>
        <time>2021-01-23T19:33:07Z</time>
      </trkpt>
      <trkpt lat="19.089248" lon="-98.601249">
        <ele>3343.860</ele>
        <time>2021-01-23T19:33:11Z</time>
      </trkpt>
      <trkpt lat="19.089254" lon="-98.601297">
        <ele>3341.212</ele>
        <time>2021-01-23T19:33:14Z</time>
      </trkpt>
      <trkpt lat="19.089241" lon="-98.601356">
        <ele>3340.055</ele>
        <time>2021-01-23T19:33:18Z</time>
      </trkpt>
      <trkpt lat="19.089225" lon="-98.601411">
        <ele>3339.371</ele>
        <time>2021-01-23T19:33:21Z</time>
      </trkpt>
      <trkpt lat="19.089204" lon="-98.601456">
        <ele>3338.949</ele>
        <time>2021-01-23T19:33:24Z</time>
      </trkpt>
      <trkpt lat="19.089176" lon="-98.601506">
        <ele>3338.239</ele>
        <time>2021-01-23T19:33:28Z</time>
      </trkpt>
      <trkpt lat="19.089152" lon="-98.601549">
        <ele>3337.801</ele>
        <time>2021-01-23T19:33:31Z</time>
      </trkpt>
      <trkpt lat="19.089136" lon="-98.601594">
        <ele>3338.021</ele>
        <time>2021-01-23T19:33:34Z</time>
      </trkpt>
      <trkpt lat="19.08912" lon="-98.601655">
        <ele>3337.308</ele>
        <time>2021-01-23T19:33:38Z</time>
      </trkpt>
      <trkpt lat="19.089115" lon="-98.601704">
        <ele>3335.759</ele>
        <time>2021-01-23T19:33:41Z</time>
      </trkpt>
      <trkpt lat="19.089102" lon="-98.601768">
        <ele>3335.127</ele>
        <time>2021-01-23T19:33:44Z</time>
      </trkpt>
      <trkpt lat="19.089098" lon="-98.601822">
        <ele>3335.248</ele>
        <time>2021-01-23T19:33:47Z</time>
      </trkpt>
      <trkpt lat="19.0891" lon="-98.601872">
        <ele>3335.250</ele>
        <time>2021-01-23T19:33:50Z</time>
      </trkpt>
      <trkpt lat="19.089101" lon="-98.60192">
        <ele>3335.652</ele>
        <time>2021-01-23T19:33:53Z</time>
      </trkpt>
      <trkpt lat="19.089109" lon="-98.601973">
        <ele>3335.975</ele>
        <time>2021-01-23T19:33:56Z</time>
      </trkpt>
      <trkpt lat="19.089109" lon="-98.602032">
        <ele>3336.971</ele>
        <time>2021-01-23T19:34:01Z</time>
      </trkpt>
      <trkpt lat="19.089127" lon="-98.602077">
        <ele>3338.729</ele>
        <time>2021-01-23T19:34:04Z</time>
      </trkpt>
      <trkpt lat="19.08915" lon="-98.602122">
        <ele>3341.097</ele>
        <time>2021-01-23T19:34:07Z</time>
      </trkpt>
      <trkpt lat="19.089144" lon="-98.60217">
        <ele>3342.423</ele>
        <time>2021-01-23T19:34:11Z</time>
      </trkpt>
      <trkpt lat="19.089148" lon="-98.602227">
        <ele>3344.025</ele>
        <time>2021-01-23T19:34:15Z</time>
      </trkpt>
      <trkpt lat="19.089156" lon="-98.602285">
        <ele>3345.008</ele>
        <time>2021-01-23T19:34:19Z</time>
      </trkpt>
      <trkpt lat="19.089162" lon="-98.602338">
        <ele>3345.235</ele>
        <time>2021-01-23T19:34:22Z</time>
      </trkpt>
      <trkpt lat="19.089149" lon="-98.602389">
        <ele>3344.543</ele>
        <time>2021-01-23T19:34:25Z</time>
      </trkpt>
      <trkpt lat="19.089143" lon="-98.602437">
        <ele>3343.354</ele>
        <time>2021-01-23T19:34:28Z</time>
      </trkpt>
      <trkpt lat="19.089144" lon="-98.602489">
        <ele>3341.816</ele>
        <time>2021-01-23T19:34:32Z</time>
      </trkpt>
      <trkpt lat="19.08914" lon="-98.602539">
        <ele>3341.358</ele>
        <time>2021-01-23T19:34:35Z</time>
      </trkpt>
      <trkpt lat="19.089112" lon="-98.602578">
        <ele>3341.811</ele>
        <time>2021-01-23T19:34:38Z</time>
      </trkpt>
      <trkpt lat="19.089095" lon="-98.602633">
        <ele>3341.767</ele>
        <time>2021-01-23T19:34:41Z</time>
      </trkpt>
      <trkpt lat="19.089089" lon="-98.60269">
        <ele>3340.495</ele>
        <time>2021-01-23T19:34:44Z</time>
      </trkpt>
      <trkpt lat="19.089086" lon="-98.602738">
        <ele>3340.015</ele>
        <time>2021-01-23T19:34:47Z</time>
      </trkpt>
      <trkpt lat="19.089084" lon="-98.602786">
        <ele>3340.265</ele>
        <time>2021-01-23T19:34:50Z</time>
      </trkpt>
      <trkpt lat="19.089063" lon="-98.602836">
        <ele>3340.711</ele>
        <time>2021-01-23T19:34:53Z</time>
      </trkpt>
      <trkpt lat="19.089043" lon="-98.602881">
        <ele>3341.408</ele>
        <time>2021-01-23T19:34:56Z</time>
      </trkpt>
      <trkpt lat="19.089024" lon="-98.602927">
        <ele>3341.827</ele>
        <time>2021-01-23T19:34:59Z</time>
      </trkpt>
      <trkpt lat="19.089002" lon="-98.602984">
        <ele>3340.915</ele>
        <time>2021-01-23T19:35:03Z</time>
      </trkpt>
      <trkpt lat="19.088985" lon="-98.603036">
        <ele>3339.956</ele>
        <time>2021-01-23T19:35:07Z</time>
      </trkpt>
      <trkpt lat="19.088993" lon="-98.603085">
        <ele>3340.178</ele>
        <time>2021-01-23T19:35:12Z</time>
      </trkpt>
      <trkpt lat="19.089003" lon="-98.603141">
        <ele>3341.010</ele>
        <time>2021-01-23T19:35:18Z</time>
      </trkpt>
      <trkpt lat="19.088989" lon="-98.603187">
        <ele>3340.093</ele>
        <time>2021-01-23T19:35:26Z</time>
      </trkpt>
      <trkpt lat="19.088977" lon="-98.603235">
        <ele>3337.839</ele>
        <time>2021-01-23T19:36:07Z</time>
      </trkpt>
      <trkpt lat="19.088984" lon="-98.603288">
        <ele>3336.927</ele>
        <time>2021-01-23T19:36:11Z</time>
      </trkpt>
      <trkpt lat="19.089002" lon="-98.603334">
        <ele>3335.529</ele>
        <time>2021-01-23T19:36:14Z</time>
      </trkpt>
      <trkpt lat="19.089045" lon="-98.603379">
        <ele>3334.700</ele>
        <time>2021-01-23T19:36:16Z</time>
      </trkpt>
      <trkpt lat="19.089088" lon="-98.603432">
        <ele>3334.220</ele>
        <time>2021-01-23T19:36:19Z</time>
      </trkpt>
      <trkpt lat="19.089128" lon="-98.603472">
        <ele>3333.908</ele>
        <time>2021-01-23T19:36:21Z</time>
      </trkpt>
      <trkpt lat="19.089156" lon="-98.603528">
        <ele>3333.728</ele>
        <time>2021-01-23T19:36:24Z</time>
      </trkpt>
      <trkpt lat="19.089156" lon="-98.603584">
        <ele>3334.876</ele>
        <time>2021-01-23T19:36:27Z</time>
      </trkpt>
      <trkpt lat="19.089161" lon="-98.603636">
        <ele>3335.157</ele>
        <time>2021-01-23T19:36:30Z</time>
      </trkpt>
      <trkpt lat="19.089179" lon="-98.603685">
        <ele>3334.989</ele>
        <time>2021-01-23T19:36:33Z</time>
      </trkpt>
      <trkpt lat="19.089197" lon="-98.603732">
        <ele>3334.011</ele>
        <time>2021-01-23T19:36:36Z</time>
      </trkpt>
      <trkpt lat="19.089201" lon="-98.603784">
        <ele>3332.274</ele>
        <time>2021-01-23T19:36:40Z</time>
      </trkpt>
      <trkpt lat="19.089183" lon="-98.603839">
        <ele>3332.750</ele>
        <time>2021-01-23T19:36:44Z</time>
      </trkpt>
      <trkpt lat="19.089168" lon="-98.603893">
        <ele>3332.648</ele>
        <time>2021-01-23T19:36:48Z</time>
      </trkpt>
      <trkpt lat="19.089157" lon="-98.603941">
        <ele>3333.053</ele>
        <time>2021-01-23T19:36:51Z</time>
      </trkpt>
      <trkpt lat="19.089144" lon="-98.603996">
        <ele>3334.004</ele>
        <time>2021-01-23T19:36:55Z</time>
      </trkpt>
      <trkpt lat="19.089114" lon="-98.604036">
        <ele>3334.214</ele>
        <time>2021-01-23T19:36:59Z</time>
      </trkpt>
      <trkpt lat="19.089098" lon="-98.604084">
        <ele>3333.908</ele>
        <time>2021-01-23T19:37:02Z</time>
      </trkpt>
      <trkpt lat="19.089091" lon="-98.604138">
        <ele>3333.341</ele>
        <time>2021-01-23T19:37:05Z</time>
      </trkpt>
      <trkpt lat="19.089085" lon="-98.604191">
        <ele>3333.029</ele>
        <time>2021-01-23T19:37:08Z</time>
      </trkpt>
      <trkpt lat="19.089061" lon="-98.604236">
        <ele>3332.820</ele>
        <time>2021-01-23T19:37:13Z</time>
      </trkpt>
      <trkpt lat="19.089029" lon="-98.604282">
        <ele>3333.522</ele>
        <time>2021-01-23T19:37:17Z</time>
      </trkpt>
      <trkpt lat="19.089005" lon="-98.604331">
        <ele>3334.394</ele>
        <time>2021-01-23T19:37:21Z</time>
      </trkpt>
      <trkpt lat="19.088989" lon="-98.604384">
        <ele>3334.847</ele>
        <time>2021-01-23T19:37:25Z</time>
      </trkpt>
      <trkpt lat="19.08898" lon="-98.604433">
        <ele>3334.743</ele>
        <time>2021-01-23T19:37:29Z</time>
      </trkpt>
      <trkpt lat="19.088961" lon="-98.60449">
        <ele>3335.011</ele>
        <time>2021-01-23T19:37:33Z</time>
      </trkpt>
      <trkpt lat="19.088947" lon="-98.604543">
        <ele>3335.253</ele>
        <time>2021-01-23T19:37:36Z</time>
      </trkpt>
      <trkpt lat="19.08894" lon="-98.60461">
        <ele>3336.104</ele>
        <time>2021-01-23T19:37:40Z</time>
      </trkpt>
      <trkpt lat="19.088933" lon="-98.60466">
        <ele>3337.114</ele>
        <time>2021-01-23T19:37:44Z</time>
      </trkpt>
      <trkpt lat="19.088954" lon="-98.604711">
        <ele>3338.508</ele>
        <time>2021-01-23T19:37:48Z</time>
      </trkpt>
      <trkpt lat="19.088978" lon="-98.604762">
        <ele>3340.151</ele>
        <time>2021-01-23T19:37:52Z</time>
      </trkpt>
      <trkpt lat="19.089016" lon="-98.604805">
        <ele>3341.519</ele>
        <time>2021-01-23T19:37:56Z</time>
      </trkpt>
      <trkpt lat="19.089063" lon="-98.604831">
        <ele>3342.330</ele>
        <time>2021-01-23T19:37:59Z</time>
      </trkpt>
      <trkpt lat="19.089103" lon="-98.60486">
        <ele>3342.842</ele>
        <time>2021-01-23T19:38:02Z</time>
      </trkpt>
      <trkpt lat="19.089153" lon="-98.604885">
        <ele>3343.154</ele>
        <time>2021-01-23T19:38:06Z</time>
      </trkpt>
      <trkpt lat="19.089206" lon="-98.604895">
        <ele>3343.367</ele>
        <time>2021-01-23T19:38:09Z</time>
      </trkpt>
      <trkpt lat="19.08925" lon="-98.604864">
        <ele>3344.293</ele>
        <time>2021-01-23T19:38:14Z</time>
      </trkpt>
      <trkpt lat="19.089265" lon="-98.604813">
        <ele>3343.541</ele>
        <time>2021-01-23T19:38:18Z</time>
      </trkpt>
      <trkpt lat="19.089272" lon="-98.604754">
        <ele>3343.148</ele>
        <time>2021-01-23T19:38:22Z</time>
      </trkpt>
      <trkpt lat="19.089287" lon="-98.604704">
        <ele>3342.961</ele>
        <time>2021-01-23T19:38:25Z</time>
      </trkpt>
      <trkpt lat="19.089294" lon="-98.604649">
        <ele>3342.017</ele>
        <time>2021-01-23T19:38:30Z</time>
      </trkpt>
      <trkpt lat="19.089303" lon="-98.604596">
        <ele>3341.808</ele>
        <time>2021-01-23T19:38:34Z</time>
      </trkpt>
      <trkpt lat="19.089332" lon="-98.604556">
        <ele>3341.730</ele>
        <time>2021-01-23T19:38:37Z</time>
      </trkpt>
      <trkpt lat="19.08936" lon="-98.604511">
        <ele>3343.278</ele>
        <time>2021-01-23T19:38:40Z</time>
      </trkpt>
      <trkpt lat="19.089391" lon="-98.604462">
        <ele>3345.319</ele>
        <time>2021-01-23T19:38:44Z</time>
      </trkpt>
      <trkpt lat="19.089404" lon="-98.604404">
        <ele>3346.661</ele>
        <time>2021-01-23T19:38:49Z</time>
      </trkpt>
      <trkpt lat="19.089425" lon="-98.604352">
        <ele>3347.823</ele>
        <time>2021-01-23T19:38:53Z</time>
      </trkpt>
      <trkpt lat="19.089471" lon="-98.604313">
        <ele>3348.146</ele>
        <time>2021-01-23T19:38:58Z</time>
      </trkpt>
      <trkpt lat="19.089519" lon="-98.604277">
        <ele>3347.932</ele>
        <time>2021-01-23T19:39:02Z</time>
      </trkpt>
      <trkpt lat="19.089559" lon="-98.604235">
        <ele>3347.410</ele>
        <time>2021-01-23T19:39:06Z</time>
      </trkpt>
      <trkpt lat="19.089602" lon="-98.604193">
        <ele>3347.582</ele>
        <time>2021-01-23T19:39:09Z</time>
      </trkpt>
      <trkpt lat="19.089639" lon="-98.604152">
        <ele>3347.943</ele>
        <time>2021-01-23T19:39:13Z</time>
      </trkpt>
      <trkpt lat="19.089675" lon="-98.604122">
        <ele>3348.217</ele>
        <time>2021-01-23T19:39:16Z</time>
      </trkpt>
      <trkpt lat="19.089727" lon="-98.60409">
        <ele>3348.408</ele>
        <time>2021-01-23T19:39:20Z</time>
      </trkpt>
      <trkpt lat="19.089773" lon="-98.604046">
        <ele>3349.324</ele>
        <time>2021-01-23T19:39:24Z</time>
      </trkpt>
      <trkpt lat="19.089816" lon="-98.604005">
        <ele>3349.022</ele>
        <time>2021-01-23T19:39:27Z</time>
      </trkpt>
      <trkpt lat="19.089868" lon="-98.603972">
        <ele>3348.873</ele>
        <time>2021-01-23T19:39:31Z</time>
      </trkpt>
      <trkpt lat="19.089918" lon="-98.603938">
        <ele>3348.375</ele>
        <time>2021-01-23T19:39:34Z</time>
      </trkpt>
      <trkpt lat="19.089954" lon="-98.603907">
        <ele>3347.667</ele>
        <time>2021-01-23T19:39:37Z</time>
      </trkpt>
      <trkpt lat="19.089994" lon="-98.603862">
        <ele>3346.810</ele>
        <time>2021-01-23T19:39:40Z</time>
      </trkpt>
      <trkpt lat="19.09003" lon="-98.60382">
        <ele>3346.336</ele>
        <time>2021-01-23T19:39:43Z</time>
      </trkpt>
      <trkpt lat="19.090078" lon="-98.603785">
        <ele>3346.434</ele>
        <time>2021-01-23T19:39:46Z</time>
      </trkpt>
      <trkpt lat="19.090116" lon="-98.603744">
        <ele>3346.952</ele>
        <time>2021-01-23T19:39:49Z</time>
      </trkpt>
      <trkpt lat="19.090151" lon="-98.603709">
        <ele>3346.453</ele>
        <time>2021-01-23T19:39:52Z</time>
      </trkpt>
      <trkpt lat="19.090192" lon="-98.60367">
        <ele>3344.508</ele>
        <time>2021-01-23T19:39:56Z</time>
      </trkpt>
      <trkpt lat="19.090231" lon="-98.603622">
        <ele>3342.608</ele>
        <time>2021-01-23T19:40:01Z</time>
      </trkpt>
      <trkpt lat="19.090276" lon="-98.603599">
        <ele>3341.031</ele>
        <time>2021-01-23T19:40:05Z</time>
      </trkpt>
      <trkpt lat="19.090314" lon="-98.603572">
        <ele>3340.569</ele>
        <time>2021-01-23T19:40:09Z</time>
      </trkpt>
      <trkpt lat="19.09036" lon="-98.603533">
        <ele>3339.880</ele>
        <time>2021-01-23T19:40:14Z</time>
      </trkpt>
      <trkpt lat="19.090407" lon="-98.603498">
        <ele>3339.482</ele>
        <time>2021-01-23T19:40:18Z</time>
      </trkpt>
      <trkpt lat="19.090454" lon="-98.603466">
        <ele>3337.914</ele>
        <time>2021-01-23T19:40:22Z</time>
      </trkpt>
      <trkpt lat="19.090494" lon="-98.603437">
        <ele>3337.437</ele>
        <time>2021-01-23T19:40:26Z</time>
      </trkpt>
      <trkpt lat="19.090542" lon="-98.603423">
        <ele>3337.113</ele>
        <time>2021-01-23T19:40:30Z</time>
      </trkpt>
      <trkpt lat="19.09058" lon="-98.603386">
        <ele>3337.721</ele>
        <time>2021-01-23T19:40:34Z</time>
      </trkpt>
      <trkpt lat="19.090614" lon="-98.603342">
        <ele>3338.969</ele>
        <time>2021-01-23T19:40:38Z</time>
      </trkpt>
      <trkpt lat="19.090645" lon="-98.603301">
        <ele>3339.604</ele>
        <time>2021-01-23T19:40:41Z</time>
      </trkpt>
      <trkpt lat="19.090675" lon="-98.603249">
        <ele>3340.424</ele>
        <time>2021-01-23T19:40:45Z</time>
      </trkpt>
      <trkpt lat="19.090683" lon="-98.603193">
        <ele>3340.908</ele>
        <time>2021-01-23T19:40:52Z</time>
      </trkpt>
      <trkpt lat="19.090699" lon="-98.603132">
        <ele>3341.222</ele>
        <time>2021-01-23T19:40:55Z</time>
      </trkpt>
      <trkpt lat="19.090715" lon="-98.603085">
        <ele>3341.860</ele>
        <time>2021-01-23T19:40:57Z</time>
      </trkpt>
      <trkpt lat="19.090733" lon="-98.603039">
        <ele>3342.541</ele>
        <time>2021-01-23T19:41:01Z</time>
      </trkpt>
    </trkseg>
  </trk>
</gpx>
